<?xml version='1.0' encoding='UTF-8'?><gpx version="1.1" creator="JPX - https://github.com/jenetics/jpx" xmlns="http://www.topografix.com/GPX/1/1"><trk><trkseg><trkpt lat="43.7789588" lon="11.2058475"><ele>40.0</ele><time>2026-04-26T08:03:49.959Z</time></trkpt><trkpt lat="43.7789397" lon="11.2057582"><ele>40.0</ele><time>2026-04-26T08:04:41.958Z</time></trkpt><trkpt lat="43.7789223" lon="11.2058644"><ele>40.0</ele><time>2026-04-26T08:08:17.958Z</time></trkpt><trkpt lat="43.7790015" lon="11.2058669"><ele>40.0</ele><time>2026-04-26T08:11:45.959Z</time></trkpt><trkpt lat="43.7790668" lon="11.2059134"><ele>40.0</ele><time>2026-04-26T08:12:05.958Z</time></trkpt><trkpt lat="43.7791281" lon="11.2059379"><ele>40.0</ele><time>2026-04-26T08:13:02.958Z</time></trkpt><trkpt lat="43.7791912" lon="11.2059861"><ele>40.0</ele><time>2026-04-26T08:13:43.957Z</time></trkpt><trkpt lat="43.7792339" lon="11.2060659"><ele>40.0</ele><time>2026-04-26T08:13:48.958Z</time></trkpt><trkpt lat="43.779304" lon="11.2060903"><ele>40.0</ele><time>2026-04-26T08:13:51.958Z</time></trkpt><trkpt lat="43.7793033" lon="11.2062239"><ele>40.0</ele><time>2026-04-26T08:13:57.958Z</time></trkpt><trkpt lat="43.7792828" lon="11.2063394"><ele>40.0</ele><time>2026-04-26T08:14:00.957Z</time></trkpt><trkpt lat="43.779255" lon="11.2064384"><ele>40.0</ele><time>2026-04-26T08:14:01.958Z</time></trkpt><trkpt lat="43.779227" lon="11.2065293"><ele>40.0</ele><time>2026-04-26T08:14:03.957Z</time></trkpt><trkpt lat="43.7792095" lon="11.2066347"><ele>40.14285714285714</ele><time>2026-04-26T08:14:05.957Z</time></trkpt><trkpt lat="43.7791968" lon="11.2067327"><ele>40.285714285714285</ele><time>2026-04-26T08:14:07.957Z</time></trkpt><trkpt lat="43.7791852" lon="11.2068261"><ele>40.42857142857143</ele><time>2026-04-26T08:14:09.958Z</time></trkpt><trkpt lat="43.7791583" lon="11.2069199"><ele>40.57142857142857</ele><time>2026-04-26T08:14:11.957Z</time></trkpt><trkpt lat="43.7791488" lon="11.2070061"><ele>40.714285714285715</ele><time>2026-04-26T08:14:13.957Z</time></trkpt><trkpt lat="43.779129" lon="11.2071178"><ele>40.857142857142854</ele><time>2026-04-26T08:14:16.957Z</time></trkpt><trkpt lat="43.7791095" lon="11.2072311"><ele>41.0</ele><time>2026-04-26T08:14:19.958Z</time></trkpt><trkpt lat="43.779096" lon="11.2073173"><ele>41.0</ele><time>2026-04-26T08:14:21.958Z</time></trkpt><trkpt lat="43.7790768" lon="11.2074367"><ele>41.0</ele><time>2026-04-26T08:14:24.958Z</time></trkpt><trkpt lat="43.779062" lon="11.2075395"><ele>41.0</ele><time>2026-04-26T08:14:27.957Z</time></trkpt><trkpt lat="43.7790462" lon="11.2076414"><ele>41.0</ele><time>2026-04-26T08:14:30.958Z</time></trkpt><trkpt lat="43.7790253" lon="11.2077488"><ele>41.0</ele><time>2026-04-26T08:14:33.958Z</time></trkpt><trkpt lat="43.779016" lon="11.2078568"><ele>41.0</ele><time>2026-04-26T08:14:36.957Z</time></trkpt><trkpt lat="43.7790141" lon="11.2079727"><ele>41.0</ele><time>2026-04-26T08:14:39.958Z</time></trkpt><trkpt lat="43.7789984" lon="11.2080965"><ele>41.0</ele><time>2026-04-26T08:14:42.958Z</time></trkpt><trkpt lat="43.7789863" lon="11.2082199"><ele>41.0</ele><time>2026-04-26T08:14:45.957Z</time></trkpt><trkpt lat="43.7789848" lon="11.2083373"><ele>41.0</ele><time>2026-04-26T08:14:48.958Z</time></trkpt><trkpt lat="43.7789692" lon="11.2084574"><ele>41.0</ele><time>2026-04-26T08:14:51.958Z</time></trkpt><trkpt lat="43.7789359" lon="11.2085727"><ele>41.0</ele><time>2026-04-26T08:14:54.957Z</time></trkpt><trkpt lat="43.778922" lon="11.2086742"><ele>40.99999999999999</ele><time>2026-04-26T08:14:57.958Z</time></trkpt><trkpt lat="43.7789027" lon="11.2087835"><ele>41.0</ele><time>2026-04-26T08:15:00.958Z</time></trkpt><trkpt lat="43.7788901" lon="11.2088847"><ele>41.0</ele><time>2026-04-26T08:15:03.958Z</time></trkpt><trkpt lat="43.7788677" lon="11.2089734"><ele>41.0</ele><time>2026-04-26T08:15:05.958Z</time></trkpt><trkpt lat="43.7788419" lon="11.2090568"><ele>41.0</ele><time>2026-04-26T08:15:07.957Z</time></trkpt><trkpt lat="43.7788225" lon="11.2091423"><ele>40.99999999999999</ele><time>2026-04-26T08:15:09.957Z</time></trkpt><trkpt lat="43.7788086" lon="11.2092641"><ele>41.0</ele><time>2026-04-26T08:15:12.958Z</time></trkpt><trkpt lat="43.7787952" lon="11.2093505"><ele>41.14285714285714</ele><time>2026-04-26T08:15:14.958Z</time></trkpt><trkpt lat="43.778775" lon="11.2094347"><ele>41.285714285714285</ele><time>2026-04-26T08:15:16.958Z</time></trkpt><trkpt lat="43.7787482" lon="11.2095219"><ele>41.42857142857143</ele><time>2026-04-26T08:15:18.957Z</time></trkpt><trkpt lat="43.7787231" lon="11.2096048"><ele>41.57142857142857</ele><time>2026-04-26T08:15:20.957Z</time></trkpt><trkpt lat="43.7787023" lon="11.2096941"><ele>41.714285714285715</ele><time>2026-04-26T08:15:22.957Z</time></trkpt><trkpt lat="43.7786878" lon="11.2098204"><ele>41.857142857142854</ele><time>2026-04-26T08:15:25.958Z</time></trkpt><trkpt lat="43.7786733" lon="11.2099121"><ele>42.0</ele><time>2026-04-26T08:15:27.958Z</time></trkpt><trkpt lat="43.7786711" lon="11.2100378"><ele>42.0</ele><time>2026-04-26T08:15:30.958Z</time></trkpt><trkpt lat="43.778669" lon="11.2101329"><ele>42.0</ele><time>2026-04-26T08:15:33.957Z</time></trkpt><trkpt lat="43.7786447" lon="11.2102538"><ele>42.0</ele><time>2026-04-26T08:15:36.957Z</time></trkpt><trkpt lat="43.778629" lon="11.2103392"><ele>42.0</ele><time>2026-04-26T08:15:38.958Z</time></trkpt><trkpt lat="43.7786177" lon="11.2104391"><ele>42.0</ele><time>2026-04-26T08:15:40.958Z</time></trkpt><trkpt lat="43.778604" lon="11.2105338"><ele>42.0</ele><time>2026-04-26T08:15:42.957Z</time></trkpt><trkpt lat="43.7785844" lon="11.2106231"><ele>42.0</ele><time>2026-04-26T08:15:44.958Z</time></trkpt><trkpt lat="43.7785626" lon="11.2107069"><ele>42.0</ele><time>2026-04-26T08:15:46.958Z</time></trkpt><trkpt lat="43.7785396" lon="11.2107959"><ele>42.0</ele><time>2026-04-26T08:15:48.958Z</time></trkpt><trkpt lat="43.7785212" lon="11.2108906"><ele>42.0</ele><time>2026-04-26T08:15:50.957Z</time></trkpt><trkpt lat="43.7785084" lon="11.2109814"><ele>42.0</ele><time>2026-04-26T08:15:52.958Z</time></trkpt><trkpt lat="43.7784895" lon="11.2110775"><ele>42.0</ele><time>2026-04-26T08:15:54.958Z</time></trkpt><trkpt lat="43.7784694" lon="11.211169"><ele>42.0</ele><time>2026-04-26T08:15:56.957Z</time></trkpt><trkpt lat="43.7784469" lon="11.2112647"><ele>42.0</ele><time>2026-04-26T08:15:58.958Z</time></trkpt><trkpt lat="43.7784185" lon="11.2113628"><ele>42.142857142857146</ele><time>2026-04-26T08:16:00.958Z</time></trkpt><trkpt lat="43.7783938" lon="11.2114533"><ele>42.285714285714285</ele><time>2026-04-26T08:16:02.957Z</time></trkpt><trkpt lat="43.77838" lon="11.2115483"><ele>42.42857142857143</ele><time>2026-04-26T08:16:04.957Z</time></trkpt><trkpt lat="43.7783656" lon="11.2116423"><ele>42.57142857142857</ele><time>2026-04-26T08:16:06.958Z</time></trkpt><trkpt lat="43.7783496" lon="11.2117353"><ele>42.714285714285715</ele><time>2026-04-26T08:16:08.958Z</time></trkpt><trkpt lat="43.7783348" lon="11.2118238"><ele>42.85714285714286</ele><time>2026-04-26T08:16:10.957Z</time></trkpt><trkpt lat="43.778316" lon="11.2119078"><ele>43.0</ele><time>2026-04-26T08:16:12.958Z</time></trkpt><trkpt lat="43.7782985" lon="11.2120015"><ele>43.00000000000001</ele><time>2026-04-26T08:16:14.956Z</time></trkpt><trkpt lat="43.7782788" lon="11.2121056"><ele>43.0</ele><time>2026-04-26T08:16:16.958Z</time></trkpt><trkpt lat="43.7782527" lon="11.2121995"><ele>43.0</ele><time>2026-04-26T08:16:18.958Z</time></trkpt><trkpt lat="43.7782245" lon="11.212288"><ele>43.0</ele><time>2026-04-26T08:16:20.958Z</time></trkpt><trkpt lat="43.7781936" lon="11.2123703"><ele>43.0</ele><time>2026-04-26T08:16:22.957Z</time></trkpt><trkpt lat="43.7781578" lon="11.2124502"><ele>43.00000000000001</ele><time>2026-04-26T08:16:24.957Z</time></trkpt><trkpt lat="43.7780684" lon="11.2124654"><ele>43.0</ele><time>2026-04-26T08:16:27.958Z</time></trkpt><trkpt lat="43.778005" lon="11.2123918"><ele>43.00000000000001</ele><time>2026-04-26T08:16:29.959Z</time></trkpt><trkpt lat="43.7779313" lon="11.2123109"><ele>43.0</ele><time>2026-04-26T08:16:31.959Z</time></trkpt><trkpt lat="43.7778587" lon="11.2122517"><ele>43.0</ele><time>2026-04-26T08:16:33.958Z</time></trkpt><trkpt lat="43.7777915" lon="11.2121989"><ele>43.0</ele><time>2026-04-26T08:16:35.958Z</time></trkpt><trkpt lat="43.7777339" lon="11.2121606"><ele>43.0</ele><time>2026-04-26T08:16:37.957Z</time></trkpt><trkpt lat="43.7776768" lon="11.2121205"><ele>43.00000000000001</ele><time>2026-04-26T08:16:39.958Z</time></trkpt><trkpt lat="43.7776202" lon="11.2120774"><ele>43.0</ele><time>2026-04-26T08:16:41.959Z</time></trkpt><trkpt lat="43.7775588" lon="11.212033"><ele>43.28571428571429</ele><time>2026-04-26T08:16:43.958Z</time></trkpt><trkpt lat="43.777497" lon="11.2119859"><ele>43.57142857142857</ele><time>2026-04-26T08:16:45.957Z</time></trkpt><trkpt lat="43.7774385" lon="11.2119391"><ele>43.85714285714286</ele><time>2026-04-26T08:16:47.958Z</time></trkpt><trkpt lat="43.7773707" lon="11.2118757"><ele>44.142857142857146</ele><time>2026-04-26T08:16:50.958Z</time></trkpt><trkpt lat="43.7773184" lon="11.211817"><ele>44.42857142857143</ele><time>2026-04-26T08:16:52.959Z</time></trkpt><trkpt lat="43.7772617" lon="11.2117634"><ele>44.714285714285715</ele><time>2026-04-26T08:16:54.96Z</time></trkpt><trkpt lat="43.7772055" lon="11.211716"><ele>45.0</ele><time>2026-04-26T08:16:56.959Z</time></trkpt><trkpt lat="43.7771275" lon="11.2116466"><ele>45.0</ele><time>2026-04-26T08:16:59.958Z</time></trkpt><trkpt lat="43.7770694" lon="11.2116028"><ele>45.0</ele><time>2026-04-26T08:17:01.958Z</time></trkpt><trkpt lat="43.7770132" lon="11.2115531"><ele>45.0</ele><time>2026-04-26T08:17:03.958Z</time></trkpt><trkpt lat="43.7769601" lon="11.2115033"><ele>45.0</ele><time>2026-04-26T08:17:05.957Z</time></trkpt><trkpt lat="43.7768743" lon="11.2114534"><ele>45.0</ele><time>2026-04-26T08:17:08.958Z</time></trkpt><trkpt lat="43.7768062" lon="11.2114185"><ele>45.0</ele><time>2026-04-26T08:17:10.958Z</time></trkpt><trkpt lat="43.7767364" lon="11.2113738"><ele>45.0</ele><time>2026-04-26T08:17:12.958Z</time></trkpt><trkpt lat="43.7766667" lon="11.2113312"><ele>44.857142857142854</ele><time>2026-04-26T08:17:14.96Z</time></trkpt><trkpt lat="43.7766019" lon="11.2112907"><ele>44.714285714285715</ele><time>2026-04-26T08:17:16.958Z</time></trkpt><trkpt lat="43.7765405" lon="11.2112427"><ele>44.57142857142857</ele><time>2026-04-26T08:17:18.958Z</time></trkpt><trkpt lat="43.7764828" lon="11.2111941"><ele>44.42857142857143</ele><time>2026-04-26T08:17:20.959Z</time></trkpt><trkpt lat="43.776425" lon="11.2111437"><ele>44.285714285714285</ele><time>2026-04-26T08:17:22.958Z</time></trkpt><trkpt lat="43.7763669" lon="11.2110975"><ele>44.142857142857146</ele><time>2026-04-26T08:17:24.957Z</time></trkpt><trkpt lat="43.7763132" lon="11.2110501"><ele>44.0</ele><time>2026-04-26T08:17:26.958Z</time></trkpt><trkpt lat="43.7762478" lon="11.2109841"><ele>44.0</ele><time>2026-04-26T08:17:29.957Z</time></trkpt><trkpt lat="43.7761951" lon="11.2109345"><ele>44.0</ele><time>2026-04-26T08:17:31.959Z</time></trkpt><trkpt lat="43.7761304" lon="11.2108849"><ele>44.0</ele><time>2026-04-26T08:17:33.958Z</time></trkpt><trkpt lat="43.7760677" lon="11.2108597"><ele>44.0</ele><time>2026-04-26T08:17:35.958Z</time></trkpt><trkpt lat="43.7760067" lon="11.2108131"><ele>44.0</ele><time>2026-04-26T08:17:37.957Z</time></trkpt><trkpt lat="43.7759577" lon="11.2107442"><ele>44.0</ele><time>2026-04-26T08:17:39.958Z</time></trkpt><trkpt lat="43.7759024" lon="11.2106869"><ele>44.0</ele><time>2026-04-26T08:17:41.957Z</time></trkpt><trkpt lat="43.7758384" lon="11.2106494"><ele>43.57142857142857</ele><time>2026-04-26T08:17:43.959Z</time></trkpt><trkpt lat="43.7757763" lon="11.2106099"><ele>43.14285714285714</ele><time>2026-04-26T08:17:45.958Z</time></trkpt><trkpt lat="43.7757153" lon="11.2105688"><ele>42.71428571428571</ele><time>2026-04-26T08:17:47.958Z</time></trkpt><trkpt lat="43.7756322" lon="11.2105055"><ele>42.285714285714285</ele><time>2026-04-26T08:17:50.958Z</time></trkpt><trkpt lat="43.7755673" lon="11.2104592"><ele>41.857142857142854</ele><time>2026-04-26T08:17:52.958Z</time></trkpt><trkpt lat="43.7755075" lon="11.2104152"><ele>41.42857142857142</ele><time>2026-04-26T08:17:54.957Z</time></trkpt><trkpt lat="43.7754488" lon="11.210372"><ele>41.0</ele><time>2026-04-26T08:17:56.957Z</time></trkpt><trkpt lat="43.7753818" lon="11.2103265"><ele>41.0</ele><time>2026-04-26T08:17:59.959Z</time></trkpt><trkpt lat="43.7753147" lon="11.2102979"><ele>41.0</ele><time>2026-04-26T08:19:22.958Z</time></trkpt><trkpt lat="43.7752419" lon="11.2102514"><ele>41.0</ele><time>2026-04-26T08:19:25.958Z</time></trkpt><trkpt lat="43.7751715" lon="11.210191"><ele>41.0</ele><time>2026-04-26T08:19:28.957Z</time></trkpt><trkpt lat="43.7751023" lon="11.2101118"><ele>41.0</ele><time>2026-04-26T08:19:31.957Z</time></trkpt><trkpt lat="43.7750267" lon="11.2100394"><ele>41.0</ele><time>2026-04-26T08:19:34.958Z</time></trkpt><trkpt lat="43.7749751" lon="11.2099886"><ele>40.857142857142854</ele><time>2026-04-26T08:19:36.958Z</time></trkpt><trkpt lat="43.774918" lon="11.2099342"><ele>40.714285714285715</ele><time>2026-04-26T08:19:38.958Z</time></trkpt><trkpt lat="43.7748558" lon="11.20988"><ele>40.57142857142857</ele><time>2026-04-26T08:19:40.958Z</time></trkpt><trkpt lat="43.7747976" lon="11.209823"><ele>40.42857142857143</ele><time>2026-04-26T08:19:42.957Z</time></trkpt><trkpt lat="43.7747409" lon="11.2097708"><ele>40.285714285714285</ele><time>2026-04-26T08:19:44.958Z</time></trkpt><trkpt lat="43.7746804" lon="11.209713"><ele>40.14285714285714</ele><time>2026-04-26T08:19:46.957Z</time></trkpt><trkpt lat="43.7746189" lon="11.2096455"><ele>40.0</ele><time>2026-04-26T08:19:48.959Z</time></trkpt><trkpt lat="43.7745533" lon="11.2095766"><ele>40.0</ele><time>2026-04-26T08:19:50.958Z</time></trkpt><trkpt lat="43.7744887" lon="11.2095072"><ele>40.0</ele><time>2026-04-26T08:19:52.958Z</time></trkpt><trkpt lat="43.7744261" lon="11.2094389"><ele>40.0</ele><time>2026-04-26T08:19:54.958Z</time></trkpt><trkpt lat="43.7743658" lon="11.209367"><ele>40.0</ele><time>2026-04-26T08:19:56.958Z</time></trkpt><trkpt lat="43.7743239" lon="11.2092692"><ele>40.0</ele><time>2026-04-26T08:19:58.956Z</time></trkpt><trkpt lat="43.7742638" lon="11.2091676"><ele>40.0</ele><time>2026-04-26T08:20:01.958Z</time></trkpt><trkpt lat="43.7741924" lon="11.2091129"><ele>40.0</ele><time>2026-04-26T08:20:03.957Z</time></trkpt><trkpt lat="43.7741185" lon="11.2090523"><ele>40.0</ele><time>2026-04-26T08:20:05.958Z</time></trkpt><trkpt lat="43.7740482" lon="11.2089882"><ele>40.0</ele><time>2026-04-26T08:20:07.957Z</time></trkpt><trkpt lat="43.7739842" lon="11.2089261"><ele>40.0</ele><time>2026-04-26T08:20:09.958Z</time></trkpt><trkpt lat="43.7739268" lon="11.2088719"><ele>40.0</ele><time>2026-04-26T08:20:11.958Z</time></trkpt><trkpt lat="43.773863" lon="11.2088157"><ele>40.0</ele><time>2026-04-26T08:20:13.958Z</time></trkpt><trkpt lat="43.7737963" lon="11.208756"><ele>40.333333333333336</ele><time>2026-04-26T08:20:15.957Z</time></trkpt><trkpt lat="43.7737239" lon="11.2087092"><ele>40.66666666666667</ele><time>2026-04-26T08:20:17.958Z</time></trkpt><trkpt lat="43.7736542" lon="11.2086872"><ele>41.0</ele><time>2026-04-26T08:20:19.958Z</time></trkpt><trkpt lat="43.7735913" lon="11.2086421"><ele>41.333333333333336</ele><time>2026-04-26T08:20:21.957Z</time></trkpt><trkpt lat="43.7735325" lon="11.208569"><ele>41.666666666666664</ele><time>2026-04-26T08:20:23.958Z</time></trkpt><trkpt lat="43.7734739" lon="11.2084957"><ele>42.0</ele><time>2026-04-26T08:20:25.957Z</time></trkpt><trkpt lat="43.7734155" lon="11.2084264"><ele>42.0</ele><time>2026-04-26T08:20:27.957Z</time></trkpt><trkpt lat="43.7733562" lon="11.2083591"><ele>42.0</ele><time>2026-04-26T08:20:29.958Z</time></trkpt><trkpt lat="43.7733075" lon="11.2082904"><ele>42.0</ele><time>2026-04-26T08:20:31.957Z</time></trkpt><trkpt lat="43.773266" lon="11.2081989"><ele>42.0</ele><time>2026-04-26T08:20:33.958Z</time></trkpt><trkpt lat="43.773223" lon="11.2081119"><ele>42.0</ele><time>2026-04-26T08:20:35.957Z</time></trkpt><trkpt lat="43.7732023" lon="11.2080164"><ele>42.0</ele><time>2026-04-26T08:20:37.957Z</time></trkpt><trkpt lat="43.7731974" lon="11.2079146"><ele>42.0</ele><time>2026-04-26T08:20:39.958Z</time></trkpt><trkpt lat="43.7731787" lon="11.2078207"><ele>42.833333333333336</ele><time>2026-04-26T08:20:41.958Z</time></trkpt><trkpt lat="43.7731391" lon="11.2077405"><ele>43.666666666666664</ele><time>2026-04-26T08:20:43.958Z</time></trkpt><trkpt lat="43.7730879" lon="11.2076593"><ele>44.5</ele><time>2026-04-26T08:20:46.957Z</time></trkpt><trkpt lat="43.7730202" lon="11.2076613"><ele>45.33333333333333</ele><time>2026-04-26T08:20:49.957Z</time></trkpt><trkpt lat="43.7729505" lon="11.2076778"><ele>46.166666666666664</ele><time>2026-04-26T08:20:52.958Z</time></trkpt><trkpt lat="43.7729494" lon="11.2075722"><ele>47.0</ele><time>2026-04-26T08:20:56.958Z</time></trkpt><trkpt lat="43.7729679" lon="11.2074545"><ele>47.0</ele><time>2026-04-26T08:20:59.958Z</time></trkpt><trkpt lat="43.7729704" lon="11.2073349"><ele>47.0</ele><time>2026-04-26T08:21:02.958Z</time></trkpt><trkpt lat="43.7729459" lon="11.2072122"><ele>47.0</ele><time>2026-04-26T08:21:05.959Z</time></trkpt><trkpt lat="43.7729233" lon="11.2071245"><ele>47.0</ele><time>2026-04-26T08:21:07.958Z</time></trkpt><trkpt lat="43.7729198" lon="11.2070311"><ele>47.0</ele><time>2026-04-26T08:21:09.956Z</time></trkpt><trkpt lat="43.7729175" lon="11.206938"><ele>47.0</ele><time>2026-04-26T08:21:11.957Z</time></trkpt><trkpt lat="43.7729098" lon="11.2068149"><ele>47.0</ele><time>2026-04-26T08:21:14.957Z</time></trkpt><trkpt lat="43.7729045" lon="11.2067243"><ele>47.0</ele><time>2026-04-26T08:21:17.957Z</time></trkpt><trkpt lat="43.7729057" lon="11.2066226"><ele>47.0</ele><time>2026-04-26T08:21:20.958Z</time></trkpt><trkpt lat="43.7729079" lon="11.2065322"><ele>47.0</ele><time>2026-04-26T08:21:23.958Z</time></trkpt><trkpt lat="43.7729249" lon="11.206411"><ele>47.0</ele><time>2026-04-26T08:21:26.958Z</time></trkpt><trkpt lat="43.7726987" lon="11.2067128"><ele>46.166666666666664</ele><time>2026-04-26T08:21:40.957Z</time></trkpt><trkpt lat="43.7726235" lon="11.2068211"><ele>45.33333333333333</ele><time>2026-04-26T08:21:42.957Z</time></trkpt><trkpt lat="43.7725462" lon="11.2069014"><ele>44.5</ele><time>2026-04-26T08:21:44.958Z</time></trkpt><trkpt lat="43.7724781" lon="11.2069644"><ele>43.666666666666664</ele><time>2026-04-26T08:21:46.958Z</time></trkpt><trkpt lat="43.7724306" lon="11.2070288"><ele>42.833333333333336</ele><time>2026-04-26T08:21:48.958Z</time></trkpt><trkpt lat="43.7723784" lon="11.2070999"><ele>42.0</ele><time>2026-04-26T08:21:50.958Z</time></trkpt><trkpt lat="43.772325" lon="11.2071575"><ele>42.0</ele><time>2026-04-26T08:21:52.958Z</time></trkpt><trkpt lat="43.7722478" lon="11.2072183"><ele>42.0</ele><time>2026-04-26T08:21:55.959Z</time></trkpt><trkpt lat="43.772155" lon="11.2072062"><ele>42.0</ele><time>2026-04-26T08:21:58.957Z</time></trkpt><trkpt lat="43.7720935" lon="11.2071323"><ele>42.0</ele><time>2026-04-26T08:22:00.956Z</time></trkpt><trkpt lat="43.7720311" lon="11.2070526"><ele>42.0</ele><time>2026-04-26T08:22:02.956Z</time></trkpt><trkpt lat="43.771966" lon="11.2069835"><ele>42.0</ele><time>2026-04-26T08:22:04.957Z</time></trkpt><trkpt lat="43.7718894" lon="11.2069398"><ele>41.833333333333336</ele><time>2026-04-26T08:22:06.956Z</time></trkpt><trkpt lat="43.771811" lon="11.2069083"><ele>41.666666666666664</ele><time>2026-04-26T08:22:08.958Z</time></trkpt><trkpt lat="43.7717337" lon="11.206874"><ele>41.5</ele><time>2026-04-26T08:22:10.958Z</time></trkpt><trkpt lat="43.7716566" lon="11.2068454"><ele>41.33333333333333</ele><time>2026-04-26T08:22:12.957Z</time></trkpt><trkpt lat="43.7715773" lon="11.2068113"><ele>41.166666666666664</ele><time>2026-04-26T08:22:14.957Z</time></trkpt><trkpt lat="43.7715005" lon="11.2067767"><ele>41.0</ele><time>2026-04-26T08:22:16.958Z</time></trkpt><trkpt lat="43.7714309" lon="11.2067413"><ele>41.0</ele><time>2026-04-26T08:22:18.957Z</time></trkpt><trkpt lat="43.7713699" lon="11.2067114"><ele>41.0</ele><time>2026-04-26T08:22:20.957Z</time></trkpt><trkpt lat="43.7712948" lon="11.2066824"><ele>41.0</ele><time>2026-04-26T08:22:22.956Z</time></trkpt><trkpt lat="43.7712208" lon="11.2066466"><ele>41.0</ele><time>2026-04-26T08:22:24.956Z</time></trkpt><trkpt lat="43.77114" lon="11.2066086"><ele>41.0</ele><time>2026-04-26T08:22:26.957Z</time></trkpt><trkpt lat="43.7710618" lon="11.2065702"><ele>41.0</ele><time>2026-04-26T08:22:28.956Z</time></trkpt><trkpt lat="43.7709875" lon="11.2065331"><ele>41.0</ele><time>2026-04-26T08:22:30.957Z</time></trkpt><trkpt lat="43.7709141" lon="11.2065061"><ele>41.0</ele><time>2026-04-26T08:22:32.958Z</time></trkpt><trkpt lat="43.7708263" lon="11.206483"><ele>41.0</ele><time>2026-04-26T08:22:34.957Z</time></trkpt><trkpt lat="43.7707433" lon="11.2064495"><ele>41.0</ele><time>2026-04-26T08:22:36.958Z</time></trkpt><trkpt lat="43.7706646" lon="11.206416"><ele>41.0</ele><time>2026-04-26T08:22:38.958Z</time></trkpt><trkpt lat="43.7705849" lon="11.2063838"><ele>41.0</ele><time>2026-04-26T08:22:40.958Z</time></trkpt><trkpt lat="43.7705043" lon="11.2063523"><ele>41.0</ele><time>2026-04-26T08:22:42.957Z</time></trkpt><trkpt lat="43.7704276" lon="11.206325"><ele>41.0</ele><time>2026-04-26T08:22:44.957Z</time></trkpt><trkpt lat="43.7703551" lon="11.2062964"><ele>41.0</ele><time>2026-04-26T08:22:46.958Z</time></trkpt><trkpt lat="43.7702871" lon="11.2062678"><ele>41.0</ele><time>2026-04-26T08:22:48.957Z</time></trkpt><trkpt lat="43.7702031" lon="11.2062343"><ele>41.0</ele><time>2026-04-26T08:22:51.959Z</time></trkpt><trkpt lat="43.770134" lon="11.2062112"><ele>41.0</ele><time>2026-04-26T08:23:16.957Z</time></trkpt><trkpt lat="43.7700651" lon="11.2061829"><ele>41.14285714285714</ele><time>2026-04-26T08:23:20.958Z</time></trkpt><trkpt lat="43.769998" lon="11.2061447"><ele>41.285714285714285</ele><time>2026-04-26T08:23:25.958Z</time></trkpt><trkpt lat="43.7699258" lon="11.2061352"><ele>41.42857142857143</ele><time>2026-04-26T08:23:30.958Z</time></trkpt><trkpt lat="43.7698552" lon="11.2061129"><ele>41.57142857142857</ele><time>2026-04-26T08:23:33.958Z</time></trkpt><trkpt lat="43.7697929" lon="11.2060915"><ele>41.714285714285715</ele><time>2026-04-26T08:23:35.958Z</time></trkpt><trkpt lat="43.7697064" lon="11.206058"><ele>41.857142857142854</ele><time>2026-04-26T08:23:38.957Z</time></trkpt><trkpt lat="43.7696418" lon="11.2060476"><ele>42.0</ele><time>2026-04-26T08:23:40.957Z</time></trkpt><trkpt lat="43.7695601" lon="11.2060297"><ele>42.0</ele><time>2026-04-26T08:23:43.956Z</time></trkpt><trkpt lat="43.7694754" lon="11.2060183"><ele>42.0</ele><time>2026-04-26T08:23:48.957Z</time></trkpt><trkpt lat="43.7694023" lon="11.2060004"><ele>42.0</ele><time>2026-04-26T08:23:51.956Z</time></trkpt><trkpt lat="43.76934" lon="11.2059741"><ele>42.0</ele><time>2026-04-26T08:23:53.957Z</time></trkpt><trkpt lat="43.7692558" lon="11.2059481"><ele>42.0</ele><time>2026-04-26T08:23:55.957Z</time></trkpt><trkpt lat="43.7691739" lon="11.2059186"><ele>42.0</ele><time>2026-04-26T08:23:57.956Z</time></trkpt><trkpt lat="43.7690986" lon="11.2058914"><ele>42.0</ele><time>2026-04-26T08:23:59.956Z</time></trkpt><trkpt lat="43.7690244" lon="11.2058635"><ele>42.0</ele><time>2026-04-26T08:24:01.955Z</time></trkpt><trkpt lat="43.7689526" lon="11.2058364"><ele>42.0</ele><time>2026-04-26T08:24:03.957Z</time></trkpt><trkpt lat="43.7688854" lon="11.2058106"><ele>42.0</ele><time>2026-04-26T08:24:05.956Z</time></trkpt><trkpt lat="43.7688156" lon="11.2057799"><ele>42.0</ele><time>2026-04-26T08:24:07.956Z</time></trkpt><trkpt lat="43.7687423" lon="11.2057458"><ele>42.0</ele><time>2026-04-26T08:24:09.958Z</time></trkpt><trkpt lat="43.7686769" lon="11.205704"><ele>42.0</ele><time>2026-04-26T08:24:11.958Z</time></trkpt><trkpt lat="43.7686158" lon="11.2056588"><ele>41.857142857142854</ele><time>2026-04-26T08:24:13.956Z</time></trkpt><trkpt lat="43.7685477" lon="11.2056335"><ele>41.714285714285715</ele><time>2026-04-26T08:24:15.957Z</time></trkpt><trkpt lat="43.7684752" lon="11.205582"><ele>41.57142857142857</ele><time>2026-04-26T08:24:20.957Z</time></trkpt><trkpt lat="43.7684185" lon="11.2055307"><ele>41.42857142857143</ele><time>2026-04-26T08:24:25.957Z</time></trkpt><trkpt lat="43.7684403" lon="11.2054315"><ele>41.285714285714285</ele><time>2026-04-26T08:24:30.955Z</time></trkpt><trkpt lat="43.7684705" lon="11.2053322"><ele>41.14285714285714</ele><time>2026-04-26T08:24:34.956Z</time></trkpt><trkpt lat="43.7685005" lon="11.2052525"><ele>41.0</ele><time>2026-04-26T08:24:37.957Z</time></trkpt><trkpt lat="43.7685381" lon="11.2051625"><ele>41.0</ele><time>2026-04-26T08:24:41.958Z</time></trkpt><trkpt lat="43.7685764" lon="11.2050541"><ele>41.0</ele><time>2026-04-26T08:24:44.957Z</time></trkpt><trkpt lat="43.7685892" lon="11.2049293"><ele>41.0</ele><time>2026-04-26T08:24:47.958Z</time></trkpt><trkpt lat="43.7686221" lon="11.2048488"><ele>41.0</ele><time>2026-04-26T08:24:49.958Z</time></trkpt><trkpt lat="43.7686598" lon="11.2047664"><ele>41.0</ele><time>2026-04-26T08:24:51.957Z</time></trkpt><trkpt lat="43.7686955" lon="11.2046797"><ele>41.0</ele><time>2026-04-26T08:24:53.956Z</time></trkpt><trkpt lat="43.7687234" lon="11.2045912"><ele>41.166666666666664</ele><time>2026-04-26T08:24:55.958Z</time></trkpt><trkpt lat="43.7687431" lon="11.2045001"><ele>41.33333333333333</ele><time>2026-04-26T08:24:57.957Z</time></trkpt><trkpt lat="43.7687628" lon="11.2043742"><ele>41.5</ele><time>2026-04-26T08:25:00.957Z</time></trkpt><trkpt lat="43.7687478" lon="11.2042399"><ele>41.666666666666664</ele><time>2026-04-26T08:25:03.956Z</time></trkpt><trkpt lat="43.7687226" lon="11.2041364"><ele>41.833333333333336</ele><time>2026-04-26T08:25:06.956Z</time></trkpt><trkpt lat="43.7687135" lon="11.2040346"><ele>42.0</ele><time>2026-04-26T08:25:12.956Z</time></trkpt><trkpt lat="43.7686348" lon="11.2040014"><ele>42.0</ele><time>2026-04-26T08:25:16.957Z</time></trkpt><trkpt lat="43.7685635" lon="11.2040051"><ele>42.0</ele><time>2026-04-26T08:25:18.957Z</time></trkpt><trkpt lat="43.7684894" lon="11.2039741"><ele>42.0</ele><time>2026-04-26T08:25:20.956Z</time></trkpt><trkpt lat="43.7684163" lon="11.2039222"><ele>42.0</ele><time>2026-04-26T08:25:22.957Z</time></trkpt><trkpt lat="43.768343" lon="11.2038711"><ele>42.0</ele><time>2026-04-26T08:25:24.957Z</time></trkpt><trkpt lat="43.7682659" lon="11.2038195"><ele>42.0</ele><time>2026-04-26T08:25:26.957Z</time></trkpt><trkpt lat="43.7681923" lon="11.2037641"><ele>42.166666666666664</ele><time>2026-04-26T08:25:28.956Z</time></trkpt><trkpt lat="43.7681247" lon="11.203699"><ele>42.333333333333336</ele><time>2026-04-26T08:25:30.957Z</time></trkpt><trkpt lat="43.7680581" lon="11.2036313"><ele>42.5</ele><time>2026-04-26T08:25:32.957Z</time></trkpt><trkpt lat="43.7679967" lon="11.203577"><ele>42.66666666666667</ele><time>2026-04-26T08:25:34.956Z</time></trkpt><trkpt lat="43.7679279" lon="11.2035157"><ele>42.833333333333336</ele><time>2026-04-26T08:25:36.957Z</time></trkpt><trkpt lat="43.7678703" lon="11.2034403"><ele>43.0</ele><time>2026-04-26T08:25:38.957Z</time></trkpt><trkpt lat="43.7678069" lon="11.2033653"><ele>43.0</ele><time>2026-04-26T08:25:40.956Z</time></trkpt><trkpt lat="43.7677476" lon="11.2032972"><ele>43.0</ele><time>2026-04-26T08:25:42.957Z</time></trkpt><trkpt lat="43.7676846" lon="11.203228"><ele>43.0</ele><time>2026-04-26T08:25:44.957Z</time></trkpt><trkpt lat="43.7676187" lon="11.2031655"><ele>43.0</ele><time>2026-04-26T08:25:46.955Z</time></trkpt><trkpt lat="43.7675549" lon="11.2031109"><ele>43.0</ele><time>2026-04-26T08:25:48.957Z</time></trkpt><trkpt lat="43.7674935" lon="11.2030539"><ele>43.0</ele><time>2026-04-26T08:25:50.956Z</time></trkpt><trkpt lat="43.7674313" lon="11.2030025"><ele>43.0</ele><time>2026-04-26T08:25:52.957Z</time></trkpt><trkpt lat="43.7673636" lon="11.2029552"><ele>43.0</ele><time>2026-04-26T08:25:54.956Z</time></trkpt><trkpt lat="43.7673004" lon="11.202904"><ele>43.0</ele><time>2026-04-26T08:25:56.957Z</time></trkpt><trkpt lat="43.7672333" lon="11.2028473"><ele>43.0</ele><time>2026-04-26T08:25:58.956Z</time></trkpt><trkpt lat="43.7671681" lon="11.2027884"><ele>43.0</ele><time>2026-04-26T08:26:00.957Z</time></trkpt><trkpt lat="43.7671037" lon="11.2027295"><ele>43.0</ele><time>2026-04-26T08:26:02.957Z</time></trkpt><trkpt lat="43.7670358" lon="11.2026731"><ele>43.00000000000001</ele><time>2026-04-26T08:26:04.955Z</time></trkpt><trkpt lat="43.7669734" lon="11.2026215"><ele>43.0</ele><time>2026-04-26T08:26:06.957Z</time></trkpt><trkpt lat="43.7669191" lon="11.2025624"><ele>43.0</ele><time>2026-04-26T08:26:08.957Z</time></trkpt><trkpt lat="43.7668659" lon="11.2024971"><ele>43.0</ele><time>2026-04-26T08:26:10.957Z</time></trkpt><trkpt lat="43.7668159" lon="11.2024422"><ele>43.0</ele><time>2026-04-26T08:26:12.956Z</time></trkpt><trkpt lat="43.7667541" lon="11.2023902"><ele>43.00000000000001</ele><time>2026-04-26T08:26:14.957Z</time></trkpt><trkpt lat="43.76669" lon="11.2023331"><ele>43.0</ele><time>2026-04-26T08:26:16.956Z</time></trkpt><trkpt lat="43.7666232" lon="11.202277"><ele>42.66666666666667</ele><time>2026-04-26T08:26:18.957Z</time></trkpt><trkpt lat="43.7665532" lon="11.2022206"><ele>42.333333333333336</ele><time>2026-04-26T08:26:20.955Z</time></trkpt><trkpt lat="43.7664821" lon="11.2021664"><ele>42.0</ele><time>2026-04-26T08:26:22.957Z</time></trkpt><trkpt lat="43.7664119" lon="11.2021122"><ele>41.666666666666664</ele><time>2026-04-26T08:26:24.957Z</time></trkpt><trkpt lat="43.7663433" lon="11.2020536"><ele>41.33333333333333</ele><time>2026-04-26T08:26:26.957Z</time></trkpt><trkpt lat="43.766272" lon="11.2019899"><ele>41.0</ele><time>2026-04-26T08:26:28.957Z</time></trkpt><trkpt lat="43.766204" lon="11.2019289"><ele>41.0</ele><time>2026-04-26T08:26:30.956Z</time></trkpt><trkpt lat="43.7661362" lon="11.2018611"><ele>41.0</ele><time>2026-04-26T08:26:32.956Z</time></trkpt><trkpt lat="43.7660718" lon="11.2017952"><ele>41.0</ele><time>2026-04-26T08:26:34.956Z</time></trkpt><trkpt lat="43.7660084" lon="11.2017236"><ele>41.0</ele><time>2026-04-26T08:26:36.956Z</time></trkpt><trkpt lat="43.7659452" lon="11.2016572"><ele>41.0</ele><time>2026-04-26T08:26:38.957Z</time></trkpt><trkpt lat="43.7658762" lon="11.2016058"><ele>41.0</ele><time>2026-04-26T08:26:40.956Z</time></trkpt><trkpt lat="43.765807" lon="11.2015508"><ele>41.166666666666664</ele><time>2026-04-26T08:26:42.957Z</time></trkpt><trkpt lat="43.765742" lon="11.2014885"><ele>41.33333333333333</ele><time>2026-04-26T08:26:44.957Z</time></trkpt><trkpt lat="43.7656769" lon="11.201429"><ele>41.5</ele><time>2026-04-26T08:26:46.956Z</time></trkpt><trkpt lat="43.7656121" lon="11.201365"><ele>41.666666666666664</ele><time>2026-04-26T08:26:48.957Z</time></trkpt><trkpt lat="43.7655458" lon="11.2013058"><ele>41.833333333333336</ele><time>2026-04-26T08:26:50.955Z</time></trkpt><trkpt lat="43.7654773" lon="11.2012465"><ele>42.0</ele><time>2026-04-26T08:26:52.956Z</time></trkpt><trkpt lat="43.7654096" lon="11.2011829"><ele>42.0</ele><time>2026-04-26T08:26:54.957Z</time></trkpt><trkpt lat="43.7653442" lon="11.2011224"><ele>42.0</ele><time>2026-04-26T08:26:56.956Z</time></trkpt><trkpt lat="43.7652764" lon="11.2010549"><ele>42.0</ele><time>2026-04-26T08:26:58.956Z</time></trkpt><trkpt lat="43.7652139" lon="11.2009948"><ele>42.0</ele><time>2026-04-26T08:27:00.957Z</time></trkpt><trkpt lat="43.7651532" lon="11.2009346"><ele>42.0</ele><time>2026-04-26T08:27:02.957Z</time></trkpt><trkpt lat="43.7650846" lon="11.2008706"><ele>42.0</ele><time>2026-04-26T08:27:04.957Z</time></trkpt><trkpt lat="43.765013" lon="11.2008206"><ele>42.0</ele><time>2026-04-26T08:27:06.957Z</time></trkpt><trkpt lat="43.7649396" lon="11.2007676"><ele>42.0</ele><time>2026-04-26T08:27:08.956Z</time></trkpt><trkpt lat="43.7648771" lon="11.2007128"><ele>42.0</ele><time>2026-04-26T08:27:10.956Z</time></trkpt><trkpt lat="43.7648229" lon="11.2006598"><ele>42.0</ele><time>2026-04-26T08:27:12.956Z</time></trkpt><trkpt lat="43.7647673" lon="11.2006058"><ele>42.0</ele><time>2026-04-26T08:27:14.957Z</time></trkpt><trkpt lat="43.7647118" lon="11.2005578"><ele>42.0</ele><time>2026-04-26T08:27:16.956Z</time></trkpt><trkpt lat="43.7646716" lon="11.2004525"><ele>42.0</ele><time>2026-04-26T08:27:19.957Z</time></trkpt><trkpt lat="43.7646558" lon="11.2003625"><ele>41.833333333333336</ele><time>2026-04-26T08:27:21.957Z</time></trkpt><trkpt lat="43.7646363" lon="11.2002463"><ele>41.666666666666664</ele><time>2026-04-26T08:27:24.957Z</time></trkpt><trkpt lat="43.7646144" lon="11.2001446"><ele>41.5</ele><time>2026-04-26T08:27:28.957Z</time></trkpt><trkpt lat="43.7646395" lon="11.2000197"><ele>41.33333333333333</ele><time>2026-04-26T08:27:31.955Z</time></trkpt><trkpt lat="43.7646657" lon="11.1999398"><ele>41.166666666666664</ele><time>2026-04-26T08:27:33.957Z</time></trkpt><trkpt lat="43.764722" lon="11.1998577"><ele>41.0</ele><time>2026-04-26T08:27:37.957Z</time></trkpt><trkpt lat="43.7647528" lon="11.1997793"><ele>40.599999999999994</ele><time>2026-04-26T08:27:40.956Z</time></trkpt><trkpt lat="43.7647664" lon="11.1996629"><ele>40.199999999999996</ele><time>2026-04-26T08:27:45.956Z</time></trkpt><trkpt lat="43.7647714" lon="11.1995507"><ele>39.8</ele><time>2026-04-26T08:27:47.957Z</time></trkpt><trkpt lat="43.7647591" lon="11.1994229"><ele>39.4</ele><time>2026-04-26T08:27:49.957Z</time></trkpt><trkpt lat="43.7647187" lon="11.1993048"><ele>39.0</ele><time>2026-04-26T08:27:51.957Z</time></trkpt><trkpt lat="43.7646644" lon="11.1991945"><ele>39.0</ele><time>2026-04-26T08:27:53.957Z</time></trkpt><trkpt lat="43.764616" lon="11.1990836"><ele>39.0</ele><time>2026-04-26T08:27:55.956Z</time></trkpt><trkpt lat="43.7645626" lon="11.1989556"><ele>39.0</ele><time>2026-04-26T08:27:57.956Z</time></trkpt><trkpt lat="43.7645215" lon="11.1988249"><ele>39.0</ele><time>2026-04-26T08:27:59.957Z</time></trkpt><trkpt lat="43.7644889" lon="11.1987012"><ele>39.0</ele><time>2026-04-26T08:28:01.956Z</time></trkpt><trkpt lat="43.7644483" lon="11.1985767"><ele>39.0</ele><time>2026-04-26T08:28:03.957Z</time></trkpt><trkpt lat="43.7644245" lon="11.1984682"><ele>39.0</ele><time>2026-04-26T08:28:05.956Z</time></trkpt><trkpt lat="43.7644205" lon="11.1983595"><ele>39.0</ele><time>2026-04-26T08:28:07.957Z</time></trkpt><trkpt lat="43.7643816" lon="11.1982845"><ele>39.0</ele><time>2026-04-26T08:28:27.956Z</time></trkpt><trkpt lat="43.7643631" lon="11.1981759"><ele>39.0</ele><time>2026-04-26T08:28:29.955Z</time></trkpt><trkpt lat="43.7643347" lon="11.1980621"><ele>39.0</ele><time>2026-04-26T08:28:31.957Z</time></trkpt><trkpt lat="43.7643086" lon="11.1979685"><ele>39.0</ele><time>2026-04-26T08:28:33.957Z</time></trkpt><trkpt lat="43.7642823" lon="11.1978589"><ele>39.0</ele><time>2026-04-26T08:28:35.957Z</time></trkpt><trkpt lat="43.7642566" lon="11.1977484"><ele>39.0</ele><time>2026-04-26T08:28:37.956Z</time></trkpt><trkpt lat="43.7642309" lon="11.1976296"><ele>39.0</ele><time>2026-04-26T08:28:39.957Z</time></trkpt><trkpt lat="43.764197" lon="11.1975022"><ele>39.0</ele><time>2026-04-26T08:28:41.956Z</time></trkpt><trkpt lat="43.7641664" lon="11.1973807"><ele>39.0</ele><time>2026-04-26T08:28:43.956Z</time></trkpt><trkpt lat="43.7641384" lon="11.1972549"><ele>39.0</ele><time>2026-04-26T08:28:45.956Z</time></trkpt><trkpt lat="43.7641109" lon="11.1971279"><ele>39.0</ele><time>2026-04-26T08:28:47.955Z</time></trkpt><trkpt lat="43.7640911" lon="11.1969963"><ele>39.0</ele><time>2026-04-26T08:28:49.956Z</time></trkpt><trkpt lat="43.7640776" lon="11.196865"><ele>39.0</ele><time>2026-04-26T08:28:51.956Z</time></trkpt><trkpt lat="43.7640619" lon="11.1967197"><ele>39.0</ele><time>2026-04-26T08:28:53.957Z</time></trkpt><trkpt lat="43.7640305" lon="11.1965931"><ele>39.2</ele><time>2026-04-26T08:28:55.955Z</time></trkpt><trkpt lat="43.7639926" lon="11.1964659"><ele>39.4</ele><time>2026-04-26T08:28:57.957Z</time></trkpt><trkpt lat="43.7639459" lon="11.1963549"><ele>39.6</ele><time>2026-04-26T08:28:59.956Z</time></trkpt><trkpt lat="43.7638985" lon="11.1962267"><ele>39.8</ele><time>2026-04-26T08:29:01.954Z</time></trkpt><trkpt lat="43.7638384" lon="11.1961081"><ele>40.0</ele><time>2026-04-26T08:29:03.957Z</time></trkpt><trkpt lat="43.763778" lon="11.1960044"><ele>40.0</ele><time>2026-04-26T08:29:05.956Z</time></trkpt><trkpt lat="43.7637204" lon="11.1958757"><ele>40.0</ele><time>2026-04-26T08:29:07.956Z</time></trkpt><trkpt lat="43.7636644" lon="11.1957807"><ele>40.0</ele><time>2026-04-26T08:29:09.955Z</time></trkpt><trkpt lat="43.7636162" lon="11.1956752"><ele>40.0</ele><time>2026-04-26T08:29:11.956Z</time></trkpt><trkpt lat="43.7635738" lon="11.1955457"><ele>40.0</ele><time>2026-04-26T08:29:13.957Z</time></trkpt><trkpt lat="43.7635574" lon="11.195434"><ele>40.16666666666667</ele><time>2026-04-26T08:29:15.957Z</time></trkpt><trkpt lat="43.7635324" lon="11.1953159"><ele>40.333333333333336</ele><time>2026-04-26T08:29:17.956Z</time></trkpt><trkpt lat="43.76349" lon="11.1951926"><ele>40.5</ele><time>2026-04-26T08:29:19.956Z</time></trkpt><trkpt lat="43.7634653" lon="11.1950871"><ele>40.666666666666664</ele><time>2026-04-26T08:29:21.955Z</time></trkpt><trkpt lat="43.7634292" lon="11.1949897"><ele>40.83333333333333</ele><time>2026-04-26T08:29:23.957Z</time></trkpt><trkpt lat="43.7633903" lon="11.1948824"><ele>41.0</ele><time>2026-04-26T08:29:25.956Z</time></trkpt><trkpt lat="43.7633563" lon="11.1947775"><ele>41.166666666666664</ele><time>2026-04-26T08:29:27.956Z</time></trkpt><trkpt lat="43.7633302" lon="11.1946742"><ele>41.33333333333333</ele><time>2026-04-26T08:29:29.957Z</time></trkpt><trkpt lat="43.7633048" lon="11.194575"><ele>41.5</ele><time>2026-04-26T08:29:31.955Z</time></trkpt><trkpt lat="43.7632814" lon="11.1944745"><ele>41.666666666666664</ele><time>2026-04-26T08:29:33.956Z</time></trkpt><trkpt lat="43.7632602" lon="11.194376"><ele>41.833333333333336</ele><time>2026-04-26T08:29:35.956Z</time></trkpt><trkpt lat="43.7632397" lon="11.1942784"><ele>42.0</ele><time>2026-04-26T08:29:37.957Z</time></trkpt><trkpt lat="43.7632214" lon="11.1941777"><ele>42.0</ele><time>2026-04-26T08:29:39.957Z</time></trkpt><trkpt lat="43.7632054" lon="11.1940777"><ele>42.0</ele><time>2026-04-26T08:29:41.956Z</time></trkpt><trkpt lat="43.7631923" lon="11.1939764"><ele>42.0</ele><time>2026-04-26T08:29:43.957Z</time></trkpt><trkpt lat="43.7631819" lon="11.1938727"><ele>42.0</ele><time>2026-04-26T08:29:45.954Z</time></trkpt><trkpt lat="43.7631733" lon="11.1937691"><ele>42.0</ele><time>2026-04-26T08:29:47.957Z</time></trkpt><trkpt lat="43.7631663" lon="11.1936682"><ele>42.0</ele><time>2026-04-26T08:29:49.957Z</time></trkpt><trkpt lat="43.7631604" lon="11.1935682"><ele>42.0</ele><time>2026-04-26T08:29:51.957Z</time></trkpt><trkpt lat="43.7631519" lon="11.1934657"><ele>42.0</ele><time>2026-04-26T08:29:53.957Z</time></trkpt><trkpt lat="43.7631419" lon="11.1933655"><ele>42.0</ele><time>2026-04-26T08:29:55.955Z</time></trkpt><trkpt lat="43.7631271" lon="11.1932636"><ele>42.0</ele><time>2026-04-26T08:29:57.956Z</time></trkpt><trkpt lat="43.7631127" lon="11.1931597"><ele>42.0</ele><time>2026-04-26T08:29:59.957Z</time></trkpt><trkpt lat="43.763097" lon="11.1930574"><ele>42.0</ele><time>2026-04-26T08:30:01.956Z</time></trkpt><trkpt lat="43.7630782" lon="11.1929495"><ele>42.0</ele><time>2026-04-26T08:30:03.957Z</time></trkpt><trkpt lat="43.763057" lon="11.1928392"><ele>41.666666666666664</ele><time>2026-04-26T08:30:05.957Z</time></trkpt><trkpt lat="43.7630326" lon="11.1927299"><ele>41.333333333333336</ele><time>2026-04-26T08:30:07.956Z</time></trkpt><trkpt lat="43.7630093" lon="11.1926196"><ele>41.0</ele><time>2026-04-26T08:30:09.955Z</time></trkpt><trkpt lat="43.7629878" lon="11.1925104"><ele>40.66666666666667</ele><time>2026-04-26T08:30:11.956Z</time></trkpt><trkpt lat="43.7629671" lon="11.1924011"><ele>40.333333333333336</ele><time>2026-04-26T08:30:13.957Z</time></trkpt><trkpt lat="43.7629451" lon="11.1922865"><ele>40.0</ele><time>2026-04-26T08:30:15.956Z</time></trkpt><trkpt lat="43.7629237" lon="11.1921715"><ele>40.16666666666667</ele><time>2026-04-26T08:30:17.956Z</time></trkpt><trkpt lat="43.7629066" lon="11.1920488"><ele>40.333333333333336</ele><time>2026-04-26T08:30:19.955Z</time></trkpt><trkpt lat="43.762898" lon="11.191933"><ele>40.5</ele><time>2026-04-26T08:30:21.956Z</time></trkpt><trkpt lat="43.7628875" lon="11.1918169"><ele>40.666666666666664</ele><time>2026-04-26T08:30:23.956Z</time></trkpt><trkpt lat="43.76287" lon="11.1916987"><ele>40.83333333333333</ele><time>2026-04-26T08:30:25.956Z</time></trkpt><trkpt lat="43.7628675" lon="11.1915859"><ele>41.0</ele><time>2026-04-26T08:30:27.957Z</time></trkpt><trkpt lat="43.76283" lon="11.1914706"><ele>41.0</ele><time>2026-04-26T08:30:29.955Z</time></trkpt><trkpt lat="43.7628002" lon="11.1913373"><ele>41.0</ele><time>2026-04-26T08:30:31.956Z</time></trkpt><trkpt lat="43.7627729" lon="11.191179"><ele>41.0</ele><time>2026-04-26T08:30:33.957Z</time></trkpt><trkpt lat="43.7627572" lon="11.1910905"><ele>41.0</ele><time>2026-04-26T08:30:34.955Z</time></trkpt><trkpt lat="43.762743" lon="11.1909952"><ele>41.0</ele><time>2026-04-26T08:30:35.957Z</time></trkpt><trkpt lat="43.7627268" lon="11.1909034"><ele>41.0</ele><time>2026-04-26T08:30:36.955Z</time></trkpt><trkpt lat="43.762715" lon="11.1908081"><ele>41.0</ele><time>2026-04-26T08:30:37.956Z</time></trkpt><trkpt lat="43.7627074" lon="11.1907141"><ele>41.0</ele><time>2026-04-26T08:30:38.956Z</time></trkpt><trkpt lat="43.7626973" lon="11.1906239"><ele>41.0</ele><time>2026-04-26T08:30:39.957Z</time></trkpt><trkpt lat="43.7626983" lon="11.1905112"><ele>41.0</ele><time>2026-04-26T08:30:41.957Z</time></trkpt><trkpt lat="43.7627254" lon="11.1903861"><ele>41.0</ele><time>2026-04-26T08:30:43.956Z</time></trkpt><trkpt lat="43.7627566" lon="11.190243"><ele>41.0</ele><time>2026-04-26T08:30:45.956Z</time></trkpt><trkpt lat="43.7627513" lon="11.1901035"><ele>41.0</ele><time>2026-04-26T08:30:47.957Z</time></trkpt><trkpt lat="43.7627207" lon="11.1899629"><ele>41.0</ele><time>2026-04-26T08:30:49.957Z</time></trkpt><trkpt lat="43.762662" lon="11.1898482"><ele>41.0</ele><time>2026-04-26T08:30:51.957Z</time></trkpt><trkpt lat="43.7626086" lon="11.1897503"><ele>41.0</ele><time>2026-04-26T08:30:53.956Z</time></trkpt><trkpt lat="43.7625536" lon="11.1896311"><ele>41.0</ele><time>2026-04-26T08:30:55.955Z</time></trkpt><trkpt lat="43.7625015" lon="11.1895052"><ele>41.0</ele><time>2026-04-26T08:30:57.956Z</time></trkpt><trkpt lat="43.7624833" lon="11.1893713"><ele>41.0</ele><time>2026-04-26T08:30:59.955Z</time></trkpt><trkpt lat="43.7624853" lon="11.1892523"><ele>41.0</ele><time>2026-04-26T08:31:01.957Z</time></trkpt><trkpt lat="43.762481" lon="11.1891365"><ele>41.0</ele><time>2026-04-26T08:31:03.955Z</time></trkpt><trkpt lat="43.7624635" lon="11.1890155"><ele>41.0</ele><time>2026-04-26T08:31:05.956Z</time></trkpt><trkpt lat="43.7624417" lon="11.1888915"><ele>41.0</ele><time>2026-04-26T08:31:07.955Z</time></trkpt><trkpt lat="43.7624187" lon="11.1887623"><ele>40.8</ele><time>2026-04-26T08:31:09.956Z</time></trkpt><trkpt lat="43.7624063" lon="11.1886313"><ele>40.599999999999994</ele><time>2026-04-26T08:31:11.956Z</time></trkpt><trkpt lat="43.762379" lon="11.1884998"><ele>40.4</ele><time>2026-04-26T08:31:13.956Z</time></trkpt><trkpt lat="43.7623537" lon="11.1883681"><ele>40.2</ele><time>2026-04-26T08:31:15.955Z</time></trkpt><trkpt lat="43.7623256" lon="11.1882484"><ele>40.0</ele><time>2026-04-26T08:31:17.956Z</time></trkpt><trkpt lat="43.762298" lon="11.1881172"><ele>40.0</ele><time>2026-04-26T08:31:19.957Z</time></trkpt><trkpt lat="43.7622628" lon="11.1879898"><ele>40.0</ele><time>2026-04-26T08:31:21.957Z</time></trkpt><trkpt lat="43.7622146" lon="11.1878625"><ele>40.0</ele><time>2026-04-26T08:31:23.956Z</time></trkpt><trkpt lat="43.7621703" lon="11.187742"><ele>40.0</ele><time>2026-04-26T08:31:25.956Z</time></trkpt><trkpt lat="43.7621275" lon="11.1876226"><ele>40.0</ele><time>2026-04-26T08:31:27.956Z</time></trkpt><trkpt lat="43.7620837" lon="11.1874911"><ele>40.0</ele><time>2026-04-26T08:31:29.955Z</time></trkpt><trkpt lat="43.7620505" lon="11.1873805"><ele>40.0</ele><time>2026-04-26T08:31:31.955Z</time></trkpt><trkpt lat="43.7620109" lon="11.187258"><ele>40.0</ele><time>2026-04-26T08:31:33.957Z</time></trkpt><trkpt lat="43.7619707" lon="11.1871329"><ele>40.0</ele><time>2026-04-26T08:31:35.956Z</time></trkpt><trkpt lat="43.7619299" lon="11.1870095"><ele>40.0</ele><time>2026-04-26T08:31:37.956Z</time></trkpt><trkpt lat="43.7618925" lon="11.1868864"><ele>40.0</ele><time>2026-04-26T08:31:39.956Z</time></trkpt><trkpt lat="43.7618476" lon="11.1867668"><ele>40.0</ele><time>2026-04-26T08:31:41.957Z</time></trkpt><trkpt lat="43.7618153" lon="11.1866409"><ele>40.0</ele><time>2026-04-26T08:31:43.956Z</time></trkpt><trkpt lat="43.7617607" lon="11.1865285"><ele>40.0</ele><time>2026-04-26T08:31:45.955Z</time></trkpt><trkpt lat="43.7617096" lon="11.1864277"><ele>40.0</ele><time>2026-04-26T08:31:47.956Z</time></trkpt><trkpt lat="43.7616589" lon="11.1863093"><ele>40.0</ele><time>2026-04-26T08:31:49.957Z</time></trkpt><trkpt lat="43.7615993" lon="11.1862182"><ele>40.0</ele><time>2026-04-26T08:31:51.955Z</time></trkpt><trkpt lat="43.7615202" lon="11.1861089"><ele>40.0</ele><time>2026-04-26T08:31:53.956Z</time></trkpt><trkpt lat="43.7614357" lon="11.1860077"><ele>40.0</ele><time>2026-04-26T08:31:55.957Z</time></trkpt><trkpt lat="43.7613521" lon="11.1858983"><ele>40.0</ele><time>2026-04-26T08:31:57.957Z</time></trkpt><trkpt lat="43.7612745" lon="11.1857807"><ele>40.2</ele><time>2026-04-26T08:31:59.956Z</time></trkpt><trkpt lat="43.7612411" lon="11.1856442"><ele>40.4</ele><time>2026-04-26T08:32:01.957Z</time></trkpt><trkpt lat="43.7611949" lon="11.1855141"><ele>40.599999999999994</ele><time>2026-04-26T08:32:03.956Z</time></trkpt><trkpt lat="43.7611665" lon="11.1854337"><ele>40.8</ele><time>2026-04-26T08:32:04.956Z</time></trkpt><trkpt lat="43.7610904" lon="11.1853176"><ele>41.0</ele><time>2026-04-26T08:32:06.954Z</time></trkpt><trkpt lat="43.7610003" lon="11.1852551"><ele>41.0</ele><time>2026-04-26T08:32:08.956Z</time></trkpt><trkpt lat="43.7609128" lon="11.185198"><ele>41.0</ele><time>2026-04-26T08:32:10.956Z</time></trkpt><trkpt lat="43.7608363" lon="11.1851283"><ele>41.0</ele><time>2026-04-26T08:32:12.955Z</time></trkpt><trkpt lat="43.7607652" lon="11.1850477"><ele>41.0</ele><time>2026-04-26T08:32:14.956Z</time></trkpt><trkpt lat="43.7606895" lon="11.1849641"><ele>41.0</ele><time>2026-04-26T08:32:16.955Z</time></trkpt><trkpt lat="43.7606062" lon="11.1848893"><ele>41.199999999999996</ele><time>2026-04-26T08:32:18.955Z</time></trkpt><trkpt lat="43.7605335" lon="11.1848005"><ele>41.4</ele><time>2026-04-26T08:32:20.956Z</time></trkpt><trkpt lat="43.7604548" lon="11.184723"><ele>41.6</ele><time>2026-04-26T08:32:22.955Z</time></trkpt><trkpt lat="43.7603835" lon="11.184639"><ele>41.8</ele><time>2026-04-26T08:32:24.956Z</time></trkpt><trkpt lat="43.7603217" lon="11.1845461"><ele>42.0</ele><time>2026-04-26T08:32:26.955Z</time></trkpt><trkpt lat="43.7602495" lon="11.1844551"><ele>42.0</ele><time>2026-04-26T08:32:28.956Z</time></trkpt><trkpt lat="43.7601811" lon="11.1843876"><ele>42.0</ele><time>2026-04-26T08:32:30.956Z</time></trkpt><trkpt lat="43.7600975" lon="11.1842946"><ele>42.0</ele><time>2026-04-26T08:32:32.956Z</time></trkpt><trkpt lat="43.7600537" lon="11.1842245"><ele>42.0</ele><time>2026-04-26T08:32:34.955Z</time></trkpt><trkpt lat="43.7599881" lon="11.1841354"><ele>42.0</ele><time>2026-04-26T08:32:36.956Z</time></trkpt><trkpt lat="43.7599214" lon="11.184066"><ele>42.0</ele><time>2026-04-26T08:32:38.956Z</time></trkpt><trkpt lat="43.7598523" lon="11.1839864"><ele>42.2</ele><time>2026-04-26T08:32:40.956Z</time></trkpt><trkpt lat="43.7597674" lon="11.1839058"><ele>42.400000000000006</ele><time>2026-04-26T08:32:42.956Z</time></trkpt><trkpt lat="43.7596963" lon="11.1838276"><ele>42.599999999999994</ele><time>2026-04-26T08:32:44.956Z</time></trkpt><trkpt lat="43.7596283" lon="11.1837423"><ele>42.8</ele><time>2026-04-26T08:32:46.955Z</time></trkpt><trkpt lat="43.7595515" lon="11.1836605"><ele>43.0</ele><time>2026-04-26T08:32:48.955Z</time></trkpt><trkpt lat="43.7594737" lon="11.1836031"><ele>43.0</ele><time>2026-04-26T08:32:50.956Z</time></trkpt><trkpt lat="43.7594049" lon="11.1835296"><ele>43.0</ele><time>2026-04-26T08:32:52.956Z</time></trkpt><trkpt lat="43.7593289" lon="11.1834447"><ele>43.0</ele><time>2026-04-26T08:32:54.955Z</time></trkpt><trkpt lat="43.7592664" lon="11.183352"><ele>43.0</ele><time>2026-04-26T08:32:56.956Z</time></trkpt><trkpt lat="43.7592043" lon="11.1832839"><ele>43.0</ele><time>2026-04-26T08:32:58.956Z</time></trkpt><trkpt lat="43.7590887" lon="11.1832326"><ele>42.833333333333336</ele><time>2026-04-26T08:33:00.956Z</time></trkpt><trkpt lat="43.7590196" lon="11.183173"><ele>42.66666666666667</ele><time>2026-04-26T08:33:02.955Z</time></trkpt><trkpt lat="43.7589542" lon="11.1830951"><ele>42.5</ele><time>2026-04-26T08:33:04.956Z</time></trkpt><trkpt lat="43.7589023" lon="11.1829977"><ele>42.333333333333336</ele><time>2026-04-26T08:33:06.954Z</time></trkpt><trkpt lat="43.7588515" lon="11.1829306"><ele>42.166666666666664</ele><time>2026-04-26T08:33:09.956Z</time></trkpt><trkpt lat="43.7587846" lon="11.1829314"><ele>42.0</ele><time>2026-04-26T08:33:23.956Z</time></trkpt><trkpt lat="43.7587091" lon="11.1828564"><ele>42.0</ele><time>2026-04-26T08:33:26.953Z</time></trkpt><trkpt lat="43.7586283" lon="11.1827849"><ele>42.0</ele><time>2026-04-26T08:33:29.955Z</time></trkpt><trkpt lat="43.7585749" lon="11.1827375"><ele>42.0</ele><time>2026-04-26T08:33:31.956Z</time></trkpt><trkpt lat="43.7585101" lon="11.1826583"><ele>42.0</ele><time>2026-04-26T08:33:34.956Z</time></trkpt><trkpt lat="43.7584426" lon="11.1825785"><ele>42.0</ele><time>2026-04-26T08:33:37.956Z</time></trkpt><trkpt lat="43.7583948" lon="11.1825186"><ele>42.0</ele><time>2026-04-26T08:33:39.957Z</time></trkpt><trkpt lat="43.7583338" lon="11.1824299"><ele>42.333333333333336</ele><time>2026-04-26T08:33:42.956Z</time></trkpt><trkpt lat="43.7582756" lon="11.182342"><ele>42.666666666666664</ele><time>2026-04-26T08:33:45.956Z</time></trkpt><trkpt lat="43.7582246" lon="11.1822862"><ele>43.0</ele><time>2026-04-26T08:33:47.955Z</time></trkpt><trkpt lat="43.7581711" lon="11.1822307"><ele>43.33333333333333</ele><time>2026-04-26T08:33:49.955Z</time></trkpt><trkpt lat="43.7581163" lon="11.1821768"><ele>43.666666666666664</ele><time>2026-04-26T08:33:51.955Z</time></trkpt><trkpt lat="43.7580547" lon="11.1821222"><ele>44.0</ele><time>2026-04-26T08:33:53.956Z</time></trkpt><trkpt lat="43.7579714" lon="11.1820534"><ele>44.0</ele><time>2026-04-26T08:33:56.956Z</time></trkpt><trkpt lat="43.7579025" lon="11.1819914"><ele>44.0</ele><time>2026-04-26T08:33:58.956Z</time></trkpt><trkpt lat="43.7578314" lon="11.1819329"><ele>44.0</ele><time>2026-04-26T08:34:00.956Z</time></trkpt><trkpt lat="43.7577691" lon="11.1818952"><ele>44.0</ele><time>2026-04-26T08:34:02.956Z</time></trkpt><trkpt lat="43.7576814" lon="11.1818827"><ele>44.0</ele><time>2026-04-26T08:34:05.956Z</time></trkpt><trkpt lat="43.7576212" lon="11.1819379"><ele>44.0</ele><time>2026-04-26T08:34:08.955Z</time></trkpt><trkpt lat="43.7575896" lon="11.182029"><ele>43.85714285714286</ele><time>2026-04-26T08:34:11.954Z</time></trkpt><trkpt lat="43.7575599" lon="11.1821133"><ele>43.714285714285715</ele><time>2026-04-26T08:34:14.955Z</time></trkpt><trkpt lat="43.7575044" lon="11.1821767"><ele>43.57142857142857</ele><time>2026-04-26T08:34:18.955Z</time></trkpt><trkpt lat="43.7574791" lon="11.1822607"><ele>43.42857142857143</ele><time>2026-04-26T08:34:23.956Z</time></trkpt><trkpt lat="43.7574388" lon="11.1823347"><ele>43.285714285714285</ele><time>2026-04-26T08:34:33.956Z</time></trkpt><trkpt lat="43.7574212" lon="11.1824292"><ele>43.142857142857146</ele><time>2026-04-26T08:34:37.954Z</time></trkpt><trkpt lat="43.7573896" lon="11.1825139"><ele>43.0</ele><time>2026-04-26T08:34:40.956Z</time></trkpt><trkpt lat="43.7573546" lon="11.1825929"><ele>43.5</ele><time>2026-04-26T08:34:43.955Z</time></trkpt><trkpt lat="43.7573172" lon="11.1826797"><ele>44.0</ele><time>2026-04-26T08:34:46.956Z</time></trkpt><trkpt lat="43.7572708" lon="11.1827644"><ele>44.5</ele><time>2026-04-26T08:34:50.955Z</time></trkpt><trkpt lat="43.7572081" lon="11.1828433"><ele>45.0</ele><time>2026-04-26T08:34:53.956Z</time></trkpt><trkpt lat="43.7571557" lon="11.182947"><ele>45.5</ele><time>2026-04-26T08:34:56.956Z</time></trkpt><trkpt lat="43.7571063" lon="11.1830458"><ele>46.0</ele><time>2026-04-26T08:34:59.956Z</time></trkpt><trkpt lat="43.7570699" lon="11.1831456"><ele>46.333333333333336</ele><time>2026-04-26T08:35:02.956Z</time></trkpt><trkpt lat="43.757037" lon="11.1832416"><ele>46.66666666666667</ele><time>2026-04-26T08:35:05.956Z</time></trkpt><trkpt lat="43.756996" lon="11.1833304"><ele>47.0</ele><time>2026-04-26T08:35:08.956Z</time></trkpt><trkpt lat="43.7569502" lon="11.183407"><ele>47.333333333333336</ele><time>2026-04-26T08:35:11.956Z</time></trkpt><trkpt lat="43.7568994" lon="11.1834906"><ele>47.666666666666664</ele><time>2026-04-26T08:35:17.956Z</time></trkpt><trkpt lat="43.7568826" lon="11.1835969"><ele>48.0</ele><time>2026-04-26T08:35:20.956Z</time></trkpt><trkpt lat="43.7568588" lon="11.1837062"><ele>48.0</ele><time>2026-04-26T08:35:23.955Z</time></trkpt><trkpt lat="43.7568202" lon="11.1838057"><ele>48.0</ele><time>2026-04-26T08:35:26.956Z</time></trkpt><trkpt lat="43.7567864" lon="11.1839005"><ele>48.0</ele><time>2026-04-26T08:35:29.956Z</time></trkpt><trkpt lat="43.7567395" lon="11.1839752"><ele>48.0</ele><time>2026-04-26T08:35:33.956Z</time></trkpt><trkpt lat="43.7566847" lon="11.1840221"><ele>48.0</ele><time>2026-04-26T08:35:39.956Z</time></trkpt><trkpt lat="43.7566349" lon="11.1841284"><ele>48.0</ele><time>2026-04-26T08:55:23.952Z</time></trkpt><trkpt lat="43.7565986" lon="11.1842222"><ele>48.0</ele><time>2026-04-26T08:55:27.951Z</time></trkpt><trkpt lat="43.7565829" lon="11.1843074"><ele>48.0</ele><time>2026-04-26T08:55:31.952Z</time></trkpt><trkpt lat="43.7565261" lon="11.1844114"><ele>48.0</ele><time>2026-04-26T08:55:37.951Z</time></trkpt><trkpt lat="43.7564742" lon="11.184505"><ele>48.0</ele><time>2026-04-26T08:55:40.952Z</time></trkpt><trkpt lat="43.7564396" lon="11.1846011"><ele>48.0</ele><time>2026-04-26T08:55:43.951Z</time></trkpt><trkpt lat="43.7564147" lon="11.1846882"><ele>48.0</ele><time>2026-04-26T08:55:46.952Z</time></trkpt><trkpt lat="43.7563776" lon="11.1847903"><ele>47.71428571428571</ele><time>2026-04-26T08:55:50.952Z</time></trkpt><trkpt lat="43.7563403" lon="11.1848746"><ele>47.42857142857143</ele><time>2026-04-26T08:55:54.952Z</time></trkpt><trkpt lat="43.7563021" lon="11.1849518"><ele>47.14285714285714</ele><time>2026-04-26T08:55:57.952Z</time></trkpt><trkpt lat="43.7562653" lon="11.1850263"><ele>46.857142857142854</ele><time>2026-04-26T08:56:00.952Z</time></trkpt><trkpt lat="43.7562252" lon="11.1851278"><ele>46.57142857142857</ele><time>2026-04-26T08:56:04.951Z</time></trkpt><trkpt lat="43.7561869" lon="11.1852129"><ele>46.285714285714285</ele><time>2026-04-26T08:56:07.952Z</time></trkpt><trkpt lat="43.7561388" lon="11.185299"><ele>46.0</ele><time>2026-04-26T08:56:12.952Z</time></trkpt><trkpt lat="43.7560918" lon="11.1853774"><ele>46.0</ele><time>2026-04-26T08:56:19.951Z</time></trkpt><trkpt lat="43.7560568" lon="11.1854782"><ele>46.0</ele><time>2026-04-26T08:56:26.953Z</time></trkpt><trkpt lat="43.7560381" lon="11.1855781"><ele>46.0</ele><time>2026-04-26T08:56:30.951Z</time></trkpt><trkpt lat="43.7559915" lon="11.1856752"><ele>46.0</ele><time>2026-04-26T08:56:34.95Z</time></trkpt><trkpt lat="43.755957" lon="11.1857656"><ele>46.0</ele><time>2026-04-26T08:56:38.952Z</time></trkpt><trkpt lat="43.7559179" lon="11.1858353"><ele>46.0</ele><time>2026-04-26T08:56:43.952Z</time></trkpt><trkpt lat="43.7558881" lon="11.1859332"><ele>46.16666666666667</ele><time>2026-04-26T08:56:49.952Z</time></trkpt><trkpt lat="43.7558627" lon="11.1860303"><ele>46.333333333333336</ele><time>2026-04-26T08:56:53.953Z</time></trkpt><trkpt lat="43.7558228" lon="11.186114"><ele>46.5</ele><time>2026-04-26T08:56:56.951Z</time></trkpt><trkpt lat="43.7557653" lon="11.1861764"><ele>46.666666666666664</ele><time>2026-04-26T08:56:59.952Z</time></trkpt><trkpt lat="43.7557085" lon="11.1862354"><ele>46.83333333333333</ele><time>2026-04-26T08:57:03.952Z</time></trkpt><trkpt lat="43.7556379" lon="11.186282"><ele>47.0</ele><time>2026-04-26T08:57:08.952Z</time></trkpt><trkpt lat="43.7556156" lon="11.186409"><ele>47.0</ele><time>2026-04-26T08:57:11.952Z</time></trkpt><trkpt lat="43.7556025" lon="11.1865053"><ele>47.0</ele><time>2026-04-26T08:57:13.952Z</time></trkpt><trkpt lat="43.7555643" lon="11.1866073"><ele>47.0</ele><time>2026-04-26T08:57:16.952Z</time></trkpt><trkpt lat="43.7555091" lon="11.186697"><ele>47.0</ele><time>2026-04-26T08:57:19.951Z</time></trkpt><trkpt lat="43.7554652" lon="11.1867693"><ele>47.0</ele><time>2026-04-26T08:57:21.952Z</time></trkpt><trkpt lat="43.7554158" lon="11.1868394"><ele>47.0</ele><time>2026-04-26T08:57:23.952Z</time></trkpt><trkpt lat="43.7553759" lon="11.1869129"><ele>47.0</ele><time>2026-04-26T08:57:25.952Z</time></trkpt><trkpt lat="43.7553304" lon="11.1869999"><ele>47.0</ele><time>2026-04-26T08:57:28.952Z</time></trkpt><trkpt lat="43.755306" lon="11.1870947"><ele>47.0</ele><time>2026-04-26T08:57:34.95Z</time></trkpt><trkpt lat="43.7552707" lon="11.1871715"><ele>47.0</ele><time>2026-04-26T08:57:37.952Z</time></trkpt><trkpt lat="43.7552269" lon="11.1872449"><ele>47.0</ele><time>2026-04-26T08:57:40.952Z</time></trkpt><trkpt lat="43.7551869" lon="11.1873266"><ele>47.0</ele><time>2026-04-26T08:57:43.952Z</time></trkpt><trkpt lat="43.7551297" lon="11.1874278"><ele>47.0</ele><time>2026-04-26T08:57:46.951Z</time></trkpt><trkpt lat="43.7550767" lon="11.1875214"><ele>46.83333333333333</ele><time>2026-04-26T08:57:49.951Z</time></trkpt><trkpt lat="43.7550336" lon="11.187604"><ele>46.666666666666664</ele><time>2026-04-26T08:57:52.952Z</time></trkpt><trkpt lat="43.7550004" lon="11.187693"><ele>46.5</ele><time>2026-04-26T08:57:56.951Z</time></trkpt><trkpt lat="43.7549497" lon="11.18779"><ele>46.333333333333336</ele><time>2026-04-26T08:58:00.951Z</time></trkpt><trkpt lat="43.7549064" lon="11.1878823"><ele>46.16666666666667</ele><time>2026-04-26T08:58:03.951Z</time></trkpt><trkpt lat="43.7548591" lon="11.1879985"><ele>46.0</ele><time>2026-04-26T08:58:06.952Z</time></trkpt><trkpt lat="43.7548207" lon="11.1880777"><ele>46.0</ele><time>2026-04-26T08:58:08.951Z</time></trkpt><trkpt lat="43.7547761" lon="11.1881516"><ele>46.0</ele><time>2026-04-26T08:58:10.952Z</time></trkpt><trkpt lat="43.7547271" lon="11.1882233"><ele>46.0</ele><time>2026-04-26T08:58:12.951Z</time></trkpt><trkpt lat="43.7546816" lon="11.1882936"><ele>46.0</ele><time>2026-04-26T08:58:14.952Z</time></trkpt><trkpt lat="43.7546362" lon="11.1883548"><ele>46.0</ele><time>2026-04-26T08:58:16.952Z</time></trkpt><trkpt lat="43.7545931" lon="11.1884184"><ele>46.0</ele><time>2026-04-26T08:58:18.952Z</time></trkpt><trkpt lat="43.7545545" lon="11.1884928"><ele>46.0</ele><time>2026-04-26T08:58:20.951Z</time></trkpt><trkpt lat="43.7545134" lon="11.1885676"><ele>46.0</ele><time>2026-04-26T08:58:22.952Z</time></trkpt><trkpt lat="43.7544641" lon="11.1886354"><ele>46.0</ele><time>2026-04-26T08:58:24.951Z</time></trkpt><trkpt lat="43.75441" lon="11.1886892"><ele>46.0</ele><time>2026-04-26T08:58:26.951Z</time></trkpt><trkpt lat="43.7543587" lon="11.1887641"><ele>46.0</ele><time>2026-04-26T08:58:28.952Z</time></trkpt><trkpt lat="43.7542953" lon="11.1888248"><ele>46.0</ele><time>2026-04-26T08:58:30.952Z</time></trkpt><trkpt lat="43.7542322" lon="11.1888722"><ele>46.0</ele><time>2026-04-26T08:58:32.953Z</time></trkpt><trkpt lat="43.7541803" lon="11.1889269"><ele>46.0</ele><time>2026-04-26T08:58:34.951Z</time></trkpt><trkpt lat="43.7541285" lon="11.1889901"><ele>46.142857142857146</ele><time>2026-04-26T08:58:36.95Z</time></trkpt><trkpt lat="43.7540715" lon="11.1890646"><ele>46.285714285714285</ele><time>2026-04-26T08:58:38.951Z</time></trkpt><trkpt lat="43.7540106" lon="11.1891329"><ele>46.42857142857143</ele><time>2026-04-26T08:58:40.95Z</time></trkpt><trkpt lat="43.7539542" lon="11.1891999"><ele>46.57142857142857</ele><time>2026-04-26T08:58:42.951Z</time></trkpt><trkpt lat="43.7538989" lon="11.1892649"><ele>46.71428571428571</ele><time>2026-04-26T08:58:44.952Z</time></trkpt><trkpt lat="43.753849" lon="11.1893255"><ele>46.857142857142854</ele><time>2026-04-26T08:58:46.951Z</time></trkpt><trkpt lat="43.7538013" lon="11.1893939"><ele>47.0</ele><time>2026-04-26T08:58:48.951Z</time></trkpt><trkpt lat="43.7537536" lon="11.1894748"><ele>47.0</ele><time>2026-04-26T08:58:50.952Z</time></trkpt><trkpt lat="43.7537125" lon="11.1895414"><ele>47.0</ele><time>2026-04-26T08:58:52.953Z</time></trkpt><trkpt lat="43.7536601" lon="11.1895994"><ele>47.0</ele><time>2026-04-26T08:58:54.952Z</time></trkpt><trkpt lat="43.7536083" lon="11.1896547"><ele>47.0</ele><time>2026-04-26T08:58:56.952Z</time></trkpt><trkpt lat="43.7535382" lon="11.1897468"><ele>47.0</ele><time>2026-04-26T08:58:59.951Z</time></trkpt><trkpt lat="43.7534926" lon="11.1898144"><ele>47.0</ele><time>2026-04-26T08:59:01.951Z</time></trkpt><trkpt lat="43.7534394" lon="11.1898862"><ele>47.0</ele><time>2026-04-26T08:59:03.951Z</time></trkpt><trkpt lat="43.7533716" lon="11.1899343"><ele>47.400000000000006</ele><time>2026-04-26T08:59:06.951Z</time></trkpt><trkpt lat="43.7532965" lon="11.1898828"><ele>47.800000000000004</ele><time>2026-04-26T08:59:09.953Z</time></trkpt><trkpt lat="43.7532459" lon="11.1897437"><ele>48.2</ele><time>2026-04-26T08:59:10.95Z</time></trkpt><trkpt lat="43.7531872" lon="11.1896611"><ele>48.6</ele><time>2026-04-26T08:59:12.952Z</time></trkpt><trkpt lat="43.7531405" lon="11.1895723"><ele>49.0</ele><time>2026-04-26T08:59:14.952Z</time></trkpt><trkpt lat="43.7530776" lon="11.1894635"><ele>48.99999999999999</ele><time>2026-04-26T08:59:16.952Z</time></trkpt><trkpt lat="43.7530178" lon="11.1893673"><ele>49.0</ele><time>2026-04-26T08:59:18.952Z</time></trkpt><trkpt lat="43.7529877" lon="11.1892668"><ele>49.0</ele><time>2026-04-26T08:59:20.951Z</time></trkpt><trkpt lat="43.7529419" lon="11.1891968"><ele>49.0</ele><time>2026-04-26T08:59:22.952Z</time></trkpt><trkpt lat="43.7528842" lon="11.1891238"><ele>48.99999999999999</ele><time>2026-04-26T08:59:24.951Z</time></trkpt><trkpt lat="43.7528383" lon="11.1890628"><ele>49.0</ele><time>2026-04-26T08:59:26.951Z</time></trkpt><trkpt lat="43.7527918" lon="11.1889498"><ele>48.83333333333333</ele><time>2026-04-26T08:59:28.952Z</time></trkpt><trkpt lat="43.7527431" lon="11.1888612"><ele>48.666666666666664</ele><time>2026-04-26T08:59:30.952Z</time></trkpt><trkpt lat="43.752702" lon="11.1887494"><ele>48.5</ele><time>2026-04-26T08:59:31.952Z</time></trkpt><trkpt lat="43.7526401" lon="11.1886742"><ele>48.33333333333333</ele><time>2026-04-26T08:59:33.952Z</time></trkpt><trkpt lat="43.7526054" lon="11.1885646"><ele>48.166666666666664</ele><time>2026-04-26T08:59:35.951Z</time></trkpt><trkpt lat="43.7525693" lon="11.1884269"><ele>48.0</ele><time>2026-04-26T08:59:37.952Z</time></trkpt><trkpt lat="43.7525122" lon="11.1883361"><ele>48.0</ele><time>2026-04-26T08:59:39.952Z</time></trkpt><trkpt lat="43.752448" lon="11.1882211"><ele>48.0</ele><time>2026-04-26T08:59:41.952Z</time></trkpt><trkpt lat="43.7524052" lon="11.1881139"><ele>48.0</ele><time>2026-04-26T08:59:43.951Z</time></trkpt><trkpt lat="43.7523463" lon="11.1880217"><ele>48.0</ele><time>2026-04-26T08:59:45.952Z</time></trkpt><trkpt lat="43.7522941" lon="11.1879281"><ele>48.0</ele><time>2026-04-26T08:59:47.952Z</time></trkpt><trkpt lat="43.752241" lon="11.1878247"><ele>47.833333333333336</ele><time>2026-04-26T08:59:49.952Z</time></trkpt><trkpt lat="43.7521756" lon="11.1877232"><ele>47.666666666666664</ele><time>2026-04-26T08:59:51.951Z</time></trkpt><trkpt lat="43.7521145" lon="11.1876432"><ele>47.5</ele><time>2026-04-26T08:59:53.951Z</time></trkpt><trkpt lat="43.7520583" lon="11.187542"><ele>47.33333333333333</ele><time>2026-04-26T08:59:55.951Z</time></trkpt><trkpt lat="43.7520018" lon="11.1874754"><ele>47.166666666666664</ele><time>2026-04-26T08:59:57.951Z</time></trkpt><trkpt lat="43.7519263" lon="11.1873839"><ele>47.0</ele><time>2026-04-26T08:59:59.952Z</time></trkpt><trkpt lat="43.7518542" lon="11.1872958"><ele>46.8</ele><time>2026-04-26T09:00:01.95Z</time></trkpt><trkpt lat="43.7517931" lon="11.1871944"><ele>46.6</ele><time>2026-04-26T09:00:03.951Z</time></trkpt><trkpt lat="43.7517274" lon="11.1870797"><ele>46.4</ele><time>2026-04-26T09:00:05.951Z</time></trkpt><trkpt lat="43.7516642" lon="11.1869903"><ele>46.199999999999996</ele><time>2026-04-26T09:00:07.951Z</time></trkpt><trkpt lat="43.7516097" lon="11.1869135"><ele>46.0</ele><time>2026-04-26T09:00:09.95Z</time></trkpt><trkpt lat="43.7515483" lon="11.186818"><ele>46.0</ele><time>2026-04-26T09:00:11.951Z</time></trkpt><trkpt lat="43.7514811" lon="11.1867397"><ele>46.0</ele><time>2026-04-26T09:00:13.951Z</time></trkpt><trkpt lat="43.7514151" lon="11.1866478"><ele>46.0</ele><time>2026-04-26T09:00:15.952Z</time></trkpt><trkpt lat="43.7513506" lon="11.1865586"><ele>46.0</ele><time>2026-04-26T09:00:17.951Z</time></trkpt><trkpt lat="43.7512868" lon="11.186462"><ele>46.0</ele><time>2026-04-26T09:00:19.952Z</time></trkpt><trkpt lat="43.7512191" lon="11.1863659"><ele>46.199999999999996</ele><time>2026-04-26T09:00:21.952Z</time></trkpt><trkpt lat="43.7511552" lon="11.1862884"><ele>46.4</ele><time>2026-04-26T09:00:23.951Z</time></trkpt><trkpt lat="43.7510877" lon="11.1862091"><ele>46.6</ele><time>2026-04-26T09:00:25.951Z</time></trkpt><trkpt lat="43.7510119" lon="11.1861254"><ele>46.8</ele><time>2026-04-26T09:00:27.95Z</time></trkpt><trkpt lat="43.7509477" lon="11.1860369"><ele>47.0</ele><time>2026-04-26T09:00:29.951Z</time></trkpt><trkpt lat="43.7508853" lon="11.185945"><ele>47.0</ele><time>2026-04-26T09:00:31.95Z</time></trkpt><trkpt lat="43.7508201" lon="11.1858557"><ele>47.0</ele><time>2026-04-26T09:00:33.95Z</time></trkpt><trkpt lat="43.7507611" lon="11.1857692"><ele>47.0</ele><time>2026-04-26T09:00:35.951Z</time></trkpt><trkpt lat="43.7506973" lon="11.1856777"><ele>47.0</ele><time>2026-04-26T09:00:37.951Z</time></trkpt><trkpt lat="43.7506439" lon="11.1856002"><ele>47.0</ele><time>2026-04-26T09:00:39.95Z</time></trkpt><trkpt lat="43.7505833" lon="11.1855129"><ele>47.0</ele><time>2026-04-26T09:00:41.953Z</time></trkpt><trkpt lat="43.7505311" lon="11.1854379"><ele>47.0</ele><time>2026-04-26T09:00:43.952Z</time></trkpt><trkpt lat="43.7504841" lon="11.1853356"><ele>47.0</ele><time>2026-04-26T09:00:46.953Z</time></trkpt><trkpt lat="43.7504366" lon="11.1852475"><ele>47.0</ele><time>2026-04-26T09:00:49.952Z</time></trkpt><trkpt lat="43.7503852" lon="11.1851672"><ele>47.0</ele><time>2026-04-26T09:00:52.952Z</time></trkpt><trkpt lat="43.7503371" lon="11.1851042"><ele>47.0</ele><time>2026-04-26T09:01:09.952Z</time></trkpt><trkpt lat="43.7502783" lon="11.1850061"><ele>47.0</ele><time>2026-04-26T09:01:12.95Z</time></trkpt><trkpt lat="43.7502128" lon="11.1849139"><ele>47.285714285714285</ele><time>2026-04-26T09:01:15.951Z</time></trkpt><trkpt lat="43.750159" lon="11.1848451"><ele>47.57142857142857</ele><time>2026-04-26T09:01:17.951Z</time></trkpt><trkpt lat="43.7500999" lon="11.1847765"><ele>47.85714285714286</ele><time>2026-04-26T09:01:19.951Z</time></trkpt><trkpt lat="43.7500338" lon="11.184703"><ele>48.14285714285714</ele><time>2026-04-26T09:01:21.952Z</time></trkpt><trkpt lat="43.7499781" lon="11.1846396"><ele>48.42857142857143</ele><time>2026-04-26T09:01:23.952Z</time></trkpt><trkpt lat="43.7499322" lon="11.1845679"><ele>48.714285714285715</ele><time>2026-04-26T09:01:25.952Z</time></trkpt><trkpt lat="43.7498864" lon="11.1844977"><ele>49.0</ele><time>2026-04-26T09:01:27.951Z</time></trkpt><trkpt lat="43.7498394" lon="11.1844256"><ele>48.99999999999999</ele><time>2026-04-26T09:01:29.95Z</time></trkpt><trkpt lat="43.7497918" lon="11.1843464"><ele>49.0</ele><time>2026-04-26T09:01:31.951Z</time></trkpt><trkpt lat="43.7497421" lon="11.1842654"><ele>49.0</ele><time>2026-04-26T09:01:33.951Z</time></trkpt><trkpt lat="43.7496844" lon="11.1841829"><ele>49.0</ele><time>2026-04-26T09:01:35.952Z</time></trkpt><trkpt lat="43.7496222" lon="11.1841012"><ele>48.99999999999999</ele><time>2026-04-26T09:01:37.951Z</time></trkpt><trkpt lat="43.7495638" lon="11.1840127"><ele>49.0</ele><time>2026-04-26T09:01:39.951Z</time></trkpt><trkpt lat="43.7495029" lon="11.1839305"><ele>48.99999999999999</ele><time>2026-04-26T09:01:41.95Z</time></trkpt><trkpt lat="43.7494461" lon="11.1838494"><ele>49.0</ele><time>2026-04-26T09:01:43.951Z</time></trkpt><trkpt lat="43.7493916" lon="11.1837653"><ele>49.0</ele><time>2026-04-26T09:01:45.952Z</time></trkpt><trkpt lat="43.749334" lon="11.1836809"><ele>49.0</ele><time>2026-04-26T09:01:47.95Z</time></trkpt><trkpt lat="43.7492745" lon="11.1836033"><ele>48.99999999999999</ele><time>2026-04-26T09:01:49.952Z</time></trkpt><trkpt lat="43.749207" lon="11.1835189"><ele>49.0</ele><time>2026-04-26T09:01:51.95Z</time></trkpt><trkpt lat="43.7491494" lon="11.1834445"><ele>48.99999999999999</ele><time>2026-04-26T09:01:53.95Z</time></trkpt><trkpt lat="43.7490922" lon="11.1833457"><ele>49.0</ele><time>2026-04-26T09:01:55.951Z</time></trkpt><trkpt lat="43.7490285" lon="11.183259"><ele>49.0</ele><time>2026-04-26T09:01:57.951Z</time></trkpt><trkpt lat="43.748974" lon="11.1831624"><ele>49.0</ele><time>2026-04-26T09:01:59.951Z</time></trkpt><trkpt lat="43.7489187" lon="11.1830868"><ele>48.99999999999999</ele><time>2026-04-26T09:02:01.951Z</time></trkpt><trkpt lat="43.7488588" lon="11.183015"><ele>49.0</ele><time>2026-04-26T09:02:03.951Z</time></trkpt><trkpt lat="43.7487968" lon="11.1829504"><ele>49.166666666666664</ele><time>2026-04-26T09:02:05.951Z</time></trkpt><trkpt lat="43.7487308" lon="11.1828878"><ele>49.33333333333333</ele><time>2026-04-26T09:02:07.951Z</time></trkpt><trkpt lat="43.7486618" lon="11.182828"><ele>49.5</ele><time>2026-04-26T09:02:09.951Z</time></trkpt><trkpt lat="43.7485849" lon="11.1827583"><ele>49.66666666666667</ele><time>2026-04-26T09:02:11.952Z</time></trkpt><trkpt lat="43.7484945" lon="11.18268"><ele>49.833333333333336</ele><time>2026-04-26T09:02:13.951Z</time></trkpt><trkpt lat="43.7484168" lon="11.1826314"><ele>50.0</ele><time>2026-04-26T09:02:15.95Z</time></trkpt><trkpt lat="43.748341" lon="11.1825588"><ele>50.00000000000001</ele><time>2026-04-26T09:02:17.95Z</time></trkpt><trkpt lat="43.7482656" lon="11.182499"><ele>50.0</ele><time>2026-04-26T09:02:19.951Z</time></trkpt><trkpt lat="43.7482027" lon="11.1824363"><ele>50.0</ele><time>2026-04-26T09:02:21.951Z</time></trkpt><trkpt lat="43.7481379" lon="11.1823914"><ele>50.0</ele><time>2026-04-26T09:02:23.95Z</time></trkpt><trkpt lat="43.7480634" lon="11.1823461"><ele>50.00000000000001</ele><time>2026-04-26T09:02:25.95Z</time></trkpt><trkpt lat="43.7479877" lon="11.182298"><ele>50.0</ele><time>2026-04-26T09:02:27.951Z</time></trkpt><trkpt lat="43.7479157" lon="11.1822357"><ele>50.00000000000001</ele><time>2026-04-26T09:02:29.951Z</time></trkpt><trkpt lat="43.7478374" lon="11.1821769"><ele>50.0</ele><time>2026-04-26T09:02:31.951Z</time></trkpt><trkpt lat="43.7477611" lon="11.1821201"><ele>50.0</ele><time>2026-04-26T09:02:33.951Z</time></trkpt><trkpt lat="43.7476895" lon="11.1820625"><ele>50.0</ele><time>2026-04-26T09:02:35.951Z</time></trkpt><trkpt lat="43.7476254" lon="11.1820026"><ele>50.00000000000001</ele><time>2026-04-26T09:02:37.951Z</time></trkpt><trkpt lat="43.7475633" lon="11.1819369"><ele>50.0</ele><time>2026-04-26T09:02:39.952Z</time></trkpt><trkpt lat="43.7475" lon="11.1818652"><ele>50.00000000000001</ele><time>2026-04-26T09:02:41.95Z</time></trkpt><trkpt lat="43.7474392" lon="11.1817877"><ele>50.0</ele><time>2026-04-26T09:02:43.951Z</time></trkpt><trkpt lat="43.7473765" lon="11.1817133"><ele>50.0</ele><time>2026-04-26T09:02:45.95Z</time></trkpt><trkpt lat="43.7473145" lon="11.181632"><ele>50.0</ele><time>2026-04-26T09:02:47.95Z</time></trkpt><trkpt lat="43.7472527" lon="11.1815465"><ele>50.00000000000001</ele><time>2026-04-26T09:02:49.95Z</time></trkpt><trkpt lat="43.7471918" lon="11.1814611"><ele>50.0</ele><time>2026-04-26T09:02:51.951Z</time></trkpt><trkpt lat="43.7471329" lon="11.1813752"><ele>50.16666666666667</ele><time>2026-04-26T09:02:53.951Z</time></trkpt><trkpt lat="43.747076" lon="11.1812884"><ele>50.333333333333336</ele><time>2026-04-26T09:02:55.95Z</time></trkpt><trkpt lat="43.7470138" lon="11.1811992"><ele>50.5</ele><time>2026-04-26T09:02:57.951Z</time></trkpt><trkpt lat="43.7469518" lon="11.1811114"><ele>50.66666666666667</ele><time>2026-04-26T09:02:59.95Z</time></trkpt><trkpt lat="43.7468892" lon="11.1810275"><ele>50.833333333333336</ele><time>2026-04-26T09:03:01.95Z</time></trkpt><trkpt lat="43.7468257" lon="11.1809475"><ele>51.0</ele><time>2026-04-26T09:03:03.95Z</time></trkpt><trkpt lat="43.7467646" lon="11.1808656"><ele>51.0</ele><time>2026-04-26T09:03:05.951Z</time></trkpt><trkpt lat="43.7467039" lon="11.180785"><ele>51.0</ele><time>2026-04-26T09:03:07.95Z</time></trkpt><trkpt lat="43.7466505" lon="11.1806958"><ele>51.0</ele><time>2026-04-26T09:03:09.951Z</time></trkpt><trkpt lat="43.7465968" lon="11.1806038"><ele>51.0</ele><time>2026-04-26T09:03:11.95Z</time></trkpt><trkpt lat="43.7465435" lon="11.1805138"><ele>51.0</ele><time>2026-04-26T09:03:13.951Z</time></trkpt><trkpt lat="43.7464904" lon="11.180428"><ele>51.0</ele><time>2026-04-26T09:03:15.951Z</time></trkpt><trkpt lat="43.746441" lon="11.1803464"><ele>51.0</ele><time>2026-04-26T09:03:17.951Z</time></trkpt><trkpt lat="43.7463909" lon="11.1802682"><ele>51.0</ele><time>2026-04-26T09:03:19.951Z</time></trkpt><trkpt lat="43.7463458" lon="11.1801926"><ele>51.0</ele><time>2026-04-26T09:03:21.951Z</time></trkpt><trkpt lat="43.7462996" lon="11.1801155"><ele>51.0</ele><time>2026-04-26T09:03:23.951Z</time></trkpt><trkpt lat="43.7462432" lon="11.1800398"><ele>51.0</ele><time>2026-04-26T09:03:25.951Z</time></trkpt><trkpt lat="43.7461812" lon="11.1799701"><ele>51.0</ele><time>2026-04-26T09:03:27.951Z</time></trkpt><trkpt lat="43.7461122" lon="11.1799163"><ele>51.0</ele><time>2026-04-26T09:03:29.95Z</time></trkpt><trkpt lat="43.7460386" lon="11.1798871"><ele>51.0</ele><time>2026-04-26T09:03:31.951Z</time></trkpt><trkpt lat="43.7459574" lon="11.1798797"><ele>51.0</ele><time>2026-04-26T09:03:33.951Z</time></trkpt><trkpt lat="43.7458753" lon="11.1798839"><ele>51.0</ele><time>2026-04-26T09:03:35.951Z</time></trkpt><trkpt lat="43.7457951" lon="11.1799022"><ele>51.0</ele><time>2026-04-26T09:03:37.951Z</time></trkpt><trkpt lat="43.7457159" lon="11.1799231"><ele>51.0</ele><time>2026-04-26T09:03:39.951Z</time></trkpt><trkpt lat="43.74564" lon="11.1799559"><ele>51.0</ele><time>2026-04-26T09:03:41.952Z</time></trkpt><trkpt lat="43.7455743" lon="11.1799957"><ele>51.0</ele><time>2026-04-26T09:03:43.95Z</time></trkpt><trkpt lat="43.7455086" lon="11.1800379"><ele>51.0</ele><time>2026-04-26T09:03:45.951Z</time></trkpt><trkpt lat="43.7454488" lon="11.180086"><ele>51.0</ele><time>2026-04-26T09:03:47.951Z</time></trkpt><trkpt lat="43.745372" lon="11.1801601"><ele>51.0</ele><time>2026-04-26T09:03:50.951Z</time></trkpt><trkpt lat="43.7453109" lon="11.1802128"><ele>51.0</ele><time>2026-04-26T09:03:52.951Z</time></trkpt><trkpt lat="43.7452467" lon="11.1802716"><ele>51.57142857142857</ele><time>2026-04-26T09:03:54.95Z</time></trkpt><trkpt lat="43.7451824" lon="11.1803266"><ele>52.142857142857146</ele><time>2026-04-26T09:03:56.951Z</time></trkpt><trkpt lat="43.7451188" lon="11.1803895"><ele>52.71428571428571</ele><time>2026-04-26T09:03:58.951Z</time></trkpt><trkpt lat="43.7450512" lon="11.180448"><ele>53.285714285714285</ele><time>2026-04-26T09:04:00.951Z</time></trkpt><trkpt lat="43.7449871" lon="11.1804978"><ele>53.857142857142854</ele><time>2026-04-26T09:04:02.95Z</time></trkpt><trkpt lat="43.7449252" lon="11.1805449"><ele>54.42857142857142</ele><time>2026-04-26T09:04:04.951Z</time></trkpt><trkpt lat="43.7448631" lon="11.1805887"><ele>55.0</ele><time>2026-04-26T09:04:06.95Z</time></trkpt><trkpt lat="43.7447904" lon="11.1806213"><ele>54.99999999999999</ele><time>2026-04-26T09:04:08.95Z</time></trkpt><trkpt lat="43.7447153" lon="11.1806554"><ele>55.0</ele><time>2026-04-26T09:04:10.951Z</time></trkpt><trkpt lat="43.7446437" lon="11.180683"><ele>55.0</ele><time>2026-04-26T09:04:12.951Z</time></trkpt><trkpt lat="43.7445717" lon="11.1807029"><ele>55.0</ele><time>2026-04-26T09:04:14.951Z</time></trkpt><trkpt lat="43.7444988" lon="11.1807276"><ele>55.0</ele><time>2026-04-26T09:04:16.95Z</time></trkpt><trkpt lat="43.7444273" lon="11.1807497"><ele>54.99999999999999</ele><time>2026-04-26T09:04:18.951Z</time></trkpt><trkpt lat="43.7443598" lon="11.1807756"><ele>55.0</ele><time>2026-04-26T09:04:20.95Z</time></trkpt><trkpt lat="43.7442873" lon="11.1807933"><ele>54.99999999999999</ele><time>2026-04-26T09:04:22.951Z</time></trkpt><trkpt lat="43.7442163" lon="11.1808116"><ele>55.0</ele><time>2026-04-26T09:04:24.95Z</time></trkpt><trkpt lat="43.7441472" lon="11.1808334"><ele>55.0</ele><time>2026-04-26T09:04:26.951Z</time></trkpt><trkpt lat="43.7440794" lon="11.1808579"><ele>55.0</ele><time>2026-04-26T09:04:28.951Z</time></trkpt><trkpt lat="43.7440122" lon="11.1808862"><ele>55.0</ele><time>2026-04-26T09:04:30.951Z</time></trkpt><trkpt lat="43.7439471" lon="11.1809213"><ele>54.99999999999999</ele><time>2026-04-26T09:04:32.951Z</time></trkpt><trkpt lat="43.7438814" lon="11.1809484"><ele>55.0</ele><time>2026-04-26T09:04:34.951Z</time></trkpt><trkpt lat="43.7438169" lon="11.1809707"><ele>54.99999999999999</ele><time>2026-04-26T09:04:36.95Z</time></trkpt><trkpt lat="43.7437554" lon="11.1809985"><ele>55.0</ele><time>2026-04-26T09:04:38.95Z</time></trkpt><trkpt lat="43.7436916" lon="11.1810253"><ele>55.0</ele><time>2026-04-26T09:04:40.951Z</time></trkpt><trkpt lat="43.7436273" lon="11.1810454"><ele>55.0</ele><time>2026-04-26T09:04:42.951Z</time></trkpt><trkpt lat="43.7435432" lon="11.1810999"><ele>55.0</ele><time>2026-04-26T09:04:45.951Z</time></trkpt><trkpt lat="43.743482" lon="11.1811579"><ele>54.99999999999999</ele><time>2026-04-26T09:04:47.949Z</time></trkpt><trkpt lat="43.7434224" lon="11.1812142"><ele>55.0</ele><time>2026-04-26T09:04:49.951Z</time></trkpt><trkpt lat="43.7433581" lon="11.18126"><ele>54.99999999999999</ele><time>2026-04-26T09:04:51.95Z</time></trkpt><trkpt lat="43.7432907" lon="11.1812943"><ele>55.0</ele><time>2026-04-26T09:04:53.951Z</time></trkpt><trkpt lat="43.7432156" lon="11.1813252"><ele>55.0</ele><time>2026-04-26T09:04:55.949Z</time></trkpt><trkpt lat="43.74314" lon="11.1813621"><ele>55.0</ele><time>2026-04-26T09:04:57.95Z</time></trkpt><trkpt lat="43.7430629" lon="11.1813895"><ele>54.99999999999999</ele><time>2026-04-26T09:04:59.951Z</time></trkpt><trkpt lat="43.7429879" lon="11.1814012"><ele>55.0</ele><time>2026-04-26T09:05:01.95Z</time></trkpt><trkpt lat="43.7429165" lon="11.1814211"><ele>54.99999999999999</ele><time>2026-04-26T09:05:03.95Z</time></trkpt><trkpt lat="43.742838" lon="11.1814352"><ele>55.0</ele><time>2026-04-26T09:05:05.95Z</time></trkpt><trkpt lat="43.7427644" lon="11.1814413"><ele>55.0</ele><time>2026-04-26T09:05:07.95Z</time></trkpt><trkpt lat="43.7426819" lon="11.1814432"><ele>55.0</ele><time>2026-04-26T09:05:10.95Z</time></trkpt><trkpt lat="43.7426061" lon="11.1814309"><ele>54.99999999999999</ele><time>2026-04-26T09:05:14.95Z</time></trkpt><trkpt lat="43.7425201" lon="11.1814359"><ele>55.0</ele><time>2026-04-26T09:06:07.951Z</time></trkpt><trkpt lat="43.7424457" lon="11.181409"><ele>56.0</ele><time>2026-04-26T09:06:09.952Z</time></trkpt><trkpt lat="43.7423694" lon="11.1813702"><ele>57.0</ele><time>2026-04-26T09:06:11.951Z</time></trkpt><trkpt lat="43.7419304" lon="11.1811637"><ele>57.6</ele><time>2026-04-26T09:06:23.95Z</time></trkpt><trkpt lat="43.7418188" lon="11.1811426"><ele>58.2</ele><time>2026-04-26T09:06:25.95Z</time></trkpt><trkpt lat="43.741723" lon="11.181133"><ele>58.8</ele><time>2026-04-26T09:06:27.951Z</time></trkpt><trkpt lat="43.7416311" lon="11.1811345"><ele>59.4</ele><time>2026-04-26T09:06:29.95Z</time></trkpt><trkpt lat="43.7415368" lon="11.1811413"><ele>60.0</ele><time>2026-04-26T09:06:31.951Z</time></trkpt><trkpt lat="43.7414506" lon="11.1811582"><ele>60.0</ele><time>2026-04-26T09:06:33.951Z</time></trkpt><trkpt lat="43.7413782" lon="11.1811779"><ele>60.0</ele><time>2026-04-26T09:06:35.95Z</time></trkpt><trkpt lat="43.7413116" lon="11.1811914"><ele>60.0</ele><time>2026-04-26T09:06:37.951Z</time></trkpt><trkpt lat="43.7412235" lon="11.181215"><ele>60.0</ele><time>2026-04-26T09:06:40.951Z</time></trkpt><trkpt lat="43.7411439" lon="11.1812297"><ele>60.0</ele><time>2026-04-26T09:06:43.95Z</time></trkpt><trkpt lat="43.7410754" lon="11.1812405"><ele>60.0</ele><time>2026-04-26T09:06:46.95Z</time></trkpt><trkpt lat="43.7410004" lon="11.1812589"><ele>61.666666666666664</ele><time>2026-04-26T09:06:49.951Z</time></trkpt><trkpt lat="43.7409332" lon="11.1812633"><ele>63.33333333333333</ele><time>2026-04-26T09:06:51.95Z</time></trkpt><trkpt lat="43.7408651" lon="11.1812675"><ele>65.0</ele><time>2026-04-26T09:06:53.951Z</time></trkpt><trkpt lat="43.7407984" lon="11.1812664"><ele>66.66666666666666</ele><time>2026-04-26T09:06:55.95Z</time></trkpt><trkpt lat="43.7407063" lon="11.1812612"><ele>68.33333333333333</ele><time>2026-04-26T09:06:58.951Z</time></trkpt><trkpt lat="43.7406157" lon="11.1812492"><ele>70.0</ele><time>2026-04-26T09:07:01.951Z</time></trkpt><trkpt lat="43.7405338" lon="11.1812312"><ele>70.0</ele><time>2026-04-26T09:07:04.95Z</time></trkpt><trkpt lat="43.7404553" lon="11.1812207"><ele>70.0</ele><time>2026-04-26T09:07:07.95Z</time></trkpt><trkpt lat="43.7403682" lon="11.1812163"><ele>70.0</ele><time>2026-04-26T09:07:10.95Z</time></trkpt><trkpt lat="43.740304" lon="11.1812092"><ele>70.0</ele><time>2026-04-26T09:07:12.949Z</time></trkpt><trkpt lat="43.7402094" lon="11.1811957"><ele>70.0</ele><time>2026-04-26T09:07:14.95Z</time></trkpt><trkpt lat="43.7401056" lon="11.1811545"><ele>70.0</ele><time>2026-04-26T09:07:16.95Z</time></trkpt><trkpt lat="43.7400047" lon="11.1811465"><ele>71.0</ele><time>2026-04-26T09:07:18.949Z</time></trkpt><trkpt lat="43.7399004" lon="11.1811484"><ele>72.0</ele><time>2026-04-26T09:07:20.951Z</time></trkpt><trkpt lat="43.7398147" lon="11.1811346"><ele>73.0</ele><time>2026-04-26T09:07:22.95Z</time></trkpt><trkpt lat="43.7397467" lon="11.1811214"><ele>74.0</ele><time>2026-04-26T09:07:24.95Z</time></trkpt><trkpt lat="43.7396809" lon="11.1811151"><ele>75.0</ele><time>2026-04-26T09:07:26.949Z</time></trkpt><trkpt lat="43.7396087" lon="11.1810982"><ele>76.0</ele><time>2026-04-26T09:07:28.951Z</time></trkpt><trkpt lat="43.7395313" lon="11.1810782"><ele>76.0</ele><time>2026-04-26T09:07:30.951Z</time></trkpt><trkpt lat="43.7394582" lon="11.1810652"><ele>76.0</ele><time>2026-04-26T09:07:32.95Z</time></trkpt><trkpt lat="43.7393841" lon="11.1810512"><ele>76.0</ele><time>2026-04-26T09:07:34.95Z</time></trkpt><trkpt lat="43.7393094" lon="11.1810308"><ele>76.0</ele><time>2026-04-26T09:07:36.95Z</time></trkpt><trkpt lat="43.7392393" lon="11.1810159"><ele>76.0</ele><time>2026-04-26T09:07:38.949Z</time></trkpt><trkpt lat="43.7391755" lon="11.1810063"><ele>76.0</ele><time>2026-04-26T09:07:40.949Z</time></trkpt><trkpt lat="43.7390823" lon="11.1809898"><ele>77.66666666666666</ele><time>2026-04-26T09:07:43.949Z</time></trkpt><trkpt lat="43.7390194" lon="11.1809822"><ele>79.33333333333333</ele><time>2026-04-26T09:07:45.951Z</time></trkpt><trkpt lat="43.7389268" lon="11.1809721"><ele>81.0</ele><time>2026-04-26T09:07:48.951Z</time></trkpt><trkpt lat="43.7388379" lon="11.1809847"><ele>82.66666666666667</ele><time>2026-04-26T09:07:51.95Z</time></trkpt><trkpt lat="43.7387627" lon="11.1809999"><ele>84.33333333333334</ele><time>2026-04-26T09:07:54.95Z</time></trkpt><trkpt lat="43.7386858" lon="11.1810164"><ele>86.0</ele><time>2026-04-26T09:07:57.95Z</time></trkpt><trkpt lat="43.7386011" lon="11.1810299"><ele>86.16666666666667</ele><time>2026-04-26T09:08:00.95Z</time></trkpt><trkpt lat="43.7385169" lon="11.1810531"><ele>86.33333333333334</ele><time>2026-04-26T09:08:03.95Z</time></trkpt><trkpt lat="43.7384384" lon="11.1810656"><ele>86.5</ele><time>2026-04-26T09:08:06.95Z</time></trkpt><trkpt lat="43.7383569" lon="11.1810819"><ele>86.66666666666667</ele><time>2026-04-26T09:08:09.95Z</time></trkpt><trkpt lat="43.7382842" lon="11.1810976"><ele>86.83333333333333</ele><time>2026-04-26T09:08:12.95Z</time></trkpt><trkpt lat="43.7382214" lon="11.1811148"><ele>87.0</ele><time>2026-04-26T09:08:15.951Z</time></trkpt><trkpt lat="43.7381555" lon="11.1811363"><ele>87.0</ele><time>2026-04-26T09:08:18.95Z</time></trkpt><trkpt lat="43.7380836" lon="11.1811639"><ele>87.0</ele><time>2026-04-26T09:08:21.95Z</time></trkpt><trkpt lat="43.738011" lon="11.1811857"><ele>87.0</ele><time>2026-04-26T09:08:24.949Z</time></trkpt><trkpt lat="43.7379385" lon="11.18122"><ele>87.0</ele><time>2026-04-26T09:08:27.95Z</time></trkpt><trkpt lat="43.7378624" lon="11.1812375"><ele>87.0</ele><time>2026-04-26T09:08:30.949Z</time></trkpt><trkpt lat="43.7377932" lon="11.1812505"><ele>87.0</ele><time>2026-04-26T09:08:33.949Z</time></trkpt><trkpt lat="43.7377251" lon="11.1812658"><ele>87.0</ele><time>2026-04-26T09:08:36.949Z</time></trkpt><trkpt lat="43.7376591" lon="11.1812977"><ele>86.5</ele><time>2026-04-26T09:08:39.949Z</time></trkpt><trkpt lat="43.7375889" lon="11.1813331"><ele>86.0</ele><time>2026-04-26T09:08:42.95Z</time></trkpt><trkpt lat="43.7375187" lon="11.1813714"><ele>85.5</ele><time>2026-04-26T09:08:45.95Z</time></trkpt><trkpt lat="43.7374386" lon="11.1814108"><ele>85.0</ele><time>2026-04-26T09:08:48.95Z</time></trkpt><trkpt lat="43.7373611" lon="11.1814571"><ele>84.5</ele><time>2026-04-26T09:08:51.95Z</time></trkpt><trkpt lat="43.7372787" lon="11.1815051"><ele>84.0</ele><time>2026-04-26T09:08:54.951Z</time></trkpt><trkpt lat="43.7371968" lon="11.1815473"><ele>85.83333333333333</ele><time>2026-04-26T09:08:57.95Z</time></trkpt><trkpt lat="43.7371334" lon="11.1815761"><ele>87.66666666666667</ele><time>2026-04-26T09:08:59.95Z</time></trkpt><trkpt lat="43.737073" lon="11.1816021"><ele>89.5</ele><time>2026-04-26T09:09:01.949Z</time></trkpt><trkpt lat="43.7369877" lon="11.1816519"><ele>91.33333333333334</ele><time>2026-04-26T09:09:04.95Z</time></trkpt><trkpt lat="43.73691" lon="11.1817126"><ele>93.16666666666667</ele><time>2026-04-26T09:09:07.949Z</time></trkpt><trkpt lat="43.7368359" lon="11.1817621"><ele>95.0</ele><time>2026-04-26T09:09:10.949Z</time></trkpt><trkpt lat="43.7367852" lon="11.1818224"><ele>95.0</ele><time>2026-04-26T09:09:13.948Z</time></trkpt><trkpt lat="43.7367121" lon="11.181888"><ele>95.0</ele><time>2026-04-26T09:09:16.949Z</time></trkpt><trkpt lat="43.7366511" lon="11.1819433"><ele>95.0</ele><time>2026-04-26T09:09:19.951Z</time></trkpt><trkpt lat="43.7365921" lon="11.1820004"><ele>95.0</ele><time>2026-04-26T09:09:22.95Z</time></trkpt><trkpt lat="43.7365337" lon="11.1820527"><ele>95.0</ele><time>2026-04-26T09:09:24.949Z</time></trkpt><trkpt lat="43.7364588" lon="11.1821028"><ele>95.0</ele><time>2026-04-26T09:09:26.949Z</time></trkpt><trkpt lat="43.7363854" lon="11.1821518"><ele>95.0</ele><time>2026-04-26T09:09:28.948Z</time></trkpt><trkpt lat="43.7363159" lon="11.1821894"><ele>95.0</ele><time>2026-04-26T09:09:30.948Z</time></trkpt><trkpt lat="43.736246" lon="11.1822044"><ele>95.0</ele><time>2026-04-26T09:09:32.95Z</time></trkpt><trkpt lat="43.7361675" lon="11.1822115"><ele>95.0</ele><time>2026-04-26T09:09:34.95Z</time></trkpt><trkpt lat="43.7360783" lon="11.182211"><ele>95.0</ele><time>2026-04-26T09:09:36.95Z</time></trkpt><trkpt lat="43.7359854" lon="11.182194"><ele>95.0</ele><time>2026-04-26T09:09:38.948Z</time></trkpt><trkpt lat="43.7358928" lon="11.1821806"><ele>94.5</ele><time>2026-04-26T09:09:40.95Z</time></trkpt><trkpt lat="43.7357982" lon="11.1821855"><ele>94.0</ele><time>2026-04-26T09:09:42.95Z</time></trkpt><trkpt lat="43.735705" lon="11.1821725"><ele>93.5</ele><time>2026-04-26T09:09:44.95Z</time></trkpt><trkpt lat="43.7356168" lon="11.1821471"><ele>93.0</ele><time>2026-04-26T09:09:46.95Z</time></trkpt><trkpt lat="43.7355419" lon="11.1821175"><ele>92.5</ele><time>2026-04-26T09:09:48.949Z</time></trkpt><trkpt lat="43.7354763" lon="11.1820636"><ele>92.0</ele><time>2026-04-26T09:09:50.951Z</time></trkpt><trkpt lat="43.7353977" lon="11.1819959"><ele>92.0</ele><time>2026-04-26T09:09:52.95Z</time></trkpt><trkpt lat="43.7353229" lon="11.1819298"><ele>92.0</ele><time>2026-04-26T09:09:54.948Z</time></trkpt><trkpt lat="43.7352589" lon="11.1818808"><ele>92.0</ele><time>2026-04-26T09:09:56.951Z</time></trkpt><trkpt lat="43.7351986" lon="11.1818259"><ele>92.0</ele><time>2026-04-26T09:09:58.95Z</time></trkpt><trkpt lat="43.7351178" lon="11.181754"><ele>92.0</ele><time>2026-04-26T09:10:00.949Z</time></trkpt><trkpt lat="43.735058" lon="11.1816805"><ele>92.0</ele><time>2026-04-26T09:10:02.95Z</time></trkpt><trkpt lat="43.7349972" lon="11.1815857"><ele>92.83333333333334</ele><time>2026-04-26T09:10:04.95Z</time></trkpt><trkpt lat="43.7349495" lon="11.1814895"><ele>93.66666666666667</ele><time>2026-04-26T09:10:06.949Z</time></trkpt><trkpt lat="43.7349058" lon="11.1813933"><ele>94.5</ele><time>2026-04-26T09:10:08.949Z</time></trkpt><trkpt lat="43.7348579" lon="11.1812997"><ele>95.33333333333334</ele><time>2026-04-26T09:10:10.949Z</time></trkpt><trkpt lat="43.7348133" lon="11.1812122"><ele>96.16666666666667</ele><time>2026-04-26T09:10:12.95Z</time></trkpt><trkpt lat="43.7347673" lon="11.1811317"><ele>97.0</ele><time>2026-04-26T09:10:14.949Z</time></trkpt><trkpt lat="43.7347227" lon="11.181054"><ele>97.0</ele><time>2026-04-26T09:10:16.95Z</time></trkpt><trkpt lat="43.7346821" lon="11.1809773"><ele>97.0</ele><time>2026-04-26T09:10:18.95Z</time></trkpt><trkpt lat="43.7346354" lon="11.1808917"><ele>97.0</ele><time>2026-04-26T09:10:20.949Z</time></trkpt><trkpt lat="43.7345917" lon="11.1808069"><ele>97.0</ele><time>2026-04-26T09:10:22.95Z</time></trkpt><trkpt lat="43.7345419" lon="11.1807347"><ele>97.0</ele><time>2026-04-26T09:10:24.949Z</time></trkpt><trkpt lat="43.7344829" lon="11.1806628"><ele>97.0</ele><time>2026-04-26T09:10:27.95Z</time></trkpt><trkpt lat="43.7344263" lon="11.1806152"><ele>97.0</ele><time>2026-04-26T09:10:31.949Z</time></trkpt><trkpt lat="43.7343772" lon="11.1805518"><ele>99.57142857142857</ele><time>2026-04-26T09:11:01.949Z</time></trkpt><trkpt lat="43.7343339" lon="11.1804835"><ele>102.14285714285714</ele><time>2026-04-26T09:11:06.95Z</time></trkpt><trkpt lat="43.734299" lon="11.180401"><ele>104.71428571428571</ele><time>2026-04-26T09:11:11.948Z</time></trkpt><trkpt lat="43.7342996" lon="11.1802982"><ele>107.28571428571428</ele><time>2026-04-26T09:11:15.949Z</time></trkpt><trkpt lat="43.7343204" lon="11.1802067"><ele>109.85714285714286</ele><time>2026-04-26T09:11:20.95Z</time></trkpt><trkpt lat="43.7343303" lon="11.1800988"><ele>112.42857142857142</ele><time>2026-04-26T09:11:23.948Z</time></trkpt><trkpt lat="43.734348" lon="11.1799852"><ele>114.99999999999999</ele><time>2026-04-26T09:11:26.949Z</time></trkpt><trkpt lat="43.7343807" lon="11.179874"><ele>114.42857142857142</ele><time>2026-04-26T09:11:29.949Z</time></trkpt><trkpt lat="43.7343873" lon="11.179781"><ele>113.85714285714286</ele><time>2026-04-26T09:11:32.949Z</time></trkpt><trkpt lat="43.7343365" lon="11.1796978"><ele>113.28571428571428</ele><time>2026-04-26T09:11:36.949Z</time></trkpt><trkpt lat="43.7342628" lon="11.1796765"><ele>112.71428571428571</ele><time>2026-04-26T09:11:39.95Z</time></trkpt><trkpt lat="43.7341809" lon="11.1796725"><ele>112.14285714285714</ele><time>2026-04-26T09:11:42.949Z</time></trkpt><trkpt lat="43.7341171" lon="11.1796418"><ele>111.57142857142857</ele><time>2026-04-26T09:11:45.949Z</time></trkpt><trkpt lat="43.7340505" lon="11.1796388"><ele>111.0</ele><time>2026-04-26T09:11:50.949Z</time></trkpt><trkpt lat="43.733977" lon="11.1796843"><ele>111.0</ele><time>2026-04-26T09:11:55.951Z</time></trkpt><trkpt lat="43.7338978" lon="11.1796975"><ele>111.0</ele><time>2026-04-26T09:11:59.95Z</time></trkpt><trkpt lat="43.7338042" lon="11.1797059"><ele>111.0</ele><time>2026-04-26T09:12:02.95Z</time></trkpt><trkpt lat="43.7337275" lon="11.179709"><ele>111.0</ele><time>2026-04-26T09:12:04.95Z</time></trkpt><trkpt lat="43.7336457" lon="11.179719"><ele>111.0</ele><time>2026-04-26T09:12:06.95Z</time></trkpt><trkpt lat="43.7335792" lon="11.1797242"><ele>111.0</ele><time>2026-04-26T09:12:08.95Z</time></trkpt><trkpt lat="43.7335104" lon="11.1797122"><ele>113.16666666666667</ele><time>2026-04-26T09:12:10.949Z</time></trkpt><trkpt lat="43.7334379" lon="11.1796718"><ele>115.33333333333334</ele><time>2026-04-26T09:12:12.95Z</time></trkpt><trkpt lat="43.7333822" lon="11.1795912"><ele>117.5</ele><time>2026-04-26T09:12:14.948Z</time></trkpt><trkpt lat="43.7333445" lon="11.1794825"><ele>119.66666666666667</ele><time>2026-04-26T09:12:16.949Z</time></trkpt><trkpt lat="43.7333161" lon="11.1793722"><ele>121.83333333333334</ele><time>2026-04-26T09:12:18.948Z</time></trkpt><trkpt lat="43.7332936" lon="11.17928"><ele>124.0</ele><time>2026-04-26T09:12:20.95Z</time></trkpt><trkpt lat="43.733276" lon="11.179193"><ele>124.0</ele><time>2026-04-26T09:12:22.949Z</time></trkpt><trkpt lat="43.7332642" lon="11.1791031"><ele>124.00000000000001</ele><time>2026-04-26T09:12:24.95Z</time></trkpt><trkpt lat="43.7332414" lon="11.179012"><ele>124.0</ele><time>2026-04-26T09:12:26.95Z</time></trkpt><trkpt lat="43.7332052" lon="11.178923"><ele>124.0</ele><time>2026-04-26T09:12:28.947Z</time></trkpt><trkpt lat="43.733162" lon="11.1788309"><ele>124.00000000000001</ele><time>2026-04-26T09:12:30.948Z</time></trkpt><trkpt lat="43.7331129" lon="11.178742"><ele>124.0</ele><time>2026-04-26T09:12:32.949Z</time></trkpt><trkpt lat="43.7330587" lon="11.1786635"><ele>124.0</ele><time>2026-04-26T09:12:34.949Z</time></trkpt><trkpt lat="43.7330045" lon="11.1785979"><ele>122.85714285714286</ele><time>2026-04-26T09:12:36.95Z</time></trkpt><trkpt lat="43.7329477" lon="11.178539"><ele>121.71428571428572</ele><time>2026-04-26T09:12:38.949Z</time></trkpt><trkpt lat="43.7328855" lon="11.1784975"><ele>120.57142857142858</ele><time>2026-04-26T09:12:40.948Z</time></trkpt><trkpt lat="43.7328213" lon="11.1784712"><ele>119.42857142857144</ele><time>2026-04-26T09:12:42.948Z</time></trkpt><trkpt lat="43.732756" lon="11.1784656"><ele>118.28571428571429</ele><time>2026-04-26T09:12:44.949Z</time></trkpt><trkpt lat="43.7326915" lon="11.1784657"><ele>117.14285714285717</ele><time>2026-04-26T09:12:46.948Z</time></trkpt><trkpt lat="43.7326221" lon="11.1784774"><ele>116.00000000000001</ele><time>2026-04-26T09:12:48.95Z</time></trkpt><trkpt lat="43.7325522" lon="11.1784874"><ele>118.57142857142858</ele><time>2026-04-26T09:12:50.949Z</time></trkpt><trkpt lat="43.7324896" lon="11.1785009"><ele>121.14285714285714</ele><time>2026-04-26T09:12:52.949Z</time></trkpt><trkpt lat="43.7324025" lon="11.1785171"><ele>123.71428571428572</ele><time>2026-04-26T09:12:55.949Z</time></trkpt><trkpt lat="43.7323346" lon="11.1785216"><ele>126.28571428571429</ele><time>2026-04-26T09:12:57.949Z</time></trkpt><trkpt lat="43.7322685" lon="11.1785236"><ele>128.85714285714286</ele><time>2026-04-26T09:12:59.95Z</time></trkpt><trkpt lat="43.7321873" lon="11.1785177"><ele>131.42857142857144</ele><time>2026-04-26T09:13:02.948Z</time></trkpt><trkpt lat="43.7321215" lon="11.1785053"><ele>134.0</ele><time>2026-04-26T09:13:04.948Z</time></trkpt><trkpt lat="43.732055" lon="11.1784901"><ele>134.0</ele><time>2026-04-26T09:13:06.947Z</time></trkpt><trkpt lat="43.7319864" lon="11.1784718"><ele>134.0</ele><time>2026-04-26T09:13:08.949Z</time></trkpt><trkpt lat="43.7319221" lon="11.1784504"><ele>134.0</ele><time>2026-04-26T09:13:10.949Z</time></trkpt><trkpt lat="43.731862" lon="11.1784212"><ele>134.0</ele><time>2026-04-26T09:13:12.949Z</time></trkpt><trkpt lat="43.7318014" lon="11.1783936"><ele>134.0</ele><time>2026-04-26T09:13:14.949Z</time></trkpt><trkpt lat="43.7317358" lon="11.1783725"><ele>134.0</ele><time>2026-04-26T09:13:16.949Z</time></trkpt><trkpt lat="43.7316642" lon="11.1783353"><ele>134.0</ele><time>2026-04-26T09:13:18.95Z</time></trkpt><trkpt lat="43.7315991" lon="11.1783006"><ele>135.14285714285714</ele><time>2026-04-26T09:13:20.949Z</time></trkpt><trkpt lat="43.7315252" lon="11.178276"><ele>136.28571428571428</ele><time>2026-04-26T09:13:22.949Z</time></trkpt><trkpt lat="43.7314553" lon="11.1782678"><ele>137.42857142857142</ele><time>2026-04-26T09:13:24.949Z</time></trkpt><trkpt lat="43.7313888" lon="11.1782693"><ele>138.57142857142856</ele><time>2026-04-26T09:13:26.948Z</time></trkpt><trkpt lat="43.7313133" lon="11.1782755"><ele>139.7142857142857</ele><time>2026-04-26T09:13:28.95Z</time></trkpt><trkpt lat="43.7312307" lon="11.1782857"><ele>140.85714285714286</ele><time>2026-04-26T09:13:31.95Z</time></trkpt><trkpt lat="43.7311619" lon="11.1782866"><ele>142.0</ele><time>2026-04-26T09:13:33.948Z</time></trkpt><trkpt lat="43.731069" lon="11.1782849"><ele>142.57142857142856</ele><time>2026-04-26T09:13:36.949Z</time></trkpt><trkpt lat="43.7310008" lon="11.1782879"><ele>143.14285714285714</ele><time>2026-04-26T09:13:38.949Z</time></trkpt><trkpt lat="43.7309262" lon="11.1782893"><ele>143.71428571428572</ele><time>2026-04-26T09:13:40.95Z</time></trkpt><trkpt lat="43.730864" lon="11.1783082"><ele>144.28571428571428</ele><time>2026-04-26T09:13:42.949Z</time></trkpt><trkpt lat="43.7307932" lon="11.1783278"><ele>144.85714285714286</ele><time>2026-04-26T09:13:44.948Z</time></trkpt><trkpt lat="43.7307179" lon="11.17834"><ele>145.42857142857142</ele><time>2026-04-26T09:13:46.949Z</time></trkpt><trkpt lat="43.7306449" lon="11.1783412"><ele>146.0</ele><time>2026-04-26T09:13:48.948Z</time></trkpt><trkpt lat="43.7305703" lon="11.1783321"><ele>146.0</ele><time>2026-04-26T09:13:50.949Z</time></trkpt><trkpt lat="43.73049" lon="11.1783189"><ele>146.0</ele><time>2026-04-26T09:13:52.95Z</time></trkpt><trkpt lat="43.7304093" lon="11.1782914"><ele>146.0</ele><time>2026-04-26T09:13:54.949Z</time></trkpt><trkpt lat="43.7303373" lon="11.1782508"><ele>146.0</ele><time>2026-04-26T09:13:56.949Z</time></trkpt><trkpt lat="43.730274" lon="11.1782143"><ele>146.0</ele><time>2026-04-26T09:13:58.948Z</time></trkpt><trkpt lat="43.7302139" lon="11.1781695"><ele>146.0</ele><time>2026-04-26T09:14:00.948Z</time></trkpt><trkpt lat="43.7301497" lon="11.1781167"><ele>146.0</ele><time>2026-04-26T09:14:02.947Z</time></trkpt><trkpt lat="43.7300766" lon="11.1780672"><ele>146.0</ele><time>2026-04-26T09:14:04.948Z</time></trkpt><trkpt lat="43.7300046" lon="11.1780144"><ele>146.0</ele><time>2026-04-26T09:14:06.949Z</time></trkpt><trkpt lat="43.7299387" lon="11.1779629"><ele>146.0</ele><time>2026-04-26T09:14:08.95Z</time></trkpt><trkpt lat="43.7298742" lon="11.1779083"><ele>146.0</ele><time>2026-04-26T09:14:10.95Z</time></trkpt><trkpt lat="43.7298073" lon="11.1778624"><ele>146.0</ele><time>2026-04-26T09:14:12.949Z</time></trkpt><trkpt lat="43.7297417" lon="11.1778205"><ele>146.0</ele><time>2026-04-26T09:14:14.949Z</time></trkpt><trkpt lat="43.7296726" lon="11.1777747"><ele>146.0</ele><time>2026-04-26T09:14:16.949Z</time></trkpt><trkpt lat="43.7296019" lon="11.1777298"><ele>146.0</ele><time>2026-04-26T09:14:18.95Z</time></trkpt><trkpt lat="43.7295264" lon="11.1776847"><ele>146.0</ele><time>2026-04-26T09:14:20.949Z</time></trkpt><trkpt lat="43.7294516" lon="11.1776377"><ele>146.0</ele><time>2026-04-26T09:14:22.948Z</time></trkpt><trkpt lat="43.7293796" lon="11.1775876"><ele>146.0</ele><time>2026-04-26T09:14:24.949Z</time></trkpt><trkpt lat="43.72931" lon="11.1775377"><ele>147.0</ele><time>2026-04-26T09:14:26.949Z</time></trkpt><trkpt lat="43.7292437" lon="11.1774825"><ele>148.0</ele><time>2026-04-26T09:14:28.947Z</time></trkpt><trkpt lat="43.7291679" lon="11.1774295"><ele>149.0</ele><time>2026-04-26T09:14:30.949Z</time></trkpt><trkpt lat="43.7290873" lon="11.177376"><ele>150.0</ele><time>2026-04-26T09:14:32.949Z</time></trkpt><trkpt lat="43.7290094" lon="11.1773268"><ele>151.0</ele><time>2026-04-26T09:14:34.949Z</time></trkpt><trkpt lat="43.7289292" lon="11.1772867"><ele>152.0</ele><time>2026-04-26T09:14:36.949Z</time></trkpt><trkpt lat="43.728849" lon="11.1772762"><ele>152.16666666666666</ele><time>2026-04-26T09:14:38.949Z</time></trkpt><trkpt lat="43.7287751" lon="11.1772869"><ele>152.33333333333331</ele><time>2026-04-26T09:14:40.948Z</time></trkpt><trkpt lat="43.7287071" lon="11.1773086"><ele>152.5</ele><time>2026-04-26T09:14:42.949Z</time></trkpt><trkpt lat="43.7286142" lon="11.1773422"><ele>152.66666666666666</ele><time>2026-04-26T09:14:45.948Z</time></trkpt><trkpt lat="43.7285397" lon="11.1773814"><ele>152.83333333333334</ele><time>2026-04-26T09:14:47.949Z</time></trkpt><trkpt lat="43.7284569" lon="11.177419"><ele>153.0</ele><time>2026-04-26T09:14:49.948Z</time></trkpt><trkpt lat="43.7283726" lon="11.1774557"><ele>153.0</ele><time>2026-04-26T09:14:51.95Z</time></trkpt><trkpt lat="43.7282657" lon="11.1774774"><ele>153.0</ele><time>2026-04-26T09:14:53.949Z</time></trkpt><trkpt lat="43.7281795" lon="11.1774552"><ele>153.0</ele><time>2026-04-26T09:14:55.949Z</time></trkpt><trkpt lat="43.7280816" lon="11.1774226"><ele>153.0</ele><time>2026-04-26T09:14:57.949Z</time></trkpt><trkpt lat="43.7279846" lon="11.177331"><ele>153.0</ele><time>2026-04-26T09:14:59.948Z</time></trkpt><trkpt lat="43.7279367" lon="11.1772736"><ele>151.33333333333334</ele><time>2026-04-26T09:15:00.949Z</time></trkpt><trkpt lat="43.7278837" lon="11.1772222"><ele>149.66666666666666</ele><time>2026-04-26T09:15:01.949Z</time></trkpt><trkpt lat="43.7278083" lon="11.1770798"><ele>148.0</ele><time>2026-04-26T09:15:03.948Z</time></trkpt><trkpt lat="43.7277654" lon="11.1770149"><ele>146.33333333333331</ele><time>2026-04-26T09:15:04.949Z</time></trkpt><trkpt lat="43.7277188" lon="11.1769545"><ele>144.66666666666666</ele><time>2026-04-26T09:15:05.949Z</time></trkpt><trkpt lat="43.7276702" lon="11.1768991"><ele>143.0</ele><time>2026-04-26T09:15:06.949Z</time></trkpt><trkpt lat="43.7275805" lon="11.1767871"><ele>143.0</ele><time>2026-04-26T09:15:08.949Z</time></trkpt><trkpt lat="43.7274676" lon="11.1766939"><ele>143.0</ele><time>2026-04-26T09:15:10.948Z</time></trkpt><trkpt lat="43.7274094" lon="11.1766424"><ele>143.0</ele><time>2026-04-26T09:15:11.948Z</time></trkpt><trkpt lat="43.7273175" lon="11.1765584"><ele>143.0</ele><time>2026-04-26T09:15:13.95Z</time></trkpt><trkpt lat="43.7272547" lon="11.1764942"><ele>143.0</ele><time>2026-04-26T09:15:15.949Z</time></trkpt><trkpt lat="43.7271754" lon="11.176434"><ele>142.20000000000002</ele><time>2026-04-26T09:15:17.948Z</time></trkpt><trkpt lat="43.7270734" lon="11.1763729"><ele>141.4</ele><time>2026-04-26T09:15:19.948Z</time></trkpt><trkpt lat="43.7269755" lon="11.1763269"><ele>140.60000000000002</ele><time>2026-04-26T09:15:21.948Z</time></trkpt><trkpt lat="43.7268976" lon="11.1762462"><ele>139.8</ele><time>2026-04-26T09:15:23.948Z</time></trkpt><trkpt lat="43.7268591" lon="11.1761361"><ele>139.0</ele><time>2026-04-26T09:15:25.949Z</time></trkpt><trkpt lat="43.7268539" lon="11.1760177"><ele>140.0</ele><time>2026-04-26T09:15:27.948Z</time></trkpt><trkpt lat="43.7268722" lon="11.1759081"><ele>141.0</ele><time>2026-04-26T09:15:29.949Z</time></trkpt><trkpt lat="43.7268424" lon="11.1758276"><ele>142.0</ele><time>2026-04-26T09:15:31.949Z</time></trkpt><trkpt lat="43.7268102" lon="11.175745"><ele>143.0</ele><time>2026-04-26T09:15:33.949Z</time></trkpt><trkpt lat="43.7267561" lon="11.1756598"><ele>144.0</ele><time>2026-04-26T09:15:35.949Z</time></trkpt><trkpt lat="43.7266909" lon="11.1755836"><ele>145.0</ele><time>2026-04-26T09:15:37.948Z</time></trkpt><trkpt lat="43.7266272" lon="11.1755103"><ele>145.0</ele><time>2026-04-26T09:15:39.949Z</time></trkpt><trkpt lat="43.7265663" lon="11.175443"><ele>145.0</ele><time>2026-04-26T09:15:41.949Z</time></trkpt><trkpt lat="43.7265017" lon="11.1753787"><ele>145.0</ele><time>2026-04-26T09:15:43.949Z</time></trkpt><trkpt lat="43.7264395" lon="11.1753173"><ele>145.0</ele><time>2026-04-26T09:15:45.949Z</time></trkpt><trkpt lat="43.726383" lon="11.1752471"><ele>145.0</ele><time>2026-04-26T09:15:47.947Z</time></trkpt><trkpt lat="43.7263243" lon="11.1751866"><ele>145.0</ele><time>2026-04-26T09:15:49.948Z</time></trkpt><trkpt lat="43.7262675" lon="11.175131"><ele>145.0</ele><time>2026-04-26T09:15:51.949Z</time></trkpt><trkpt lat="43.7262008" lon="11.1751149"><ele>145.0</ele><time>2026-04-26T09:15:53.948Z</time></trkpt><trkpt lat="43.7261375" lon="11.1751439"><ele>145.0</ele><time>2026-04-26T09:15:55.949Z</time></trkpt><trkpt lat="43.726075" lon="11.1752076"><ele>145.0</ele><time>2026-04-26T09:15:58.949Z</time></trkpt><trkpt lat="43.7260184" lon="11.1752596"><ele>145.0</ele><time>2026-04-26T09:16:01.949Z</time></trkpt><trkpt lat="43.7259452" lon="11.1753182"><ele>145.0</ele><time>2026-04-26T09:16:05.949Z</time></trkpt><trkpt lat="43.7258884" lon="11.1753626"><ele>145.0</ele><time>2026-04-26T09:16:08.949Z</time></trkpt><trkpt lat="43.7258288" lon="11.1754124"><ele>146.85714285714286</ele><time>2026-04-26T09:16:12.948Z</time></trkpt><trkpt lat="43.7257686" lon="11.1754602"><ele>148.71428571428572</ele><time>2026-04-26T09:16:16.948Z</time></trkpt><trkpt lat="43.7257047" lon="11.1755032"><ele>150.57142857142858</ele><time>2026-04-26T09:16:19.948Z</time></trkpt><trkpt lat="43.7256463" lon="11.1755523"><ele>152.42857142857144</ele><time>2026-04-26T09:16:22.948Z</time></trkpt><trkpt lat="43.7255826" lon="11.1756104"><ele>154.28571428571428</ele><time>2026-04-26T09:16:25.949Z</time></trkpt><trkpt lat="43.7255177" lon="11.175669"><ele>156.14285714285717</ele><time>2026-04-26T09:16:28.947Z</time></trkpt><trkpt lat="43.7254452" lon="11.1757314"><ele>158.0</ele><time>2026-04-26T09:16:31.949Z</time></trkpt><trkpt lat="43.7253676" lon="11.1757803"><ele>158.0</ele><time>2026-04-26T09:16:34.949Z</time></trkpt><trkpt lat="43.7252906" lon="11.1758323"><ele>158.0</ele><time>2026-04-26T09:16:37.948Z</time></trkpt><trkpt lat="43.7252217" lon="11.1759112"><ele>158.0</ele><time>2026-04-26T09:16:40.948Z</time></trkpt><trkpt lat="43.725144" lon="11.1759716"><ele>158.0</ele><time>2026-04-26T09:16:43.948Z</time></trkpt><trkpt lat="43.7250881" lon="11.1760186"><ele>158.0</ele><time>2026-04-26T09:16:45.949Z</time></trkpt><trkpt lat="43.7250044" lon="11.1760773"><ele>158.0</ele><time>2026-04-26T09:16:48.949Z</time></trkpt><trkpt lat="43.7249276" lon="11.17614"><ele>159.5</ele><time>2026-04-26T09:16:51.947Z</time></trkpt><trkpt lat="43.7248529" lon="11.1761975"><ele>161.0</ele><time>2026-04-26T09:16:54.949Z</time></trkpt><trkpt lat="43.7247811" lon="11.1762423"><ele>162.5</ele><time>2026-04-26T09:16:57.948Z</time></trkpt><trkpt lat="43.724705" lon="11.1763021"><ele>164.0</ele><time>2026-04-26T09:17:00.949Z</time></trkpt><trkpt lat="43.7246326" lon="11.1763637"><ele>165.5</ele><time>2026-04-26T09:17:03.947Z</time></trkpt><trkpt lat="43.7245654" lon="11.1764169"><ele>167.0</ele><time>2026-04-26T09:17:06.948Z</time></trkpt><trkpt lat="43.7245014" lon="11.1764694"><ele>167.0</ele><time>2026-04-26T09:17:09.949Z</time></trkpt><trkpt lat="43.7244353" lon="11.1765171"><ele>167.0</ele><time>2026-04-26T09:17:12.947Z</time></trkpt><trkpt lat="43.7243684" lon="11.1765756"><ele>167.0</ele><time>2026-04-26T09:17:15.948Z</time></trkpt><trkpt lat="43.7242974" lon="11.1766366"><ele>167.0</ele><time>2026-04-26T09:17:18.949Z</time></trkpt><trkpt lat="43.7242276" lon="11.1766379"><ele>167.0</ele><time>2026-04-26T09:17:21.946Z</time></trkpt><trkpt lat="43.7241956" lon="11.1765237"><ele>167.0</ele><time>2026-04-26T09:17:24.947Z</time></trkpt><trkpt lat="43.7241608" lon="11.1764246"><ele>169.83333333333331</ele><time>2026-04-26T09:17:27.947Z</time></trkpt><trkpt lat="43.7241284" lon="11.176349"><ele>172.66666666666666</ele><time>2026-04-26T09:17:29.949Z</time></trkpt><trkpt lat="43.7240936" lon="11.1762668"><ele>175.5</ele><time>2026-04-26T09:17:31.949Z</time></trkpt><trkpt lat="43.7240396" lon="11.1761672"><ele>178.33333333333334</ele><time>2026-04-26T09:17:34.948Z</time></trkpt><trkpt lat="43.7239968" lon="11.1760681"><ele>181.16666666666669</ele><time>2026-04-26T09:17:37.948Z</time></trkpt><trkpt lat="43.723952" lon="11.1759694"><ele>184.0</ele><time>2026-04-26T09:17:40.948Z</time></trkpt><trkpt lat="43.7239148" lon="11.1758694"><ele>184.0</ele><time>2026-04-26T09:17:43.949Z</time></trkpt><trkpt lat="43.7238928" lon="11.1757613"><ele>184.0</ele><time>2026-04-26T09:17:46.949Z</time></trkpt><trkpt lat="43.7238642" lon="11.1756481"><ele>184.0</ele><time>2026-04-26T09:17:49.948Z</time></trkpt><trkpt lat="43.723829" lon="11.1755488"><ele>184.0</ele><time>2026-04-26T09:17:52.947Z</time></trkpt><trkpt lat="43.7237883" lon="11.1754395"><ele>184.0</ele><time>2026-04-26T09:17:55.948Z</time></trkpt><trkpt lat="43.7237534" lon="11.1753612"><ele>184.0</ele><time>2026-04-26T09:17:57.946Z</time></trkpt><trkpt lat="43.7237036" lon="11.1752996"><ele>184.5</ele><time>2026-04-26T09:17:59.948Z</time></trkpt><trkpt lat="43.7236396" lon="11.1752863"><ele>185.0</ele><time>2026-04-26T09:18:01.947Z</time></trkpt><trkpt lat="43.7235544" lon="11.1753256"><ele>185.5</ele><time>2026-04-26T09:18:04.948Z</time></trkpt><trkpt lat="43.7234797" lon="11.1753979"><ele>186.0</ele><time>2026-04-26T09:18:07.948Z</time></trkpt><trkpt lat="43.7234055" lon="11.1754735"><ele>186.5</ele><time>2026-04-26T09:18:10.948Z</time></trkpt><trkpt lat="43.7233374" lon="11.1755268"><ele>187.0</ele><time>2026-04-26T09:18:13.947Z</time></trkpt><trkpt lat="43.7232867" lon="11.1756069"><ele>187.0</ele><time>2026-04-26T09:18:17.949Z</time></trkpt><trkpt lat="43.7232323" lon="11.1756597"><ele>187.0</ele><time>2026-04-26T09:20:57.947Z</time></trkpt><trkpt lat="43.7231721" lon="11.1756924"><ele>187.0</ele><time>2026-04-26T09:20:59.948Z</time></trkpt><trkpt lat="43.7231034" lon="11.1757847"><ele>187.0</ele><time>2026-04-26T09:21:02.949Z</time></trkpt><trkpt lat="43.7230478" lon="11.1758429"><ele>187.0</ele><time>2026-04-26T09:21:04.947Z</time></trkpt><trkpt lat="43.7229704" lon="11.1758494"><ele>187.0</ele><time>2026-04-26T09:21:06.948Z</time></trkpt><trkpt lat="43.7229466" lon="11.1756835"><ele>187.0</ele><time>2026-04-26T09:21:08.948Z</time></trkpt><trkpt lat="43.7229682" lon="11.1755689"><ele>187.0</ele><time>2026-04-26T09:21:11.948Z</time></trkpt><trkpt lat="43.7229606" lon="11.1754248"><ele>187.0</ele><time>2026-04-26T09:21:13.948Z</time></trkpt><trkpt lat="43.7229339" lon="11.1752793"><ele>187.0</ele><time>2026-04-26T09:21:15.948Z</time></trkpt><trkpt lat="43.7229298" lon="11.175172"><ele>187.0</ele><time>2026-04-26T09:21:17.947Z</time></trkpt><trkpt lat="43.7229125" lon="11.1750479"><ele>187.0</ele><time>2026-04-26T09:21:19.946Z</time></trkpt><trkpt lat="43.72291" lon="11.1749275"><ele>187.0</ele><time>2026-04-26T09:21:21.948Z</time></trkpt><trkpt lat="43.7228938" lon="11.1748211"><ele>187.0</ele><time>2026-04-26T09:21:23.948Z</time></trkpt><trkpt lat="43.7228571" lon="11.1747058"><ele>187.0</ele><time>2026-04-26T09:21:25.948Z</time></trkpt><trkpt lat="43.7228088" lon="11.1745929"><ele>187.0</ele><time>2026-04-26T09:21:27.947Z</time></trkpt><trkpt lat="43.7227657" lon="11.1745009"><ele>187.0</ele><time>2026-04-26T09:21:28.947Z</time></trkpt><trkpt lat="43.7227127" lon="11.1743541"><ele>187.5</ele><time>2026-04-26T09:21:30.949Z</time></trkpt><trkpt lat="43.7226454" lon="11.1742649"><ele>188.0</ele><time>2026-04-26T09:21:32.948Z</time></trkpt><trkpt lat="43.7225946" lon="11.1742007"><ele>188.5</ele><time>2026-04-26T09:21:33.947Z</time></trkpt><trkpt lat="43.7225354" lon="11.1741014"><ele>189.0</ele><time>2026-04-26T09:21:35.947Z</time></trkpt><trkpt lat="43.7224905" lon="11.1740386"><ele>189.5</ele><time>2026-04-26T09:21:38.168Z</time></trkpt><trkpt lat="43.7224243" lon="11.1739415"><ele>190.0</ele><time>2026-04-26T09:21:40.948Z</time></trkpt><trkpt lat="43.7223706" lon="11.1738583"><ele>190.0</ele><time>2026-04-26T09:21:42.948Z</time></trkpt><trkpt lat="43.7222882" lon="11.1737543"><ele>190.0</ele><time>2026-04-26T09:21:44.948Z</time></trkpt><trkpt lat="43.7222209" lon="11.1737084"><ele>190.0</ele><time>2026-04-26T09:21:46.947Z</time></trkpt><trkpt lat="43.7221335" lon="11.1736922"><ele>190.0</ele><time>2026-04-26T09:21:48.947Z</time></trkpt><trkpt lat="43.7220445" lon="11.1736841"><ele>190.0</ele><time>2026-04-26T09:21:50.947Z</time></trkpt><trkpt lat="43.721969" lon="11.1736964"><ele>190.0</ele><time>2026-04-26T09:21:52.948Z</time></trkpt><trkpt lat="43.7218975" lon="11.1737069"><ele>190.8</ele><time>2026-04-26T09:21:54.948Z</time></trkpt><trkpt lat="43.7218165" lon="11.1737435"><ele>191.6</ele><time>2026-04-26T09:22:20.946Z</time></trkpt><trkpt lat="43.7217858" lon="11.1738365"><ele>192.39999999999998</ele><time>2026-04-26T09:22:24.948Z</time></trkpt><trkpt lat="43.7217873" lon="11.173948"><ele>193.2</ele><time>2026-04-26T09:22:28.948Z</time></trkpt><trkpt lat="43.7217748" lon="11.1740529"><ele>194.0</ele><time>2026-04-26T09:22:30.946Z</time></trkpt><trkpt lat="43.7218135" lon="11.174242"><ele>192.0</ele><time>2026-04-26T09:22:32.947Z</time></trkpt><trkpt lat="43.721775" lon="11.174341"><ele>190.0</ele><time>2026-04-26T09:22:34.948Z</time></trkpt><trkpt lat="43.721728" lon="11.1744093"><ele>188.0</ele><time>2026-04-26T09:22:35.946Z</time></trkpt><trkpt lat="43.7217108" lon="11.1745439"><ele>186.0</ele><time>2026-04-26T09:22:37.946Z</time></trkpt><trkpt lat="43.7216519" lon="11.1747177"><ele>184.0</ele><time>2026-04-26T09:22:39.947Z</time></trkpt><trkpt lat="43.7216589" lon="11.1748215"><ele>182.2</ele><time>2026-04-26T09:22:40.947Z</time></trkpt><trkpt lat="43.7216663" lon="11.174948"><ele>180.39999999999998</ele><time>2026-04-26T09:22:41.946Z</time></trkpt><trkpt lat="43.7216572" lon="11.1751025"><ele>178.6</ele><time>2026-04-26T09:22:43.946Z</time></trkpt><trkpt lat="43.7216218" lon="11.1752396"><ele>176.8</ele><time>2026-04-26T09:22:45.946Z</time></trkpt><trkpt lat="43.721565" lon="11.1753788"><ele>175.0</ele><time>2026-04-26T09:22:47.947Z</time></trkpt><trkpt lat="43.72151" lon="11.1755206"><ele>175.0</ele><time>2026-04-26T09:22:49.948Z</time></trkpt><trkpt lat="43.7214616" lon="11.1756354"><ele>175.0</ele><time>2026-04-26T09:22:51.947Z</time></trkpt><trkpt lat="43.7214206" lon="11.1757593"><ele>175.0</ele><time>2026-04-26T09:22:53.948Z</time></trkpt><trkpt lat="43.7213699" lon="11.1758967"><ele>175.0</ele><time>2026-04-26T09:22:55.947Z</time></trkpt><trkpt lat="43.7213121" lon="11.1759761"><ele>175.0</ele><time>2026-04-26T09:22:57.946Z</time></trkpt><trkpt lat="43.7212561" lon="11.1760589"><ele>173.0</ele><time>2026-04-26T09:22:59.946Z</time></trkpt><trkpt lat="43.72122" lon="11.1761902"><ele>171.0</ele><time>2026-04-26T09:23:01.946Z</time></trkpt><trkpt lat="43.7212034" lon="11.1762956"><ele>169.0</ele><time>2026-04-26T09:23:03.948Z</time></trkpt><trkpt lat="43.7212062" lon="11.1764091"><ele>167.0</ele><time>2026-04-26T09:23:05.947Z</time></trkpt><trkpt lat="43.7211839" lon="11.176492"><ele>165.0</ele><time>2026-04-26T09:23:07.948Z</time></trkpt><trkpt lat="43.7211562" lon="11.1765866"><ele>163.0</ele><time>2026-04-26T09:23:09.946Z</time></trkpt><trkpt lat="43.7211281" lon="11.1766896"><ele>162.16666666666669</ele><time>2026-04-26T09:23:11.946Z</time></trkpt><trkpt lat="43.721102" lon="11.1768116"><ele>161.33333333333334</ele><time>2026-04-26T09:23:14.947Z</time></trkpt><trkpt lat="43.7210591" lon="11.1769342"><ele>160.5</ele><time>2026-04-26T09:23:17.948Z</time></trkpt><trkpt lat="43.721017" lon="11.1770356"><ele>159.66666666666666</ele><time>2026-04-26T09:23:19.947Z</time></trkpt><trkpt lat="43.7209855" lon="11.1771316"><ele>158.83333333333331</ele><time>2026-04-26T09:23:22.947Z</time></trkpt><trkpt lat="43.7209371" lon="11.1772274"><ele>158.0</ele><time>2026-04-26T09:23:24.947Z</time></trkpt><trkpt lat="43.720902" lon="11.1773023"><ele>161.16666666666666</ele><time>2026-04-26T09:23:26.949Z</time></trkpt><trkpt lat="43.7208869" lon="11.1774068"><ele>164.33333333333331</ele><time>2026-04-26T09:23:29.948Z</time></trkpt><trkpt lat="43.7208507" lon="11.1775028"><ele>167.5</ele><time>2026-04-26T09:23:32.948Z</time></trkpt><trkpt lat="43.7208084" lon="11.1775878"><ele>170.66666666666666</ele><time>2026-04-26T09:23:35.946Z</time></trkpt><trkpt lat="43.7207673" lon="11.1776812"><ele>173.83333333333334</ele><time>2026-04-26T09:23:37.947Z</time></trkpt><trkpt lat="43.7207255" lon="11.1777725"><ele>177.0</ele><time>2026-04-26T09:23:39.947Z</time></trkpt><trkpt lat="43.7206885" lon="11.1778476"><ele>177.0</ele><time>2026-04-26T09:23:41.946Z</time></trkpt><trkpt lat="43.7206309" lon="11.177921"><ele>177.0</ele><time>2026-04-26T09:23:43.946Z</time></trkpt><trkpt lat="43.7205791" lon="11.1780021"><ele>177.0</ele><time>2026-04-26T09:23:46.948Z</time></trkpt><trkpt lat="43.7205366" lon="11.1781071"><ele>177.0</ele><time>2026-04-26T09:23:49.946Z</time></trkpt><trkpt lat="43.72053" lon="11.178235"><ele>177.0</ele><time>2026-04-26T09:23:51.947Z</time></trkpt><trkpt lat="43.7205488" lon="11.1783768"><ele>177.0</ele><time>2026-04-26T09:23:53.946Z</time></trkpt><trkpt lat="43.7205593" lon="11.1785189"><ele>174.2</ele><time>2026-04-26T09:23:55.947Z</time></trkpt><trkpt lat="43.7205575" lon="11.1786445"><ele>171.39999999999998</ele><time>2026-04-26T09:23:57.947Z</time></trkpt><trkpt lat="43.7205394" lon="11.1787653"><ele>168.60000000000002</ele><time>2026-04-26T09:23:59.947Z</time></trkpt><trkpt lat="43.7205015" lon="11.1788848"><ele>165.8</ele><time>2026-04-26T09:24:01.947Z</time></trkpt><trkpt lat="43.7204394" lon="11.1790118"><ele>163.0</ele><time>2026-04-26T09:24:03.947Z</time></trkpt><trkpt lat="43.7203963" lon="11.1791142"><ele>161.33333333333334</ele><time>2026-04-26T09:24:05.946Z</time></trkpt><trkpt lat="43.7203497" lon="11.1792167"><ele>159.66666666666669</ele><time>2026-04-26T09:24:07.947Z</time></trkpt><trkpt lat="43.7203098" lon="11.1793024"><ele>158.0</ele><time>2026-04-26T09:24:09.945Z</time></trkpt><trkpt lat="43.7202556" lon="11.1793939"><ele>156.33333333333334</ele><time>2026-04-26T09:24:11.947Z</time></trkpt><trkpt lat="43.7202021" lon="11.1794882"><ele>154.66666666666666</ele><time>2026-04-26T09:24:13.946Z</time></trkpt><trkpt lat="43.720145" lon="11.1795823"><ele>153.0</ele><time>2026-04-26T09:24:15.946Z</time></trkpt><trkpt lat="43.720093" lon="11.1796613"><ele>155.2</ele><time>2026-04-26T09:24:17.946Z</time></trkpt><trkpt lat="43.7200421" lon="11.1797394"><ele>157.4</ele><time>2026-04-26T09:24:19.947Z</time></trkpt><trkpt lat="43.7199886" lon="11.1798394"><ele>159.6</ele><time>2026-04-26T09:24:21.946Z</time></trkpt><trkpt lat="43.7199313" lon="11.1799572"><ele>161.79999999999998</ele><time>2026-04-26T09:24:23.946Z</time></trkpt><trkpt lat="43.7198787" lon="11.18005"><ele>164.0</ele><time>2026-04-26T09:24:25.947Z</time></trkpt><trkpt lat="43.7198117" lon="11.1801548"><ele>164.0</ele><time>2026-04-26T09:24:27.947Z</time></trkpt><trkpt lat="43.7197461" lon="11.1802622"><ele>164.0</ele><time>2026-04-26T09:24:29.947Z</time></trkpt><trkpt lat="43.7196947" lon="11.180338"><ele>164.0</ele><time>2026-04-26T09:24:31.947Z</time></trkpt><trkpt lat="43.7196486" lon="11.1804001"><ele>164.0</ele><time>2026-04-26T09:24:33.947Z</time></trkpt><trkpt lat="43.7195902" lon="11.1804819"><ele>164.0</ele><time>2026-04-26T09:24:36.946Z</time></trkpt><trkpt lat="43.7195523" lon="11.1805833"><ele>164.0</ele><time>2026-04-26T09:24:39.947Z</time></trkpt><trkpt lat="43.7195269" lon="11.1806697"><ele>164.33333333333331</ele><time>2026-04-26T09:24:41.946Z</time></trkpt><trkpt lat="43.7194832" lon="11.1807756"><ele>164.66666666666666</ele><time>2026-04-26T09:24:43.947Z</time></trkpt><trkpt lat="43.7194256" lon="11.18086"><ele>165.0</ele><time>2026-04-26T09:24:45.947Z</time></trkpt><trkpt lat="43.7193622" lon="11.1809216"><ele>165.33333333333334</ele><time>2026-04-26T09:24:47.947Z</time></trkpt><trkpt lat="43.7192849" lon="11.1809697"><ele>165.66666666666669</ele><time>2026-04-26T09:24:50.947Z</time></trkpt><trkpt lat="43.7192167" lon="11.1810589"><ele>166.0</ele><time>2026-04-26T09:24:53.947Z</time></trkpt><trkpt lat="43.7191857" lon="11.1811579"><ele>166.0</ele><time>2026-04-26T09:24:56.947Z</time></trkpt><trkpt lat="43.7191704" lon="11.1812768"><ele>166.0</ele><time>2026-04-26T09:24:59.947Z</time></trkpt><trkpt lat="43.719167" lon="11.1813672"><ele>166.0</ele><time>2026-04-26T09:25:02.946Z</time></trkpt><trkpt lat="43.7191599" lon="11.1814763"><ele>166.0</ele><time>2026-04-26T09:25:06.947Z</time></trkpt><trkpt lat="43.7191325" lon="11.1816047"><ele>166.0</ele><time>2026-04-26T09:25:09.947Z</time></trkpt><trkpt lat="43.7190946" lon="11.1817109"><ele>166.0</ele><time>2026-04-26T09:25:11.948Z</time></trkpt><trkpt lat="43.7190604" lon="11.1818347"><ele>165.42857142857142</ele><time>2026-04-26T09:25:13.946Z</time></trkpt><trkpt lat="43.7190189" lon="11.1819166"><ele>164.85714285714286</ele><time>2026-04-26T09:25:15.946Z</time></trkpt><trkpt lat="43.7189853" lon="11.1820088"><ele>164.28571428571428</ele><time>2026-04-26T09:25:17.947Z</time></trkpt><trkpt lat="43.7189635" lon="11.1821214"><ele>163.71428571428572</ele><time>2026-04-26T09:25:20.947Z</time></trkpt><trkpt lat="43.7189711" lon="11.1822215"><ele>163.14285714285714</ele><time>2026-04-26T09:25:25.947Z</time></trkpt><trkpt lat="43.7189694" lon="11.1823232"><ele>162.57142857142858</ele><time>2026-04-26T09:27:36.947Z</time></trkpt><trkpt lat="43.7189655" lon="11.1824139"><ele>162.0</ele><time>2026-04-26T09:27:38.946Z</time></trkpt><trkpt lat="43.7189494" lon="11.1824985"><ele>162.0</ele><time>2026-04-26T09:27:39.947Z</time></trkpt><trkpt lat="43.7189206" lon="11.1825892"><ele>162.0</ele><time>2026-04-26T09:27:41.947Z</time></trkpt><trkpt lat="43.7188609" lon="11.1826493"><ele>162.0</ele><time>2026-04-26T09:27:43.946Z</time></trkpt><trkpt lat="43.7188099" lon="11.1827091"><ele>162.0</ele><time>2026-04-26T09:27:45.945Z</time></trkpt><trkpt lat="43.7187163" lon="11.1827512"><ele>162.0</ele><time>2026-04-26T09:27:47.946Z</time></trkpt><trkpt lat="43.7186528" lon="11.182739"><ele>162.0</ele><time>2026-04-26T09:27:51.946Z</time></trkpt><trkpt lat="43.7186126" lon="11.182662"><ele>162.0</ele><time>2026-04-26T09:27:54.946Z</time></trkpt><trkpt lat="43.7185686" lon="11.1825947"><ele>164.33333333333334</ele><time>2026-04-26T09:27:56.945Z</time></trkpt><trkpt lat="43.7185128" lon="11.1825355"><ele>166.66666666666666</ele><time>2026-04-26T09:27:58.948Z</time></trkpt><trkpt lat="43.7184536" lon="11.1825029"><ele>169.0</ele><time>2026-04-26T09:28:00.947Z</time></trkpt><trkpt lat="43.7183723" lon="11.1824817"><ele>171.33333333333331</ele><time>2026-04-26T09:28:03.946Z</time></trkpt><trkpt lat="43.7183111" lon="11.1825374"><ele>173.66666666666666</ele><time>2026-04-26T09:28:06.945Z</time></trkpt><trkpt lat="43.7182912" lon="11.1826477"><ele>176.0</ele><time>2026-04-26T09:28:09.946Z</time></trkpt><trkpt lat="43.7182727" lon="11.1827581"><ele>176.0</ele><time>2026-04-26T09:28:12.947Z</time></trkpt><trkpt lat="43.7182556" lon="11.1828658"><ele>176.0</ele><time>2026-04-26T09:28:15.946Z</time></trkpt><trkpt lat="43.7182446" lon="11.1829657"><ele>176.0</ele><time>2026-04-26T09:28:18.947Z</time></trkpt><trkpt lat="43.7182422" lon="11.1830642"><ele>176.0</ele><time>2026-04-26T09:28:21.946Z</time></trkpt><trkpt lat="43.7182268" lon="11.1831591"><ele>176.0</ele><time>2026-04-26T09:28:24.946Z</time></trkpt><trkpt lat="43.7181869" lon="11.1832816"><ele>176.0</ele><time>2026-04-26T09:28:27.945Z</time></trkpt><trkpt lat="43.718153" lon="11.1833948"><ele>175.16666666666666</ele><time>2026-04-26T09:28:30.947Z</time></trkpt><trkpt lat="43.7181201" lon="11.1834717"><ele>174.33333333333331</ele><time>2026-04-26T09:28:32.946Z</time></trkpt><trkpt lat="43.7180638" lon="11.1835732"><ele>173.5</ele><time>2026-04-26T09:28:35.946Z</time></trkpt><trkpt lat="43.7180214" lon="11.1836685"><ele>172.66666666666666</ele><time>2026-04-26T09:28:38.946Z</time></trkpt><trkpt lat="43.717979" lon="11.1837395"><ele>171.83333333333334</ele><time>2026-04-26T09:28:41.946Z</time></trkpt><trkpt lat="43.7179146" lon="11.1838356"><ele>171.0</ele><time>2026-04-26T09:28:44.946Z</time></trkpt><trkpt lat="43.717863" lon="11.1839141"><ele>171.0</ele><time>2026-04-26T09:28:46.946Z</time></trkpt><trkpt lat="43.7178245" lon="11.1839838"><ele>171.0</ele><time>2026-04-26T09:28:48.945Z</time></trkpt><trkpt lat="43.7177793" lon="11.1840757"><ele>171.0</ele><time>2026-04-26T09:28:51.945Z</time></trkpt><trkpt lat="43.7177401" lon="11.1841892"><ele>171.0</ele><time>2026-04-26T09:28:55.945Z</time></trkpt><trkpt lat="43.7176884" lon="11.1842571"><ele>171.0</ele><time>2026-04-26T09:28:59.946Z</time></trkpt><trkpt lat="43.7176241" lon="11.1842772"><ele>171.0</ele><time>2026-04-26T09:29:02.946Z</time></trkpt><trkpt lat="43.7175411" lon="11.184301"><ele>172.99999999999997</ele><time>2026-04-26T09:29:05.947Z</time></trkpt><trkpt lat="43.7174806" lon="11.1843339"><ele>175.0</ele><time>2026-04-26T09:29:07.945Z</time></trkpt><trkpt lat="43.7174089" lon="11.1843828"><ele>177.0</ele><time>2026-04-26T09:29:10.946Z</time></trkpt><trkpt lat="43.7173328" lon="11.1844124"><ele>179.0</ele><time>2026-04-26T09:29:13.945Z</time></trkpt><trkpt lat="43.7172692" lon="11.1844178"><ele>181.0</ele><time>2026-04-26T09:29:16.947Z</time></trkpt><trkpt lat="43.7172436" lon="11.1845224"><ele>182.99999999999997</ele><time>2026-04-26T09:29:22.947Z</time></trkpt><trkpt lat="43.7172395" lon="11.1846341"><ele>185.0</ele><time>2026-04-26T09:29:25.946Z</time></trkpt><trkpt lat="43.7172088" lon="11.1847367"><ele>185.0</ele><time>2026-04-26T09:29:28.946Z</time></trkpt><trkpt lat="43.7171616" lon="11.1848442"><ele>185.0</ele><time>2026-04-26T09:29:31.946Z</time></trkpt><trkpt lat="43.7171354" lon="11.1849278"><ele>185.0</ele><time>2026-04-26T09:29:33.945Z</time></trkpt><trkpt lat="43.7171052" lon="11.1850061"><ele>185.0</ele><time>2026-04-26T09:29:35.946Z</time></trkpt><trkpt lat="43.7170745" lon="11.1850842"><ele>185.0</ele><time>2026-04-26T09:29:37.947Z</time></trkpt><trkpt lat="43.7170353" lon="11.1851928"><ele>185.0</ele><time>2026-04-26T09:29:40.946Z</time></trkpt><trkpt lat="43.717004" lon="11.1852976"><ele>186.33333333333331</ele><time>2026-04-26T09:29:43.947Z</time></trkpt><trkpt lat="43.7169636" lon="11.1853953"><ele>187.66666666666666</ele><time>2026-04-26T09:29:46.946Z</time></trkpt><trkpt lat="43.7169278" lon="11.1855013"><ele>189.0</ele><time>2026-04-26T09:29:49.945Z</time></trkpt><trkpt lat="43.7168833" lon="11.1855948"><ele>190.33333333333331</ele><time>2026-04-26T09:29:52.946Z</time></trkpt><trkpt lat="43.7168406" lon="11.1856647"><ele>191.66666666666666</ele><time>2026-04-26T09:29:54.947Z</time></trkpt><trkpt lat="43.7167789" lon="11.1857553"><ele>193.0</ele><time>2026-04-26T09:29:57.946Z</time></trkpt><trkpt lat="43.7167352" lon="11.1858189"><ele>192.99999999999997</ele><time>2026-04-26T09:29:59.946Z</time></trkpt><trkpt lat="43.7166941" lon="11.1859352"><ele>193.0</ele><time>2026-04-26T09:30:02.945Z</time></trkpt><trkpt lat="43.7166897" lon="11.1860557"><ele>193.0</ele><time>2026-04-26T09:30:05.946Z</time></trkpt><trkpt lat="43.7166825" lon="11.1861612"><ele>193.0</ele><time>2026-04-26T09:30:08.946Z</time></trkpt><trkpt lat="43.7166736" lon="11.1862669"><ele>192.99999999999997</ele><time>2026-04-26T09:30:11.947Z</time></trkpt><trkpt lat="43.7166344" lon="11.186363"><ele>193.0</ele><time>2026-04-26T09:30:14.945Z</time></trkpt><trkpt lat="43.716605" lon="11.1864616"><ele>192.42857142857144</ele><time>2026-04-26T09:30:17.946Z</time></trkpt><trkpt lat="43.7165787" lon="11.1865669"><ele>191.85714285714286</ele><time>2026-04-26T09:30:20.945Z</time></trkpt><trkpt lat="43.7165366" lon="11.1866336"><ele>191.28571428571428</ele><time>2026-04-26T09:30:22.946Z</time></trkpt><trkpt lat="43.7164665" lon="11.18669"><ele>190.71428571428572</ele><time>2026-04-26T09:30:25.945Z</time></trkpt><trkpt lat="43.7163974" lon="11.1866933"><ele>190.14285714285714</ele><time>2026-04-26T09:30:28.945Z</time></trkpt><trkpt lat="43.7163292" lon="11.1866827"><ele>189.57142857142858</ele><time>2026-04-26T09:30:31.946Z</time></trkpt><trkpt lat="43.7162599" lon="11.1866861"><ele>189.0</ele><time>2026-04-26T09:30:34.946Z</time></trkpt><trkpt lat="43.7161813" lon="11.1866815"><ele>189.0</ele><time>2026-04-26T09:30:37.946Z</time></trkpt><trkpt lat="43.7160968" lon="11.1866803"><ele>189.0</ele><time>2026-04-26T09:30:40.946Z</time></trkpt><trkpt lat="43.7160194" lon="11.1866812"><ele>189.0</ele><time>2026-04-26T09:30:43.946Z</time></trkpt><trkpt lat="43.7159427" lon="11.1867027"><ele>189.0</ele><time>2026-04-26T09:30:46.944Z</time></trkpt><trkpt lat="43.7158653" lon="11.1867191"><ele>189.0</ele><time>2026-04-26T09:30:49.946Z</time></trkpt><trkpt lat="43.7157819" lon="11.1867333"><ele>189.0</ele><time>2026-04-26T09:30:52.945Z</time></trkpt><trkpt lat="43.7157119" lon="11.1867469"><ele>190.83333333333334</ele><time>2026-04-26T09:30:55.945Z</time></trkpt><trkpt lat="43.7156347" lon="11.186743"><ele>192.66666666666669</ele><time>2026-04-26T09:30:58.946Z</time></trkpt><trkpt lat="43.7155513" lon="11.1867523"><ele>194.5</ele><time>2026-04-26T09:31:01.945Z</time></trkpt><trkpt lat="43.7154601" lon="11.1867567"><ele>196.33333333333334</ele><time>2026-04-26T09:31:04.946Z</time></trkpt><trkpt lat="43.7153891" lon="11.1867498"><ele>198.16666666666669</ele><time>2026-04-26T09:31:06.945Z</time></trkpt><trkpt lat="43.7153157" lon="11.1867233"><ele>200.0</ele><time>2026-04-26T09:31:08.946Z</time></trkpt><trkpt lat="43.7152398" lon="11.1866953"><ele>199.6</ele><time>2026-04-26T09:31:10.946Z</time></trkpt><trkpt lat="43.7151451" lon="11.1866589"><ele>199.2</ele><time>2026-04-26T09:31:12.945Z</time></trkpt><trkpt lat="43.7150496" lon="11.1866654"><ele>198.8</ele><time>2026-04-26T09:31:14.946Z</time></trkpt><trkpt lat="43.7149678" lon="11.1866689"><ele>198.4</ele><time>2026-04-26T09:31:16.947Z</time></trkpt><trkpt lat="43.7148638" lon="11.1866728"><ele>198.0</ele><time>2026-04-26T09:31:18.946Z</time></trkpt><trkpt lat="43.7147686" lon="11.186663"><ele>198.0</ele><time>2026-04-26T09:31:20.946Z</time></trkpt><trkpt lat="43.714691" lon="11.1866728"><ele>198.0</ele><time>2026-04-26T09:33:29.946Z</time></trkpt><trkpt lat="43.714646" lon="11.186772"><ele>198.0</ele><time>2026-04-26T09:33:34.946Z</time></trkpt><trkpt lat="43.7146905" lon="11.1868871"><ele>198.0</ele><time>2026-04-26T09:34:44.945Z</time></trkpt><trkpt lat="43.7147417" lon="11.1869859"><ele>198.0</ele><time>2026-04-26T09:34:46.945Z</time></trkpt><trkpt lat="43.7147861" lon="11.1870522"><ele>198.0</ele><time>2026-04-26T09:34:48.945Z</time></trkpt><trkpt lat="43.7148544" lon="11.1871349"><ele>198.0</ele><time>2026-04-26T09:34:51.943Z</time></trkpt><trkpt lat="43.7149002" lon="11.1872412"><ele>198.0</ele><time>2026-04-26T09:34:54.944Z</time></trkpt><trkpt lat="43.7149275" lon="11.1873559"><ele>198.0</ele><time>2026-04-26T09:34:57.945Z</time></trkpt><trkpt lat="43.7149694" lon="11.1874505"><ele>198.0</ele><time>2026-04-26T09:34:59.944Z</time></trkpt><trkpt lat="43.7150211" lon="11.187527"><ele>198.0</ele><time>2026-04-26T09:35:01.946Z</time></trkpt><trkpt lat="43.7150792" lon="11.1875926"><ele>198.0</ele><time>2026-04-26T09:35:03.946Z</time></trkpt><trkpt lat="43.7151324" lon="11.1876401"><ele>197.33333333333334</ele><time>2026-04-26T09:35:05.944Z</time></trkpt><trkpt lat="43.7151961" lon="11.1877057"><ele>196.66666666666669</ele><time>2026-04-26T09:35:08.945Z</time></trkpt><trkpt lat="43.7152442" lon="11.1877733"><ele>196.0</ele><time>2026-04-26T09:35:11.944Z</time></trkpt><trkpt lat="43.7153064" lon="11.1878569"><ele>195.33333333333334</ele><time>2026-04-26T09:35:14.945Z</time></trkpt><trkpt lat="43.7153677" lon="11.1879447"><ele>194.66666666666669</ele><time>2026-04-26T09:35:17.946Z</time></trkpt><trkpt lat="43.7154075" lon="11.1880159"><ele>194.0</ele><time>2026-04-26T09:35:20.946Z</time></trkpt><trkpt lat="43.7154727" lon="11.1880955"><ele>193.50000000000003</ele><time>2026-04-26T09:35:23.944Z</time></trkpt><trkpt lat="43.715539" lon="11.188151"><ele>193.0</ele><time>2026-04-26T09:35:26.945Z</time></trkpt><trkpt lat="43.7156205" lon="11.188214"><ele>192.5</ele><time>2026-04-26T09:35:29.945Z</time></trkpt><trkpt lat="43.7156765" lon="11.1882622"><ele>192.0</ele><time>2026-04-26T09:35:31.946Z</time></trkpt><trkpt lat="43.7157389" lon="11.1883307"><ele>191.5</ele><time>2026-04-26T09:35:34.945Z</time></trkpt><trkpt lat="43.7158005" lon="11.1884123"><ele>191.0</ele><time>2026-04-26T09:35:37.945Z</time></trkpt><trkpt lat="43.715859" lon="11.1884999"><ele>191.0</ele><time>2026-04-26T09:35:40.944Z</time></trkpt><trkpt lat="43.7158905" lon="11.1885877"><ele>191.0</ele><time>2026-04-26T09:35:44.946Z</time></trkpt><trkpt lat="43.7159332" lon="11.1886696"><ele>191.0</ele><time>2026-04-26T09:35:50.944Z</time></trkpt><trkpt lat="43.7158776" lon="11.1886185"><ele>191.0</ele><time>2026-04-26T09:35:55.945Z</time></trkpt><trkpt lat="43.7158484" lon="11.188536"><ele>191.0</ele><time>2026-04-26T09:35:57.945Z</time></trkpt><trkpt lat="43.7158152" lon="11.1884589"><ele>191.0</ele><time>2026-04-26T09:35:59.946Z</time></trkpt><trkpt lat="43.7157494" lon="11.1883828"><ele>191.0</ele><time>2026-04-26T09:36:02.944Z</time></trkpt><trkpt lat="43.7156685" lon="11.1883265"><ele>191.0</ele><time>2026-04-26T09:36:05.944Z</time></trkpt><trkpt lat="43.7155869" lon="11.1882633"><ele>191.0</ele><time>2026-04-26T09:36:08.944Z</time></trkpt><trkpt lat="43.7155135" lon="11.1882022"><ele>191.0</ele><time>2026-04-26T09:36:11.945Z</time></trkpt><trkpt lat="43.7154376" lon="11.1881404"><ele>191.0</ele><time>2026-04-26T09:36:14.944Z</time></trkpt><trkpt lat="43.7153609" lon="11.1880783"><ele>191.0</ele><time>2026-04-26T09:36:17.945Z</time></trkpt><trkpt lat="43.7152815" lon="11.1880271"><ele>191.0</ele><time>2026-04-26T09:36:20.946Z</time></trkpt><trkpt lat="43.7152057" lon="11.1879835"><ele>191.5</ele><time>2026-04-26T09:36:23.945Z</time></trkpt><trkpt lat="43.7151325" lon="11.1879377"><ele>192.0</ele><time>2026-04-26T09:36:26.944Z</time></trkpt><trkpt lat="43.715062" lon="11.1878854"><ele>192.5</ele><time>2026-04-26T09:36:29.945Z</time></trkpt><trkpt lat="43.7149909" lon="11.1878263"><ele>193.0</ele><time>2026-04-26T09:36:32.945Z</time></trkpt><trkpt lat="43.7149271" lon="11.1877576"><ele>193.50000000000003</ele><time>2026-04-26T09:36:35.945Z</time></trkpt><trkpt lat="43.7148705" lon="11.1876907"><ele>194.0</ele><time>2026-04-26T09:36:38.943Z</time></trkpt><trkpt lat="43.7148137" lon="11.1876189"><ele>194.00000000000003</ele><time>2026-04-26T09:36:41.945Z</time></trkpt><trkpt lat="43.7147436" lon="11.1875497"><ele>194.0</ele><time>2026-04-26T09:36:44.945Z</time></trkpt><trkpt lat="43.7146703" lon="11.1874896"><ele>194.0</ele><time>2026-04-26T09:36:47.945Z</time></trkpt><trkpt lat="43.7145995" lon="11.1874325"><ele>194.0</ele><time>2026-04-26T09:36:50.944Z</time></trkpt><trkpt lat="43.7145213" lon="11.1873842"><ele>194.00000000000003</ele><time>2026-04-26T09:36:53.946Z</time></trkpt><trkpt lat="43.7144412" lon="11.1873588"><ele>194.0</ele><time>2026-04-26T09:36:56.944Z</time></trkpt><trkpt lat="43.7143722" lon="11.1873298"><ele>194.66666666666669</ele><time>2026-04-26T09:36:59.945Z</time></trkpt><trkpt lat="43.7142958" lon="11.1873226"><ele>195.33333333333334</ele><time>2026-04-26T09:37:02.946Z</time></trkpt><trkpt lat="43.7142275" lon="11.1873213"><ele>196.0</ele><time>2026-04-26T09:37:05.945Z</time></trkpt><trkpt lat="43.7141611" lon="11.1873462"><ele>196.66666666666669</ele><time>2026-04-26T09:37:08.945Z</time></trkpt><trkpt lat="43.7140768" lon="11.1873599"><ele>197.33333333333334</ele><time>2026-04-26T09:37:11.944Z</time></trkpt><trkpt lat="43.7139939" lon="11.1873718"><ele>198.0</ele><time>2026-04-26T09:37:14.945Z</time></trkpt><trkpt lat="43.7139094" lon="11.1873786"><ele>199.83333333333334</ele><time>2026-04-26T09:37:17.944Z</time></trkpt><trkpt lat="43.7138172" lon="11.1873779"><ele>201.66666666666669</ele><time>2026-04-26T09:37:20.944Z</time></trkpt><trkpt lat="43.7137258" lon="11.1873744"><ele>203.5</ele><time>2026-04-26T09:37:23.945Z</time></trkpt><trkpt lat="43.7136405" lon="11.187388"><ele>205.33333333333334</ele><time>2026-04-26T09:37:26.945Z</time></trkpt><trkpt lat="43.7135528" lon="11.187406"><ele>207.16666666666669</ele><time>2026-04-26T09:37:29.944Z</time></trkpt><trkpt lat="43.7134628" lon="11.1874266"><ele>209.0</ele><time>2026-04-26T09:37:32.945Z</time></trkpt><trkpt lat="43.7133861" lon="11.1874555"><ele>209.66666666666669</ele><time>2026-04-26T09:37:35.944Z</time></trkpt><trkpt lat="43.7133048" lon="11.1874871"><ele>210.33333333333334</ele><time>2026-04-26T09:37:38.945Z</time></trkpt><trkpt lat="43.713234" lon="11.1875241"><ele>211.0</ele><time>2026-04-26T09:37:41.946Z</time></trkpt><trkpt lat="43.7131619" lon="11.1875536"><ele>211.66666666666669</ele><time>2026-04-26T09:37:44.945Z</time></trkpt><trkpt lat="43.7130824" lon="11.1875974"><ele>212.33333333333334</ele><time>2026-04-26T09:37:47.944Z</time></trkpt><trkpt lat="43.7130043" lon="11.1876574"><ele>213.0</ele><time>2026-04-26T09:37:50.944Z</time></trkpt><trkpt lat="43.7129508" lon="11.1877079"><ele>212.99999999999997</ele><time>2026-04-26T09:37:52.945Z</time></trkpt><trkpt lat="43.7129006" lon="11.1877703"><ele>213.0</ele><time>2026-04-26T09:37:54.944Z</time></trkpt><trkpt lat="43.7128537" lon="11.1878374"><ele>213.0</ele><time>2026-04-26T09:37:56.945Z</time></trkpt><trkpt lat="43.7127984" lon="11.1879209"><ele>213.0</ele><time>2026-04-26T09:37:59.944Z</time></trkpt><trkpt lat="43.7127445" lon="11.1880212"><ele>213.0</ele><time>2026-04-26T09:38:02.945Z</time></trkpt><trkpt lat="43.7127122" lon="11.1881019"><ele>212.99999999999997</ele><time>2026-04-26T09:38:04.945Z</time></trkpt><trkpt lat="43.712685" lon="11.1881842"><ele>213.0</ele><time>2026-04-26T09:38:06.945Z</time></trkpt><trkpt lat="43.7126654" lon="11.1882704"><ele>213.16666666666666</ele><time>2026-04-26T09:38:08.945Z</time></trkpt><trkpt lat="43.7126451" lon="11.1883616"><ele>213.33333333333331</ele><time>2026-04-26T09:38:10.946Z</time></trkpt><trkpt lat="43.7126223" lon="11.1884631"><ele>213.5</ele><time>2026-04-26T09:38:12.945Z</time></trkpt><trkpt lat="43.7125954" lon="11.1885631"><ele>213.66666666666666</ele><time>2026-04-26T09:38:14.945Z</time></trkpt><trkpt lat="43.712564" lon="11.1886585"><ele>213.83333333333331</ele><time>2026-04-26T09:38:16.944Z</time></trkpt><trkpt lat="43.7125201" lon="11.1887535"><ele>214.0</ele><time>2026-04-26T09:38:18.943Z</time></trkpt><trkpt lat="43.7124639" lon="11.1888479"><ele>213.99999999999997</ele><time>2026-04-26T09:38:20.943Z</time></trkpt><trkpt lat="43.7124055" lon="11.1889268"><ele>214.0</ele><time>2026-04-26T09:38:22.945Z</time></trkpt><trkpt lat="43.7123619" lon="11.1889983"><ele>214.0</ele><time>2026-04-26T09:38:24.945Z</time></trkpt><trkpt lat="43.7123013" lon="11.1890503"><ele>214.0</ele><time>2026-04-26T09:38:26.944Z</time></trkpt><trkpt lat="43.7122269" lon="11.1890955"><ele>213.99999999999997</ele><time>2026-04-26T09:38:28.944Z</time></trkpt><trkpt lat="43.7121466" lon="11.1891143"><ele>214.0</ele><time>2026-04-26T09:38:30.944Z</time></trkpt><trkpt lat="43.7120675" lon="11.1891208"><ele>214.33333333333331</ele><time>2026-04-26T09:38:32.945Z</time></trkpt><trkpt lat="43.7119909" lon="11.1891258"><ele>214.66666666666666</ele><time>2026-04-26T09:38:34.944Z</time></trkpt><trkpt lat="43.7119164" lon="11.189128"><ele>215.0</ele><time>2026-04-26T09:38:36.945Z</time></trkpt><trkpt lat="43.7118423" lon="11.1891306"><ele>215.33333333333331</ele><time>2026-04-26T09:38:38.945Z</time></trkpt><trkpt lat="43.7117664" lon="11.1891267"><ele>215.66666666666666</ele><time>2026-04-26T09:38:40.945Z</time></trkpt><trkpt lat="43.7116907" lon="11.1891318"><ele>216.0</ele><time>2026-04-26T09:38:42.944Z</time></trkpt><trkpt lat="43.7116136" lon="11.1891413"><ele>216.0</ele><time>2026-04-26T09:38:44.944Z</time></trkpt><trkpt lat="43.71153" lon="11.1891454"><ele>216.0</ele><time>2026-04-26T09:38:46.945Z</time></trkpt><trkpt lat="43.7114475" lon="11.1891458"><ele>216.0</ele><time>2026-04-26T09:38:48.944Z</time></trkpt><trkpt lat="43.7113695" lon="11.1891376"><ele>216.0</ele><time>2026-04-26T09:38:50.945Z</time></trkpt><trkpt lat="43.7112891" lon="11.1891242"><ele>216.0</ele><time>2026-04-26T09:38:52.945Z</time></trkpt><trkpt lat="43.7112113" lon="11.1891067"><ele>216.0</ele><time>2026-04-26T09:38:54.945Z</time></trkpt><trkpt lat="43.7111302" lon="11.1890849"><ele>215.60000000000002</ele><time>2026-04-26T09:38:56.944Z</time></trkpt><trkpt lat="43.7110257" lon="11.1890537"><ele>215.20000000000002</ele><time>2026-04-26T09:38:58.945Z</time></trkpt><trkpt lat="43.7109307" lon="11.1890198"><ele>214.79999999999998</ele><time>2026-04-26T09:39:00.944Z</time></trkpt><trkpt lat="43.7108225" lon="11.1889881"><ele>214.39999999999998</ele><time>2026-04-26T09:39:02.945Z</time></trkpt><trkpt lat="43.710717" lon="11.188958"><ele>214.0</ele><time>2026-04-26T09:39:04.944Z</time></trkpt><trkpt lat="43.7106141" lon="11.1889225"><ele>213.79999999999998</ele><time>2026-04-26T09:39:06.944Z</time></trkpt><trkpt lat="43.7105261" lon="11.1888889"><ele>213.59999999999997</ele><time>2026-04-26T09:39:08.945Z</time></trkpt><trkpt lat="43.7104246" lon="11.1888541"><ele>213.4</ele><time>2026-04-26T09:39:10.944Z</time></trkpt><trkpt lat="43.7103362" lon="11.1888106"><ele>213.2</ele><time>2026-04-26T09:39:12.945Z</time></trkpt><trkpt lat="43.7102547" lon="11.1887556"><ele>213.0</ele><time>2026-04-26T09:39:14.945Z</time></trkpt><trkpt lat="43.7101633" lon="11.1886894"><ele>213.0</ele><time>2026-04-26T09:39:16.945Z</time></trkpt><trkpt lat="43.7100782" lon="11.1886217"><ele>213.0</ele><time>2026-04-26T09:39:18.944Z</time></trkpt><trkpt lat="43.7099947" lon="11.1885569"><ele>213.0</ele><time>2026-04-26T09:39:20.944Z</time></trkpt><trkpt lat="43.7099109" lon="11.1884908"><ele>213.0</ele><time>2026-04-26T09:39:22.944Z</time></trkpt><trkpt lat="43.709818" lon="11.1884221"><ele>213.0</ele><time>2026-04-26T09:39:24.943Z</time></trkpt><trkpt lat="43.7097356" lon="11.1883459"><ele>213.0</ele><time>2026-04-26T09:39:26.945Z</time></trkpt><trkpt lat="43.7096461" lon="11.1882809"><ele>213.0</ele><time>2026-04-26T09:39:28.944Z</time></trkpt><trkpt lat="43.7095697" lon="11.1882142"><ele>213.0</ele><time>2026-04-26T09:39:30.944Z</time></trkpt><trkpt lat="43.7094726" lon="11.188156"><ele>213.0</ele><time>2026-04-26T09:39:32.945Z</time></trkpt><trkpt lat="43.7093966" lon="11.1880922"><ele>213.0</ele><time>2026-04-26T09:39:34.945Z</time></trkpt><trkpt lat="43.7093223" lon="11.1880215"><ele>213.0</ele><time>2026-04-26T09:39:36.944Z</time></trkpt><trkpt lat="43.7092457" lon="11.1879376"><ele>213.0</ele><time>2026-04-26T09:39:38.944Z</time></trkpt><trkpt lat="43.7091533" lon="11.1878614"><ele>213.0</ele><time>2026-04-26T09:39:40.944Z</time></trkpt><trkpt lat="43.7090815" lon="11.1877755"><ele>213.0</ele><time>2026-04-26T09:39:42.945Z</time></trkpt><trkpt lat="43.7090103" lon="11.1877002"><ele>213.0</ele><time>2026-04-26T09:39:44.944Z</time></trkpt><trkpt lat="43.70893" lon="11.1876398"><ele>213.0</ele><time>2026-04-26T09:39:46.945Z</time></trkpt><trkpt lat="43.7088813" lon="11.1875659"><ele>213.0</ele><time>2026-04-26T09:39:48.945Z</time></trkpt><trkpt lat="43.7087995" lon="11.187491"><ele>213.0</ele><time>2026-04-26T09:39:50.944Z</time></trkpt><trkpt lat="43.7087196" lon="11.1874146"><ele>213.0</ele><time>2026-04-26T09:39:52.945Z</time></trkpt><trkpt lat="43.7086649" lon="11.187361"><ele>213.0</ele><time>2026-04-26T09:39:53.945Z</time></trkpt><trkpt lat="43.7085827" lon="11.1872932"><ele>213.0</ele><time>2026-04-26T09:39:55.945Z</time></trkpt><trkpt lat="43.7084969" lon="11.1872072"><ele>213.8</ele><time>2026-04-26T09:39:57.943Z</time></trkpt><trkpt lat="43.7084076" lon="11.1871266"><ele>214.60000000000002</ele><time>2026-04-26T09:39:59.944Z</time></trkpt><trkpt lat="43.7083025" lon="11.1870691"><ele>215.39999999999998</ele><time>2026-04-26T09:40:01.945Z</time></trkpt><trkpt lat="43.7082065" lon="11.1870594"><ele>216.2</ele><time>2026-04-26T09:40:03.943Z</time></trkpt><trkpt lat="43.7081068" lon="11.1870202"><ele>217.0</ele><time>2026-04-26T09:40:05.944Z</time></trkpt><trkpt lat="43.7080175" lon="11.1870012"><ele>216.99999999999997</ele><time>2026-04-26T09:40:07.944Z</time></trkpt><trkpt lat="43.7079306" lon="11.186985"><ele>217.0</ele><time>2026-04-26T09:40:09.944Z</time></trkpt><trkpt lat="43.7078499" lon="11.1869665"><ele>217.0</ele><time>2026-04-26T09:40:11.943Z</time></trkpt><trkpt lat="43.7077653" lon="11.1869216"><ele>217.0</ele><time>2026-04-26T09:40:13.943Z</time></trkpt><trkpt lat="43.7076745" lon="11.1868967"><ele>216.99999999999997</ele><time>2026-04-26T09:40:15.943Z</time></trkpt><trkpt lat="43.7075994" lon="11.1868735"><ele>217.0</ele><time>2026-04-26T09:40:17.944Z</time></trkpt><trkpt lat="43.7075237" lon="11.1868631"><ele>217.99999999999997</ele><time>2026-04-26T09:40:19.943Z</time></trkpt><trkpt lat="43.7074358" lon="11.186852"><ele>219.0</ele><time>2026-04-26T09:40:21.945Z</time></trkpt><trkpt lat="43.7073503" lon="11.1868341"><ele>220.0</ele><time>2026-04-26T09:40:23.945Z</time></trkpt><trkpt lat="43.7072651" lon="11.186815"><ele>221.0</ele><time>2026-04-26T09:40:25.944Z</time></trkpt><trkpt lat="43.7071749" lon="11.1867936"><ele>221.99999999999997</ele><time>2026-04-26T09:40:27.944Z</time></trkpt><trkpt lat="43.7070869" lon="11.186769"><ele>223.0</ele><time>2026-04-26T09:40:29.944Z</time></trkpt><trkpt lat="43.7070025" lon="11.1867396"><ele>222.99999999999997</ele><time>2026-04-26T09:40:31.945Z</time></trkpt><trkpt lat="43.7069192" lon="11.1866999"><ele>223.0</ele><time>2026-04-26T09:40:33.945Z</time></trkpt><trkpt lat="43.7068407" lon="11.1866483"><ele>223.0</ele><time>2026-04-26T09:40:35.944Z</time></trkpt><trkpt lat="43.7067657" lon="11.1865945"><ele>223.0</ele><time>2026-04-26T09:40:37.945Z</time></trkpt><trkpt lat="43.7066983" lon="11.1865389"><ele>222.99999999999997</ele><time>2026-04-26T09:40:39.945Z</time></trkpt><trkpt lat="43.7066293" lon="11.1864786"><ele>223.0</ele><time>2026-04-26T09:40:41.944Z</time></trkpt><trkpt lat="43.7065587" lon="11.1864135"><ele>224.33333333333331</ele><time>2026-04-26T09:40:43.942Z</time></trkpt><trkpt lat="43.706487" lon="11.1863609"><ele>225.66666666666666</ele><time>2026-04-26T09:40:45.945Z</time></trkpt><trkpt lat="43.7064085" lon="11.1863292"><ele>227.0</ele><time>2026-04-26T09:40:47.944Z</time></trkpt><trkpt lat="43.7063269" lon="11.1863102"><ele>228.33333333333331</ele><time>2026-04-26T09:40:49.944Z</time></trkpt><trkpt lat="43.7062463" lon="11.1862964"><ele>229.66666666666666</ele><time>2026-04-26T09:40:51.943Z</time></trkpt><trkpt lat="43.706162" lon="11.1862797"><ele>231.0</ele><time>2026-04-26T09:40:53.945Z</time></trkpt><trkpt lat="43.7060801" lon="11.1862661"><ele>231.5</ele><time>2026-04-26T09:40:55.944Z</time></trkpt><trkpt lat="43.7059998" lon="11.1862519"><ele>232.0</ele><time>2026-04-26T09:40:57.942Z</time></trkpt><trkpt lat="43.7059211" lon="11.1862407"><ele>232.5</ele><time>2026-04-26T09:40:59.944Z</time></trkpt><trkpt lat="43.7058414" lon="11.1862313"><ele>233.0</ele><time>2026-04-26T09:41:01.943Z</time></trkpt><trkpt lat="43.7057674" lon="11.1862215"><ele>233.5</ele><time>2026-04-26T09:41:03.945Z</time></trkpt><trkpt lat="43.7056915" lon="11.1862096"><ele>234.0</ele><time>2026-04-26T09:41:05.942Z</time></trkpt><trkpt lat="43.705613" lon="11.1861936"><ele>234.0</ele><time>2026-04-26T09:41:07.944Z</time></trkpt><trkpt lat="43.7055337" lon="11.1861826"><ele>234.0</ele><time>2026-04-26T09:41:09.944Z</time></trkpt><trkpt lat="43.705458" lon="11.1861662"><ele>234.0</ele><time>2026-04-26T09:41:11.943Z</time></trkpt><trkpt lat="43.705385" lon="11.186132"><ele>234.0</ele><time>2026-04-26T09:41:13.944Z</time></trkpt><trkpt lat="43.7053056" lon="11.1860883"><ele>234.0</ele><time>2026-04-26T09:41:15.942Z</time></trkpt><trkpt lat="43.7052362" lon="11.186042"><ele>234.0</ele><time>2026-04-26T09:41:17.944Z</time></trkpt><trkpt lat="43.7051699" lon="11.1860004"><ele>233.71428571428572</ele><time>2026-04-26T09:41:19.944Z</time></trkpt><trkpt lat="43.7050997" lon="11.185963"><ele>233.42857142857144</ele><time>2026-04-26T09:41:21.945Z</time></trkpt><trkpt lat="43.7050343" lon="11.1859206"><ele>233.14285714285717</ele><time>2026-04-26T09:41:23.943Z</time></trkpt><trkpt lat="43.7049732" lon="11.1858787"><ele>232.8571428571429</ele><time>2026-04-26T09:41:25.943Z</time></trkpt><trkpt lat="43.7049104" lon="11.1858569"><ele>232.57142857142858</ele><time>2026-04-26T09:41:27.944Z</time></trkpt><trkpt lat="43.7048218" lon="11.1858522"><ele>232.28571428571433</ele><time>2026-04-26T09:41:30.944Z</time></trkpt><trkpt lat="43.7047443" lon="11.185844"><ele>232.00000000000003</ele><time>2026-04-26T09:41:33.943Z</time></trkpt><trkpt lat="43.7046736" lon="11.1858008"><ele>232.00000000000003</ele><time>2026-04-26T09:41:37.944Z</time></trkpt><trkpt lat="43.7046112" lon="11.185764"><ele>232.0</ele><time>2026-04-26T09:41:43.945Z</time></trkpt><trkpt lat="43.7046177" lon="11.1858555"><ele>232.00000000000003</ele><time>2026-04-26T09:43:34.944Z</time></trkpt><trkpt lat="43.7046836" lon="11.185884"><ele>232.00000000000003</ele><time>2026-04-26T09:43:36.944Z</time></trkpt><trkpt lat="43.7047522" lon="11.1859015"><ele>232.0</ele><time>2026-04-26T09:43:38.943Z</time></trkpt><trkpt lat="43.7048439" lon="11.1859051"><ele>232.00000000000003</ele><time>2026-04-26T09:43:41.944Z</time></trkpt><trkpt lat="43.7049102" lon="11.185843"><ele>232.00000000000003</ele><time>2026-04-26T09:43:44.944Z</time></trkpt><trkpt lat="43.704914" lon="11.1857443"><ele>232.0</ele><time>2026-04-26T09:43:46.942Z</time></trkpt><trkpt lat="43.7048815" lon="11.1856339"><ele>232.0</ele><time>2026-04-26T09:43:48.943Z</time></trkpt><trkpt lat="43.7048423" lon="11.1855202"><ele>232.0</ele><time>2026-04-26T09:43:50.944Z</time></trkpt><trkpt lat="43.7047947" lon="11.1853991"><ele>232.0</ele><time>2026-04-26T09:43:52.944Z</time></trkpt><trkpt lat="43.7047588" lon="11.1852698"><ele>232.0</ele><time>2026-04-26T09:43:54.944Z</time></trkpt><trkpt lat="43.7047187" lon="11.1851376"><ele>232.0</ele><time>2026-04-26T09:43:56.943Z</time></trkpt><trkpt lat="43.7046825" lon="11.1850043"><ele>232.0</ele><time>2026-04-26T09:43:58.943Z</time></trkpt><trkpt lat="43.704644" lon="11.1848678"><ele>232.0</ele><time>2026-04-26T09:44:00.944Z</time></trkpt><trkpt lat="43.7045889" lon="11.1847447"><ele>232.0</ele><time>2026-04-26T09:44:02.944Z</time></trkpt><trkpt lat="43.7045604" lon="11.1846118"><ele>232.0</ele><time>2026-04-26T09:44:04.944Z</time></trkpt><trkpt lat="43.7045296" lon="11.184485"><ele>232.49999999999997</ele><time>2026-04-26T09:44:06.943Z</time></trkpt><trkpt lat="43.7044913" lon="11.1843629"><ele>233.0</ele><time>2026-04-26T09:44:08.945Z</time></trkpt><trkpt lat="43.7044641" lon="11.1842359"><ele>233.5</ele><time>2026-04-26T09:44:11.943Z</time></trkpt><trkpt lat="43.704434" lon="11.1841483"><ele>234.0</ele><time>2026-04-26T09:44:13.945Z</time></trkpt><trkpt lat="43.7043923" lon="11.1840408"><ele>234.49999999999997</ele><time>2026-04-26T09:44:15.944Z</time></trkpt><trkpt lat="43.7043587" lon="11.1839152"><ele>235.0</ele><time>2026-04-26T09:44:17.944Z</time></trkpt><trkpt lat="43.7043294" lon="11.1837744"><ele>233.2</ele><time>2026-04-26T09:44:19.944Z</time></trkpt><trkpt lat="43.7042845" lon="11.1836416"><ele>231.4</ele><time>2026-04-26T09:44:21.943Z</time></trkpt><trkpt lat="43.704251" lon="11.1835551"><ele>229.60000000000002</ele><time>2026-04-26T09:44:22.943Z</time></trkpt><trkpt lat="43.7042215" lon="11.1834092"><ele>227.8</ele><time>2026-04-26T09:44:24.943Z</time></trkpt><trkpt lat="43.7041462" lon="11.1832763"><ele>226.0</ele><time>2026-04-26T09:44:26.944Z</time></trkpt><trkpt lat="43.7040997" lon="11.1832091"><ele>227.28571428571428</ele><time>2026-04-26T09:44:27.942Z</time></trkpt><trkpt lat="43.7040514" lon="11.1831445"><ele>228.57142857142856</ele><time>2026-04-26T09:44:28.944Z</time></trkpt><trkpt lat="43.7040027" lon="11.1830598"><ele>229.85714285714283</ele><time>2026-04-26T09:44:29.943Z</time></trkpt><trkpt lat="43.7039692" lon="11.1829709"><ele>231.14285714285714</ele><time>2026-04-26T09:44:30.944Z</time></trkpt><trkpt lat="43.7039398" lon="11.1828795"><ele>232.4285714285714</ele><time>2026-04-26T09:44:31.941Z</time></trkpt><trkpt lat="43.7039207" lon="11.1827841"><ele>233.7142857142857</ele><time>2026-04-26T09:44:32.944Z</time></trkpt><trkpt lat="43.7039" lon="11.182681"><ele>235.0</ele><time>2026-04-26T09:44:33.944Z</time></trkpt><trkpt lat="43.7038799" lon="11.1825829"><ele>235.0</ele><time>2026-04-26T09:44:34.944Z</time></trkpt><trkpt lat="43.7038504" lon="11.1824932"><ele>234.99999999999997</ele><time>2026-04-26T09:44:35.943Z</time></trkpt><trkpt lat="43.7038141" lon="11.1824108"><ele>235.0</ele><time>2026-04-26T09:44:36.942Z</time></trkpt><trkpt lat="43.7037828" lon="11.1823247"><ele>235.0</ele><time>2026-04-26T09:44:37.944Z</time></trkpt><trkpt lat="43.7037427" lon="11.1822424"><ele>234.99999999999997</ele><time>2026-04-26T09:44:38.943Z</time></trkpt><trkpt lat="43.7037211" lon="11.182146"><ele>235.0</ele><time>2026-04-26T09:44:39.944Z</time></trkpt><trkpt lat="43.7036821" lon="11.1820549"><ele>235.0</ele><time>2026-04-26T09:44:40.944Z</time></trkpt><trkpt lat="43.70364" lon="11.1819689"><ele>236.33333333333331</ele><time>2026-04-26T09:44:41.942Z</time></trkpt><trkpt lat="43.703603" lon="11.181879"><ele>237.66666666666666</ele><time>2026-04-26T09:44:42.944Z</time></trkpt><trkpt lat="43.7035639" lon="11.1817925"><ele>239.0</ele><time>2026-04-26T09:44:43.944Z</time></trkpt><trkpt lat="43.7035232" lon="11.1817082"><ele>240.33333333333331</ele><time>2026-04-26T09:44:44.944Z</time></trkpt><trkpt lat="43.7034763" lon="11.1816263"><ele>241.66666666666666</ele><time>2026-04-26T09:44:45.943Z</time></trkpt><trkpt lat="43.7034555" lon="11.1815181"><ele>243.0</ele><time>2026-04-26T09:44:46.944Z</time></trkpt><trkpt lat="43.7034161" lon="11.1814313"><ele>239.33333333333334</ele><time>2026-04-26T09:44:47.944Z</time></trkpt><trkpt lat="43.7033599" lon="11.1813501"><ele>235.66666666666669</ele><time>2026-04-26T09:44:48.944Z</time></trkpt><trkpt lat="43.7033157" lon="11.1812597"><ele>232.0</ele><time>2026-04-26T09:44:49.944Z</time></trkpt><trkpt lat="43.7032636" lon="11.1811693"><ele>228.33333333333334</ele><time>2026-04-26T09:44:50.944Z</time></trkpt><trkpt lat="43.7032152" lon="11.181063"><ele>224.66666666666669</ele><time>2026-04-26T09:44:51.944Z</time></trkpt><trkpt lat="43.7031945" lon="11.180955"><ele>221.0</ele><time>2026-04-26T09:44:52.943Z</time></trkpt><trkpt lat="43.7031579" lon="11.1808424"><ele>221.00000000000003</ele><time>2026-04-26T09:44:53.944Z</time></trkpt><trkpt lat="43.7031303" lon="11.1807402"><ele>221.0</ele><time>2026-04-26T09:44:54.944Z</time></trkpt><trkpt lat="43.7030946" lon="11.180614"><ele>221.0</ele><time>2026-04-26T09:44:55.944Z</time></trkpt><trkpt lat="43.703069" lon="11.1805104"><ele>221.0</ele><time>2026-04-26T09:44:56.944Z</time></trkpt><trkpt lat="43.7030168" lon="11.1804192"><ele>221.00000000000003</ele><time>2026-04-26T09:44:57.944Z</time></trkpt><trkpt lat="43.7029513" lon="11.1803535"><ele>221.0</ele><time>2026-04-26T09:44:58.943Z</time></trkpt><trkpt lat="43.7028774" lon="11.1802906"><ele>222.60000000000002</ele><time>2026-04-26T09:44:59.942Z</time></trkpt><trkpt lat="43.702793" lon="11.1802187"><ele>224.20000000000002</ele><time>2026-04-26T09:45:00.944Z</time></trkpt><trkpt lat="43.7027062" lon="11.1801641"><ele>225.79999999999998</ele><time>2026-04-26T09:45:01.942Z</time></trkpt><trkpt lat="43.7026217" lon="11.1801021"><ele>227.39999999999998</ele><time>2026-04-26T09:45:02.944Z</time></trkpt><trkpt lat="43.7025581" lon="11.1800316"><ele>229.0</ele><time>2026-04-26T09:45:03.944Z</time></trkpt><trkpt lat="43.7024839" lon="11.1799762"><ele>226.83333333333331</ele><time>2026-04-26T09:45:04.944Z</time></trkpt><trkpt lat="43.7024006" lon="11.1799103"><ele>224.66666666666666</ele><time>2026-04-26T09:45:05.942Z</time></trkpt><trkpt lat="43.7023265" lon="11.1798479"><ele>222.5</ele><time>2026-04-26T09:45:06.944Z</time></trkpt><trkpt lat="43.7022641" lon="11.1797887"><ele>220.33333333333331</ele><time>2026-04-26T09:45:07.944Z</time></trkpt><trkpt lat="43.7021989" lon="11.1797325"><ele>218.16666666666666</ele><time>2026-04-26T09:45:08.944Z</time></trkpt><trkpt lat="43.7021347" lon="11.1796927"><ele>216.0</ele><time>2026-04-26T09:45:09.943Z</time></trkpt><trkpt lat="43.7020757" lon="11.1796404"><ele>216.0</ele><time>2026-04-26T09:45:10.943Z</time></trkpt><trkpt lat="43.7019984" lon="11.1794968"><ele>216.0</ele><time>2026-04-26T09:45:12.943Z</time></trkpt><trkpt lat="43.7019835" lon="11.1793978"><ele>216.0</ele><time>2026-04-26T09:45:13.944Z</time></trkpt><trkpt lat="43.7019856" lon="11.179305"><ele>216.0</ele><time>2026-04-26T09:45:14.943Z</time></trkpt><trkpt lat="43.7019914" lon="11.1792079"><ele>216.0</ele><time>2026-04-26T09:45:15.944Z</time></trkpt><trkpt lat="43.7019951" lon="11.1791201"><ele>216.0</ele><time>2026-04-26T09:45:16.944Z</time></trkpt><trkpt lat="43.7019969" lon="11.1790318"><ele>216.60000000000002</ele><time>2026-04-26T09:45:17.943Z</time></trkpt><trkpt lat="43.7019847" lon="11.1788701"><ele>217.20000000000002</ele><time>2026-04-26T09:45:19.944Z</time></trkpt><trkpt lat="43.7019537" lon="11.1787662"><ele>217.79999999999998</ele><time>2026-04-26T09:45:21.942Z</time></trkpt><trkpt lat="43.7018616" lon="11.17869"><ele>218.39999999999998</ele><time>2026-04-26T09:45:23.943Z</time></trkpt><trkpt lat="43.7017574" lon="11.1786766"><ele>219.0</ele><time>2026-04-26T09:45:25.944Z</time></trkpt><trkpt lat="43.7016711" lon="11.1787381"><ele>217.2</ele><time>2026-04-26T09:45:26.945Z</time></trkpt><trkpt lat="43.7015529" lon="11.1787914"><ele>215.39999999999998</ele><time>2026-04-26T09:45:28.943Z</time></trkpt><trkpt lat="43.7014883" lon="11.1788225"><ele>213.6</ele><time>2026-04-26T09:45:29.943Z</time></trkpt><trkpt lat="43.7014215" lon="11.1788441"><ele>211.8</ele><time>2026-04-26T09:45:30.945Z</time></trkpt><trkpt lat="43.7013382" lon="11.1788966"><ele>210.0</ele><time>2026-04-26T09:45:31.943Z</time></trkpt><trkpt lat="43.7012251" lon="11.1788857"><ele>210.0</ele><time>2026-04-26T09:45:32.943Z</time></trkpt><trkpt lat="43.7011353" lon="11.1789316"><ele>210.0</ele><time>2026-04-26T09:45:33.944Z</time></trkpt><trkpt lat="43.7010582" lon="11.1789588"><ele>210.0</ele><time>2026-04-26T09:45:34.944Z</time></trkpt><trkpt lat="43.7009708" lon="11.1789749"><ele>210.0</ele><time>2026-04-26T09:45:35.943Z</time></trkpt><trkpt lat="43.7008903" lon="11.1789948"><ele>210.0</ele><time>2026-04-26T09:45:36.944Z</time></trkpt><trkpt lat="43.7008108" lon="11.1790153"><ele>210.0</ele><time>2026-04-26T09:45:37.943Z</time></trkpt><trkpt lat="43.700719" lon="11.179054"><ele>207.0</ele><time>2026-04-26T09:45:38.942Z</time></trkpt><trkpt lat="43.7006467" lon="11.1790813"><ele>204.0</ele><time>2026-04-26T09:45:39.944Z</time></trkpt><trkpt lat="43.7005625" lon="11.1790993"><ele>201.0</ele><time>2026-04-26T09:45:40.944Z</time></trkpt><trkpt lat="43.7004639" lon="11.1791039"><ele>198.0</ele><time>2026-04-26T09:45:41.943Z</time></trkpt><trkpt lat="43.7003778" lon="11.1791187"><ele>195.0</ele><time>2026-04-26T09:45:42.943Z</time></trkpt><trkpt lat="43.7002958" lon="11.1791486"><ele>192.0</ele><time>2026-04-26T09:45:43.942Z</time></trkpt><trkpt lat="43.7001986" lon="11.1791765"><ele>192.0</ele><time>2026-04-26T09:45:44.944Z</time></trkpt><trkpt lat="43.700105" lon="11.1791698"><ele>192.0</ele><time>2026-04-26T09:45:45.944Z</time></trkpt><trkpt lat="43.7000202" lon="11.1791587"><ele>192.0</ele><time>2026-04-26T09:45:46.943Z</time></trkpt><trkpt lat="43.6999288" lon="11.1790921"><ele>192.0</ele><time>2026-04-26T09:45:47.945Z</time></trkpt><trkpt lat="43.6998687" lon="11.1789909"><ele>192.0</ele><time>2026-04-26T09:45:48.943Z</time></trkpt><trkpt lat="43.6998085" lon="11.1788931"><ele>190.8</ele><time>2026-04-26T09:45:49.942Z</time></trkpt><trkpt lat="43.6997522" lon="11.1787979"><ele>189.6</ele><time>2026-04-26T09:45:50.943Z</time></trkpt><trkpt lat="43.6996985" lon="11.1787"><ele>188.4</ele><time>2026-04-26T09:45:51.943Z</time></trkpt><trkpt lat="43.6996459" lon="11.1785981"><ele>187.20000000000002</ele><time>2026-04-26T09:45:52.943Z</time></trkpt><trkpt lat="43.6995863" lon="11.1785103"><ele>186.0</ele><time>2026-04-26T09:45:53.944Z</time></trkpt><trkpt lat="43.6995356" lon="11.1783531"><ele>186.0</ele><time>2026-04-26T09:45:55.711Z</time></trkpt><trkpt lat="43.6994797" lon="11.1782467"><ele>186.0</ele><time>2026-04-26T09:45:56.945Z</time></trkpt><trkpt lat="43.6994425" lon="11.1781639"><ele>186.0</ele><time>2026-04-26T09:45:57.943Z</time></trkpt><trkpt lat="43.6993983" lon="11.1780832"><ele>186.0</ele><time>2026-04-26T09:45:58.943Z</time></trkpt><trkpt lat="43.6993523" lon="11.178001"><ele>186.0</ele><time>2026-04-26T09:45:59.944Z</time></trkpt><trkpt lat="43.699296" lon="11.1779388"><ele>186.0</ele><time>2026-04-26T09:46:00.944Z</time></trkpt><trkpt lat="43.6992452" lon="11.1778743"><ele>185.16666666666666</ele><time>2026-04-26T09:46:01.944Z</time></trkpt><trkpt lat="43.6991773" lon="11.177818"><ele>184.33333333333334</ele><time>2026-04-26T09:46:02.944Z</time></trkpt><trkpt lat="43.6991121" lon="11.1777644"><ele>183.5</ele><time>2026-04-26T09:46:03.944Z</time></trkpt><trkpt lat="43.6990556" lon="11.1777251"><ele>182.66666666666669</ele><time>2026-04-26T09:46:04.943Z</time></trkpt><trkpt lat="43.6989895" lon="11.1776802"><ele>181.83333333333334</ele><time>2026-04-26T09:46:05.942Z</time></trkpt><trkpt lat="43.6988794" lon="11.1775882"><ele>181.0</ele><time>2026-04-26T09:46:07.943Z</time></trkpt><trkpt lat="43.6988137" lon="11.17754"><ele>181.0</ele><time>2026-04-26T09:46:08.942Z</time></trkpt><trkpt lat="43.6987474" lon="11.1774928"><ele>181.0</ele><time>2026-04-26T09:46:09.943Z</time></trkpt><trkpt lat="43.6986813" lon="11.1774428"><ele>181.0</ele><time>2026-04-26T09:46:10.943Z</time></trkpt><trkpt lat="43.6986187" lon="11.1773878"><ele>181.0</ele><time>2026-04-26T09:46:11.943Z</time></trkpt><trkpt lat="43.6985546" lon="11.1773274"><ele>181.0</ele><time>2026-04-26T09:46:12.943Z</time></trkpt><trkpt lat="43.6984934" lon="11.1772597"><ele>181.0</ele><time>2026-04-26T09:46:13.943Z</time></trkpt><trkpt lat="43.6984414" lon="11.1771945"><ele>181.33333333333334</ele><time>2026-04-26T09:46:14.943Z</time></trkpt><trkpt lat="43.6983942" lon="11.1771204"><ele>181.66666666666669</ele><time>2026-04-26T09:46:15.943Z</time></trkpt><trkpt lat="43.698377" lon="11.1770265"><ele>182.0</ele><time>2026-04-26T09:46:16.944Z</time></trkpt><trkpt lat="43.6983365" lon="11.1769305"><ele>182.33333333333334</ele><time>2026-04-26T09:46:17.943Z</time></trkpt><trkpt lat="43.6983342" lon="11.1768197"><ele>182.66666666666666</ele><time>2026-04-26T09:46:18.942Z</time></trkpt><trkpt lat="43.6983217" lon="11.1766391"><ele>183.0</ele><time>2026-04-26T09:46:20.942Z</time></trkpt><trkpt lat="43.698295" lon="11.1765483"><ele>182.0</ele><time>2026-04-26T09:46:21.943Z</time></trkpt><trkpt lat="43.6982701" lon="11.1763831"><ele>181.0</ele><time>2026-04-26T09:46:23.943Z</time></trkpt><trkpt lat="43.698239" lon="11.176293"><ele>180.0</ele><time>2026-04-26T09:46:24.944Z</time></trkpt><trkpt lat="43.6981979" lon="11.1762159"><ele>179.0</ele><time>2026-04-26T09:46:25.944Z</time></trkpt><trkpt lat="43.6981437" lon="11.1760554"><ele>178.0</ele><time>2026-04-26T09:46:27.943Z</time></trkpt><trkpt lat="43.6980933" lon="11.1759275"><ele>178.0</ele><time>2026-04-26T09:46:29.942Z</time></trkpt><trkpt lat="43.6980592" lon="11.175849"><ele>178.0</ele><time>2026-04-26T09:46:30.942Z</time></trkpt><trkpt lat="43.6979779" lon="11.1757396"><ele>178.0</ele><time>2026-04-26T09:46:32.944Z</time></trkpt><trkpt lat="43.6978963" lon="11.1756023"><ele>178.0</ele><time>2026-04-26T09:46:34.942Z</time></trkpt><trkpt lat="43.6978298" lon="11.1754809"><ele>178.0</ele><time>2026-04-26T09:46:36.944Z</time></trkpt><trkpt lat="43.6977747" lon="11.1753495"><ele>178.2</ele><time>2026-04-26T09:46:38.943Z</time></trkpt><trkpt lat="43.6977232" lon="11.1752188"><ele>178.4</ele><time>2026-04-26T09:46:40.944Z</time></trkpt><trkpt lat="43.6976697" lon="11.1750883"><ele>178.6</ele><time>2026-04-26T09:46:42.944Z</time></trkpt><trkpt lat="43.6976594" lon="11.1749901"><ele>178.79999999999998</ele><time>2026-04-26T09:46:43.944Z</time></trkpt><trkpt lat="43.6976038" lon="11.1748525"><ele>179.0</ele><time>2026-04-26T09:46:45.944Z</time></trkpt><trkpt lat="43.6975476" lon="11.1747525"><ele>178.0</ele><time>2026-04-26T09:46:47.943Z</time></trkpt><trkpt lat="43.6974785" lon="11.174616"><ele>177.0</ele><time>2026-04-26T09:46:49.943Z</time></trkpt><trkpt lat="43.6973998" lon="11.1745189"><ele>176.0</ele><time>2026-04-26T09:46:51.942Z</time></trkpt><trkpt lat="43.6973378" lon="11.1743949"><ele>175.0</ele><time>2026-04-26T09:46:53.943Z</time></trkpt><trkpt lat="43.6972689" lon="11.1742822"><ele>174.0</ele><time>2026-04-26T09:46:55.943Z</time></trkpt><trkpt lat="43.6972139" lon="11.1741595"><ele>174.0</ele><time>2026-04-26T09:46:57.944Z</time></trkpt><trkpt lat="43.6971219" lon="11.1740875"><ele>174.0</ele><time>2026-04-26T09:46:59.944Z</time></trkpt><trkpt lat="43.6970529" lon="11.1739774"><ele>174.0</ele><time>2026-04-26T09:47:01.944Z</time></trkpt><trkpt lat="43.6969804" lon="11.173898"><ele>174.0</ele><time>2026-04-26T09:47:03.944Z</time></trkpt><trkpt lat="43.6969087" lon="11.1738024"><ele>174.0</ele><time>2026-04-26T09:47:05.942Z</time></trkpt><trkpt lat="43.6968671" lon="11.1737182"><ele>175.6</ele><time>2026-04-26T09:47:07.942Z</time></trkpt><trkpt lat="43.6968051" lon="11.1736076"><ele>177.2</ele><time>2026-04-26T09:47:09.944Z</time></trkpt><trkpt lat="43.6967507" lon="11.1735009"><ele>178.79999999999998</ele><time>2026-04-26T09:47:11.944Z</time></trkpt><trkpt lat="43.6967115" lon="11.1733861"><ele>180.39999999999998</ele><time>2026-04-26T09:47:13.944Z</time></trkpt><trkpt lat="43.6966729" lon="11.1732803"><ele>182.0</ele><time>2026-04-26T09:47:15.944Z</time></trkpt><trkpt lat="43.6966261" lon="11.1731821"><ele>182.0</ele><time>2026-04-26T09:47:17.942Z</time></trkpt><trkpt lat="43.6965654" lon="11.1730663"><ele>182.0</ele><time>2026-04-26T09:47:19.942Z</time></trkpt><trkpt lat="43.6964916" lon="11.1729433"><ele>182.0</ele><time>2026-04-26T09:47:21.943Z</time></trkpt><trkpt lat="43.696418" lon="11.1728238"><ele>182.0</ele><time>2026-04-26T09:47:23.944Z</time></trkpt><trkpt lat="43.6963421" lon="11.1726992"><ele>182.0</ele><time>2026-04-26T09:47:25.944Z</time></trkpt><trkpt lat="43.6962683" lon="11.1725831"><ele>182.0</ele><time>2026-04-26T09:47:27.943Z</time></trkpt><trkpt lat="43.6961959" lon="11.1724628"><ele>182.0</ele><time>2026-04-26T09:47:29.944Z</time></trkpt><trkpt lat="43.6961112" lon="11.1723608"><ele>182.0</ele><time>2026-04-26T09:47:31.944Z</time></trkpt><trkpt lat="43.6960064" lon="11.172284"><ele>182.2</ele><time>2026-04-26T09:47:33.944Z</time></trkpt><trkpt lat="43.6959112" lon="11.1721976"><ele>182.39999999999998</ele><time>2026-04-26T09:47:35.944Z</time></trkpt><trkpt lat="43.6958067" lon="11.1721423"><ele>182.60000000000002</ele><time>2026-04-26T09:47:37.944Z</time></trkpt><trkpt lat="43.6957508" lon="11.1721015"><ele>182.8</ele><time>2026-04-26T09:47:38.944Z</time></trkpt><trkpt lat="43.695647" lon="11.1720242"><ele>183.0</ele><time>2026-04-26T09:47:40.943Z</time></trkpt><trkpt lat="43.6955331" lon="11.1719576"><ele>183.0</ele><time>2026-04-26T09:47:42.943Z</time></trkpt><trkpt lat="43.6954739" lon="11.1719168"><ele>183.0</ele><time>2026-04-26T09:47:43.944Z</time></trkpt><trkpt lat="43.6954146" lon="11.1718817"><ele>183.0</ele><time>2026-04-26T09:47:44.943Z</time></trkpt><trkpt lat="43.6953015" lon="11.1718038"><ele>183.0</ele><time>2026-04-26T09:47:46.943Z</time></trkpt><trkpt lat="43.6952399" lon="11.1717654"><ele>183.0</ele><time>2026-04-26T09:47:47.944Z</time></trkpt><trkpt lat="43.6951862" lon="11.1717192"><ele>183.0</ele><time>2026-04-26T09:47:48.944Z</time></trkpt><trkpt lat="43.6951219" lon="11.1716673"><ele>182.66666666666666</ele><time>2026-04-26T09:47:49.944Z</time></trkpt><trkpt lat="43.69506" lon="11.1716115"><ele>182.33333333333334</ele><time>2026-04-26T09:47:50.944Z</time></trkpt><trkpt lat="43.6949878" lon="11.1714692"><ele>182.0</ele><time>2026-04-26T09:47:52.944Z</time></trkpt><trkpt lat="43.6949387" lon="11.1713909"><ele>181.66666666666669</ele><time>2026-04-26T09:47:53.944Z</time></trkpt><trkpt lat="43.694897" lon="11.171298"><ele>181.33333333333334</ele><time>2026-04-26T09:47:54.944Z</time></trkpt><trkpt lat="43.6948479" lon="11.1712197"><ele>181.0</ele><time>2026-04-26T09:47:55.944Z</time></trkpt><trkpt lat="43.6948061" lon="11.1711343"><ele>180.0</ele><time>2026-04-26T09:47:56.944Z</time></trkpt><trkpt lat="43.6947676" lon="11.1710606"><ele>179.0</ele><time>2026-04-26T09:47:57.943Z</time></trkpt><trkpt lat="43.6947069" lon="11.1709178"><ele>178.0</ele><time>2026-04-26T09:47:59.944Z</time></trkpt><trkpt lat="43.6947975" lon="11.1708731"><ele>177.0</ele><time>2026-04-26T09:48:00.944Z</time></trkpt><trkpt lat="43.6948226" lon="11.1707381"><ele>176.0</ele><time>2026-04-26T09:48:02.944Z</time></trkpt><trkpt lat="43.6948269" lon="11.1705867"><ele>176.0</ele><time>2026-04-26T09:48:04.944Z</time></trkpt><trkpt lat="43.6947968" lon="11.1704426"><ele>176.0</ele><time>2026-04-26T09:48:06.943Z</time></trkpt><trkpt lat="43.6947273" lon="11.1702879"><ele>176.0</ele><time>2026-04-26T09:48:08.943Z</time></trkpt><trkpt lat="43.6946601" lon="11.1701427"><ele>176.0</ele><time>2026-04-26T09:48:10.943Z</time></trkpt><trkpt lat="43.6946239" lon="11.1700556"><ele>176.0</ele><time>2026-04-26T09:48:11.943Z</time></trkpt><trkpt lat="43.6945794" lon="11.1699886"><ele>176.16666666666666</ele><time>2026-04-26T09:48:12.943Z</time></trkpt><trkpt lat="43.6945189" lon="11.1698466"><ele>176.33333333333331</ele><time>2026-04-26T09:48:14.943Z</time></trkpt><trkpt lat="43.6944844" lon="11.1697724"><ele>176.5</ele><time>2026-04-26T09:48:15.945Z</time></trkpt><trkpt lat="43.694448" lon="11.1696733"><ele>176.66666666666666</ele><time>2026-04-26T09:48:16.943Z</time></trkpt><trkpt lat="43.694414" lon="11.1695848"><ele>176.83333333333334</ele><time>2026-04-26T09:48:17.942Z</time></trkpt><trkpt lat="43.6943803" lon="11.1694946"><ele>177.0</ele><time>2026-04-26T09:48:18.943Z</time></trkpt><trkpt lat="43.6943676" lon="11.1693944"><ele>173.66666666666666</ele><time>2026-04-26T09:48:19.943Z</time></trkpt><trkpt lat="43.694354" lon="11.1692921"><ele>170.33333333333334</ele><time>2026-04-26T09:48:20.941Z</time></trkpt><trkpt lat="43.6943529" lon="11.1691772"><ele>167.0</ele><time>2026-04-26T09:48:21.943Z</time></trkpt><trkpt lat="43.6943601" lon="11.1690584"><ele>163.66666666666669</ele><time>2026-04-26T09:48:22.944Z</time></trkpt><trkpt lat="43.6943657" lon="11.1689424"><ele>160.33333333333334</ele><time>2026-04-26T09:48:23.944Z</time></trkpt><trkpt lat="43.6943823" lon="11.1688271"><ele>157.0</ele><time>2026-04-26T09:48:24.943Z</time></trkpt><trkpt lat="43.6944022" lon="11.1687107"><ele>158.5</ele><time>2026-04-26T09:48:25.943Z</time></trkpt><trkpt lat="43.6944251" lon="11.1686036"><ele>160.0</ele><time>2026-04-26T09:48:26.943Z</time></trkpt><trkpt lat="43.6944448" lon="11.1684914"><ele>161.5</ele><time>2026-04-26T09:48:27.943Z</time></trkpt><trkpt lat="43.6944654" lon="11.1683846"><ele>163.0</ele><time>2026-04-26T09:48:28.943Z</time></trkpt><trkpt lat="43.6944834" lon="11.1682809"><ele>164.5</ele><time>2026-04-26T09:48:29.942Z</time></trkpt><trkpt lat="43.6944985" lon="11.1681736"><ele>166.0</ele><time>2026-04-26T09:48:30.942Z</time></trkpt><trkpt lat="43.6945118" lon="11.1680643"><ele>166.0</ele><time>2026-04-26T09:48:31.943Z</time></trkpt><trkpt lat="43.6945129" lon="11.167951"><ele>166.0</ele><time>2026-04-26T09:48:32.942Z</time></trkpt><trkpt lat="43.6944936" lon="11.1678432"><ele>166.0</ele><time>2026-04-26T09:48:33.943Z</time></trkpt><trkpt lat="43.6944503" lon="11.1677389"><ele>166.0</ele><time>2026-04-26T09:48:34.943Z</time></trkpt><trkpt lat="43.6943887" lon="11.1676635"><ele>166.0</ele><time>2026-04-26T09:48:35.942Z</time></trkpt><trkpt lat="43.6943196" lon="11.1676086"><ele>166.0</ele><time>2026-04-26T09:48:36.943Z</time></trkpt><trkpt lat="43.6942326" lon="11.1675871"><ele>164.33333333333334</ele><time>2026-04-26T09:48:37.942Z</time></trkpt><trkpt lat="43.6941516" lon="11.1675847"><ele>162.66666666666669</ele><time>2026-04-26T09:48:38.944Z</time></trkpt><trkpt lat="43.6940734" lon="11.1675921"><ele>161.0</ele><time>2026-04-26T09:48:39.943Z</time></trkpt><trkpt lat="43.6939918" lon="11.1676428"><ele>159.33333333333334</ele><time>2026-04-26T09:48:40.943Z</time></trkpt><trkpt lat="43.6939146" lon="11.1676969"><ele>157.66666666666666</ele><time>2026-04-26T09:48:41.943Z</time></trkpt><trkpt lat="43.6938304" lon="11.1677278"><ele>156.0</ele><time>2026-04-26T09:48:42.943Z</time></trkpt><trkpt lat="43.693744" lon="11.1677782"><ele>156.0</ele><time>2026-04-26T09:48:43.943Z</time></trkpt><trkpt lat="43.693641" lon="11.1677833"><ele>156.0</ele><time>2026-04-26T09:48:44.943Z</time></trkpt><trkpt lat="43.6935558" lon="11.1677675"><ele>156.0</ele><time>2026-04-26T09:48:45.943Z</time></trkpt><trkpt lat="43.6934795" lon="11.1677301"><ele>156.0</ele><time>2026-04-26T09:48:46.943Z</time></trkpt><trkpt lat="43.6934014" lon="11.1676946"><ele>156.0</ele><time>2026-04-26T09:48:47.943Z</time></trkpt><trkpt lat="43.693329" lon="11.1676299"><ele>156.0</ele><time>2026-04-26T09:48:48.942Z</time></trkpt><trkpt lat="43.6932571" lon="11.1675604"><ele>156.5</ele><time>2026-04-26T09:48:49.942Z</time></trkpt><trkpt lat="43.6931836" lon="11.1674977"><ele>157.0</ele><time>2026-04-26T09:48:50.942Z</time></trkpt><trkpt lat="43.6931226" lon="11.1674291"><ele>157.5</ele><time>2026-04-26T09:48:51.943Z</time></trkpt><trkpt lat="43.6930613" lon="11.1673869"><ele>158.0</ele><time>2026-04-26T09:48:52.943Z</time></trkpt><trkpt lat="43.6929819" lon="11.1673419"><ele>158.5</ele><time>2026-04-26T09:48:53.942Z</time></trkpt><trkpt lat="43.6929002" lon="11.1673049"><ele>159.0</ele><time>2026-04-26T09:48:54.943Z</time></trkpt><trkpt lat="43.6927717" lon="11.16722"><ele>156.33333333333334</ele><time>2026-04-26T09:48:56.943Z</time></trkpt><trkpt lat="43.6927088" lon="11.1671726"><ele>153.66666666666666</ele><time>2026-04-26T09:48:57.943Z</time></trkpt><trkpt lat="43.6926399" lon="11.1671212"><ele>151.0</ele><time>2026-04-26T09:48:58.942Z</time></trkpt><trkpt lat="43.6925752" lon="11.1670544"><ele>148.33333333333331</ele><time>2026-04-26T09:48:59.944Z</time></trkpt><trkpt lat="43.6925103" lon="11.1669974"><ele>145.66666666666666</ele><time>2026-04-26T09:49:00.942Z</time></trkpt><trkpt lat="43.6924533" lon="11.1669318"><ele>143.0</ele><time>2026-04-26T09:49:01.943Z</time></trkpt><trkpt lat="43.6923974" lon="11.1668618"><ele>142.99999999999997</ele><time>2026-04-26T09:49:02.943Z</time></trkpt><trkpt lat="43.6923371" lon="11.1667954"><ele>143.0</ele><time>2026-04-26T09:49:03.942Z</time></trkpt><trkpt lat="43.6922878" lon="11.166719"><ele>143.0</ele><time>2026-04-26T09:49:04.942Z</time></trkpt><trkpt lat="43.6922426" lon="11.1666426"><ele>143.0</ele><time>2026-04-26T09:49:05.943Z</time></trkpt><trkpt lat="43.6921928" lon="11.1665654"><ele>143.0</ele><time>2026-04-26T09:49:06.943Z</time></trkpt><trkpt lat="43.6921551" lon="11.1664812"><ele>142.99999999999997</ele><time>2026-04-26T09:49:07.942Z</time></trkpt><trkpt lat="43.6921226" lon="11.1663963"><ele>143.0</ele><time>2026-04-26T09:49:08.943Z</time></trkpt><trkpt lat="43.6920816" lon="11.1663062"><ele>143.0</ele><time>2026-04-26T09:49:09.943Z</time></trkpt><trkpt lat="43.6920405" lon="11.1662201"><ele>143.0</ele><time>2026-04-26T09:49:10.941Z</time></trkpt><trkpt lat="43.6920124" lon="11.1661251"><ele>143.0</ele><time>2026-04-26T09:49:11.944Z</time></trkpt><trkpt lat="43.6919846" lon="11.1660283"><ele>143.0</ele><time>2026-04-26T09:49:12.943Z</time></trkpt><trkpt lat="43.6919619" lon="11.1659254"><ele>143.0</ele><time>2026-04-26T09:49:13.943Z</time></trkpt><trkpt lat="43.6919266" lon="11.165826"><ele>143.0</ele><time>2026-04-26T09:49:14.943Z</time></trkpt><trkpt lat="43.6918978" lon="11.1657241"><ele>141.66666666666666</ele><time>2026-04-26T09:49:15.942Z</time></trkpt><trkpt lat="43.6918646" lon="11.1656232"><ele>140.33333333333331</ele><time>2026-04-26T09:49:16.943Z</time></trkpt><trkpt lat="43.6918317" lon="11.1655227"><ele>139.0</ele><time>2026-04-26T09:49:17.943Z</time></trkpt><trkpt lat="43.6917762" lon="11.1654277"><ele>137.66666666666666</ele><time>2026-04-26T09:49:18.943Z</time></trkpt><trkpt lat="43.6917281" lon="11.1653308"><ele>136.33333333333334</ele><time>2026-04-26T09:49:19.943Z</time></trkpt><trkpt lat="43.6916652" lon="11.1652512"><ele>135.0</ele><time>2026-04-26T09:49:20.942Z</time></trkpt><trkpt lat="43.6916148" lon="11.1651674"><ele>135.0</ele><time>2026-04-26T09:49:21.943Z</time></trkpt><trkpt lat="43.6915634" lon="11.1650758"><ele>135.0</ele><time>2026-04-26T09:49:22.943Z</time></trkpt><trkpt lat="43.6915136" lon="11.1649912"><ele>135.0</ele><time>2026-04-26T09:49:23.943Z</time></trkpt><trkpt lat="43.6914693" lon="11.1649114"><ele>135.0</ele><time>2026-04-26T09:49:24.943Z</time></trkpt><trkpt lat="43.6914193" lon="11.1648278"><ele>135.0</ele><time>2026-04-26T09:49:25.943Z</time></trkpt><trkpt lat="43.6913726" lon="11.1647507"><ele>135.0</ele><time>2026-04-26T09:49:26.943Z</time></trkpt><trkpt lat="43.6913304" lon="11.1646614"><ele>134.85714285714286</ele><time>2026-04-26T09:49:27.942Z</time></trkpt><trkpt lat="43.6912759" lon="11.1645806"><ele>134.7142857142857</ele><time>2026-04-26T09:49:28.942Z</time></trkpt><trkpt lat="43.6912241" lon="11.1644986"><ele>134.57142857142856</ele><time>2026-04-26T09:49:29.942Z</time></trkpt><trkpt lat="43.6911663" lon="11.1644187"><ele>134.42857142857142</ele><time>2026-04-26T09:49:30.942Z</time></trkpt><trkpt lat="43.6911246" lon="11.164344"><ele>134.28571428571428</ele><time>2026-04-26T09:49:31.941Z</time></trkpt><trkpt lat="43.691079" lon="11.1642745"><ele>134.14285714285714</ele><time>2026-04-26T09:49:32.943Z</time></trkpt><trkpt lat="43.6910362" lon="11.1642003"><ele>134.0</ele><time>2026-04-26T09:49:33.943Z</time></trkpt><trkpt lat="43.690986" lon="11.164138"><ele>133.6</ele><time>2026-04-26T09:49:34.942Z</time></trkpt><trkpt lat="43.690944" lon="11.1640703"><ele>133.2</ele><time>2026-04-26T09:49:35.943Z</time></trkpt><trkpt lat="43.6908641" lon="11.163929"><ele>132.79999999999998</ele><time>2026-04-26T09:49:37.943Z</time></trkpt><trkpt lat="43.6907859" lon="11.163801"><ele>132.4</ele><time>2026-04-26T09:49:39.943Z</time></trkpt><trkpt lat="43.690705" lon="11.1636644"><ele>132.0</ele><time>2026-04-26T09:49:41.942Z</time></trkpt><trkpt lat="43.6906284" lon="11.1635375"><ele>131.4</ele><time>2026-04-26T09:49:43.943Z</time></trkpt><trkpt lat="43.6905639" lon="11.1634142"><ele>130.79999999999998</ele><time>2026-04-26T09:49:45.943Z</time></trkpt><trkpt lat="43.6904876" lon="11.1632836"><ele>130.2</ele><time>2026-04-26T09:49:47.942Z</time></trkpt><trkpt lat="43.690423" lon="11.1631638"><ele>129.6</ele><time>2026-04-26T09:49:49.943Z</time></trkpt><trkpt lat="43.6903584" lon="11.163043"><ele>129.0</ele><time>2026-04-26T09:49:51.943Z</time></trkpt><trkpt lat="43.690294" lon="11.1629122"><ele>128.75</ele><time>2026-04-26T09:49:53.942Z</time></trkpt><trkpt lat="43.6902225" lon="11.1627764"><ele>128.5</ele><time>2026-04-26T09:49:55.943Z</time></trkpt><trkpt lat="43.6901595" lon="11.1626442"><ele>128.25</ele><time>2026-04-26T09:49:57.943Z</time></trkpt><trkpt lat="43.690094" lon="11.1625095"><ele>128.0</ele><time>2026-04-26T09:49:59.943Z</time></trkpt><trkpt lat="43.6900289" lon="11.162386"><ele>127.60000000000001</ele><time>2026-04-26T09:50:01.942Z</time></trkpt><trkpt lat="43.6899748" lon="11.162254"><ele>127.20000000000002</ele><time>2026-04-26T09:50:03.943Z</time></trkpt><trkpt lat="43.6899422" lon="11.1621789"><ele>126.8</ele><time>2026-04-26T09:50:04.943Z</time></trkpt><trkpt lat="43.6898818" lon="11.1620473"><ele>126.4</ele><time>2026-04-26T09:50:06.943Z</time></trkpt><trkpt lat="43.6898382" lon="11.161908"><ele>126.0</ele><time>2026-04-26T09:50:08.942Z</time></trkpt><trkpt lat="43.6898195" lon="11.1618235"><ele>126.0</ele><time>2026-04-26T09:50:09.943Z</time></trkpt><trkpt lat="43.6897804" lon="11.1616731"><ele>126.0</ele><time>2026-04-26T09:50:11.943Z</time></trkpt><trkpt lat="43.6897413" lon="11.1615208"><ele>126.0</ele><time>2026-04-26T09:50:13.943Z</time></trkpt><trkpt lat="43.6897127" lon="11.1613527"><ele>126.0</ele><time>2026-04-26T09:50:15.943Z</time></trkpt><trkpt lat="43.689695" lon="11.1611929"><ele>125.8</ele><time>2026-04-26T09:50:17.942Z</time></trkpt><trkpt lat="43.6896756" lon="11.1610307"><ele>125.6</ele><time>2026-04-26T09:50:19.942Z</time></trkpt><trkpt lat="43.6896465" lon="11.1608816"><ele>125.4</ele><time>2026-04-26T09:50:21.943Z</time></trkpt><trkpt lat="43.6896182" lon="11.1607343"><ele>125.2</ele><time>2026-04-26T09:50:23.942Z</time></trkpt><trkpt lat="43.6895999" lon="11.1605868"><ele>125.0</ele><time>2026-04-26T09:50:25.942Z</time></trkpt><trkpt lat="43.6895776" lon="11.1604252"><ele>124.8</ele><time>2026-04-26T09:50:27.943Z</time></trkpt><trkpt lat="43.6895628" lon="11.1602708"><ele>124.6</ele><time>2026-04-26T09:50:29.943Z</time></trkpt><trkpt lat="43.689546" lon="11.1601134"><ele>124.4</ele><time>2026-04-26T09:50:31.942Z</time></trkpt><trkpt lat="43.6895409" lon="11.1600249"><ele>124.2</ele><time>2026-04-26T09:50:32.941Z</time></trkpt><trkpt lat="43.6895327" lon="11.159855"><ele>124.0</ele><time>2026-04-26T09:50:34.943Z</time></trkpt><trkpt lat="43.6895366" lon="11.1596948"><ele>124.4</ele><time>2026-04-26T09:50:36.942Z</time></trkpt><trkpt lat="43.6895333" lon="11.1596068"><ele>124.80000000000001</ele><time>2026-04-26T09:50:37.943Z</time></trkpt><trkpt lat="43.6895451" lon="11.159437"><ele>125.19999999999999</ele><time>2026-04-26T09:50:39.943Z</time></trkpt><trkpt lat="43.6895424" lon="11.159268"><ele>125.6</ele><time>2026-04-26T09:50:41.942Z</time></trkpt><trkpt lat="43.6895584" lon="11.1591094"><ele>126.0</ele><time>2026-04-26T09:50:43.942Z</time></trkpt><trkpt lat="43.6895611" lon="11.158948"><ele>127.25</ele><time>2026-04-26T09:50:45.943Z</time></trkpt><trkpt lat="43.6895683" lon="11.1587843"><ele>128.5</ele><time>2026-04-26T09:50:47.942Z</time></trkpt><trkpt lat="43.6895526" lon="11.1586331"><ele>129.75</ele><time>2026-04-26T09:50:49.943Z</time></trkpt><trkpt lat="43.6895185" lon="11.1584882"><ele>131.0</ele><time>2026-04-26T09:50:51.943Z</time></trkpt><trkpt lat="43.6894551" lon="11.1583441"><ele>130.16666666666666</ele><time>2026-04-26T09:50:53.942Z</time></trkpt><trkpt lat="43.6893706" lon="11.1582365"><ele>129.33333333333331</ele><time>2026-04-26T09:50:55.943Z</time></trkpt><trkpt lat="43.6893217" lon="11.1581808"><ele>128.5</ele><time>2026-04-26T09:50:56.942Z</time></trkpt><trkpt lat="43.6892674" lon="11.1581299"><ele>127.66666666666666</ele><time>2026-04-26T09:50:57.942Z</time></trkpt><trkpt lat="43.6891878" lon="11.1580165"><ele>126.83333333333333</ele><time>2026-04-26T09:50:59.943Z</time></trkpt><trkpt lat="43.6891388" lon="11.1579532"><ele>126.0</ele><time>2026-04-26T09:51:00.943Z</time></trkpt><trkpt lat="43.6890789" lon="11.1578273"><ele>126.0</ele><time>2026-04-26T09:51:02.943Z</time></trkpt><trkpt lat="43.6890287" lon="11.1576838"><ele>126.0</ele><time>2026-04-26T09:51:04.941Z</time></trkpt><trkpt lat="43.6889964" lon="11.1575296"><ele>126.0</ele><time>2026-04-26T09:51:06.943Z</time></trkpt><trkpt lat="43.6889903" lon="11.1573684"><ele>126.0</ele><time>2026-04-26T09:51:08.942Z</time></trkpt><trkpt lat="43.688993" lon="11.1572139"><ele>125.75</ele><time>2026-04-26T09:51:10.941Z</time></trkpt><trkpt lat="43.6890055" lon="11.1570566"><ele>125.5</ele><time>2026-04-26T09:51:12.942Z</time></trkpt><trkpt lat="43.689009" lon="11.1569015"><ele>125.25</ele><time>2026-04-26T09:51:14.942Z</time></trkpt><trkpt lat="43.6889908" lon="11.1567443"><ele>125.0</ele><time>2026-04-26T09:51:16.942Z</time></trkpt><trkpt lat="43.6889504" lon="11.1566013"><ele>125.4</ele><time>2026-04-26T09:51:18.943Z</time></trkpt><trkpt lat="43.6889176" lon="11.1565234"><ele>125.8</ele><time>2026-04-26T09:51:19.943Z</time></trkpt><trkpt lat="43.6888622" lon="11.1564059"><ele>126.19999999999999</ele><time>2026-04-26T09:51:21.942Z</time></trkpt><trkpt lat="43.6888172" lon="11.1563316"><ele>126.6</ele><time>2026-04-26T09:51:22.943Z</time></trkpt><trkpt lat="43.6887467" lon="11.1561818"><ele>127.0</ele><time>2026-04-26T09:51:24.942Z</time></trkpt><trkpt lat="43.6886802" lon="11.1560493"><ele>127.0</ele><time>2026-04-26T09:51:26.942Z</time></trkpt><trkpt lat="43.688658" lon="11.1558846"><ele>126.99999999999999</ele><time>2026-04-26T09:51:28.942Z</time></trkpt><trkpt lat="43.6886648" lon="11.155795"><ele>126.99999999999999</ele><time>2026-04-26T09:51:29.943Z</time></trkpt><trkpt lat="43.6887093" lon="11.1556413"><ele>127.0</ele><time>2026-04-26T09:51:31.94Z</time></trkpt><trkpt lat="43.6887388" lon="11.1554833"><ele>127.0</ele><time>2026-04-26T09:51:33.943Z</time></trkpt><trkpt lat="43.6887796" lon="11.1553365"><ele>126.39999999999999</ele><time>2026-04-26T09:51:35.943Z</time></trkpt><trkpt lat="43.6887949" lon="11.1552465"><ele>125.79999999999998</ele><time>2026-04-26T09:51:36.941Z</time></trkpt><trkpt lat="43.6888085" lon="11.1551596"><ele>125.2</ele><time>2026-04-26T09:51:37.942Z</time></trkpt><trkpt lat="43.6888338" lon="11.1550092"><ele>124.6</ele><time>2026-04-26T09:51:39.942Z</time></trkpt><trkpt lat="43.6888152" lon="11.1548466"><ele>124.0</ele><time>2026-04-26T09:51:41.941Z</time></trkpt><trkpt lat="43.6887571" lon="11.1546917"><ele>123.80000000000001</ele><time>2026-04-26T09:51:43.943Z</time></trkpt><trkpt lat="43.6886917" lon="11.154565"><ele>123.60000000000001</ele><time>2026-04-26T09:51:45.943Z</time></trkpt><trkpt lat="43.6886222" lon="11.1544435"><ele>123.4</ele><time>2026-04-26T09:51:47.943Z</time></trkpt><trkpt lat="43.6885567" lon="11.1543239"><ele>123.2</ele><time>2026-04-26T09:51:49.942Z</time></trkpt><trkpt lat="43.6884956" lon="11.1541941"><ele>123.0</ele><time>2026-04-26T09:51:51.941Z</time></trkpt><trkpt lat="43.688438" lon="11.1540459"><ele>122.0</ele><time>2026-04-26T09:51:53.942Z</time></trkpt><trkpt lat="43.6883936" lon="11.1538917"><ele>121.00000000000001</ele><time>2026-04-26T09:51:55.943Z</time></trkpt><trkpt lat="43.6883516" lon="11.1537614"><ele>120.00000000000001</ele><time>2026-04-26T09:51:57.941Z</time></trkpt><trkpt lat="43.6883066" lon="11.1536092"><ele>119.0</ele><time>2026-04-26T09:51:59.943Z</time></trkpt><trkpt lat="43.6882748" lon="11.1535326"><ele>118.0</ele><time>2026-04-26T09:52:00.943Z</time></trkpt><trkpt lat="43.6882258" lon="11.1533837"><ele>118.0</ele><time>2026-04-26T09:52:02.943Z</time></trkpt><trkpt lat="43.6881807" lon="11.1532454"><ele>118.00000000000001</ele><time>2026-04-26T09:52:04.943Z</time></trkpt><trkpt lat="43.6881449" lon="11.153101"><ele>118.00000000000001</ele><time>2026-04-26T09:52:06.942Z</time></trkpt><trkpt lat="43.6880911" lon="11.1529681"><ele>118.0</ele><time>2026-04-26T09:52:08.942Z</time></trkpt><trkpt lat="43.6880352" lon="11.1528419"><ele>118.0</ele><time>2026-04-26T09:52:10.943Z</time></trkpt><trkpt lat="43.6879849" lon="11.1526987"><ele>118.4</ele><time>2026-04-26T09:52:12.943Z</time></trkpt><trkpt lat="43.6879396" lon="11.1525461"><ele>118.80000000000001</ele><time>2026-04-26T09:52:14.943Z</time></trkpt><trkpt lat="43.6879268" lon="11.1524608"><ele>119.2</ele><time>2026-04-26T09:52:15.942Z</time></trkpt><trkpt lat="43.6879035" lon="11.1523225"><ele>119.6</ele><time>2026-04-26T09:52:17.942Z</time></trkpt><trkpt lat="43.6878818" lon="11.1521662"><ele>120.0</ele><time>2026-04-26T09:52:19.943Z</time></trkpt><trkpt lat="43.687862" lon="11.1520102"><ele>120.4</ele><time>2026-04-26T09:52:21.943Z</time></trkpt><trkpt lat="43.6878324" lon="11.1518558"><ele>120.8</ele><time>2026-04-26T09:52:23.942Z</time></trkpt><trkpt lat="43.6878038" lon="11.1517005"><ele>121.19999999999999</ele><time>2026-04-26T09:52:25.942Z</time></trkpt><trkpt lat="43.6877656" lon="11.1515347"><ele>121.6</ele><time>2026-04-26T09:52:27.942Z</time></trkpt><trkpt lat="43.6877554" lon="11.1514483"><ele>122.0</ele><time>2026-04-26T09:52:28.942Z</time></trkpt><trkpt lat="43.6877321" lon="11.1512857"><ele>119.8</ele><time>2026-04-26T09:52:30.942Z</time></trkpt><trkpt lat="43.6877223" lon="11.1511962"><ele>117.6</ele><time>2026-04-26T09:52:31.94Z</time></trkpt><trkpt lat="43.6877054" lon="11.1510418"><ele>115.39999999999999</ele><time>2026-04-26T09:52:33.942Z</time></trkpt><trkpt lat="43.6876975" lon="11.1508831"><ele>113.19999999999999</ele><time>2026-04-26T09:52:35.942Z</time></trkpt><trkpt lat="43.6876994" lon="11.1507237"><ele>111.0</ele><time>2026-04-26T09:52:37.942Z</time></trkpt><trkpt lat="43.6877024" lon="11.1505707"><ele>111.0</ele><time>2026-04-26T09:52:39.942Z</time></trkpt><trkpt lat="43.6877073" lon="11.1504332"><ele>111.0</ele><time>2026-04-26T09:52:41.942Z</time></trkpt><trkpt lat="43.6877178" lon="11.1502838"><ele>111.0</ele><time>2026-04-26T09:52:43.942Z</time></trkpt><trkpt lat="43.6877339" lon="11.1501424"><ele>111.0</ele><time>2026-04-26T09:52:45.942Z</time></trkpt><trkpt lat="43.6877463" lon="11.1499848"><ele>111.0</ele><time>2026-04-26T09:52:47.941Z</time></trkpt><trkpt lat="43.6877601" lon="11.149832"><ele>115.0</ele><time>2026-04-26T09:52:49.943Z</time></trkpt><trkpt lat="43.6877693" lon="11.1496761"><ele>119.0</ele><time>2026-04-26T09:52:51.943Z</time></trkpt><trkpt lat="43.6877823" lon="11.1495123"><ele>123.0</ele><time>2026-04-26T09:52:53.941Z</time></trkpt><trkpt lat="43.6877988" lon="11.1493506"><ele>127.0</ele><time>2026-04-26T09:52:55.941Z</time></trkpt><trkpt lat="43.687808" lon="11.1491825"><ele>126.6</ele><time>2026-04-26T09:52:57.942Z</time></trkpt><trkpt lat="43.6878161" lon="11.1490305"><ele>126.19999999999999</ele><time>2026-04-26T09:52:59.942Z</time></trkpt><trkpt lat="43.6878228" lon="11.1488782"><ele>125.8</ele><time>2026-04-26T09:53:01.942Z</time></trkpt><trkpt lat="43.6878073" lon="11.1487878"><ele>125.4</ele><time>2026-04-26T09:53:02.942Z</time></trkpt><trkpt lat="43.6877888" lon="11.148632"><ele>125.0</ele><time>2026-04-26T09:53:04.942Z</time></trkpt><trkpt lat="43.687758" lon="11.1484838"><ele>122.4</ele><time>2026-04-26T09:53:06.942Z</time></trkpt><trkpt lat="43.6877087" lon="11.1483484"><ele>119.8</ele><time>2026-04-26T09:53:08.943Z</time></trkpt><trkpt lat="43.6876662" lon="11.1482208"><ele>117.19999999999999</ele><time>2026-04-26T09:53:10.943Z</time></trkpt><trkpt lat="43.687615" lon="11.1480973"><ele>114.6</ele><time>2026-04-26T09:53:12.943Z</time></trkpt><trkpt lat="43.6875645" lon="11.1479588"><ele>112.0</ele><time>2026-04-26T09:53:14.941Z</time></trkpt><trkpt lat="43.6875232" lon="11.1478079"><ele>112.0</ele><time>2026-04-26T09:53:16.942Z</time></trkpt><trkpt lat="43.6874854" lon="11.1476605"><ele>111.99999999999999</ele><time>2026-04-26T09:53:18.942Z</time></trkpt><trkpt lat="43.6874661" lon="11.1475197"><ele>111.99999999999999</ele><time>2026-04-26T09:53:20.942Z</time></trkpt><trkpt lat="43.6874647" lon="11.1473716"><ele>112.0</ele><time>2026-04-26T09:53:22.94Z</time></trkpt><trkpt lat="43.687477" lon="11.1472076"><ele>112.0</ele><time>2026-04-26T09:53:24.941Z</time></trkpt><trkpt lat="43.6875018" lon="11.1470525"><ele>110.75</ele><time>2026-04-26T09:53:26.942Z</time></trkpt><trkpt lat="43.6875383" lon="11.1469097"><ele>109.5</ele><time>2026-04-26T09:53:28.942Z</time></trkpt><trkpt lat="43.6875869" lon="11.1467675"><ele>108.25</ele><time>2026-04-26T09:53:30.943Z</time></trkpt><trkpt lat="43.6876381" lon="11.1466205"><ele>107.0</ele><time>2026-04-26T09:53:32.943Z</time></trkpt><trkpt lat="43.687691" lon="11.146465"><ele>106.39999999999999</ele><time>2026-04-26T09:53:34.942Z</time></trkpt><trkpt lat="43.6877165" lon="11.1463827"><ele>105.79999999999998</ele><time>2026-04-26T09:53:35.943Z</time></trkpt><trkpt lat="43.6877532" lon="11.1462208"><ele>105.2</ele><time>2026-04-26T09:53:37.941Z</time></trkpt><trkpt lat="43.6878027" lon="11.1460866"><ele>104.6</ele><time>2026-04-26T09:53:39.942Z</time></trkpt><trkpt lat="43.687846" lon="11.1459455"><ele>104.0</ele><time>2026-04-26T09:53:41.941Z</time></trkpt><trkpt lat="43.6878957" lon="11.145805"><ele>106.2</ele><time>2026-04-26T09:53:43.942Z</time></trkpt><trkpt lat="43.6879376" lon="11.1456625"><ele>108.4</ele><time>2026-04-26T09:53:45.942Z</time></trkpt><trkpt lat="43.6879676" lon="11.1455145"><ele>110.6</ele><time>2026-04-26T09:53:47.942Z</time></trkpt><trkpt lat="43.6879699" lon="11.1453615"><ele>112.8</ele><time>2026-04-26T09:53:49.943Z</time></trkpt><trkpt lat="43.6879545" lon="11.1452171"><ele>115.0</ele><time>2026-04-26T09:53:51.943Z</time></trkpt><trkpt lat="43.6879179" lon="11.1450771"><ele>115.0</ele><time>2026-04-26T09:53:53.942Z</time></trkpt><trkpt lat="43.6878653" lon="11.1449441"><ele>115.0</ele><time>2026-04-26T09:53:55.941Z</time></trkpt><trkpt lat="43.6878205" lon="11.1448251"><ele>115.0</ele><time>2026-04-26T09:53:57.943Z</time></trkpt><trkpt lat="43.6877513" lon="11.1446978"><ele>115.0</ele><time>2026-04-26T09:53:59.941Z</time></trkpt><trkpt lat="43.6876811" lon="11.1445702"><ele>115.0</ele><time>2026-04-26T09:54:01.941Z</time></trkpt><trkpt lat="43.6876421" lon="11.1445009"><ele>112.25</ele><time>2026-04-26T09:54:02.942Z</time></trkpt><trkpt lat="43.6875808" lon="11.1443592"><ele>109.5</ele><time>2026-04-26T09:54:04.942Z</time></trkpt><trkpt lat="43.6875335" lon="11.1442097"><ele>106.75</ele><time>2026-04-26T09:54:06.942Z</time></trkpt><trkpt lat="43.6875077" lon="11.1440475"><ele>104.0</ele><time>2026-04-26T09:54:08.943Z</time></trkpt><trkpt lat="43.6874667" lon="11.1438986"><ele>104.0</ele><time>2026-04-26T09:54:10.941Z</time></trkpt><trkpt lat="43.6874573" lon="11.1437577"><ele>104.0</ele><time>2026-04-26T09:54:12.941Z</time></trkpt><trkpt lat="43.687453" lon="11.1436"><ele>104.0</ele><time>2026-04-26T09:54:14.942Z</time></trkpt><trkpt lat="43.6874467" lon="11.1434534"><ele>104.0</ele><time>2026-04-26T09:54:16.942Z</time></trkpt><trkpt lat="43.6874494" lon="11.1433022"><ele>104.0</ele><time>2026-04-26T09:54:18.942Z</time></trkpt><trkpt lat="43.6874642" lon="11.1431525"><ele>104.0</ele><time>2026-04-26T09:54:20.943Z</time></trkpt><trkpt lat="43.6874908" lon="11.1430182"><ele>104.0</ele><time>2026-04-26T09:54:22.942Z</time></trkpt><trkpt lat="43.6875315" lon="11.142881"><ele>104.0</ele><time>2026-04-26T09:54:24.942Z</time></trkpt><trkpt lat="43.6875829" lon="11.1427486"><ele>104.0</ele><time>2026-04-26T09:54:26.942Z</time></trkpt><trkpt lat="43.6876381" lon="11.1426197"><ele>104.0</ele><time>2026-04-26T09:54:28.941Z</time></trkpt><trkpt lat="43.6876906" lon="11.1424891"><ele>103.4</ele><time>2026-04-26T09:54:30.943Z</time></trkpt><trkpt lat="43.6877386" lon="11.1423574"><ele>102.80000000000001</ele><time>2026-04-26T09:54:32.94Z</time></trkpt><trkpt lat="43.6877948" lon="11.1422198"><ele>102.19999999999999</ele><time>2026-04-26T09:54:34.943Z</time></trkpt><trkpt lat="43.6878476" lon="11.14209"><ele>101.6</ele><time>2026-04-26T09:54:36.942Z</time></trkpt><trkpt lat="43.6879059" lon="11.1419497"><ele>101.0</ele><time>2026-04-26T09:54:38.942Z</time></trkpt><trkpt lat="43.6879529" lon="11.1418139"><ele>102.4</ele><time>2026-04-26T09:54:40.942Z</time></trkpt><trkpt lat="43.6879672" lon="11.1417282"><ele>103.8</ele><time>2026-04-26T09:54:41.942Z</time></trkpt><trkpt lat="43.6879979" lon="11.1415828"><ele>105.20000000000002</ele><time>2026-04-26T09:54:43.942Z</time></trkpt><trkpt lat="43.6880167" lon="11.1414533"><ele>106.60000000000001</ele><time>2026-04-26T09:54:45.942Z</time></trkpt><trkpt lat="43.6880204" lon="11.1412992"><ele>108.0</ele><time>2026-04-26T09:54:47.94Z</time></trkpt><trkpt lat="43.6880035" lon="11.1411566"><ele>108.0</ele><time>2026-04-26T09:54:49.941Z</time></trkpt><trkpt lat="43.687984" lon="11.1410194"><ele>108.00000000000001</ele><time>2026-04-26T09:54:51.942Z</time></trkpt><trkpt lat="43.6879534" lon="11.1408809"><ele>108.00000000000001</ele><time>2026-04-26T09:54:53.942Z</time></trkpt><trkpt lat="43.687916" lon="11.1407543"><ele>108.0</ele><time>2026-04-26T09:54:55.941Z</time></trkpt><trkpt lat="43.6878813" lon="11.1406057"><ele>108.0</ele><time>2026-04-26T09:54:57.942Z</time></trkpt><trkpt lat="43.6878514" lon="11.1404604"><ele>108.0</ele><time>2026-04-26T09:54:59.941Z</time></trkpt><trkpt lat="43.6878415" lon="11.1403191"><ele>108.0</ele><time>2026-04-26T09:55:01.942Z</time></trkpt><trkpt lat="43.6878011" lon="11.1401697"><ele>108.0</ele><time>2026-04-26T09:55:03.942Z</time></trkpt><trkpt lat="43.6877809" lon="11.1400129"><ele>108.0</ele><time>2026-04-26T09:55:05.941Z</time></trkpt><trkpt lat="43.6877653" lon="11.139849"><ele>105.75</ele><time>2026-04-26T09:55:07.942Z</time></trkpt><trkpt lat="43.6877433" lon="11.1396966"><ele>103.5</ele><time>2026-04-26T09:55:09.941Z</time></trkpt><trkpt lat="43.6877251" lon="11.1395397"><ele>101.25</ele><time>2026-04-26T09:55:11.941Z</time></trkpt><trkpt lat="43.6876949" lon="11.1393885"><ele>99.0</ele><time>2026-04-26T09:55:13.94Z</time></trkpt><trkpt lat="43.6876812" lon="11.1392267"><ele>99.0</ele><time>2026-04-26T09:55:15.942Z</time></trkpt><trkpt lat="43.6876654" lon="11.1390657"><ele>99.0</ele><time>2026-04-26T09:55:17.941Z</time></trkpt><trkpt lat="43.6876408" lon="11.1388936"><ele>99.0</ele><time>2026-04-26T09:55:19.942Z</time></trkpt><trkpt lat="43.687617" lon="11.1387301"><ele>99.0</ele><time>2026-04-26T09:55:21.942Z</time></trkpt><trkpt lat="43.6875932" lon="11.1385659"><ele>99.0</ele><time>2026-04-26T09:55:23.942Z</time></trkpt><trkpt lat="43.6875716" lon="11.1383985"><ele>99.0</ele><time>2026-04-26T09:55:25.942Z</time></trkpt><trkpt lat="43.6875501" lon="11.1382375"><ele>99.0</ele><time>2026-04-26T09:55:27.942Z</time></trkpt><trkpt lat="43.6875338" lon="11.1380742"><ele>99.0</ele><time>2026-04-26T09:55:29.942Z</time></trkpt><trkpt lat="43.6875305" lon="11.1379149"><ele>98.80000000000001</ele><time>2026-04-26T09:55:31.941Z</time></trkpt><trkpt lat="43.6875327" lon="11.1377529"><ele>98.60000000000001</ele><time>2026-04-26T09:55:33.941Z</time></trkpt><trkpt lat="43.687543" lon="11.1376032"><ele>98.4</ele><time>2026-04-26T09:55:35.942Z</time></trkpt><trkpt lat="43.6875633" lon="11.1374499"><ele>98.2</ele><time>2026-04-26T09:55:37.942Z</time></trkpt><trkpt lat="43.6875835" lon="11.1372992"><ele>98.0</ele><time>2026-04-26T09:55:39.941Z</time></trkpt><trkpt lat="43.6876034" lon="11.1371405"><ele>98.0</ele><time>2026-04-26T09:55:41.942Z</time></trkpt><trkpt lat="43.6876218" lon="11.1369907"><ele>98.0</ele><time>2026-04-26T09:55:43.942Z</time></trkpt><trkpt lat="43.687638" lon="11.1368426"><ele>98.0</ele><time>2026-04-26T09:55:45.942Z</time></trkpt><trkpt lat="43.6876551" lon="11.1366906"><ele>98.0</ele><time>2026-04-26T09:55:47.941Z</time></trkpt><trkpt lat="43.6876811" lon="11.1365552"><ele>98.0</ele><time>2026-04-26T09:55:49.942Z</time></trkpt><trkpt lat="43.687703" lon="11.1364131"><ele>97.80000000000001</ele><time>2026-04-26T09:55:51.942Z</time></trkpt><trkpt lat="43.6877174" lon="11.1362762"><ele>97.6</ele><time>2026-04-26T09:55:53.942Z</time></trkpt><trkpt lat="43.6877271" lon="11.1361345"><ele>97.4</ele><time>2026-04-26T09:55:55.942Z</time></trkpt><trkpt lat="43.6877443" lon="11.1359867"><ele>97.19999999999999</ele><time>2026-04-26T09:55:57.941Z</time></trkpt><trkpt lat="43.6877611" lon="11.1358398"><ele>97.0</ele><time>2026-04-26T09:55:59.941Z</time></trkpt><trkpt lat="43.6877769" lon="11.1357014"><ele>99.0</ele><time>2026-04-26T09:56:01.942Z</time></trkpt><trkpt lat="43.687795" lon="11.1355647"><ele>101.0</ele><time>2026-04-26T09:56:03.942Z</time></trkpt><trkpt lat="43.6878124" lon="11.1354393"><ele>102.99999999999999</ele><time>2026-04-26T09:56:05.941Z</time></trkpt><trkpt lat="43.6878293" lon="11.1353041"><ele>105.0</ele><time>2026-04-26T09:56:07.941Z</time></trkpt><trkpt lat="43.6878489" lon="11.1351768"><ele>107.0</ele><time>2026-04-26T09:56:09.942Z</time></trkpt><trkpt lat="43.6878456" lon="11.1350402"><ele>107.0</ele><time>2026-04-26T09:56:11.94Z</time></trkpt><trkpt lat="43.6878345" lon="11.1349009"><ele>106.99999999999999</ele><time>2026-04-26T09:56:13.942Z</time></trkpt><trkpt lat="43.6878003" lon="11.1347575"><ele>106.99999999999999</ele><time>2026-04-26T09:56:15.941Z</time></trkpt><trkpt lat="43.6877772" lon="11.1346142"><ele>107.0</ele><time>2026-04-26T09:56:17.942Z</time></trkpt><trkpt lat="43.6877479" lon="11.1344767"><ele>107.0</ele><time>2026-04-26T09:56:19.942Z</time></trkpt><trkpt lat="43.6877197" lon="11.1343924"><ele>105.8</ele><time>2026-04-26T09:56:20.942Z</time></trkpt><trkpt lat="43.6877012" lon="11.1342787"><ele>104.6</ele><time>2026-04-26T09:56:22.942Z</time></trkpt><trkpt lat="43.6876705" lon="11.134159"><ele>103.39999999999999</ele><time>2026-04-26T09:56:24.942Z</time></trkpt><trkpt lat="43.6876421" lon="11.1340009"><ele>102.19999999999999</ele><time>2026-04-26T09:56:26.941Z</time></trkpt><trkpt lat="43.6876022" lon="11.1338902"><ele>101.0</ele><time>2026-04-26T09:56:28.941Z</time></trkpt><trkpt lat="43.6875672" lon="11.1337544"><ele>101.0</ele><time>2026-04-26T09:56:30.942Z</time></trkpt><trkpt lat="43.6875341" lon="11.1336112"><ele>101.0</ele><time>2026-04-26T09:56:32.942Z</time></trkpt><trkpt lat="43.6875275" lon="11.1334846"><ele>101.0</ele><time>2026-04-26T09:56:34.942Z</time></trkpt><trkpt lat="43.6875123" lon="11.1333277"><ele>101.0</ele><time>2026-04-26T09:56:36.942Z</time></trkpt><trkpt lat="43.6875405" lon="11.1332207"><ele>101.0</ele><time>2026-04-26T09:56:38.942Z</time></trkpt><trkpt lat="43.6875318" lon="11.1330828"><ele>100.8</ele><time>2026-04-26T09:56:40.941Z</time></trkpt><trkpt lat="43.6875163" lon="11.1329326"><ele>100.6</ele><time>2026-04-26T09:56:42.941Z</time></trkpt><trkpt lat="43.6875086" lon="11.1328449"><ele>100.4</ele><time>2026-04-26T09:56:43.942Z</time></trkpt><trkpt lat="43.6874738" lon="11.1327049"><ele>100.2</ele><time>2026-04-26T09:56:45.942Z</time></trkpt><trkpt lat="43.6874378" lon="11.1326214"><ele>100.0</ele><time>2026-04-26T09:56:46.942Z</time></trkpt><trkpt lat="43.687354" lon="11.1324774"><ele>99.50000000000001</ele><time>2026-04-26T09:56:48.94Z</time></trkpt><trkpt lat="43.6872885" lon="11.1323514"><ele>99.0</ele><time>2026-04-26T09:56:50.941Z</time></trkpt><trkpt lat="43.6872266" lon="11.1322919"><ele>98.5</ele><time>2026-04-26T09:56:51.941Z</time></trkpt><trkpt lat="43.6871774" lon="11.1322257"><ele>98.0</ele><time>2026-04-26T09:56:52.942Z</time></trkpt><trkpt lat="43.6871415" lon="11.1321418"><ele>97.50000000000001</ele><time>2026-04-26T09:56:53.941Z</time></trkpt><trkpt lat="43.6870983" lon="11.132064"><ele>97.0</ele><time>2026-04-26T09:56:54.941Z</time></trkpt><trkpt lat="43.6870493" lon="11.1319927"><ele>97.00000000000001</ele><time>2026-04-26T09:56:55.942Z</time></trkpt><trkpt lat="43.6870045" lon="11.1319215"><ele>97.0</ele><time>2026-04-26T09:56:56.94Z</time></trkpt><trkpt lat="43.6869583" lon="11.1318498"><ele>97.0</ele><time>2026-04-26T09:56:57.942Z</time></trkpt><trkpt lat="43.6869169" lon="11.1317727"><ele>97.0</ele><time>2026-04-26T09:56:58.942Z</time></trkpt><trkpt lat="43.6868643" lon="11.1316906"><ele>97.00000000000001</ele><time>2026-04-26T09:56:59.942Z</time></trkpt><trkpt lat="43.6868441" lon="11.1315984"><ele>97.0</ele><time>2026-04-26T09:57:00.94Z</time></trkpt><trkpt lat="43.6867726" lon="11.1314621"><ele>96.39999999999999</ele><time>2026-04-26T09:57:02.94Z</time></trkpt><trkpt lat="43.6866794" lon="11.1313478"><ele>95.8</ele><time>2026-04-26T09:57:04.942Z</time></trkpt><trkpt lat="43.6866272" lon="11.1312843"><ele>95.2</ele><time>2026-04-26T09:57:05.942Z</time></trkpt><trkpt lat="43.6865438" lon="11.1311689"><ele>94.6</ele><time>2026-04-26T09:57:07.942Z</time></trkpt><trkpt lat="43.6864874" lon="11.1310963"><ele>94.0</ele><time>2026-04-26T09:57:08.942Z</time></trkpt><trkpt lat="43.6863924" lon="11.1309957"><ele>94.0</ele><time>2026-04-26T09:57:10.942Z</time></trkpt><trkpt lat="43.6862906" lon="11.1309056"><ele>94.0</ele><time>2026-04-26T09:57:12.941Z</time></trkpt><trkpt lat="43.6861961" lon="11.1308121"><ele>94.0</ele><time>2026-04-26T09:57:14.942Z</time></trkpt><trkpt lat="43.6861039" lon="11.130714"><ele>94.0</ele><time>2026-04-26T09:57:16.942Z</time></trkpt><trkpt lat="43.6860184" lon="11.1306234"><ele>93.2</ele><time>2026-04-26T09:57:18.942Z</time></trkpt><trkpt lat="43.6859703" lon="11.1305576"><ele>92.4</ele><time>2026-04-26T09:57:19.942Z</time></trkpt><trkpt lat="43.685874" lon="11.1304677"><ele>91.6</ele><time>2026-04-26T09:57:21.942Z</time></trkpt><trkpt lat="43.6857713" lon="11.130359"><ele>90.8</ele><time>2026-04-26T09:57:23.941Z</time></trkpt><trkpt lat="43.6856672" lon="11.1302597"><ele>90.0</ele><time>2026-04-26T09:57:25.941Z</time></trkpt><trkpt lat="43.6855499" lon="11.1301683"><ele>90.0</ele><time>2026-04-26T09:57:27.941Z</time></trkpt><trkpt lat="43.6854831" lon="11.1301158"><ele>90.0</ele><time>2026-04-26T09:57:28.94Z</time></trkpt><trkpt lat="43.6854296" lon="11.130066"><ele>90.0</ele><time>2026-04-26T09:57:29.941Z</time></trkpt><trkpt lat="43.6853687" lon="11.1299733"><ele>90.0</ele><time>2026-04-26T09:57:30.941Z</time></trkpt><trkpt lat="43.6853132" lon="11.1299127"><ele>90.0</ele><time>2026-04-26T09:57:31.942Z</time></trkpt><trkpt lat="43.685256" lon="11.1298508"><ele>90.0</ele><time>2026-04-26T09:57:32.942Z</time></trkpt><trkpt lat="43.6851974" lon="11.1297909"><ele>90.0</ele><time>2026-04-26T09:57:33.94Z</time></trkpt><trkpt lat="43.6851341" lon="11.1297272"><ele>89.16666666666667</ele><time>2026-04-26T09:57:34.941Z</time></trkpt><trkpt lat="43.6850733" lon="11.1296615"><ele>88.33333333333333</ele><time>2026-04-26T09:57:35.941Z</time></trkpt><trkpt lat="43.6850247" lon="11.1295876"><ele>87.5</ele><time>2026-04-26T09:57:36.943Z</time></trkpt><trkpt lat="43.6849719" lon="11.1294976"><ele>86.66666666666666</ele><time>2026-04-26T09:57:37.942Z</time></trkpt><trkpt lat="43.6849288" lon="11.129412"><ele>85.83333333333333</ele><time>2026-04-26T09:57:38.942Z</time></trkpt><trkpt lat="43.6848842" lon="11.129323"><ele>85.0</ele><time>2026-04-26T09:57:39.942Z</time></trkpt><trkpt lat="43.6848492" lon="11.1292171"><ele>85.0</ele><time>2026-04-26T09:57:40.943Z</time></trkpt><trkpt lat="43.6848109" lon="11.1291191"><ele>85.0</ele><time>2026-04-26T09:57:41.941Z</time></trkpt><trkpt lat="43.6847759" lon="11.129018"><ele>85.0</ele><time>2026-04-26T09:57:42.943Z</time></trkpt><trkpt lat="43.6847522" lon="11.1289228"><ele>85.0</ele><time>2026-04-26T09:57:43.941Z</time></trkpt><trkpt lat="43.6847292" lon="11.1288316"><ele>85.0</ele><time>2026-04-26T09:57:44.941Z</time></trkpt><trkpt lat="43.6846976" lon="11.1287503"><ele>85.0</ele><time>2026-04-26T09:57:45.942Z</time></trkpt><trkpt lat="43.6846814" lon="11.128665"><ele>85.0</ele><time>2026-04-26T09:57:46.942Z</time></trkpt><trkpt lat="43.6846392" lon="11.1285074"><ele>84.83333333333333</ele><time>2026-04-26T09:57:48.942Z</time></trkpt><trkpt lat="43.6846086" lon="11.1284017"><ele>84.66666666666666</ele><time>2026-04-26T09:57:50.941Z</time></trkpt><trkpt lat="43.6845758" lon="11.1282926"><ele>84.5</ele><time>2026-04-26T09:57:53.942Z</time></trkpt><trkpt lat="43.6845399" lon="11.1282072"><ele>84.33333333333333</ele><time>2026-04-26T09:57:55.94Z</time></trkpt><trkpt lat="43.684496" lon="11.1281255"><ele>84.16666666666667</ele><time>2026-04-26T09:57:57.942Z</time></trkpt><trkpt lat="43.6844224" lon="11.1281262"><ele>84.0</ele><time>2026-04-26T09:57:59.94Z</time></trkpt><trkpt lat="43.6843611" lon="11.1282147"><ele>83.71428571428571</ele><time>2026-04-26T09:58:02.942Z</time></trkpt><trkpt lat="43.6843381" lon="11.1283251"><ele>83.42857142857143</ele><time>2026-04-26T09:58:04.941Z</time></trkpt><trkpt lat="43.6843294" lon="11.1284337"><ele>83.14285714285714</ele><time>2026-04-26T09:58:06.942Z</time></trkpt><trkpt lat="43.6843478" lon="11.1285505"><ele>82.85714285714286</ele><time>2026-04-26T09:58:09.942Z</time></trkpt><trkpt lat="43.6843532" lon="11.128644"><ele>82.57142857142857</ele><time>2026-04-26T09:58:12.942Z</time></trkpt><trkpt lat="43.6843539" lon="11.1287376"><ele>82.28571428571428</ele><time>2026-04-26T09:58:16.941Z</time></trkpt><trkpt lat="43.6843522" lon="11.1288271"><ele>82.0</ele><time>2026-04-26T09:59:03.94Z</time></trkpt><trkpt lat="43.6843397" lon="11.1289136"><ele>82.0</ele><time>2026-04-26T09:59:14.941Z</time></trkpt><trkpt lat="43.6843427" lon="11.129002"><ele>82.0</ele><time>2026-04-26T09:59:43.941Z</time></trkpt><trkpt lat="43.6842738" lon="11.1289938"><ele>82.0</ele><time>2026-04-26T10:02:49.94Z</time></trkpt><trkpt lat="43.6843327" lon="11.1290519"><ele>82.0</ele><time>2026-04-26T11:35:03.947Z</time></trkpt><trkpt lat="43.6844428" lon="11.1290916"><ele>82.0</ele><time>2026-04-26T11:36:14.947Z</time></trkpt><trkpt lat="43.684512" lon="11.1290549"><ele>82.0</ele><time>2026-04-26T11:36:17.947Z</time></trkpt><trkpt lat="43.6845695" lon="11.129011"><ele>82.33333333333333</ele><time>2026-04-26T11:36:21.945Z</time></trkpt><trkpt lat="43.6846274" lon="11.1289569"><ele>82.66666666666666</ele><time>2026-04-26T11:36:25.947Z</time></trkpt><trkpt lat="43.6847038" lon="11.1289241"><ele>83.0</ele><time>2026-04-26T11:36:30.947Z</time></trkpt><trkpt lat="43.6847505" lon="11.1290019"><ele>83.33333333333333</ele><time>2026-04-26T11:36:33.946Z</time></trkpt><trkpt lat="43.6847862" lon="11.1291147"><ele>83.66666666666667</ele><time>2026-04-26T11:36:36.947Z</time></trkpt><trkpt lat="43.6848126" lon="11.1292017"><ele>84.0</ele><time>2026-04-26T11:36:38.946Z</time></trkpt><trkpt lat="43.6848367" lon="11.1292918"><ele>84.16666666666667</ele><time>2026-04-26T11:36:40.947Z</time></trkpt><trkpt lat="43.6848649" lon="11.1293702"><ele>84.33333333333333</ele><time>2026-04-26T11:36:42.947Z</time></trkpt><trkpt lat="43.6849143" lon="11.1294759"><ele>84.5</ele><time>2026-04-26T11:36:45.946Z</time></trkpt><trkpt lat="43.6849635" lon="11.1295817"><ele>84.66666666666666</ele><time>2026-04-26T11:36:48.947Z</time></trkpt><trkpt lat="43.6850226" lon="11.1296656"><ele>84.83333333333333</ele><time>2026-04-26T11:36:51.946Z</time></trkpt><trkpt lat="43.6850819" lon="11.1297435"><ele>85.0</ele><time>2026-04-26T11:36:54.946Z</time></trkpt><trkpt lat="43.6851428" lon="11.1298255"><ele>85.0</ele><time>2026-04-26T11:36:57.947Z</time></trkpt><trkpt lat="43.685204" lon="11.1298904"><ele>85.0</ele><time>2026-04-26T11:37:00.947Z</time></trkpt><trkpt lat="43.6852768" lon="11.1299661"><ele>85.0</ele><time>2026-04-26T11:37:03.947Z</time></trkpt><trkpt lat="43.6853442" lon="11.1300374"><ele>85.0</ele><time>2026-04-26T11:37:06.946Z</time></trkpt><trkpt lat="43.6854121" lon="11.130119"><ele>85.0</ele><time>2026-04-26T11:37:09.947Z</time></trkpt><trkpt lat="43.6854885" lon="11.1301935"><ele>85.0</ele><time>2026-04-26T11:37:12.946Z</time></trkpt><trkpt lat="43.6855598" lon="11.1302536"><ele>85.83333333333333</ele><time>2026-04-26T11:37:15.946Z</time></trkpt><trkpt lat="43.6856299" lon="11.1303238"><ele>86.66666666666666</ele><time>2026-04-26T11:37:18.946Z</time></trkpt><trkpt lat="43.6856797" lon="11.1303788"><ele>87.5</ele><time>2026-04-26T11:37:20.948Z</time></trkpt><trkpt lat="43.6857464" lon="11.1304543"><ele>88.33333333333333</ele><time>2026-04-26T11:37:23.946Z</time></trkpt><trkpt lat="43.6858216" lon="11.1305186"><ele>89.16666666666667</ele><time>2026-04-26T11:37:26.946Z</time></trkpt><trkpt lat="43.6858955" lon="11.1305961"><ele>90.0</ele><time>2026-04-26T11:37:29.946Z</time></trkpt><trkpt lat="43.685947" lon="11.1306466"><ele>90.0</ele><time>2026-04-26T11:37:31.946Z</time></trkpt><trkpt lat="43.6860121" lon="11.1307211"><ele>90.0</ele><time>2026-04-26T11:37:34.947Z</time></trkpt><trkpt lat="43.6860856" lon="11.1307839"><ele>90.0</ele><time>2026-04-26T11:37:37.946Z</time></trkpt><trkpt lat="43.6861378" lon="11.1308339"><ele>90.0</ele><time>2026-04-26T11:37:39.947Z</time></trkpt><trkpt lat="43.6861906" lon="11.1308939"><ele>90.0</ele><time>2026-04-26T11:37:41.946Z</time></trkpt><trkpt lat="43.6862412" lon="11.1309509"><ele>90.0</ele><time>2026-04-26T11:37:43.946Z</time></trkpt><trkpt lat="43.6862966" lon="11.1310132"><ele>90.0</ele><time>2026-04-26T11:37:45.947Z</time></trkpt><trkpt lat="43.6863501" lon="11.1310683"><ele>90.66666666666667</ele><time>2026-04-26T11:37:47.946Z</time></trkpt><trkpt lat="43.6864242" lon="11.131145"><ele>91.33333333333333</ele><time>2026-04-26T11:37:50.947Z</time></trkpt><trkpt lat="43.6864979" lon="11.1312121"><ele>92.0</ele><time>2026-04-26T11:37:53.947Z</time></trkpt><trkpt lat="43.6865645" lon="11.1312556"><ele>92.66666666666666</ele><time>2026-04-26T11:37:56.946Z</time></trkpt><trkpt lat="43.686614" lon="11.1313175"><ele>93.33333333333333</ele><time>2026-04-26T11:38:00.945Z</time></trkpt><trkpt lat="43.6866648" lon="11.1313786"><ele>94.0</ele><time>2026-04-26T11:38:04.947Z</time></trkpt><trkpt lat="43.6867267" lon="11.1314535"><ele>94.0</ele><time>2026-04-26T11:38:08.947Z</time></trkpt><trkpt lat="43.6867804" lon="11.1315424"><ele>94.0</ele><time>2026-04-26T11:38:11.947Z</time></trkpt><trkpt lat="43.6868197" lon="11.1316132"><ele>94.0</ele><time>2026-04-26T11:38:13.947Z</time></trkpt><trkpt lat="43.6868636" lon="11.1316885"><ele>94.0</ele><time>2026-04-26T11:38:15.946Z</time></trkpt><trkpt lat="43.686906" lon="11.1317621"><ele>94.0</ele><time>2026-04-26T11:38:17.947Z</time></trkpt><trkpt lat="43.6869448" lon="11.1318419"><ele>94.0</ele><time>2026-04-26T11:38:19.947Z</time></trkpt><trkpt lat="43.686984" lon="11.1319221"><ele>94.0</ele><time>2026-04-26T11:38:21.947Z</time></trkpt><trkpt lat="43.6870195" lon="11.131998"><ele>94.42857142857143</ele><time>2026-04-26T11:38:23.946Z</time></trkpt><trkpt lat="43.6870702" lon="11.1320994"><ele>94.85714285714286</ele><time>2026-04-26T11:38:26.946Z</time></trkpt><trkpt lat="43.6871273" lon="11.1322026"><ele>95.28571428571428</ele><time>2026-04-26T11:38:29.946Z</time></trkpt><trkpt lat="43.687165" lon="11.1322724"><ele>95.71428571428572</ele><time>2026-04-26T11:38:31.946Z</time></trkpt><trkpt lat="43.6872039" lon="11.1323413"><ele>96.14285714285715</ele><time>2026-04-26T11:38:33.946Z</time></trkpt><trkpt lat="43.6872432" lon="11.1324101"><ele>96.57142857142857</ele><time>2026-04-26T11:38:35.946Z</time></trkpt><trkpt lat="43.6872808" lon="11.132481"><ele>97.0</ele><time>2026-04-26T11:38:37.944Z</time></trkpt><trkpt lat="43.6873376" lon="11.1325847"><ele>97.42857142857143</ele><time>2026-04-26T11:38:40.946Z</time></trkpt><trkpt lat="43.6873863" lon="11.1326888"><ele>97.85714285714286</ele><time>2026-04-26T11:38:43.945Z</time></trkpt><trkpt lat="43.6874129" lon="11.1327718"><ele>98.28571428571429</ele><time>2026-04-26T11:38:45.947Z</time></trkpt><trkpt lat="43.6874344" lon="11.1328549"><ele>98.71428571428572</ele><time>2026-04-26T11:38:47.947Z</time></trkpt><trkpt lat="43.6874445" lon="11.1329461"><ele>99.14285714285714</ele><time>2026-04-26T11:38:49.945Z</time></trkpt><trkpt lat="43.6874543" lon="11.1330347"><ele>99.57142857142858</ele><time>2026-04-26T11:38:51.947Z</time></trkpt><trkpt lat="43.6874655" lon="11.1331215"><ele>100.0</ele><time>2026-04-26T11:38:53.947Z</time></trkpt><trkpt lat="43.6874749" lon="11.1332076"><ele>100.16666666666667</ele><time>2026-04-26T11:38:55.946Z</time></trkpt><trkpt lat="43.6874915" lon="11.1333383"><ele>100.33333333333334</ele><time>2026-04-26T11:38:58.947Z</time></trkpt><trkpt lat="43.6875124" lon="11.1334597"><ele>100.5</ele><time>2026-04-26T11:39:01.947Z</time></trkpt><trkpt lat="43.6875282" lon="11.1335577"><ele>100.66666666666666</ele><time>2026-04-26T11:39:03.947Z</time></trkpt><trkpt lat="43.6875456" lon="11.1336514"><ele>100.83333333333333</ele><time>2026-04-26T11:39:05.944Z</time></trkpt><trkpt lat="43.6875494" lon="11.1337444"><ele>101.0</ele><time>2026-04-26T11:39:07.945Z</time></trkpt><trkpt lat="43.6875649" lon="11.133838"><ele>101.0</ele><time>2026-04-26T11:39:09.946Z</time></trkpt><trkpt lat="43.6875898" lon="11.1339281"><ele>101.0</ele><time>2026-04-26T11:39:11.946Z</time></trkpt><trkpt lat="43.6876138" lon="11.1340111"><ele>101.0</ele><time>2026-04-26T11:39:13.946Z</time></trkpt><trkpt lat="43.6876463" lon="11.1340872"><ele>101.0</ele><time>2026-04-26T11:39:15.945Z</time></trkpt><trkpt lat="43.6876749" lon="11.1341681"><ele>101.0</ele><time>2026-04-26T11:39:17.946Z</time></trkpt><trkpt lat="43.687695" lon="11.1342699"><ele>101.0</ele><time>2026-04-26T11:39:19.945Z</time></trkpt><trkpt lat="43.6877117" lon="11.1343548"><ele>101.0</ele><time>2026-04-26T11:39:21.948Z</time></trkpt><trkpt lat="43.6877364" lon="11.1344433"><ele>101.83333333333333</ele><time>2026-04-26T11:39:23.947Z</time></trkpt><trkpt lat="43.6877642" lon="11.1345567"><ele>102.66666666666666</ele><time>2026-04-26T11:39:25.947Z</time></trkpt><trkpt lat="43.6877958" lon="11.1346659"><ele>103.5</ele><time>2026-04-26T11:39:27.945Z</time></trkpt><trkpt lat="43.6878158" lon="11.1347765"><ele>104.33333333333334</ele><time>2026-04-26T11:39:29.947Z</time></trkpt><trkpt lat="43.6878162" lon="11.1348966"><ele>105.16666666666667</ele><time>2026-04-26T11:39:31.947Z</time></trkpt><trkpt lat="43.6878175" lon="11.1350198"><ele>106.0</ele><time>2026-04-26T11:39:33.947Z</time></trkpt><trkpt lat="43.6878188" lon="11.1351387"><ele>106.16666666666667</ele><time>2026-04-26T11:39:35.946Z</time></trkpt><trkpt lat="43.6878129" lon="11.1352558"><ele>106.33333333333334</ele><time>2026-04-26T11:39:37.946Z</time></trkpt><trkpt lat="43.6878074" lon="11.1353602"><ele>106.5</ele><time>2026-04-26T11:39:39.945Z</time></trkpt><trkpt lat="43.6877913" lon="11.1354677"><ele>106.66666666666666</ele><time>2026-04-26T11:39:41.946Z</time></trkpt><trkpt lat="43.6877704" lon="11.1355751"><ele>106.83333333333333</ele><time>2026-04-26T11:39:43.947Z</time></trkpt><trkpt lat="43.6877538" lon="11.1356846"><ele>107.0</ele><time>2026-04-26T11:39:45.947Z</time></trkpt><trkpt lat="43.6877423" lon="11.1357944"><ele>105.33333333333333</ele><time>2026-04-26T11:39:47.946Z</time></trkpt><trkpt lat="43.6877324" lon="11.1359018"><ele>103.66666666666666</ele><time>2026-04-26T11:39:49.946Z</time></trkpt><trkpt lat="43.687722" lon="11.1360117"><ele>102.0</ele><time>2026-04-26T11:39:51.945Z</time></trkpt><trkpt lat="43.6877096" lon="11.1361141"><ele>100.33333333333334</ele><time>2026-04-26T11:39:53.946Z</time></trkpt><trkpt lat="43.687701" lon="11.1362173"><ele>98.66666666666667</ele><time>2026-04-26T11:39:55.946Z</time></trkpt><trkpt lat="43.6876879" lon="11.1363433"><ele>97.0</ele><time>2026-04-26T11:39:57.947Z</time></trkpt><trkpt lat="43.6876652" lon="11.1364567"><ele>97.16666666666667</ele><time>2026-04-26T11:39:59.947Z</time></trkpt><trkpt lat="43.6876547" lon="11.1365731"><ele>97.33333333333334</ele><time>2026-04-26T11:40:01.947Z</time></trkpt><trkpt lat="43.6876374" lon="11.1366981"><ele>97.5</ele><time>2026-04-26T11:40:03.947Z</time></trkpt><trkpt lat="43.6876452" lon="11.1368115"><ele>97.66666666666666</ele><time>2026-04-26T11:40:05.947Z</time></trkpt><trkpt lat="43.6876281" lon="11.1369352"><ele>97.83333333333333</ele><time>2026-04-26T11:40:07.948Z</time></trkpt><trkpt lat="43.6876041" lon="11.1370519"><ele>98.0</ele><time>2026-04-26T11:40:09.946Z</time></trkpt><trkpt lat="43.6875898" lon="11.1371717"><ele>97.99999999999999</ele><time>2026-04-26T11:40:11.946Z</time></trkpt><trkpt lat="43.6875693" lon="11.1372758"><ele>98.0</ele><time>2026-04-26T11:40:13.947Z</time></trkpt><trkpt lat="43.6875442" lon="11.1373824"><ele>98.0</ele><time>2026-04-26T11:40:15.945Z</time></trkpt><trkpt lat="43.6875051" lon="11.1374862"><ele>98.0</ele><time>2026-04-26T11:40:17.945Z</time></trkpt><trkpt lat="43.6874904" lon="11.1376027"><ele>97.99999999999999</ele><time>2026-04-26T11:40:19.946Z</time></trkpt><trkpt lat="43.6874822" lon="11.1377207"><ele>98.0</ele><time>2026-04-26T11:40:21.947Z</time></trkpt><trkpt lat="43.6874798" lon="11.1378316"><ele>97.99999999999999</ele><time>2026-04-26T11:40:23.946Z</time></trkpt><trkpt lat="43.6874816" lon="11.1379477"><ele>98.0</ele><time>2026-04-26T11:40:25.947Z</time></trkpt><trkpt lat="43.6874964" lon="11.138058"><ele>98.0</ele><time>2026-04-26T11:40:27.945Z</time></trkpt><trkpt lat="43.6875101" lon="11.1381721"><ele>98.0</ele><time>2026-04-26T11:40:29.947Z</time></trkpt><trkpt lat="43.6875167" lon="11.1382847"><ele>97.99999999999999</ele><time>2026-04-26T11:40:31.946Z</time></trkpt><trkpt lat="43.6875244" lon="11.1383923"><ele>98.0</ele><time>2026-04-26T11:40:33.946Z</time></trkpt><trkpt lat="43.6875352" lon="11.138497"><ele>98.16666666666666</ele><time>2026-04-26T11:40:35.945Z</time></trkpt><trkpt lat="43.6875445" lon="11.1386019"><ele>98.33333333333333</ele><time>2026-04-26T11:40:37.947Z</time></trkpt><trkpt lat="43.6875516" lon="11.1387125"><ele>98.5</ele><time>2026-04-26T11:40:39.946Z</time></trkpt><trkpt lat="43.6875607" lon="11.1388275"><ele>98.66666666666666</ele><time>2026-04-26T11:40:41.946Z</time></trkpt><trkpt lat="43.6875674" lon="11.1389366"><ele>98.83333333333333</ele><time>2026-04-26T11:40:43.946Z</time></trkpt><trkpt lat="43.687575" lon="11.1390425"><ele>99.0</ele><time>2026-04-26T11:40:45.947Z</time></trkpt><trkpt lat="43.6875849" lon="11.1391503"><ele>99.0</ele><time>2026-04-26T11:40:47.946Z</time></trkpt><trkpt lat="43.6875918" lon="11.1392608"><ele>99.0</ele><time>2026-04-26T11:40:49.947Z</time></trkpt><trkpt lat="43.6876026" lon="11.1393716"><ele>99.0</ele><time>2026-04-26T11:40:51.945Z</time></trkpt><trkpt lat="43.6876153" lon="11.1394823"><ele>99.0</ele><time>2026-04-26T11:40:53.944Z</time></trkpt><trkpt lat="43.6876312" lon="11.1395917"><ele>99.0</ele><time>2026-04-26T11:40:55.946Z</time></trkpt><trkpt lat="43.6876507" lon="11.1397007"><ele>99.0</ele><time>2026-04-26T11:40:57.945Z</time></trkpt><trkpt lat="43.6876721" lon="11.1398005"><ele>99.0</ele><time>2026-04-26T11:40:59.946Z</time></trkpt><trkpt lat="43.6876892" lon="11.1399056"><ele>99.0</ele><time>2026-04-26T11:41:01.946Z</time></trkpt><trkpt lat="43.6877078" lon="11.1400137"><ele>99.0</ele><time>2026-04-26T11:41:03.946Z</time></trkpt><trkpt lat="43.68773" lon="11.1401208"><ele>99.0</ele><time>2026-04-26T11:41:05.947Z</time></trkpt><trkpt lat="43.6877505" lon="11.1402219"><ele>99.0</ele><time>2026-04-26T11:41:07.947Z</time></trkpt><trkpt lat="43.6877709" lon="11.1403271"><ele>99.0</ele><time>2026-04-26T11:41:09.945Z</time></trkpt><trkpt lat="43.6877942" lon="11.1404365"><ele>100.5</ele><time>2026-04-26T11:41:11.946Z</time></trkpt><trkpt lat="43.6878285" lon="11.1405362"><ele>102.0</ele><time>2026-04-26T11:41:13.947Z</time></trkpt><trkpt lat="43.687865" lon="11.1406316"><ele>103.5</ele><time>2026-04-26T11:41:15.946Z</time></trkpt><trkpt lat="43.6878926" lon="11.1407329"><ele>105.0</ele><time>2026-04-26T11:41:17.946Z</time></trkpt><trkpt lat="43.6879214" lon="11.1408429"><ele>106.5</ele><time>2026-04-26T11:41:19.946Z</time></trkpt><trkpt lat="43.6879477" lon="11.1409441"><ele>108.0</ele><time>2026-04-26T11:41:21.946Z</time></trkpt><trkpt lat="43.6879757" lon="11.1410432"><ele>108.0</ele><time>2026-04-26T11:41:23.946Z</time></trkpt><trkpt lat="43.6879982" lon="11.1411501"><ele>108.0</ele><time>2026-04-26T11:41:25.946Z</time></trkpt><trkpt lat="43.6880098" lon="11.1412637"><ele>108.0</ele><time>2026-04-26T11:41:27.945Z</time></trkpt><trkpt lat="43.6880124" lon="11.141378"><ele>108.0</ele><time>2026-04-26T11:41:29.946Z</time></trkpt><trkpt lat="43.6880065" lon="11.1414872"><ele>108.0</ele><time>2026-04-26T11:41:31.946Z</time></trkpt><trkpt lat="43.687997" lon="11.1415941"><ele>108.0</ele><time>2026-04-26T11:41:33.947Z</time></trkpt><trkpt lat="43.6879749" lon="11.1417017"><ele>108.0</ele><time>2026-04-26T11:41:35.947Z</time></trkpt><trkpt lat="43.6879465" lon="11.1418065"><ele>108.0</ele><time>2026-04-26T11:41:37.946Z</time></trkpt><trkpt lat="43.6879127" lon="11.1419091"><ele>108.0</ele><time>2026-04-26T11:41:39.945Z</time></trkpt><trkpt lat="43.6878725" lon="11.1420092"><ele>108.0</ele><time>2026-04-26T11:41:41.946Z</time></trkpt><trkpt lat="43.6878285" lon="11.1421073"><ele>108.0</ele><time>2026-04-26T11:41:43.946Z</time></trkpt><trkpt lat="43.687787" lon="11.1422151"><ele>108.0</ele><time>2026-04-26T11:41:45.946Z</time></trkpt><trkpt lat="43.6877425" lon="11.1422957"><ele>107.33333333333333</ele><time>2026-04-26T11:41:47.947Z</time></trkpt><trkpt lat="43.6877065" lon="11.1423865"><ele>106.66666666666666</ele><time>2026-04-26T11:41:49.946Z</time></trkpt><trkpt lat="43.687656" lon="11.1424809"><ele>106.0</ele><time>2026-04-26T11:41:51.947Z</time></trkpt><trkpt lat="43.6876138" lon="11.1425761"><ele>105.33333333333333</ele><time>2026-04-26T11:41:53.947Z</time></trkpt><trkpt lat="43.6875784" lon="11.1426783"><ele>104.66666666666666</ele><time>2026-04-26T11:41:55.947Z</time></trkpt><trkpt lat="43.6875437" lon="11.1427806"><ele>104.0</ele><time>2026-04-26T11:41:57.947Z</time></trkpt><trkpt lat="43.6875102" lon="11.1428841"><ele>103.99999999999999</ele><time>2026-04-26T11:41:59.946Z</time></trkpt><trkpt lat="43.6874764" lon="11.1429937"><ele>104.0</ele><time>2026-04-26T11:42:01.946Z</time></trkpt><trkpt lat="43.6874525" lon="11.1431078"><ele>104.0</ele><time>2026-04-26T11:42:03.946Z</time></trkpt><trkpt lat="43.6874424" lon="11.1432157"><ele>104.0</ele><time>2026-04-26T11:42:05.946Z</time></trkpt><trkpt lat="43.6874382" lon="11.1433213"><ele>103.99999999999999</ele><time>2026-04-26T11:42:07.945Z</time></trkpt><trkpt lat="43.6874368" lon="11.1434376"><ele>104.0</ele><time>2026-04-26T11:42:09.947Z</time></trkpt><trkpt lat="43.6874405" lon="11.1435609"><ele>104.0</ele><time>2026-04-26T11:42:11.946Z</time></trkpt><trkpt lat="43.6874465" lon="11.1436867"><ele>104.0</ele><time>2026-04-26T11:42:13.944Z</time></trkpt><trkpt lat="43.6874735" lon="11.1438281"><ele>104.0</ele><time>2026-04-26T11:42:15.945Z</time></trkpt><trkpt lat="43.6874942" lon="11.1439581"><ele>104.0</ele><time>2026-04-26T11:42:17.947Z</time></trkpt><trkpt lat="43.687518" lon="11.1440726"><ele>104.0</ele><time>2026-04-26T11:42:19.946Z</time></trkpt><trkpt lat="43.6875366" lon="11.144177"><ele>103.99999999999999</ele><time>2026-04-26T11:42:21.946Z</time></trkpt><trkpt lat="43.6875593" lon="11.1442763"><ele>104.0</ele><time>2026-04-26T11:42:23.947Z</time></trkpt><trkpt lat="43.6875909" lon="11.1444004"><ele>104.0</ele><time>2026-04-26T11:42:25.946Z</time></trkpt><trkpt lat="43.6876338" lon="11.1445147"><ele>104.0</ele><time>2026-04-26T11:42:27.948Z</time></trkpt><trkpt lat="43.6876936" lon="11.1446069"><ele>103.99999999999999</ele><time>2026-04-26T11:42:29.946Z</time></trkpt><trkpt lat="43.6877547" lon="11.1446929"><ele>104.0</ele><time>2026-04-26T11:42:31.946Z</time></trkpt><trkpt lat="43.687808" lon="11.1448058"><ele>105.83333333333333</ele><time>2026-04-26T11:42:33.946Z</time></trkpt><trkpt lat="43.6878557" lon="11.1449153"><ele>107.66666666666666</ele><time>2026-04-26T11:42:35.946Z</time></trkpt><trkpt lat="43.6879044" lon="11.145036"><ele>109.5</ele><time>2026-04-26T11:42:37.946Z</time></trkpt><trkpt lat="43.6879317" lon="11.1451432"><ele>111.33333333333334</ele><time>2026-04-26T11:42:39.944Z</time></trkpt><trkpt lat="43.6879496" lon="11.1452521"><ele>113.16666666666667</ele><time>2026-04-26T11:42:41.945Z</time></trkpt><trkpt lat="43.6879638" lon="11.1453717"><ele>115.0</ele><time>2026-04-26T11:42:43.946Z</time></trkpt><trkpt lat="43.6879652" lon="11.145504"><ele>115.00000000000001</ele><time>2026-04-26T11:42:45.946Z</time></trkpt><trkpt lat="43.6879528" lon="11.145617"><ele>115.0</ele><time>2026-04-26T11:42:47.946Z</time></trkpt><trkpt lat="43.6879312" lon="11.1457302"><ele>115.0</ele><time>2026-04-26T11:42:49.947Z</time></trkpt><trkpt lat="43.6879008" lon="11.1458332"><ele>115.0</ele><time>2026-04-26T11:42:51.945Z</time></trkpt><trkpt lat="43.6878576" lon="11.1459338"><ele>115.00000000000001</ele><time>2026-04-26T11:42:53.946Z</time></trkpt><trkpt lat="43.6878145" lon="11.1460404"><ele>115.0</ele><time>2026-04-26T11:42:55.947Z</time></trkpt><trkpt lat="43.6877737" lon="11.1461388"><ele>113.66666666666667</ele><time>2026-04-26T11:42:57.947Z</time></trkpt><trkpt lat="43.687733" lon="11.1462411"><ele>112.33333333333334</ele><time>2026-04-26T11:42:59.946Z</time></trkpt><trkpt lat="43.6876939" lon="11.1463481"><ele>111.0</ele><time>2026-04-26T11:43:01.946Z</time></trkpt><trkpt lat="43.6876518" lon="11.1464531"><ele>109.66666666666666</ele><time>2026-04-26T11:43:03.946Z</time></trkpt><trkpt lat="43.6876165" lon="11.1465566"><ele>108.33333333333333</ele><time>2026-04-26T11:43:05.947Z</time></trkpt><trkpt lat="43.6875819" lon="11.1466601"><ele>107.0</ele><time>2026-04-26T11:43:07.946Z</time></trkpt><trkpt lat="43.6875445" lon="11.1467669"><ele>106.99999999999999</ele><time>2026-04-26T11:43:09.946Z</time></trkpt><trkpt lat="43.6875083" lon="11.1468729"><ele>107.0</ele><time>2026-04-26T11:43:11.946Z</time></trkpt><trkpt lat="43.6874787" lon="11.1469764"><ele>107.0</ele><time>2026-04-26T11:43:13.945Z</time></trkpt><trkpt lat="43.6874526" lon="11.1470846"><ele>107.0</ele><time>2026-04-26T11:43:15.946Z</time></trkpt><trkpt lat="43.6874345" lon="11.1471976"><ele>106.99999999999999</ele><time>2026-04-26T11:43:17.945Z</time></trkpt><trkpt lat="43.6874209" lon="11.1473126"><ele>107.0</ele><time>2026-04-26T11:43:19.946Z</time></trkpt><trkpt lat="43.6874153" lon="11.1474302"><ele>107.83333333333333</ele><time>2026-04-26T11:43:21.946Z</time></trkpt><trkpt lat="43.6874211" lon="11.1475431"><ele>108.66666666666666</ele><time>2026-04-26T11:43:23.946Z</time></trkpt><trkpt lat="43.6874396" lon="11.1476532"><ele>109.5</ele><time>2026-04-26T11:43:25.946Z</time></trkpt><trkpt lat="43.6874701" lon="11.1477564"><ele>110.33333333333334</ele><time>2026-04-26T11:43:27.946Z</time></trkpt><trkpt lat="43.6875068" lon="11.1478678"><ele>111.16666666666667</ele><time>2026-04-26T11:43:29.947Z</time></trkpt><trkpt lat="43.6875444" lon="11.1479809"><ele>112.0</ele><time>2026-04-26T11:43:31.946Z</time></trkpt><trkpt lat="43.6875823" lon="11.1480914"><ele>112.00000000000001</ele><time>2026-04-26T11:43:33.945Z</time></trkpt><trkpt lat="43.6876211" lon="11.1482019"><ele>112.0</ele><time>2026-04-26T11:43:35.946Z</time></trkpt><trkpt lat="43.6876577" lon="11.148313"><ele>112.0</ele><time>2026-04-26T11:43:37.945Z</time></trkpt><trkpt lat="43.6876894" lon="11.1484118"><ele>112.0</ele><time>2026-04-26T11:43:39.946Z</time></trkpt><trkpt lat="43.6877165" lon="11.1485173"><ele>112.00000000000001</ele><time>2026-04-26T11:43:41.946Z</time></trkpt><trkpt lat="43.6877392" lon="11.1486254"><ele>112.0</ele><time>2026-04-26T11:43:43.946Z</time></trkpt><trkpt lat="43.687758" lon="11.1487306"><ele>113.85714285714286</ele><time>2026-04-26T11:43:45.947Z</time></trkpt><trkpt lat="43.6877779" lon="11.1488272"><ele>115.71428571428572</ele><time>2026-04-26T11:43:47.944Z</time></trkpt><trkpt lat="43.6877902" lon="11.1489332"><ele>117.57142857142857</ele><time>2026-04-26T11:43:49.946Z</time></trkpt><trkpt lat="43.6877941" lon="11.1490391"><ele>119.42857142857143</ele><time>2026-04-26T11:43:51.946Z</time></trkpt><trkpt lat="43.6877962" lon="11.1491266"><ele>121.28571428571429</ele><time>2026-04-26T11:43:53.946Z</time></trkpt><trkpt lat="43.6877888" lon="11.1492299"><ele>123.14285714285714</ele><time>2026-04-26T11:43:55.945Z</time></trkpt><trkpt lat="43.6877828" lon="11.1493357"><ele>125.0</ele><time>2026-04-26T11:43:57.946Z</time></trkpt><trkpt lat="43.6877769" lon="11.149437"><ele>125.28571428571428</ele><time>2026-04-26T11:43:59.946Z</time></trkpt><trkpt lat="43.6877638" lon="11.1495347"><ele>125.57142857142858</ele><time>2026-04-26T11:44:01.946Z</time></trkpt><trkpt lat="43.6877572" lon="11.1496337"><ele>125.85714285714286</ele><time>2026-04-26T11:44:03.946Z</time></trkpt><trkpt lat="43.6877512" lon="11.1497322"><ele>126.14285714285714</ele><time>2026-04-26T11:44:05.946Z</time></trkpt><trkpt lat="43.6877497" lon="11.1498363"><ele>126.42857142857142</ele><time>2026-04-26T11:44:07.946Z</time></trkpt><trkpt lat="43.6877433" lon="11.1499279"><ele>126.71428571428572</ele><time>2026-04-26T11:44:09.945Z</time></trkpt><trkpt lat="43.6877377" lon="11.1500189"><ele>127.0</ele><time>2026-04-26T11:44:11.946Z</time></trkpt><trkpt lat="43.6877301" lon="11.1501183"><ele>124.33333333333334</ele><time>2026-04-26T11:44:13.945Z</time></trkpt><trkpt lat="43.6877197" lon="11.150222"><ele>121.66666666666667</ele><time>2026-04-26T11:44:15.945Z</time></trkpt><trkpt lat="43.6877147" lon="11.1503243"><ele>119.0</ele><time>2026-04-26T11:44:17.946Z</time></trkpt><trkpt lat="43.687709" lon="11.1504298"><ele>116.33333333333334</ele><time>2026-04-26T11:44:19.945Z</time></trkpt><trkpt lat="43.6876994" lon="11.1505367"><ele>113.66666666666667</ele><time>2026-04-26T11:44:21.945Z</time></trkpt><trkpt lat="43.6876892" lon="11.1506422"><ele>111.0</ele><time>2026-04-26T11:44:23.946Z</time></trkpt><trkpt lat="43.6876867" lon="11.1507481"><ele>111.0</ele><time>2026-04-26T11:44:25.945Z</time></trkpt><trkpt lat="43.6876832" lon="11.1508544"><ele>111.0</ele><time>2026-04-26T11:44:27.946Z</time></trkpt><trkpt lat="43.6876789" lon="11.1509614"><ele>111.0</ele><time>2026-04-26T11:44:29.946Z</time></trkpt><trkpt lat="43.6876766" lon="11.1510704"><ele>111.0</ele><time>2026-04-26T11:44:31.946Z</time></trkpt><trkpt lat="43.6876798" lon="11.1511802"><ele>111.0</ele><time>2026-04-26T11:44:33.945Z</time></trkpt><trkpt lat="43.6876903" lon="11.1512866"><ele>111.0</ele><time>2026-04-26T11:44:35.945Z</time></trkpt><trkpt lat="43.6877041" lon="11.1513959"><ele>111.0</ele><time>2026-04-26T11:44:37.946Z</time></trkpt><trkpt lat="43.6877202" lon="11.1515057"><ele>111.0</ele><time>2026-04-26T11:44:39.946Z</time></trkpt><trkpt lat="43.6877376" lon="11.1516123"><ele>111.0</ele><time>2026-04-26T11:44:41.945Z</time></trkpt><trkpt lat="43.687754" lon="11.15172"><ele>111.0</ele><time>2026-04-26T11:44:43.946Z</time></trkpt><trkpt lat="43.6877648" lon="11.1518255"><ele>111.0</ele><time>2026-04-26T11:44:45.945Z</time></trkpt><trkpt lat="43.6877756" lon="11.1519356"><ele>111.0</ele><time>2026-04-26T11:44:47.944Z</time></trkpt><trkpt lat="43.6877892" lon="11.1520424"><ele>112.5</ele><time>2026-04-26T11:44:49.946Z</time></trkpt><trkpt lat="43.6878022" lon="11.1521472"><ele>114.0</ele><time>2026-04-26T11:44:51.946Z</time></trkpt><trkpt lat="43.6878216" lon="11.1522541"><ele>115.5</ele><time>2026-04-26T11:44:53.946Z</time></trkpt><trkpt lat="43.6878435" lon="11.1523668"><ele>117.0</ele><time>2026-04-26T11:44:55.946Z</time></trkpt><trkpt lat="43.6878617" lon="11.1524792"><ele>118.5</ele><time>2026-04-26T11:44:57.946Z</time></trkpt><trkpt lat="43.6878894" lon="11.1525855"><ele>120.0</ele><time>2026-04-26T11:44:59.946Z</time></trkpt><trkpt lat="43.6879212" lon="11.1526926"><ele>120.0</ele><time>2026-04-26T11:45:01.945Z</time></trkpt><trkpt lat="43.6879571" lon="11.1527985"><ele>120.0</ele><time>2026-04-26T11:45:03.946Z</time></trkpt><trkpt lat="43.6879906" lon="11.1529082"><ele>120.0</ele><time>2026-04-26T11:45:05.946Z</time></trkpt><trkpt lat="43.6880266" lon="11.1530108"><ele>120.0</ele><time>2026-04-26T11:45:07.946Z</time></trkpt><trkpt lat="43.688065" lon="11.1531125"><ele>120.0</ele><time>2026-04-26T11:45:09.946Z</time></trkpt><trkpt lat="43.6880996" lon="11.1532127"><ele>120.0</ele><time>2026-04-26T11:45:11.944Z</time></trkpt><trkpt lat="43.6881335" lon="11.1533146"><ele>119.66666666666667</ele><time>2026-04-26T11:45:13.946Z</time></trkpt><trkpt lat="43.6881689" lon="11.1534132"><ele>119.33333333333334</ele><time>2026-04-26T11:45:15.946Z</time></trkpt><trkpt lat="43.6882039" lon="11.1535117"><ele>119.0</ele><time>2026-04-26T11:45:17.946Z</time></trkpt><trkpt lat="43.6882362" lon="11.1536153"><ele>118.66666666666667</ele><time>2026-04-26T11:45:19.945Z</time></trkpt><trkpt lat="43.6882657" lon="11.1537254"><ele>118.33333333333334</ele><time>2026-04-26T11:45:21.944Z</time></trkpt><trkpt lat="43.6882977" lon="11.1538366"><ele>118.0</ele><time>2026-04-26T11:45:23.945Z</time></trkpt><trkpt lat="43.6883325" lon="11.1539464"><ele>117.83333333333334</ele><time>2026-04-26T11:45:25.946Z</time></trkpt><trkpt lat="43.6883662" lon="11.1540524"><ele>117.66666666666667</ele><time>2026-04-26T11:45:27.945Z</time></trkpt><trkpt lat="43.6884035" lon="11.1541504"><ele>117.5</ele><time>2026-04-26T11:45:29.945Z</time></trkpt><trkpt lat="43.6884456" lon="11.1542514"><ele>117.33333333333334</ele><time>2026-04-26T11:45:31.945Z</time></trkpt><trkpt lat="43.68849" lon="11.154343"><ele>117.16666666666667</ele><time>2026-04-26T11:45:33.945Z</time></trkpt><trkpt lat="43.6885402" lon="11.1544361"><ele>117.0</ele><time>2026-04-26T11:45:35.946Z</time></trkpt><trkpt lat="43.6885901" lon="11.1545197"><ele>117.85714285714286</ele><time>2026-04-26T11:45:37.945Z</time></trkpt><trkpt lat="43.688631" lon="11.1545993"><ele>118.71428571428572</ele><time>2026-04-26T11:45:39.945Z</time></trkpt><trkpt lat="43.6886658" lon="11.1546734"><ele>119.57142857142858</ele><time>2026-04-26T11:45:41.945Z</time></trkpt><trkpt lat="43.6887049" lon="11.1547438"><ele>120.42857142857144</ele><time>2026-04-26T11:45:43.945Z</time></trkpt><trkpt lat="43.6887401" lon="11.1548276"><ele>121.28571428571429</ele><time>2026-04-26T11:45:45.946Z</time></trkpt><trkpt lat="43.6887664" lon="11.1549242"><ele>122.14285714285717</ele><time>2026-04-26T11:45:47.946Z</time></trkpt><trkpt lat="43.6887804" lon="11.1550275"><ele>123.00000000000001</ele><time>2026-04-26T11:45:49.945Z</time></trkpt><trkpt lat="43.6887857" lon="11.1551157"><ele>123.16666666666667</ele><time>2026-04-26T11:45:51.946Z</time></trkpt><trkpt lat="43.6887716" lon="11.1552331"><ele>123.33333333333334</ele><time>2026-04-26T11:45:54.945Z</time></trkpt><trkpt lat="43.68875" lon="11.1553167"><ele>123.5</ele><time>2026-04-26T11:45:56.945Z</time></trkpt><trkpt lat="43.6887289" lon="11.1554037"><ele>123.66666666666667</ele><time>2026-04-26T11:45:58.945Z</time></trkpt><trkpt lat="43.6886974" lon="11.1555274"><ele>123.83333333333334</ele><time>2026-04-26T11:46:01.945Z</time></trkpt><trkpt lat="43.688668" lon="11.1556392"><ele>124.0</ele><time>2026-04-26T11:46:04.946Z</time></trkpt><trkpt lat="43.6886452" lon="11.1557484"><ele>124.00000000000001</ele><time>2026-04-26T11:46:07.946Z</time></trkpt><trkpt lat="43.6886274" lon="11.1558757"><ele>124.0</ele><time>2026-04-26T11:46:10.946Z</time></trkpt><trkpt lat="43.688625" lon="11.1559692"><ele>124.0</ele><time>2026-04-26T11:46:13.946Z</time></trkpt><trkpt lat="43.688685" lon="11.1559161"><ele>124.0</ele><time>2026-04-26T11:46:18.945Z</time></trkpt><trkpt lat="43.6886744" lon="11.1557986"><ele>124.00000000000001</ele><time>2026-04-26T11:46:21.944Z</time></trkpt><trkpt lat="43.6886847" lon="11.1557019"><ele>124.0</ele><time>2026-04-26T11:46:23.945Z</time></trkpt><trkpt lat="43.6887213" lon="11.155569"><ele>124.00000000000001</ele><time>2026-04-26T11:46:25.945Z</time></trkpt><trkpt lat="43.6887683" lon="11.155419"><ele>124.0</ele><time>2026-04-26T11:46:27.946Z</time></trkpt><trkpt lat="43.6887956" lon="11.1552843"><ele>124.0</ele><time>2026-04-26T11:46:29.946Z</time></trkpt><trkpt lat="43.6888208" lon="11.155191"><ele>124.0</ele><time>2026-04-26T11:46:31.945Z</time></trkpt><trkpt lat="43.688887" lon="11.1551588"><ele>124.00000000000001</ele><time>2026-04-26T11:46:33.946Z</time></trkpt><trkpt lat="43.6889703" lon="11.1551865"><ele>124.0</ele><time>2026-04-26T11:46:36.946Z</time></trkpt><trkpt lat="43.6890483" lon="11.1552189"><ele>124.00000000000001</ele><time>2026-04-26T11:46:39.946Z</time></trkpt><trkpt lat="43.6891188" lon="11.1552381"><ele>124.0</ele><time>2026-04-26T11:46:42.945Z</time></trkpt><trkpt lat="43.6891912" lon="11.1552608"><ele>124.0</ele><time>2026-04-26T11:46:45.945Z</time></trkpt><trkpt lat="43.6892669" lon="11.1552855"><ele>124.0</ele><time>2026-04-26T11:46:48.945Z</time></trkpt><trkpt lat="43.689343" lon="11.1553084"><ele>124.00000000000001</ele><time>2026-04-26T11:46:51.944Z</time></trkpt><trkpt lat="43.6894148" lon="11.1553163"><ele>124.0</ele><time>2026-04-26T11:46:54.946Z</time></trkpt><trkpt lat="43.6894954" lon="11.1553273"><ele>125.66666666666667</ele><time>2026-04-26T11:46:58.945Z</time></trkpt><trkpt lat="43.6895701" lon="11.1553553"><ele>127.33333333333334</ele><time>2026-04-26T11:47:01.946Z</time></trkpt><trkpt lat="43.6896494" lon="11.1554027"><ele>129.0</ele><time>2026-04-26T11:47:05.946Z</time></trkpt><trkpt lat="43.6897231" lon="11.1554617"><ele>130.66666666666666</ele><time>2026-04-26T11:47:08.945Z</time></trkpt><trkpt lat="43.6897919" lon="11.1555104"><ele>132.33333333333331</ele><time>2026-04-26T11:47:11.946Z</time></trkpt><trkpt lat="43.6898473" lon="11.1555526"><ele>134.0</ele><time>2026-04-26T11:47:14.946Z</time></trkpt><trkpt lat="43.6899189" lon="11.1556128"><ele>134.0</ele><time>2026-04-26T11:47:18.946Z</time></trkpt><trkpt lat="43.6899901" lon="11.1556766"><ele>134.0</ele><time>2026-04-26T11:47:21.944Z</time></trkpt><trkpt lat="43.6900598" lon="11.155738"><ele>134.0</ele><time>2026-04-26T11:47:24.946Z</time></trkpt><trkpt lat="43.6901158" lon="11.1557959"><ele>134.0</ele><time>2026-04-26T11:47:27.946Z</time></trkpt><trkpt lat="43.6901709" lon="11.1558418"><ele>134.0</ele><time>2026-04-26T11:47:30.944Z</time></trkpt><trkpt lat="43.6902315" lon="11.1558999"><ele>134.0</ele><time>2026-04-26T11:47:33.945Z</time></trkpt><trkpt lat="43.6903005" lon="11.1559705"><ele>136.14285714285714</ele><time>2026-04-26T11:47:37.945Z</time></trkpt><trkpt lat="43.6903597" lon="11.1560328"><ele>138.28571428571428</ele><time>2026-04-26T11:47:40.945Z</time></trkpt><trkpt lat="43.6904277" lon="11.1560938"><ele>140.42857142857142</ele><time>2026-04-26T11:47:44.944Z</time></trkpt><trkpt lat="43.6904869" lon="11.1561343"><ele>142.57142857142856</ele><time>2026-04-26T11:47:47.946Z</time></trkpt><trkpt lat="43.6905475" lon="11.1561801"><ele>144.7142857142857</ele><time>2026-04-26T11:47:50.946Z</time></trkpt><trkpt lat="43.690606" lon="11.1562244"><ele>146.85714285714286</ele><time>2026-04-26T11:47:53.944Z</time></trkpt><trkpt lat="43.6906646" lon="11.1562611"><ele>149.0</ele><time>2026-04-26T11:47:56.957Z</time></trkpt><trkpt lat="43.6907237" lon="11.1563036"><ele>149.0</ele><time>2026-04-26T11:47:59.944Z</time></trkpt><trkpt lat="43.6907945" lon="11.1563599"><ele>149.0</ele><time>2026-04-26T11:48:02.945Z</time></trkpt><trkpt lat="43.6908613" lon="11.1564298"><ele>149.0</ele><time>2026-04-26T11:48:05.904Z</time></trkpt><trkpt lat="43.6909015" lon="11.1565107"><ele>149.0</ele><time>2026-04-26T11:48:08.942Z</time></trkpt><trkpt lat="43.6909394" lon="11.1565889"><ele>149.0</ele><time>2026-04-26T11:48:12.943Z</time></trkpt><trkpt lat="43.6909247" lon="11.1566945"><ele>149.0</ele><time>2026-04-26T11:48:38.945Z</time></trkpt><trkpt lat="43.6909701" lon="11.1567589"><ele>149.0</ele><time>2026-04-26T11:48:53.944Z</time></trkpt><trkpt lat="43.6910348" lon="11.1568213"><ele>152.33333333333331</ele><time>2026-04-26T11:48:59.944Z</time></trkpt><trkpt lat="43.6911017" lon="11.1568403"><ele>155.66666666666666</ele><time>2026-04-26T11:49:03.945Z</time></trkpt><trkpt lat="43.6911561" lon="11.1568897"><ele>159.0</ele><time>2026-04-26T11:49:06.943Z</time></trkpt><trkpt lat="43.6912171" lon="11.1569614"><ele>162.33333333333334</ele><time>2026-04-26T11:49:10.944Z</time></trkpt><trkpt lat="43.6912828" lon="11.1570452"><ele>165.66666666666669</ele><time>2026-04-26T11:49:13.945Z</time></trkpt><trkpt lat="43.6913885" lon="11.1571562"><ele>169.0</ele><time>2026-04-26T11:49:16.944Z</time></trkpt><trkpt lat="43.691441" lon="11.1572429"><ele>169.0</ele><time>2026-04-26T11:49:19.945Z</time></trkpt><trkpt lat="43.6914903" lon="11.1573195"><ele>169.0</ele><time>2026-04-26T11:49:22.945Z</time></trkpt><trkpt lat="43.6915361" lon="11.1573906"><ele>169.0</ele><time>2026-04-26T11:49:25.945Z</time></trkpt><trkpt lat="43.6915999" lon="11.1574584"><ele>169.0</ele><time>2026-04-26T11:49:28.945Z</time></trkpt><trkpt lat="43.6916788" lon="11.1575204"><ele>169.0</ele><time>2026-04-26T11:49:31.945Z</time></trkpt><trkpt lat="43.6917425" lon="11.1575742"><ele>169.0</ele><time>2026-04-26T11:49:34.944Z</time></trkpt><trkpt lat="43.6918024" lon="11.1576223"><ele>170.83333333333334</ele><time>2026-04-26T11:49:37.945Z</time></trkpt><trkpt lat="43.691865" lon="11.1576934"><ele>172.66666666666669</ele><time>2026-04-26T11:49:40.945Z</time></trkpt><trkpt lat="43.6919344" lon="11.1577425"><ele>174.5</ele><time>2026-04-26T11:49:43.945Z</time></trkpt><trkpt lat="43.6919989" lon="11.157807"><ele>176.33333333333334</ele><time>2026-04-26T11:49:46.945Z</time></trkpt><trkpt lat="43.6920674" lon="11.1578635"><ele>178.16666666666666</ele><time>2026-04-26T11:49:49.945Z</time></trkpt><trkpt lat="43.6921332" lon="11.1579178"><ele>180.0</ele><time>2026-04-26T11:49:52.945Z</time></trkpt><trkpt lat="43.6921978" lon="11.1579782"><ele>181.83333333333334</ele><time>2026-04-26T11:49:55.945Z</time></trkpt><trkpt lat="43.692247" lon="11.1580345"><ele>183.66666666666666</ele><time>2026-04-26T11:49:58.945Z</time></trkpt><trkpt lat="43.6922952" lon="11.1581089"><ele>185.5</ele><time>2026-04-26T11:50:01.944Z</time></trkpt><trkpt lat="43.6923641" lon="11.1581879"><ele>187.33333333333331</ele><time>2026-04-26T11:50:04.946Z</time></trkpt><trkpt lat="43.6924368" lon="11.158254"><ele>189.16666666666666</ele><time>2026-04-26T11:50:07.945Z</time></trkpt><trkpt lat="43.6925045" lon="11.1582867"><ele>191.0</ele><time>2026-04-26T11:50:10.945Z</time></trkpt><trkpt lat="43.6925676" lon="11.1583118"><ele>191.85714285714286</ele><time>2026-04-26T11:50:13.865Z</time></trkpt><trkpt lat="43.6926439" lon="11.1583319"><ele>192.7142857142857</ele><time>2026-04-26T11:50:16.944Z</time></trkpt><trkpt lat="43.6927207" lon="11.1583632"><ele>193.57142857142856</ele><time>2026-04-26T11:50:19.944Z</time></trkpt><trkpt lat="43.6927984" lon="11.1583906"><ele>194.42857142857144</ele><time>2026-04-26T11:50:22.944Z</time></trkpt><trkpt lat="43.6928603" lon="11.1584115"><ele>195.28571428571428</ele><time>2026-04-26T11:50:26.945Z</time></trkpt><trkpt lat="43.6929283" lon="11.1584152"><ele>196.14285714285714</ele><time>2026-04-26T11:50:30.945Z</time></trkpt><trkpt lat="43.6929972" lon="11.1584434"><ele>197.0</ele><time>2026-04-26T11:50:33.946Z</time></trkpt><trkpt lat="43.6930618" lon="11.1584601"><ele>198.28571428571428</ele><time>2026-04-26T11:50:35.944Z</time></trkpt><trkpt lat="43.6931395" lon="11.1584806"><ele>199.57142857142858</ele><time>2026-04-26T11:50:38.946Z</time></trkpt><trkpt lat="43.6932093" lon="11.1584991"><ele>200.85714285714283</ele><time>2026-04-26T11:50:42.945Z</time></trkpt><trkpt lat="43.6932711" lon="11.158481"><ele>202.14285714285714</ele><time>2026-04-26T11:50:45.945Z</time></trkpt><trkpt lat="43.6933438" lon="11.1584544"><ele>203.42857142857142</ele><time>2026-04-26T11:50:48.945Z</time></trkpt><trkpt lat="43.6934084" lon="11.1584404"><ele>204.7142857142857</ele><time>2026-04-26T11:50:51.946Z</time></trkpt><trkpt lat="43.6934762" lon="11.1584492"><ele>206.0</ele><time>2026-04-26T11:50:54.943Z</time></trkpt><trkpt lat="43.6935381" lon="11.1584683"><ele>207.16666666666669</ele><time>2026-04-26T11:50:57.945Z</time></trkpt><trkpt lat="43.6936145" lon="11.1585102"><ele>208.33333333333334</ele><time>2026-04-26T11:51:01.944Z</time></trkpt><trkpt lat="43.6936769" lon="11.1585388"><ele>209.5</ele><time>2026-04-26T11:51:05.945Z</time></trkpt><trkpt lat="43.6937451" lon="11.1585469"><ele>210.66666666666669</ele><time>2026-04-26T11:51:08.944Z</time></trkpt><trkpt lat="43.6938241" lon="11.1585683"><ele>211.83333333333334</ele><time>2026-04-26T11:51:11.944Z</time></trkpt><trkpt lat="43.6939019" lon="11.1585745"><ele>213.0</ele><time>2026-04-26T11:51:14.948Z</time></trkpt><trkpt lat="43.6939808" lon="11.1585927"><ele>212.99999999999997</ele><time>2026-04-26T11:51:17.945Z</time></trkpt><trkpt lat="43.6940594" lon="11.1586116"><ele>213.0</ele><time>2026-04-26T11:51:20.944Z</time></trkpt><trkpt lat="43.6941271" lon="11.1586185"><ele>213.0</ele><time>2026-04-26T11:51:23.945Z</time></trkpt><trkpt lat="43.6941948" lon="11.1586313"><ele>213.0</ele><time>2026-04-26T11:51:26.945Z</time></trkpt><trkpt lat="43.6942685" lon="11.1586229"><ele>213.0</ele><time>2026-04-26T11:51:29.968Z</time></trkpt><trkpt lat="43.6943359" lon="11.1586405"><ele>212.99999999999997</ele><time>2026-04-26T11:51:32.944Z</time></trkpt><trkpt lat="43.6944002" lon="11.1586295"><ele>213.0</ele><time>2026-04-26T11:51:35.868Z</time></trkpt><trkpt lat="43.6944721" lon="11.1586225"><ele>215.28571428571428</ele><time>2026-04-26T11:51:38.944Z</time></trkpt><trkpt lat="43.6945389" lon="11.1586178"><ele>217.57142857142856</ele><time>2026-04-26T11:51:41.943Z</time></trkpt><trkpt lat="43.6946116" lon="11.1586037"><ele>219.85714285714283</ele><time>2026-04-26T11:51:44.945Z</time></trkpt><trkpt lat="43.6946854" lon="11.1586131"><ele>222.14285714285714</ele><time>2026-04-26T11:51:47.945Z</time></trkpt><trkpt lat="43.6947555" lon="11.15863"><ele>224.42857142857144</ele><time>2026-04-26T11:51:50.944Z</time></trkpt><trkpt lat="43.6948307" lon="11.158647"><ele>226.7142857142857</ele><time>2026-04-26T11:51:53.945Z</time></trkpt><trkpt lat="43.6948978" lon="11.1586723"><ele>229.0</ele><time>2026-04-26T11:51:56.95Z</time></trkpt><trkpt lat="43.6949653" lon="11.1586929"><ele>229.0</ele><time>2026-04-26T11:51:59.944Z</time></trkpt><trkpt lat="43.6950328" lon="11.1586941"><ele>229.0</ele><time>2026-04-26T11:52:02.945Z</time></trkpt><trkpt lat="43.695098" lon="11.158696"><ele>229.0</ele><time>2026-04-26T11:52:05.945Z</time></trkpt><trkpt lat="43.6951695" lon="11.1587021"><ele>229.0</ele><time>2026-04-26T11:52:08.943Z</time></trkpt><trkpt lat="43.6952365" lon="11.1586674"><ele>229.0</ele><time>2026-04-26T11:52:11.945Z</time></trkpt><trkpt lat="43.6952765" lon="11.1585927"><ele>229.0</ele><time>2026-04-26T11:52:14.942Z</time></trkpt><trkpt lat="43.6953083" lon="11.1585039"><ele>229.0</ele><time>2026-04-26T11:52:17.945Z</time></trkpt><trkpt lat="43.6953649" lon="11.1584281"><ele>229.28571428571428</ele><time>2026-04-26T11:52:21.945Z</time></trkpt><trkpt lat="43.6954335" lon="11.1584146"><ele>229.57142857142858</ele><time>2026-04-26T11:52:26.943Z</time></trkpt><trkpt lat="43.6954927" lon="11.158384"><ele>229.85714285714286</ele><time>2026-04-26T11:52:29.944Z</time></trkpt><trkpt lat="43.6955549" lon="11.158335"><ele>230.14285714285714</ele><time>2026-04-26T11:52:32.945Z</time></trkpt><trkpt lat="43.6956301" lon="11.1582815"><ele>230.42857142857144</ele><time>2026-04-26T11:52:35.943Z</time></trkpt><trkpt lat="43.6956886" lon="11.1582423"><ele>230.71428571428572</ele><time>2026-04-26T11:52:37.945Z</time></trkpt><trkpt lat="43.6957482" lon="11.1582073"><ele>231.0</ele><time>2026-04-26T11:52:39.944Z</time></trkpt><trkpt lat="43.6958262" lon="11.1581513"><ele>231.0</ele><time>2026-04-26T11:52:42.943Z</time></trkpt><trkpt lat="43.6958998" lon="11.1580937"><ele>231.0</ele><time>2026-04-26T11:52:45.945Z</time></trkpt><trkpt lat="43.695985" lon="11.1580646"><ele>231.0</ele><time>2026-04-26T11:52:48.944Z</time></trkpt><trkpt lat="43.6960599" lon="11.1581279"><ele>231.0</ele><time>2026-04-26T11:52:51.944Z</time></trkpt><trkpt lat="43.6960815" lon="11.1582111"><ele>231.0</ele><time>2026-04-26T11:52:53.945Z</time></trkpt><trkpt lat="43.6960967" lon="11.1583004"><ele>231.0</ele><time>2026-04-26T11:52:55.944Z</time></trkpt><trkpt lat="43.6961197" lon="11.1584272"><ele>230.66666666666666</ele><time>2026-04-26T11:52:58.945Z</time></trkpt><trkpt lat="43.6961417" lon="11.1585171"><ele>230.33333333333331</ele><time>2026-04-26T11:53:00.944Z</time></trkpt><trkpt lat="43.6961622" lon="11.158615"><ele>230.0</ele><time>2026-04-26T11:53:02.944Z</time></trkpt><trkpt lat="43.6961693" lon="11.1587183"><ele>229.66666666666666</ele><time>2026-04-26T11:53:04.945Z</time></trkpt><trkpt lat="43.6961881" lon="11.1588524"><ele>229.33333333333331</ele><time>2026-04-26T11:53:06.945Z</time></trkpt><trkpt lat="43.6962072" lon="11.1589761"><ele>229.0</ele><time>2026-04-26T11:53:08.944Z</time></trkpt><trkpt lat="43.6962404" lon="11.1590848"><ele>230.16666666666666</ele><time>2026-04-26T11:53:10.944Z</time></trkpt><trkpt lat="43.6962493" lon="11.1592071"><ele>231.33333333333331</ele><time>2026-04-26T11:53:12.945Z</time></trkpt><trkpt lat="43.6962999" lon="11.1592883"><ele>232.5</ele><time>2026-04-26T11:53:14.946Z</time></trkpt><trkpt lat="43.6963228" lon="11.1593706"><ele>233.66666666666669</ele><time>2026-04-26T11:53:16.944Z</time></trkpt><trkpt lat="43.6963816" lon="11.159465"><ele>234.83333333333334</ele><time>2026-04-26T11:53:18.945Z</time></trkpt><trkpt lat="43.6964364" lon="11.1595468"><ele>236.0</ele><time>2026-04-26T11:53:20.944Z</time></trkpt><trkpt lat="43.6964965" lon="11.1596258"><ele>236.00000000000003</ele><time>2026-04-26T11:53:22.944Z</time></trkpt><trkpt lat="43.6965518" lon="11.1596996"><ele>236.0</ele><time>2026-04-26T11:53:24.944Z</time></trkpt><trkpt lat="43.6966051" lon="11.1597656"><ele>236.0</ele><time>2026-04-26T11:53:26.944Z</time></trkpt><trkpt lat="43.6966809" lon="11.1598286"><ele>236.0</ele><time>2026-04-26T11:53:29.945Z</time></trkpt><trkpt lat="43.6967382" lon="11.1598718"><ele>236.00000000000003</ele><time>2026-04-26T11:53:32.945Z</time></trkpt><trkpt lat="43.6968147" lon="11.1599384"><ele>236.0</ele><time>2026-04-26T11:53:35.944Z</time></trkpt><trkpt lat="43.6969012" lon="11.1600073"><ele>236.0</ele><time>2026-04-26T11:53:38.945Z</time></trkpt><trkpt lat="43.6969722" lon="11.1601062"><ele>236.00000000000003</ele><time>2026-04-26T11:53:40.943Z</time></trkpt><trkpt lat="43.6970641" lon="11.1602019"><ele>236.00000000000003</ele><time>2026-04-26T11:53:42.945Z</time></trkpt><trkpt lat="43.697114" lon="11.160262"><ele>236.0</ele><time>2026-04-26T11:53:43.945Z</time></trkpt><trkpt lat="43.6972121" lon="11.1603872"><ele>236.0</ele><time>2026-04-26T11:53:45.945Z</time></trkpt><trkpt lat="43.6973123" lon="11.1604916"><ele>236.0</ele><time>2026-04-26T11:53:47.945Z</time></trkpt><trkpt lat="43.6973595" lon="11.1605777"><ele>236.0</ele><time>2026-04-26T11:53:48.945Z</time></trkpt><trkpt lat="43.69741" lon="11.1606557"><ele>236.0</ele><time>2026-04-26T11:53:49.945Z</time></trkpt><trkpt lat="43.6974591" lon="11.1607272"><ele>236.0</ele><time>2026-04-26T11:53:50.945Z</time></trkpt><trkpt lat="43.6975036" lon="11.1608018"><ele>236.0</ele><time>2026-04-26T11:53:51.945Z</time></trkpt><trkpt lat="43.6975521" lon="11.1608656"><ele>236.0</ele><time>2026-04-26T11:53:52.945Z</time></trkpt><trkpt lat="43.6976012" lon="11.160935"><ele>236.0</ele><time>2026-04-26T11:53:53.945Z</time></trkpt><trkpt lat="43.6976792" lon="11.1610707"><ele>235.8</ele><time>2026-04-26T11:53:55.944Z</time></trkpt><trkpt lat="43.6977164" lon="11.1611423"><ele>235.60000000000002</ele><time>2026-04-26T11:53:56.944Z</time></trkpt><trkpt lat="43.6977804" lon="11.1612525"><ele>235.4</ele><time>2026-04-26T11:53:58.945Z</time></trkpt><trkpt lat="43.6978281" lon="11.1614036"><ele>235.2</ele><time>2026-04-26T11:54:00.944Z</time></trkpt><trkpt lat="43.6978738" lon="11.1615306"><ele>235.0</ele><time>2026-04-26T11:54:02.945Z</time></trkpt><trkpt lat="43.6979193" lon="11.1616538"><ele>234.4</ele><time>2026-04-26T11:54:04.945Z</time></trkpt><trkpt lat="43.6979763" lon="11.1617956"><ele>233.8</ele><time>2026-04-26T11:54:07.761Z</time></trkpt><trkpt lat="43.6979861" lon="11.1618905"><ele>233.2</ele><time>2026-04-26T11:54:08.944Z</time></trkpt><trkpt lat="43.6980432" lon="11.1620106"><ele>232.6</ele><time>2026-04-26T11:54:10.943Z</time></trkpt><trkpt lat="43.6981045" lon="11.1621171"><ele>232.0</ele><time>2026-04-26T11:54:12.943Z</time></trkpt><trkpt lat="43.698157" lon="11.1622167"><ele>232.0</ele><time>2026-04-26T11:54:14.944Z</time></trkpt><trkpt lat="43.698221" lon="11.1623159"><ele>232.0</ele><time>2026-04-26T11:54:16.944Z</time></trkpt><trkpt lat="43.6982956" lon="11.1624065"><ele>232.0</ele><time>2026-04-26T11:54:18.944Z</time></trkpt><trkpt lat="43.6983676" lon="11.1624916"><ele>232.0</ele><time>2026-04-26T11:54:20.944Z</time></trkpt><trkpt lat="43.6984415" lon="11.1625627"><ele>232.0</ele><time>2026-04-26T11:54:22.943Z</time></trkpt><trkpt lat="43.6984993" lon="11.162632"><ele>232.49999999999997</ele><time>2026-04-26T11:54:24.944Z</time></trkpt><trkpt lat="43.6985748" lon="11.162683"><ele>233.0</ele><time>2026-04-26T11:54:27.944Z</time></trkpt><trkpt lat="43.6986524" lon="11.1627108"><ele>233.5</ele><time>2026-04-26T11:54:29.945Z</time></trkpt><trkpt lat="43.6987268" lon="11.1627157"><ele>234.0</ele><time>2026-04-26T11:54:31.943Z</time></trkpt><trkpt lat="43.6988096" lon="11.1627354"><ele>234.49999999999997</ele><time>2026-04-26T11:54:33.945Z</time></trkpt><trkpt lat="43.6989047" lon="11.1627564"><ele>235.0</ele><time>2026-04-26T11:54:35.943Z</time></trkpt><trkpt lat="43.6989795" lon="11.1627669"><ele>235.85714285714283</ele><time>2026-04-26T11:54:37.944Z</time></trkpt><trkpt lat="43.69905" lon="11.1627666"><ele>236.7142857142857</ele><time>2026-04-26T11:54:39.944Z</time></trkpt><trkpt lat="43.699118" lon="11.1627632"><ele>237.57142857142856</ele><time>2026-04-26T11:54:41.943Z</time></trkpt><trkpt lat="43.6991855" lon="11.1627586"><ele>238.42857142857144</ele><time>2026-04-26T11:54:43.943Z</time></trkpt><trkpt lat="43.6992588" lon="11.1627433"><ele>239.2857142857143</ele><time>2026-04-26T11:54:45.944Z</time></trkpt><trkpt lat="43.6993318" lon="11.1627349"><ele>240.14285714285717</ele><time>2026-04-26T11:54:47.944Z</time></trkpt><trkpt lat="43.6994011" lon="11.1627277"><ele>241.0</ele><time>2026-04-26T11:54:49.944Z</time></trkpt><trkpt lat="43.6994655" lon="11.1627203"><ele>241.85714285714286</ele><time>2026-04-26T11:54:51.945Z</time></trkpt><trkpt lat="43.6995312" lon="11.1627197"><ele>242.71428571428572</ele><time>2026-04-26T11:54:53.943Z</time></trkpt><trkpt lat="43.6996" lon="11.1627164"><ele>243.57142857142858</ele><time>2026-04-26T11:54:55.945Z</time></trkpt><trkpt lat="43.6996702" lon="11.1627202"><ele>244.42857142857144</ele><time>2026-04-26T11:54:57.944Z</time></trkpt><trkpt lat="43.6997374" lon="11.1627189"><ele>245.28571428571428</ele><time>2026-04-26T11:54:59.945Z</time></trkpt><trkpt lat="43.6998012" lon="11.162716"><ele>246.14285714285717</ele><time>2026-04-26T11:55:01.944Z</time></trkpt><trkpt lat="43.6998669" lon="11.1627192"><ele>247.0</ele><time>2026-04-26T11:55:03.945Z</time></trkpt><trkpt lat="43.6999325" lon="11.1627261"><ele>246.99999999999997</ele><time>2026-04-26T11:55:05.945Z</time></trkpt><trkpt lat="43.6999984" lon="11.1627443"><ele>247.0</ele><time>2026-04-26T11:55:07.944Z</time></trkpt><trkpt lat="43.7000615" lon="11.1627729"><ele>247.0</ele><time>2026-04-26T11:55:09.944Z</time></trkpt><trkpt lat="43.7001258" lon="11.1628084"><ele>247.0</ele><time>2026-04-26T11:55:11.942Z</time></trkpt><trkpt lat="43.7001983" lon="11.1628475"><ele>246.99999999999997</ele><time>2026-04-26T11:55:13.944Z</time></trkpt><trkpt lat="43.7002902" lon="11.1628941"><ele>247.0</ele><time>2026-04-26T11:55:15.943Z</time></trkpt><trkpt lat="43.7003863" lon="11.1629392"><ele>246.6</ele><time>2026-04-26T11:55:17.945Z</time></trkpt><trkpt lat="43.700484" lon="11.1629925"><ele>246.2</ele><time>2026-04-26T11:55:19.944Z</time></trkpt><trkpt lat="43.7005854" lon="11.1630465"><ele>245.8</ele><time>2026-04-26T11:55:21.945Z</time></trkpt><trkpt lat="43.7006885" lon="11.1631023"><ele>245.4</ele><time>2026-04-26T11:55:23.945Z</time></trkpt><trkpt lat="43.7007896" lon="11.1631566"><ele>245.0</ele><time>2026-04-26T11:55:25.943Z</time></trkpt><trkpt lat="43.7008874" lon="11.163212"><ele>245.0</ele><time>2026-04-26T11:55:27.943Z</time></trkpt><trkpt lat="43.7009712" lon="11.163272"><ele>245.0</ele><time>2026-04-26T11:55:29.944Z</time></trkpt><trkpt lat="43.701072" lon="11.1633169"><ele>245.0</ele><time>2026-04-26T11:55:31.944Z</time></trkpt><trkpt lat="43.7011665" lon="11.1633813"><ele>245.0</ele><time>2026-04-26T11:55:34.945Z</time></trkpt><trkpt lat="43.7012539" lon="11.1634589"><ele>245.0</ele><time>2026-04-26T11:55:36.944Z</time></trkpt><trkpt lat="43.7013475" lon="11.1634981"><ele>244.66666666666669</ele><time>2026-04-26T11:55:38.944Z</time></trkpt><trkpt lat="43.7013999" lon="11.1635622"><ele>244.33333333333334</ele><time>2026-04-26T11:55:40.944Z</time></trkpt><trkpt lat="43.7014726" lon="11.1636513"><ele>244.0</ele><time>2026-04-26T11:55:42.945Z</time></trkpt><trkpt lat="43.701537" lon="11.1637446"><ele>243.66666666666669</ele><time>2026-04-26T11:55:44.944Z</time></trkpt><trkpt lat="43.7016057" lon="11.163839"><ele>243.33333333333334</ele><time>2026-04-26T11:55:46.944Z</time></trkpt><trkpt lat="43.7016575" lon="11.163931"><ele>243.0</ele><time>2026-04-26T11:55:48.942Z</time></trkpt><trkpt lat="43.70172" lon="11.1640157"><ele>243.16666666666666</ele><time>2026-04-26T11:55:50.943Z</time></trkpt><trkpt lat="43.7017821" lon="11.164104"><ele>243.33333333333331</ele><time>2026-04-26T11:55:52.944Z</time></trkpt><trkpt lat="43.7018415" lon="11.1641938"><ele>243.5</ele><time>2026-04-26T11:55:54.943Z</time></trkpt><trkpt lat="43.7019102" lon="11.1642757"><ele>243.66666666666666</ele><time>2026-04-26T11:55:56.943Z</time></trkpt><trkpt lat="43.7019704" lon="11.1643648"><ele>243.83333333333331</ele><time>2026-04-26T11:55:58.944Z</time></trkpt><trkpt lat="43.7020052" lon="11.1644488"><ele>244.0</ele><time>2026-04-26T11:56:00.944Z</time></trkpt><trkpt lat="43.7020789" lon="11.164545"><ele>243.66666666666666</ele><time>2026-04-26T11:56:02.943Z</time></trkpt><trkpt lat="43.7021242" lon="11.164629"><ele>243.33333333333331</ele><time>2026-04-26T11:56:04.945Z</time></trkpt><trkpt lat="43.7021853" lon="11.164726"><ele>243.0</ele><time>2026-04-26T11:56:06.944Z</time></trkpt><trkpt lat="43.7022463" lon="11.1648111"><ele>242.66666666666669</ele><time>2026-04-26T11:56:08.943Z</time></trkpt><trkpt lat="43.7023288" lon="11.1648932"><ele>242.33333333333334</ele><time>2026-04-26T11:56:10.944Z</time></trkpt><trkpt lat="43.7023824" lon="11.1649893"><ele>242.0</ele><time>2026-04-26T11:56:12.944Z</time></trkpt><trkpt lat="43.7024257" lon="11.1650889"><ele>242.66666666666669</ele><time>2026-04-26T11:56:14.944Z</time></trkpt><trkpt lat="43.7024611" lon="11.1651846"><ele>243.33333333333334</ele><time>2026-04-26T11:56:16.943Z</time></trkpt><trkpt lat="43.7024977" lon="11.1653133"><ele>244.0</ele><time>2026-04-26T11:56:18.944Z</time></trkpt><trkpt lat="43.702546" lon="11.1654227"><ele>244.66666666666669</ele><time>2026-04-26T11:56:20.944Z</time></trkpt><trkpt lat="43.7025759" lon="11.1655019"><ele>245.33333333333334</ele><time>2026-04-26T11:56:22.943Z</time></trkpt><trkpt lat="43.702608" lon="11.1656063"><ele>246.0</ele><time>2026-04-26T11:56:24.944Z</time></trkpt><trkpt lat="43.702635" lon="11.1657119"><ele>246.33333333333334</ele><time>2026-04-26T11:56:26.944Z</time></trkpt><trkpt lat="43.7026573" lon="11.1657938"><ele>246.66666666666669</ele><time>2026-04-26T11:56:28.944Z</time></trkpt><trkpt lat="43.7026917" lon="11.1658808"><ele>247.0</ele><time>2026-04-26T11:56:30.943Z</time></trkpt><trkpt lat="43.7027221" lon="11.1659751"><ele>247.33333333333334</ele><time>2026-04-26T11:56:32.944Z</time></trkpt><trkpt lat="43.7027535" lon="11.1660784"><ele>247.66666666666669</ele><time>2026-04-26T11:56:34.945Z</time></trkpt><trkpt lat="43.7027936" lon="11.1661666"><ele>248.0</ele><time>2026-04-26T11:56:36.944Z</time></trkpt><trkpt lat="43.7028496" lon="11.1662634"><ele>248.16666666666669</ele><time>2026-04-26T11:56:39.943Z</time></trkpt><trkpt lat="43.7028912" lon="11.1663567"><ele>248.33333333333334</ele><time>2026-04-26T11:56:41.943Z</time></trkpt><trkpt lat="43.7029322" lon="11.1664516"><ele>248.5</ele><time>2026-04-26T11:56:43.944Z</time></trkpt><trkpt lat="43.7029676" lon="11.166539"><ele>248.66666666666669</ele><time>2026-04-26T11:56:45.944Z</time></trkpt><trkpt lat="43.7030034" lon="11.1666321"><ele>248.83333333333334</ele><time>2026-04-26T11:56:47.944Z</time></trkpt><trkpt lat="43.7030469" lon="11.1667271"><ele>249.0</ele><time>2026-04-26T11:56:49.942Z</time></trkpt><trkpt lat="43.7030953" lon="11.1668087"><ele>250.16666666666666</ele><time>2026-04-26T11:56:51.943Z</time></trkpt><trkpt lat="43.703143" lon="11.1668891"><ele>251.33333333333331</ele><time>2026-04-26T11:56:53.942Z</time></trkpt><trkpt lat="43.7031962" lon="11.1669678"><ele>252.5</ele><time>2026-04-26T11:56:55.944Z</time></trkpt><trkpt lat="43.7032468" lon="11.1670403"><ele>253.66666666666666</ele><time>2026-04-26T11:56:57.942Z</time></trkpt><trkpt lat="43.7033015" lon="11.1671106"><ele>254.83333333333331</ele><time>2026-04-26T11:56:59.943Z</time></trkpt><trkpt lat="43.703352" lon="11.1671816"><ele>256.0</ele><time>2026-04-26T11:57:01.944Z</time></trkpt><trkpt lat="43.7033981" lon="11.1672687"><ele>256.0</ele><time>2026-04-26T11:57:03.942Z</time></trkpt><trkpt lat="43.7034417" lon="11.1673442"><ele>255.99999999999997</ele><time>2026-04-26T11:57:05.943Z</time></trkpt><trkpt lat="43.703495" lon="11.1674041"><ele>256.0</ele><time>2026-04-26T11:57:07.943Z</time></trkpt><trkpt lat="43.7035571" lon="11.1674505"><ele>256.0</ele><time>2026-04-26T11:57:09.943Z</time></trkpt><trkpt lat="43.7036172" lon="11.1675004"><ele>255.99999999999997</ele><time>2026-04-26T11:57:11.944Z</time></trkpt><trkpt lat="43.7036788" lon="11.1675391"><ele>256.0</ele><time>2026-04-26T11:57:13.943Z</time></trkpt><trkpt lat="43.7037416" lon="11.1675789"><ele>256.0</ele><time>2026-04-26T11:57:15.943Z</time></trkpt><trkpt lat="43.7038117" lon="11.1676123"><ele>256.8333333333333</ele><time>2026-04-26T11:57:17.943Z</time></trkpt><trkpt lat="43.7038761" lon="11.1676311"><ele>257.66666666666663</ele><time>2026-04-26T11:57:19.943Z</time></trkpt><trkpt lat="43.7039669" lon="11.1676604"><ele>258.5</ele><time>2026-04-26T11:57:22.943Z</time></trkpt><trkpt lat="43.7040573" lon="11.1676965"><ele>259.3333333333333</ele><time>2026-04-26T11:57:25.943Z</time></trkpt><trkpt lat="43.7041325" lon="11.1677135"><ele>260.1666666666667</ele><time>2026-04-26T11:57:27.943Z</time></trkpt><trkpt lat="43.7042056" lon="11.1677443"><ele>261.0</ele><time>2026-04-26T11:57:29.943Z</time></trkpt><trkpt lat="43.7042723" lon="11.1677879"><ele>261.0</ele><time>2026-04-26T11:57:31.944Z</time></trkpt><trkpt lat="43.7043341" lon="11.1678314"><ele>261.0</ele><time>2026-04-26T11:57:33.944Z</time></trkpt><trkpt lat="43.7043893" lon="11.1678833"><ele>261.0</ele><time>2026-04-26T11:57:35.943Z</time></trkpt><trkpt lat="43.7044522" lon="11.1679358"><ele>261.0</ele><time>2026-04-26T11:57:37.944Z</time></trkpt><trkpt lat="43.7045136" lon="11.1679719"><ele>261.0</ele><time>2026-04-26T11:57:39.942Z</time></trkpt><trkpt lat="43.7045962" lon="11.1680208"><ele>261.0</ele><time>2026-04-26T11:57:42.944Z</time></trkpt><trkpt lat="43.70466" lon="11.1680533"><ele>261.0</ele><time>2026-04-26T11:57:44.942Z</time></trkpt><trkpt lat="43.7047281" lon="11.168093"><ele>261.14285714285717</ele><time>2026-04-26T11:57:46.943Z</time></trkpt><trkpt lat="43.7047969" lon="11.1681315"><ele>261.2857142857143</ele><time>2026-04-26T11:57:48.944Z</time></trkpt><trkpt lat="43.7048545" lon="11.1681679"><ele>261.42857142857144</ele><time>2026-04-26T11:57:50.944Z</time></trkpt><trkpt lat="43.7049204" lon="11.1682101"><ele>261.57142857142856</ele><time>2026-04-26T11:57:52.943Z</time></trkpt><trkpt lat="43.7049786" lon="11.1682531"><ele>261.7142857142857</ele><time>2026-04-26T11:57:54.945Z</time></trkpt><trkpt lat="43.7050476" lon="11.1683033"><ele>261.8571428571429</ele><time>2026-04-26T11:57:56.943Z</time></trkpt><trkpt lat="43.7051074" lon="11.1683711"><ele>262.0</ele><time>2026-04-26T11:57:58.944Z</time></trkpt><trkpt lat="43.7051616" lon="11.1684238"><ele>262.3333333333333</ele><time>2026-04-26T11:58:00.944Z</time></trkpt><trkpt lat="43.7052435" lon="11.1684738"><ele>262.66666666666663</ele><time>2026-04-26T11:58:03.943Z</time></trkpt><trkpt lat="43.7053142" lon="11.1685123"><ele>263.0</ele><time>2026-04-26T11:58:06.944Z</time></trkpt><trkpt lat="43.7053886" lon="11.1685398"><ele>263.3333333333333</ele><time>2026-04-26T11:58:09.944Z</time></trkpt><trkpt lat="43.7054585" lon="11.168571"><ele>263.6666666666667</ele><time>2026-04-26T11:58:11.942Z</time></trkpt><trkpt lat="43.7055202" lon="11.168593"><ele>264.0</ele><time>2026-04-26T11:58:13.943Z</time></trkpt><trkpt lat="43.7056121" lon="11.1686193"><ele>264.57142857142856</ele><time>2026-04-26T11:58:16.943Z</time></trkpt><trkpt lat="43.7056756" lon="11.1686451"><ele>265.14285714285717</ele><time>2026-04-26T11:58:18.942Z</time></trkpt><trkpt lat="43.7057424" lon="11.1686575"><ele>265.7142857142857</ele><time>2026-04-26T11:58:20.943Z</time></trkpt><trkpt lat="43.7058142" lon="11.1686573"><ele>266.2857142857143</ele><time>2026-04-26T11:58:22.943Z</time></trkpt><trkpt lat="43.7058844" lon="11.1686555"><ele>266.85714285714283</ele><time>2026-04-26T11:58:24.944Z</time></trkpt><trkpt lat="43.7059767" lon="11.1686635"><ele>267.42857142857144</ele><time>2026-04-26T11:58:27.941Z</time></trkpt><trkpt lat="43.7060487" lon="11.1686625"><ele>268.0</ele><time>2026-04-26T11:58:29.944Z</time></trkpt><trkpt lat="43.7061326" lon="11.1686405"><ele>269.0</ele><time>2026-04-26T11:58:31.943Z</time></trkpt><trkpt lat="43.7062018" lon="11.1686188"><ele>270.0</ele><time>2026-04-26T11:58:33.943Z</time></trkpt><trkpt lat="43.7062758" lon="11.1686087"><ele>271.0</ele><time>2026-04-26T11:58:35.943Z</time></trkpt><trkpt lat="43.7063493" lon="11.1685969"><ele>272.0</ele><time>2026-04-26T11:58:37.944Z</time></trkpt><trkpt lat="43.7064208" lon="11.1685955"><ele>273.0</ele><time>2026-04-26T11:58:39.944Z</time></trkpt><trkpt lat="43.7064962" lon="11.1686029"><ele>274.0</ele><time>2026-04-26T11:58:41.943Z</time></trkpt><trkpt lat="43.7065732" lon="11.1686139"><ele>275.0</ele><time>2026-04-26T11:58:43.944Z</time></trkpt><trkpt lat="43.7066495" lon="11.1686309"><ele>275.0</ele><time>2026-04-26T11:58:45.944Z</time></trkpt><trkpt lat="43.7067222" lon="11.1686556"><ele>275.0</ele><time>2026-04-26T11:58:47.942Z</time></trkpt><trkpt lat="43.7067965" lon="11.1686921"><ele>275.0</ele><time>2026-04-26T11:58:49.943Z</time></trkpt><trkpt lat="43.7068772" lon="11.168736"><ele>275.0</ele><time>2026-04-26T11:58:52.945Z</time></trkpt><trkpt lat="43.7069407" lon="11.1687787"><ele>275.0</ele><time>2026-04-26T11:58:55.944Z</time></trkpt><trkpt lat="43.707026" lon="11.1688386"><ele>275.0</ele><time>2026-04-26T11:58:58.942Z</time></trkpt><trkpt lat="43.7070966" lon="11.1688792"><ele>275.0</ele><time>2026-04-26T11:59:00.942Z</time></trkpt><trkpt lat="43.707179" lon="11.1689238"><ele>275.0</ele><time>2026-04-26T11:59:02.943Z</time></trkpt><trkpt lat="43.7072561" lon="11.1689767"><ele>275.0</ele><time>2026-04-26T11:59:04.943Z</time></trkpt><trkpt lat="43.7073301" lon="11.1690449"><ele>275.0</ele><time>2026-04-26T11:59:06.942Z</time></trkpt><trkpt lat="43.7073968" lon="11.169113"><ele>275.0</ele><time>2026-04-26T11:59:08.942Z</time></trkpt><trkpt lat="43.7074499" lon="11.1691793"><ele>275.0</ele><time>2026-04-26T11:59:10.943Z</time></trkpt><trkpt lat="43.7074906" lon="11.1692517"><ele>275.2857142857143</ele><time>2026-04-26T11:59:12.943Z</time></trkpt><trkpt lat="43.7075295" lon="11.1693236"><ele>275.57142857142856</ele><time>2026-04-26T11:59:14.943Z</time></trkpt><trkpt lat="43.7075629" lon="11.1694301"><ele>275.85714285714283</ele><time>2026-04-26T11:59:17.943Z</time></trkpt><trkpt lat="43.7075951" lon="11.1695245"><ele>276.1428571428571</ele><time>2026-04-26T11:59:19.943Z</time></trkpt><trkpt lat="43.7076267" lon="11.1696223"><ele>276.4285714285714</ele><time>2026-04-26T11:59:21.941Z</time></trkpt><trkpt lat="43.7076547" lon="11.1697147"><ele>276.7142857142857</ele><time>2026-04-26T11:59:23.943Z</time></trkpt><trkpt lat="43.707678" lon="11.1698048"><ele>277.0</ele><time>2026-04-26T11:59:25.944Z</time></trkpt><trkpt lat="43.7077" lon="11.1698944"><ele>277.8333333333333</ele><time>2026-04-26T11:59:27.944Z</time></trkpt><trkpt lat="43.7077157" lon="11.1699901"><ele>278.66666666666663</ele><time>2026-04-26T11:59:29.942Z</time></trkpt><trkpt lat="43.7077389" lon="11.1701154"><ele>279.5</ele><time>2026-04-26T11:59:32.943Z</time></trkpt><trkpt lat="43.7077605" lon="11.1702159"><ele>280.3333333333333</ele><time>2026-04-26T11:59:34.944Z</time></trkpt><trkpt lat="43.7077859" lon="11.1703086"><ele>281.1666666666667</ele><time>2026-04-26T11:59:36.941Z</time></trkpt><trkpt lat="43.7078157" lon="11.1703969"><ele>282.0</ele><time>2026-04-26T11:59:38.943Z</time></trkpt><trkpt lat="43.707838" lon="11.17049"><ele>282.0</ele><time>2026-04-26T11:59:40.943Z</time></trkpt><trkpt lat="43.7078567" lon="11.1705896"><ele>282.0</ele><time>2026-04-26T11:59:42.943Z</time></trkpt><trkpt lat="43.7078634" lon="11.1706845"><ele>282.0</ele><time>2026-04-26T11:59:44.942Z</time></trkpt><trkpt lat="43.7078892" lon="11.1707929"><ele>282.0</ele><time>2026-04-26T11:59:47.944Z</time></trkpt><trkpt lat="43.7079193" lon="11.1708983"><ele>282.0</ele><time>2026-04-26T11:59:50.943Z</time></trkpt><trkpt lat="43.7079436" lon="11.171023"><ele>282.0</ele><time>2026-04-26T11:59:53.942Z</time></trkpt><trkpt lat="43.7079609" lon="11.1711395"><ele>283.6666666666667</ele><time>2026-04-26T11:59:56.943Z</time></trkpt><trkpt lat="43.7079787" lon="11.171238"><ele>285.3333333333333</ele><time>2026-04-26T11:59:58.942Z</time></trkpt><trkpt lat="43.7080032" lon="11.1713505"><ele>287.0</ele><time>2026-04-26T12:00:00.943Z</time></trkpt><trkpt lat="43.70802" lon="11.1714385"><ele>288.66666666666663</ele><time>2026-04-26T12:00:02.944Z</time></trkpt><trkpt lat="43.7080379" lon="11.1715235"><ele>290.3333333333333</ele><time>2026-04-26T12:00:04.943Z</time></trkpt><trkpt lat="43.7080787" lon="11.171625"><ele>292.0</ele><time>2026-04-26T12:00:07.941Z</time></trkpt><trkpt lat="43.7081256" lon="11.171721"><ele>293.0</ele><time>2026-04-26T12:00:10.943Z</time></trkpt><trkpt lat="43.7081596" lon="11.1717967"><ele>294.0</ele><time>2026-04-26T12:00:12.942Z</time></trkpt><trkpt lat="43.7081981" lon="11.171874"><ele>295.0</ele><time>2026-04-26T12:00:14.942Z</time></trkpt><trkpt lat="43.7082308" lon="11.1719786"><ele>296.0</ele><time>2026-04-26T12:00:17.943Z</time></trkpt><trkpt lat="43.7082639" lon="11.172072"><ele>297.0</ele><time>2026-04-26T12:00:20.943Z</time></trkpt><trkpt lat="43.7083351" lon="11.1720901"><ele>298.0</ele><time>2026-04-26T12:00:23.944Z</time></trkpt><trkpt lat="43.7083833" lon="11.1720007"><ele>299.0</ele><time>2026-04-26T12:00:26.942Z</time></trkpt><trkpt lat="43.7084312" lon="11.1719217"><ele>299.0</ele><time>2026-04-26T12:00:29.943Z</time></trkpt><trkpt lat="43.7084884" lon="11.1718446"><ele>299.0</ele><time>2026-04-26T12:00:33.943Z</time></trkpt><trkpt lat="43.7085349" lon="11.171778"><ele>299.0</ele><time>2026-04-26T12:00:37.943Z</time></trkpt><trkpt lat="43.7085854" lon="11.1717243"><ele>299.0</ele><time>2026-04-26T12:00:41.943Z</time></trkpt><trkpt lat="43.7086675" lon="11.1717323"><ele>299.0</ele><time>2026-04-26T12:00:46.944Z</time></trkpt><trkpt lat="43.7087381" lon="11.1717278"><ele>299.0</ele><time>2026-04-26T12:00:49.943Z</time></trkpt><trkpt lat="43.7088099" lon="11.1716873"><ele>299.0</ele><time>2026-04-26T12:00:51.942Z</time></trkpt><trkpt lat="43.7088671" lon="11.1716468"><ele>298.59999999999997</ele><time>2026-04-26T12:00:52.944Z</time></trkpt><trkpt lat="43.7089715" lon="11.1716095"><ele>298.2</ele><time>2026-04-26T12:00:54.942Z</time></trkpt><trkpt lat="43.7090831" lon="11.1715671"><ele>297.79999999999995</ele><time>2026-04-26T12:00:56.944Z</time></trkpt><trkpt lat="43.7091418" lon="11.1715196"><ele>297.4</ele><time>2026-04-26T12:00:57.943Z</time></trkpt><trkpt lat="43.7092527" lon="11.1714391"><ele>297.0</ele><time>2026-04-26T12:00:59.943Z</time></trkpt><trkpt lat="43.7093533" lon="11.1713464"><ele>296.2</ele><time>2026-04-26T12:01:01.944Z</time></trkpt><trkpt lat="43.7094332" lon="11.1712443"><ele>295.4</ele><time>2026-04-26T12:01:03.941Z</time></trkpt><trkpt lat="43.7095125" lon="11.1711849"><ele>294.6</ele><time>2026-04-26T12:01:05.943Z</time></trkpt><trkpt lat="43.7096048" lon="11.1711467"><ele>293.8</ele><time>2026-04-26T12:01:07.942Z</time></trkpt><trkpt lat="43.7096828" lon="11.1710815"><ele>293.0</ele><time>2026-04-26T12:01:09.942Z</time></trkpt><trkpt lat="43.7097413" lon="11.1710336"><ele>292.99999999999994</ele><time>2026-04-26T12:01:11.944Z</time></trkpt><trkpt lat="43.7098116" lon="11.1709738"><ele>293.0</ele><time>2026-04-26T12:01:13.942Z</time></trkpt><trkpt lat="43.7098739" lon="11.1709568"><ele>293.0</ele><time>2026-04-26T12:01:15.943Z</time></trkpt><trkpt lat="43.7099396" lon="11.1709249"><ele>293.0</ele><time>2026-04-26T12:01:17.942Z</time></trkpt><trkpt lat="43.710001" lon="11.1708931"><ele>293.0</ele><time>2026-04-26T12:01:19.943Z</time></trkpt><trkpt lat="43.7100638" lon="11.1708569"><ele>292.99999999999994</ele><time>2026-04-26T12:01:21.944Z</time></trkpt><trkpt lat="43.710125" lon="11.1708144"><ele>293.0</ele><time>2026-04-26T12:01:23.943Z</time></trkpt><trkpt lat="43.7101825" lon="11.1707573"><ele>293.0</ele><time>2026-04-26T12:01:25.942Z</time></trkpt><trkpt lat="43.7102393" lon="11.1707125"><ele>293.0</ele><time>2026-04-26T12:01:27.943Z</time></trkpt><trkpt lat="43.7102922" lon="11.1706579"><ele>293.0</ele><time>2026-04-26T12:01:29.943Z</time></trkpt><trkpt lat="43.7103483" lon="11.1705918"><ele>293.0</ele><time>2026-04-26T12:01:31.943Z</time></trkpt><trkpt lat="43.7104082" lon="11.1704973"><ele>293.0</ele><time>2026-04-26T12:01:33.943Z</time></trkpt><trkpt lat="43.710464" lon="11.1703862"><ele>293.0</ele><time>2026-04-26T12:01:35.942Z</time></trkpt><trkpt lat="43.7105542" lon="11.1703"><ele>292.8</ele><time>2026-04-26T12:01:37.943Z</time></trkpt><trkpt lat="43.7106508" lon="11.1702555"><ele>292.6</ele><time>2026-04-26T12:01:39.943Z</time></trkpt><trkpt lat="43.7107488" lon="11.1702647"><ele>292.4</ele><time>2026-04-26T12:01:41.943Z</time></trkpt><trkpt lat="43.7108452" lon="11.1703173"><ele>292.2</ele><time>2026-04-26T12:01:43.942Z</time></trkpt><trkpt lat="43.7109497" lon="11.1703372"><ele>292.0</ele><time>2026-04-26T12:01:45.942Z</time></trkpt><trkpt lat="43.711043" lon="11.1703531"><ele>291.0</ele><time>2026-04-26T12:01:47.942Z</time></trkpt><trkpt lat="43.7111299" lon="11.1703951"><ele>290.0</ele><time>2026-04-26T12:01:49.943Z</time></trkpt><trkpt lat="43.711216" lon="11.1704165"><ele>289.0</ele><time>2026-04-26T12:01:51.943Z</time></trkpt><trkpt lat="43.711288" lon="11.170417"><ele>288.0</ele><time>2026-04-26T12:01:53.942Z</time></trkpt><trkpt lat="43.7113832" lon="11.1703866"><ele>287.0</ele><time>2026-04-26T12:01:55.943Z</time></trkpt><trkpt lat="43.7114727" lon="11.1703304"><ele>286.0</ele><time>2026-04-26T12:01:57.942Z</time></trkpt><trkpt lat="43.7115733" lon="11.1702327"><ele>286.0</ele><time>2026-04-26T12:01:59.942Z</time></trkpt><trkpt lat="43.7116213" lon="11.1701742"><ele>286.0</ele><time>2026-04-26T12:02:00.943Z</time></trkpt><trkpt lat="43.7116787" lon="11.170102"><ele>286.0</ele><time>2026-04-26T12:02:01.943Z</time></trkpt><trkpt lat="43.711733" lon="11.1700301"><ele>286.0</ele><time>2026-04-26T12:02:02.942Z</time></trkpt><trkpt lat="43.7118206" lon="11.1699171"><ele>286.0</ele><time>2026-04-26T12:02:04.943Z</time></trkpt><trkpt lat="43.7119007" lon="11.1698293"><ele>286.0</ele><time>2026-04-26T12:02:06.943Z</time></trkpt><trkpt lat="43.7119954" lon="11.16976"><ele>284.6</ele><time>2026-04-26T12:02:08.942Z</time></trkpt><trkpt lat="43.7121166" lon="11.1697286"><ele>283.20000000000005</ele><time>2026-04-26T12:02:10.941Z</time></trkpt><trkpt lat="43.7121806" lon="11.169711"><ele>281.79999999999995</ele><time>2026-04-26T12:02:11.942Z</time></trkpt><trkpt lat="43.7123122" lon="11.1696989"><ele>280.4</ele><time>2026-04-26T12:02:13.943Z</time></trkpt><trkpt lat="43.7124326" lon="11.1696729"><ele>279.0</ele><time>2026-04-26T12:02:15.942Z</time></trkpt><trkpt lat="43.712495" lon="11.1696604"><ele>278.99999999999994</ele><time>2026-04-26T12:02:16.943Z</time></trkpt><trkpt lat="43.7125609" lon="11.1696602"><ele>279.0</ele><time>2026-04-26T12:02:17.942Z</time></trkpt><trkpt lat="43.7126265" lon="11.1696501"><ele>279.0</ele><time>2026-04-26T12:02:18.943Z</time></trkpt><trkpt lat="43.7126953" lon="11.16963"><ele>279.0</ele><time>2026-04-26T12:02:19.943Z</time></trkpt><trkpt lat="43.7127642" lon="11.1696154"><ele>279.0</ele><time>2026-04-26T12:02:20.943Z</time></trkpt><trkpt lat="43.7128285" lon="11.1696105"><ele>278.99999999999994</ele><time>2026-04-26T12:02:21.941Z</time></trkpt><trkpt lat="43.712893" lon="11.1695869"><ele>279.0</ele><time>2026-04-26T12:02:22.943Z</time></trkpt><trkpt lat="43.7129576" lon="11.1695783"><ele>280.2</ele><time>2026-04-26T12:02:23.943Z</time></trkpt><trkpt lat="43.7130219" lon="11.1695664"><ele>281.4</ele><time>2026-04-26T12:02:24.942Z</time></trkpt><trkpt lat="43.7131152" lon="11.1695258"><ele>282.6</ele><time>2026-04-26T12:02:26.942Z</time></trkpt><trkpt lat="43.7132" lon="11.1694426"><ele>283.8</ele><time>2026-04-26T12:02:28.943Z</time></trkpt><trkpt lat="43.7132762" lon="11.1693647"><ele>285.0</ele><time>2026-04-26T12:02:30.943Z</time></trkpt><trkpt lat="43.7133537" lon="11.169305"><ele>285.0</ele><time>2026-04-26T12:02:32.942Z</time></trkpt><trkpt lat="43.7134246" lon="11.1692364"><ele>285.0</ele><time>2026-04-26T12:02:34.943Z</time></trkpt><trkpt lat="43.7134961" lon="11.1691758"><ele>285.0</ele><time>2026-04-26T12:02:36.941Z</time></trkpt><trkpt lat="43.7135679" lon="11.1691144"><ele>285.0</ele><time>2026-04-26T12:02:38.942Z</time></trkpt><trkpt lat="43.7136322" lon="11.1690773"><ele>285.0</ele><time>2026-04-26T12:02:40.943Z</time></trkpt><trkpt lat="43.713713" lon="11.1690216"><ele>285.0</ele><time>2026-04-26T12:02:43.942Z</time></trkpt><trkpt lat="43.7137929" lon="11.1689697"><ele>285.0</ele><time>2026-04-26T12:02:46.943Z</time></trkpt><trkpt lat="43.7138671" lon="11.1689292"><ele>285.0</ele><time>2026-04-26T12:02:49.943Z</time></trkpt><trkpt lat="43.7139434" lon="11.168877"><ele>285.0</ele><time>2026-04-26T12:02:52.943Z</time></trkpt><trkpt lat="43.7140173" lon="11.168816"><ele>285.0</ele><time>2026-04-26T12:02:55.943Z</time></trkpt><trkpt lat="43.7140791" lon="11.1687197"><ele>285.0</ele><time>2026-04-26T12:02:58.942Z</time></trkpt><trkpt lat="43.714116" lon="11.1686408"><ele>285.0</ele><time>2026-04-26T12:03:00.943Z</time></trkpt><trkpt lat="43.7141485" lon="11.1685611"><ele>285.0</ele><time>2026-04-26T12:03:02.943Z</time></trkpt><trkpt lat="43.7142018" lon="11.1684641"><ele>285.0</ele><time>2026-04-26T12:03:05.942Z</time></trkpt><trkpt lat="43.7142475" lon="11.1683654"><ele>285.0</ele><time>2026-04-26T12:03:08.943Z</time></trkpt><trkpt lat="43.7143013" lon="11.1682842"><ele>285.0</ele><time>2026-04-26T12:03:11.943Z</time></trkpt><trkpt lat="43.7143636" lon="11.1681998"><ele>285.0</ele><time>2026-04-26T12:03:14.942Z</time></trkpt><trkpt lat="43.7144173" lon="11.168151"><ele>285.0</ele><time>2026-04-26T12:03:16.942Z</time></trkpt><trkpt lat="43.7144772" lon="11.1681068"><ele>285.3333333333333</ele><time>2026-04-26T12:03:18.942Z</time></trkpt><trkpt lat="43.7145352" lon="11.1680728"><ele>285.6666666666667</ele><time>2026-04-26T12:03:20.943Z</time></trkpt><trkpt lat="43.7146199" lon="11.1680346"><ele>286.0</ele><time>2026-04-26T12:03:23.942Z</time></trkpt><trkpt lat="43.7147039" lon="11.1680045"><ele>286.33333333333337</ele><time>2026-04-26T12:03:26.942Z</time></trkpt><trkpt lat="43.7147668" lon="11.1679876"><ele>286.6666666666667</ele><time>2026-04-26T12:03:28.942Z</time></trkpt><trkpt lat="43.7148285" lon="11.1679662"><ele>287.0</ele><time>2026-04-26T12:03:30.942Z</time></trkpt><trkpt lat="43.7149184" lon="11.1679515"><ele>287.0</ele><time>2026-04-26T12:03:33.942Z</time></trkpt><trkpt lat="43.7149812" lon="11.1679381"><ele>287.0</ele><time>2026-04-26T12:03:35.943Z</time></trkpt><trkpt lat="43.7150674" lon="11.1679232"><ele>287.0</ele><time>2026-04-26T12:03:38.942Z</time></trkpt><trkpt lat="43.7151555" lon="11.1679205"><ele>287.0</ele><time>2026-04-26T12:03:41.942Z</time></trkpt><trkpt lat="43.7152461" lon="11.1679435"><ele>287.0</ele><time>2026-04-26T12:03:44.943Z</time></trkpt><trkpt lat="43.7153345" lon="11.1679797"><ele>287.0</ele><time>2026-04-26T12:03:47.941Z</time></trkpt><trkpt lat="43.7154054" lon="11.1680301"><ele>289.33333333333337</ele><time>2026-04-26T12:03:50.942Z</time></trkpt><trkpt lat="43.7154816" lon="11.1680737"><ele>291.6666666666667</ele><time>2026-04-26T12:03:53.942Z</time></trkpt><trkpt lat="43.7155714" lon="11.1680816"><ele>294.0</ele><time>2026-04-26T12:03:56.943Z</time></trkpt><trkpt lat="43.7156537" lon="11.1680638"><ele>296.3333333333333</ele><time>2026-04-26T12:03:59.941Z</time></trkpt><trkpt lat="43.7157369" lon="11.1680561"><ele>298.66666666666663</ele><time>2026-04-26T12:04:02.942Z</time></trkpt><trkpt lat="43.7158047" lon="11.1680379"><ele>301.0</ele><time>2026-04-26T12:04:05.943Z</time></trkpt><trkpt lat="43.7158824" lon="11.1680095"><ele>301.0</ele><time>2026-04-26T12:04:08.943Z</time></trkpt><trkpt lat="43.7159495" lon="11.1679793"><ele>301.0</ele><time>2026-04-26T12:04:11.943Z</time></trkpt><trkpt lat="43.716006" lon="11.1679181"><ele>301.0</ele><time>2026-04-26T12:04:14.943Z</time></trkpt><trkpt lat="43.7160556" lon="11.1678367"><ele>301.0</ele><time>2026-04-26T12:04:17.943Z</time></trkpt><trkpt lat="43.7161083" lon="11.1677508"><ele>301.0</ele><time>2026-04-26T12:04:20.942Z</time></trkpt><trkpt lat="43.7161498" lon="11.167649"><ele>301.0</ele><time>2026-04-26T12:04:23.943Z</time></trkpt><trkpt lat="43.7161873" lon="11.1675505"><ele>303.16666666666663</ele><time>2026-04-26T12:04:26.941Z</time></trkpt><trkpt lat="43.7162224" lon="11.1674447"><ele>305.3333333333333</ele><time>2026-04-26T12:04:29.942Z</time></trkpt><trkpt lat="43.7162524" lon="11.167346"><ele>307.5</ele><time>2026-04-26T12:04:32.941Z</time></trkpt><trkpt lat="43.716279" lon="11.167243"><ele>309.6666666666667</ele><time>2026-04-26T12:04:35.943Z</time></trkpt><trkpt lat="43.716305" lon="11.1671546"><ele>311.83333333333337</ele><time>2026-04-26T12:04:38.943Z</time></trkpt><trkpt lat="43.7163426" lon="11.1670573"><ele>314.0</ele><time>2026-04-26T12:04:41.942Z</time></trkpt><trkpt lat="43.7163782" lon="11.1669582"><ele>313.99999999999994</ele><time>2026-04-26T12:04:44.942Z</time></trkpt><trkpt lat="43.7164033" lon="11.1668595"><ele>314.0</ele><time>2026-04-26T12:04:47.942Z</time></trkpt><trkpt lat="43.7164332" lon="11.1667711"><ele>314.0</ele><time>2026-04-26T12:04:50.942Z</time></trkpt><trkpt lat="43.7164665" lon="11.1666922"><ele>314.0</ele><time>2026-04-26T12:04:53.942Z</time></trkpt><trkpt lat="43.7165042" lon="11.1666085"><ele>314.0</ele><time>2026-04-26T12:04:56.942Z</time></trkpt><trkpt lat="43.7165292" lon="11.1665133"><ele>313.99999999999994</ele><time>2026-04-26T12:04:59.942Z</time></trkpt><trkpt lat="43.7165891" lon="11.1664419"><ele>314.0</ele><time>2026-04-26T12:05:03.942Z</time></trkpt><trkpt lat="43.7166677" lon="11.1664357"><ele>314.2857142857143</ele><time>2026-04-26T12:05:06.942Z</time></trkpt><trkpt lat="43.716733" lon="11.1664415"><ele>314.57142857142856</ele><time>2026-04-26T12:05:09.942Z</time></trkpt><trkpt lat="43.7168061" lon="11.1664784"><ele>314.8571428571429</ele><time>2026-04-26T12:08:23.942Z</time></trkpt><trkpt lat="43.7168693" lon="11.1664723"><ele>315.1428571428571</ele><time>2026-04-26T12:08:25.942Z</time></trkpt><trkpt lat="43.7169369" lon="11.1664519"><ele>315.42857142857144</ele><time>2026-04-26T12:08:39.942Z</time></trkpt><trkpt lat="43.7169932" lon="11.166349"><ele>315.7142857142857</ele><time>2026-04-26T12:09:15.941Z</time></trkpt><trkpt lat="43.7170527" lon="11.1662961"><ele>316.0</ele><time>2026-04-26T12:09:17.941Z</time></trkpt><trkpt lat="43.7171227" lon="11.1662718"><ele>314.14285714285717</ele><time>2026-04-26T12:09:19.94Z</time></trkpt><trkpt lat="43.7171956" lon="11.166211"><ele>312.2857142857143</ele><time>2026-04-26T12:09:22.941Z</time></trkpt><trkpt lat="43.7172534" lon="11.1661523"><ele>310.42857142857144</ele><time>2026-04-26T12:09:59.942Z</time></trkpt><trkpt lat="43.7173168" lon="11.1661292"><ele>308.57142857142856</ele><time>2026-04-26T12:10:08.942Z</time></trkpt><trkpt lat="43.7173876" lon="11.1660973"><ele>306.7142857142857</ele><time>2026-04-26T12:10:39.94Z</time></trkpt><trkpt lat="43.7174507" lon="11.1660644"><ele>304.8571428571429</ele><time>2026-04-26T12:10:47.939Z</time></trkpt><trkpt lat="43.7175196" lon="11.166032"><ele>303.0</ele><time>2026-04-26T12:11:51.941Z</time></trkpt><trkpt lat="43.717458" lon="11.1660678"><ele>303.0</ele><time>2026-04-26T12:12:01.941Z</time></trkpt><trkpt lat="43.7174002" lon="11.166109"><ele>303.0</ele><time>2026-04-26T12:12:07.942Z</time></trkpt><trkpt lat="43.7173472" lon="11.1661715"><ele>303.0</ele><time>2026-04-26T12:12:14.941Z</time></trkpt><trkpt lat="43.7172821" lon="11.1662229"><ele>303.0</ele><time>2026-04-26T12:12:20.941Z</time></trkpt><trkpt lat="43.7171926" lon="11.1662398"><ele>303.0</ele><time>2026-04-26T12:12:30.941Z</time></trkpt><trkpt lat="43.7171281" lon="11.1662499"><ele>303.0</ele><time>2026-04-26T12:12:32.942Z</time></trkpt><trkpt lat="43.7170758" lon="11.1663135"><ele>303.0</ele><time>2026-04-26T12:12:35.94Z</time></trkpt><trkpt lat="43.7170579" lon="11.1664006"><ele>303.0</ele><time>2026-04-26T12:12:45.942Z</time></trkpt><trkpt lat="43.7171212" lon="11.1664373"><ele>303.0</ele><time>2026-04-26T12:12:59.941Z</time></trkpt><trkpt lat="43.717199" lon="11.1664681"><ele>303.0</ele><time>2026-04-26T12:13:02.941Z</time></trkpt><trkpt lat="43.7172616" lon="11.166515"><ele>303.0</ele><time>2026-04-26T12:13:05.941Z</time></trkpt><trkpt lat="43.7173345" lon="11.1665713"><ele>303.0</ele><time>2026-04-26T12:13:08.941Z</time></trkpt><trkpt lat="43.7174093" lon="11.1665894"><ele>303.0</ele><time>2026-04-26T12:13:10.942Z</time></trkpt><trkpt lat="43.7174898" lon="11.1666209"><ele>303.57142857142856</ele><time>2026-04-26T12:13:12.941Z</time></trkpt><trkpt lat="43.7175511" lon="11.1666604"><ele>304.1428571428571</ele><time>2026-04-26T12:13:14.941Z</time></trkpt><trkpt lat="43.7176069" lon="11.1667136"><ele>304.71428571428567</ele><time>2026-04-26T12:13:16.941Z</time></trkpt><trkpt lat="43.7176724" lon="11.1667666"><ele>305.2857142857143</ele><time>2026-04-26T12:13:18.94Z</time></trkpt><trkpt lat="43.7177286" lon="11.1668339"><ele>305.85714285714283</ele><time>2026-04-26T12:13:20.941Z</time></trkpt><trkpt lat="43.71779" lon="11.1668849"><ele>306.4285714285714</ele><time>2026-04-26T12:13:22.94Z</time></trkpt><trkpt lat="43.7178621" lon="11.166946"><ele>307.0</ele><time>2026-04-26T12:13:25.941Z</time></trkpt><trkpt lat="43.7179381" lon="11.1669831"><ele>305.1428571428571</ele><time>2026-04-26T12:13:29.941Z</time></trkpt><trkpt lat="43.7180034" lon="11.1670181"><ele>303.2857142857143</ele><time>2026-04-26T12:13:32.941Z</time></trkpt><trkpt lat="43.7180735" lon="11.1670701"><ele>301.42857142857144</ele><time>2026-04-26T12:13:35.941Z</time></trkpt><trkpt lat="43.7181383" lon="11.1671534"><ele>299.57142857142856</ele><time>2026-04-26T12:13:38.941Z</time></trkpt><trkpt lat="43.7181833" lon="11.1672232"><ele>297.7142857142857</ele><time>2026-04-26T12:13:40.941Z</time></trkpt><trkpt lat="43.7182281" lon="11.1672912"><ele>295.85714285714283</ele><time>2026-04-26T12:13:42.941Z</time></trkpt><trkpt lat="43.7182701" lon="11.1673683"><ele>294.0</ele><time>2026-04-26T12:13:44.94Z</time></trkpt><trkpt lat="43.7182839" lon="11.1674564"><ele>294.0</ele><time>2026-04-26T12:13:47.941Z</time></trkpt><trkpt lat="43.7182783" lon="11.1675573"><ele>294.0</ele><time>2026-04-26T12:13:50.941Z</time></trkpt><trkpt lat="43.7183047" lon="11.1676468"><ele>294.0</ele><time>2026-04-26T12:13:53.94Z</time></trkpt><trkpt lat="43.7183845" lon="11.1676836"><ele>294.0</ele><time>2026-04-26T12:13:56.941Z</time></trkpt><trkpt lat="43.7184695" lon="11.1677268"><ele>294.0</ele><time>2026-04-26T12:13:59.939Z</time></trkpt><trkpt lat="43.7185609" lon="11.1677608"><ele>294.0</ele><time>2026-04-26T12:14:02.941Z</time></trkpt><trkpt lat="43.7186505" lon="11.1677744"><ele>289.3333333333333</ele><time>2026-04-26T12:14:05.939Z</time></trkpt><trkpt lat="43.718722" lon="11.1678018"><ele>284.6666666666667</ele><time>2026-04-26T12:14:08.941Z</time></trkpt><trkpt lat="43.7187851" lon="11.1678399"><ele>280.0</ele><time>2026-04-26T12:14:10.941Z</time></trkpt><trkpt lat="43.718863" lon="11.1678837"><ele>275.33333333333337</ele><time>2026-04-26T12:14:13.94Z</time></trkpt><trkpt lat="43.7189368" lon="11.1679152"><ele>270.6666666666667</ele><time>2026-04-26T12:14:15.941Z</time></trkpt><trkpt lat="43.7190112" lon="11.1679508"><ele>266.0</ele><time>2026-04-26T12:14:17.941Z</time></trkpt><trkpt lat="43.7190831" lon="11.1679954"><ele>266.0</ele><time>2026-04-26T12:14:19.941Z</time></trkpt><trkpt lat="43.7191406" lon="11.1680494"><ele>266.0</ele><time>2026-04-26T12:14:21.94Z</time></trkpt><trkpt lat="43.7191985" lon="11.1681142"><ele>266.0</ele><time>2026-04-26T12:14:23.94Z</time></trkpt><trkpt lat="43.7192642" lon="11.168181"><ele>266.0</ele><time>2026-04-26T12:14:25.94Z</time></trkpt><trkpt lat="43.7193209" lon="11.1682526"><ele>266.0</ele><time>2026-04-26T12:14:27.941Z</time></trkpt><trkpt lat="43.7193377" lon="11.1683466"><ele>266.0</ele><time>2026-04-26T12:14:29.941Z</time></trkpt><trkpt lat="43.7193627" lon="11.16846"><ele>266.85714285714283</ele><time>2026-04-26T12:14:32.94Z</time></trkpt><trkpt lat="43.7193813" lon="11.1685601"><ele>267.7142857142857</ele><time>2026-04-26T12:14:35.941Z</time></trkpt><trkpt lat="43.7193928" lon="11.168646"><ele>268.57142857142856</ele><time>2026-04-26T12:14:38.94Z</time></trkpt><trkpt lat="43.7194137" lon="11.168748"><ele>269.42857142857144</ele><time>2026-04-26T12:14:41.94Z</time></trkpt><trkpt lat="43.7194575" lon="11.1688421"><ele>270.2857142857143</ele><time>2026-04-26T12:14:44.941Z</time></trkpt><trkpt lat="43.719524" lon="11.168879"><ele>271.1428571428571</ele><time>2026-04-26T12:14:47.941Z</time></trkpt><trkpt lat="43.7195931" lon="11.1688258"><ele>272.0</ele><time>2026-04-26T12:14:51.941Z</time></trkpt><trkpt lat="43.7196374" lon="11.1687585"><ele>269.5</ele><time>2026-04-26T12:14:53.94Z</time></trkpt><trkpt lat="43.7197149" lon="11.1687047"><ele>267.0</ele><time>2026-04-26T12:14:56.941Z</time></trkpt><trkpt lat="43.7197852" lon="11.168705"><ele>264.5</ele><time>2026-04-26T12:14:59.941Z</time></trkpt><trkpt lat="43.7198656" lon="11.16872"><ele>262.0</ele><time>2026-04-26T12:15:02.94Z</time></trkpt><trkpt lat="43.7199447" lon="11.1687784"><ele>259.5</ele><time>2026-04-26T12:15:05.94Z</time></trkpt><trkpt lat="43.7200397" lon="11.1688067"><ele>257.0</ele><time>2026-04-26T12:15:08.94Z</time></trkpt><trkpt lat="43.7201247" lon="11.1688334"><ele>257.0</ele><time>2026-04-26T12:15:10.94Z</time></trkpt><trkpt lat="43.7201852" lon="11.1688905"><ele>257.0</ele><time>2026-04-26T12:15:12.94Z</time></trkpt><trkpt lat="43.7202593" lon="11.1689576"><ele>257.0</ele><time>2026-04-26T12:15:14.942Z</time></trkpt><trkpt lat="43.7203037" lon="11.1690539"><ele>257.0</ele><time>2026-04-26T12:15:17.94Z</time></trkpt><trkpt lat="43.7203398" lon="11.1691283"><ele>257.0</ele><time>2026-04-26T12:15:20.941Z</time></trkpt><trkpt lat="43.72036" lon="11.1692167"><ele>257.0</ele><time>2026-04-26T12:16:42.94Z</time></trkpt><trkpt lat="43.7203211" lon="11.1693093"><ele>256.0</ele><time>2026-04-26T12:16:49.941Z</time></trkpt><trkpt lat="43.7203151" lon="11.1694074"><ele>255.0</ele><time>2026-04-26T12:16:52.941Z</time></trkpt><trkpt lat="43.7203338" lon="11.1695168"><ele>254.0</ele><time>2026-04-26T12:16:55.942Z</time></trkpt><trkpt lat="43.7203635" lon="11.1696143"><ele>253.0</ele><time>2026-04-26T12:16:58.94Z</time></trkpt><trkpt lat="43.7203812" lon="11.1697431"><ele>252.00000000000003</ele><time>2026-04-26T12:17:01.94Z</time></trkpt><trkpt lat="43.7203998" lon="11.169834"><ele>251.0</ele><time>2026-04-26T12:17:03.941Z</time></trkpt><trkpt lat="43.7204219" lon="11.1699465"><ele>249.66666666666669</ele><time>2026-04-26T12:17:05.939Z</time></trkpt><trkpt lat="43.7204326" lon="11.1700464"><ele>248.33333333333334</ele><time>2026-04-26T12:17:07.939Z</time></trkpt><trkpt lat="43.7204443" lon="11.1701524"><ele>247.0</ele><time>2026-04-26T12:17:09.94Z</time></trkpt><trkpt lat="43.7204679" lon="11.1702652"><ele>245.66666666666669</ele><time>2026-04-26T12:17:11.94Z</time></trkpt><trkpt lat="43.7204958" lon="11.1703999"><ele>244.33333333333334</ele><time>2026-04-26T12:17:13.94Z</time></trkpt><trkpt lat="43.7205171" lon="11.1705255"><ele>243.0</ele><time>2026-04-26T12:17:15.94Z</time></trkpt><trkpt lat="43.7205197" lon="11.1706425"><ele>241.83333333333334</ele><time>2026-04-26T12:17:17.94Z</time></trkpt><trkpt lat="43.7205209" lon="11.1707672"><ele>240.66666666666669</ele><time>2026-04-26T12:17:19.94Z</time></trkpt><trkpt lat="43.7205285" lon="11.1708913"><ele>239.5</ele><time>2026-04-26T12:17:21.939Z</time></trkpt><trkpt lat="43.7205423" lon="11.171019"><ele>238.33333333333334</ele><time>2026-04-26T12:17:24.94Z</time></trkpt><trkpt lat="43.7205424" lon="11.1711225"><ele>237.16666666666669</ele><time>2026-04-26T12:17:26.94Z</time></trkpt><trkpt lat="43.7205445" lon="11.171232"><ele>236.0</ele><time>2026-04-26T12:17:28.939Z</time></trkpt><trkpt lat="43.7205603" lon="11.1713387"><ele>236.00000000000003</ele><time>2026-04-26T12:17:30.94Z</time></trkpt><trkpt lat="43.7205729" lon="11.1714353"><ele>236.0</ele><time>2026-04-26T12:17:32.94Z</time></trkpt><trkpt lat="43.7205806" lon="11.1715303"><ele>236.0</ele><time>2026-04-26T12:17:34.94Z</time></trkpt><trkpt lat="43.7206092" lon="11.1716486"><ele>236.0</ele><time>2026-04-26T12:17:36.94Z</time></trkpt><trkpt lat="43.7206347" lon="11.1717767"><ele>236.00000000000003</ele><time>2026-04-26T12:17:38.938Z</time></trkpt><trkpt lat="43.7206616" lon="11.1718921"><ele>236.0</ele><time>2026-04-26T12:17:40.94Z</time></trkpt><trkpt lat="43.7206851" lon="11.1719958"><ele>234.50000000000003</ele><time>2026-04-26T12:17:42.939Z</time></trkpt><trkpt lat="43.7207087" lon="11.1720932"><ele>233.0</ele><time>2026-04-26T12:17:44.94Z</time></trkpt><trkpt lat="43.7207166" lon="11.1721944"><ele>231.5</ele><time>2026-04-26T12:17:46.94Z</time></trkpt><trkpt lat="43.720716" lon="11.1723121"><ele>230.0</ele><time>2026-04-26T12:17:48.939Z</time></trkpt><trkpt lat="43.7207326" lon="11.1724157"><ele>228.50000000000003</ele><time>2026-04-26T12:17:50.939Z</time></trkpt><trkpt lat="43.7207534" lon="11.1725153"><ele>227.0</ele><time>2026-04-26T12:17:52.938Z</time></trkpt><trkpt lat="43.720774" lon="11.1726295"><ele>225.66666666666669</ele><time>2026-04-26T12:17:54.94Z</time></trkpt><trkpt lat="43.7207956" lon="11.1727172"><ele>224.33333333333334</ele><time>2026-04-26T12:17:56.939Z</time></trkpt><trkpt lat="43.7208367" lon="11.1728369"><ele>223.0</ele><time>2026-04-26T12:17:58.939Z</time></trkpt><trkpt lat="43.7208707" lon="11.1729331"><ele>221.66666666666669</ele><time>2026-04-26T12:18:00.939Z</time></trkpt><trkpt lat="43.7209029" lon="11.1730264"><ele>220.33333333333334</ele><time>2026-04-26T12:18:02.94Z</time></trkpt><trkpt lat="43.7209427" lon="11.1731242"><ele>219.0</ele><time>2026-04-26T12:18:04.939Z</time></trkpt><trkpt lat="43.7209813" lon="11.1732212"><ele>217.33333333333334</ele><time>2026-04-26T12:18:06.938Z</time></trkpt><trkpt lat="43.7210142" lon="11.1733186"><ele>215.66666666666669</ele><time>2026-04-26T12:18:08.94Z</time></trkpt><trkpt lat="43.7210518" lon="11.1733915"><ele>214.0</ele><time>2026-04-26T12:18:10.94Z</time></trkpt><trkpt lat="43.7210972" lon="11.173466"><ele>212.33333333333334</ele><time>2026-04-26T12:18:12.94Z</time></trkpt><trkpt lat="43.7211628" lon="11.1735599"><ele>210.66666666666669</ele><time>2026-04-26T12:18:15.939Z</time></trkpt><trkpt lat="43.7212139" lon="11.1736176"><ele>209.0</ele><time>2026-04-26T12:18:17.939Z</time></trkpt><trkpt lat="43.7212803" lon="11.1736748"><ele>206.0</ele><time>2026-04-26T12:18:19.94Z</time></trkpt><trkpt lat="43.7213733" lon="11.1737459"><ele>203.0</ele><time>2026-04-26T12:18:21.94Z</time></trkpt><trkpt lat="43.7214631" lon="11.1737432"><ele>200.0</ele><time>2026-04-26T12:18:23.94Z</time></trkpt><trkpt lat="43.7215535" lon="11.1737046"><ele>197.0</ele><time>2026-04-26T12:18:25.939Z</time></trkpt><trkpt lat="43.721648" lon="11.1736622"><ele>194.0</ele><time>2026-04-26T12:18:27.94Z</time></trkpt><trkpt lat="43.7218031" lon="11.1736137"><ele>194.00000000000003</ele><time>2026-04-26T12:18:29.94Z</time></trkpt><trkpt lat="43.7218815" lon="11.1735883"><ele>194.0</ele><time>2026-04-26T12:18:30.94Z</time></trkpt><trkpt lat="43.7219601" lon="11.1735772"><ele>194.0</ele><time>2026-04-26T12:18:31.939Z</time></trkpt><trkpt lat="43.7220799" lon="11.1735783"><ele>194.0</ele><time>2026-04-26T12:18:33.94Z</time></trkpt><trkpt lat="43.722168" lon="11.173598"><ele>194.00000000000003</ele><time>2026-04-26T12:18:35.94Z</time></trkpt><trkpt lat="43.7222343" lon="11.1736533"><ele>194.0</ele><time>2026-04-26T12:18:37.94Z</time></trkpt><trkpt lat="43.7222929" lon="11.1737325"><ele>193.33333333333334</ele><time>2026-04-26T12:18:39.94Z</time></trkpt><trkpt lat="43.7223466" lon="11.1738074"><ele>192.66666666666669</ele><time>2026-04-26T12:18:41.94Z</time></trkpt><trkpt lat="43.7224014" lon="11.1738851"><ele>192.0</ele><time>2026-04-26T12:18:43.94Z</time></trkpt><trkpt lat="43.7224712" lon="11.1739637"><ele>191.33333333333334</ele><time>2026-04-26T12:18:45.939Z</time></trkpt><trkpt lat="43.7225192" lon="11.1740342"><ele>190.66666666666669</ele><time>2026-04-26T12:18:47.94Z</time></trkpt><trkpt lat="43.7225749" lon="11.1741075"><ele>190.0</ele><time>2026-04-26T12:18:49.94Z</time></trkpt><trkpt lat="43.7226215" lon="11.1741855"><ele>189.16666666666669</ele><time>2026-04-26T12:18:51.94Z</time></trkpt><trkpt lat="43.7226765" lon="11.1742657"><ele>188.33333333333334</ele><time>2026-04-26T12:18:53.94Z</time></trkpt><trkpt lat="43.7227255" lon="11.1743514"><ele>187.5</ele><time>2026-04-26T12:18:55.941Z</time></trkpt><trkpt lat="43.7227705" lon="11.174446"><ele>186.66666666666666</ele><time>2026-04-26T12:18:58.94Z</time></trkpt><trkpt lat="43.7228116" lon="11.1745284"><ele>185.83333333333331</ele><time>2026-04-26T12:19:01.94Z</time></trkpt><trkpt lat="43.7228473" lon="11.174624"><ele>185.0</ele><time>2026-04-26T12:19:04.94Z</time></trkpt><trkpt lat="43.7228715" lon="11.1747534"><ele>184.99999999999997</ele><time>2026-04-26T12:19:07.939Z</time></trkpt><trkpt lat="43.7228847" lon="11.1748479"><ele>185.0</ele><time>2026-04-26T12:19:09.94Z</time></trkpt><trkpt lat="43.7228944" lon="11.1749401"><ele>185.0</ele><time>2026-04-26T12:19:11.941Z</time></trkpt><trkpt lat="43.722903" lon="11.1750474"><ele>185.0</ele><time>2026-04-26T12:19:13.94Z</time></trkpt><trkpt lat="43.7229025" lon="11.1751476"><ele>185.0</ele><time>2026-04-26T12:19:15.94Z</time></trkpt><trkpt lat="43.7229121" lon="11.1752385"><ele>184.99999999999997</ele><time>2026-04-26T12:19:17.94Z</time></trkpt><trkpt lat="43.7229296" lon="11.1753663"><ele>185.0</ele><time>2026-04-26T12:19:20.94Z</time></trkpt><trkpt lat="43.7229298" lon="11.1754621"><ele>185.33333333333331</ele><time>2026-04-26T12:19:22.94Z</time></trkpt><trkpt lat="43.7229376" lon="11.1755835"><ele>185.66666666666666</ele><time>2026-04-26T12:19:25.939Z</time></trkpt><trkpt lat="43.7229735" lon="11.1757013"><ele>186.0</ele><time>2026-04-26T12:19:28.94Z</time></trkpt><trkpt lat="43.7230497" lon="11.175733"><ele>186.33333333333334</ele><time>2026-04-26T12:19:31.939Z</time></trkpt><trkpt lat="43.723126" lon="11.1757039"><ele>186.66666666666669</ele><time>2026-04-26T12:19:34.939Z</time></trkpt><trkpt lat="43.7232014" lon="11.1756361"><ele>187.0</ele><time>2026-04-26T12:19:37.939Z</time></trkpt><trkpt lat="43.7232736" lon="11.1756126"><ele>187.0</ele><time>2026-04-26T12:19:40.94Z</time></trkpt><trkpt lat="43.7233273" lon="11.1755616"><ele>187.0</ele><time>2026-04-26T12:19:43.94Z</time></trkpt><trkpt lat="43.7233869" lon="11.1755063"><ele>187.0</ele><time>2026-04-26T12:19:46.941Z</time></trkpt><trkpt lat="43.7234537" lon="11.1754413"><ele>187.0</ele><time>2026-04-26T12:19:50.939Z</time></trkpt><trkpt lat="43.7235139" lon="11.1753699"><ele>187.0</ele><time>2026-04-26T12:19:53.939Z</time></trkpt><trkpt lat="43.7235788" lon="11.1752884"><ele>187.0</ele><time>2026-04-26T12:19:56.939Z</time></trkpt><trkpt lat="43.7236407" lon="11.1752593"><ele>186.25</ele><time>2026-04-26T12:19:59.939Z</time></trkpt><trkpt lat="43.7237342" lon="11.1753012"><ele>185.5</ele><time>2026-04-26T12:20:02.94Z</time></trkpt><trkpt lat="43.723804" lon="11.1754341"><ele>184.75</ele><time>2026-04-26T12:20:04.939Z</time></trkpt><trkpt lat="43.7238428" lon="11.1755839"><ele>184.0</ele><time>2026-04-26T12:20:06.939Z</time></trkpt><trkpt lat="43.7239002" lon="11.1757286"><ele>184.0</ele><time>2026-04-26T12:20:08.941Z</time></trkpt><trkpt lat="43.7239522" lon="11.17586"><ele>184.0</ele><time>2026-04-26T12:20:10.938Z</time></trkpt><trkpt lat="43.7240157" lon="11.1760087"><ele>184.0</ele><time>2026-04-26T12:20:12.94Z</time></trkpt><trkpt lat="43.7240677" lon="11.1761629"><ele>184.0</ele><time>2026-04-26T12:20:14.939Z</time></trkpt><trkpt lat="43.7241005" lon="11.17624"><ele>184.0</ele><time>2026-04-26T12:20:15.94Z</time></trkpt><trkpt lat="43.7241434" lon="11.176309"><ele>184.0</ele><time>2026-04-26T12:20:16.94Z</time></trkpt><trkpt lat="43.7242001" lon="11.1764507"><ele>184.0</ele><time>2026-04-26T12:20:18.94Z</time></trkpt><trkpt lat="43.7242623" lon="11.1765551"><ele>184.0</ele><time>2026-04-26T12:20:20.94Z</time></trkpt><trkpt lat="43.7243134" lon="11.1766098"><ele>184.0</ele><time>2026-04-26T12:20:24.939Z</time></trkpt><trkpt lat="43.7243557" lon="11.1765336"><ele>184.0</ele><time>2026-04-26T12:20:25.94Z</time></trkpt><trkpt lat="43.7244345" lon="11.1764673"><ele>184.0</ele><time>2026-04-26T12:20:27.941Z</time></trkpt><trkpt lat="43.7244992" lon="11.1764253"><ele>181.16666666666669</ele><time>2026-04-26T12:20:28.94Z</time></trkpt><trkpt lat="43.7245602" lon="11.1763711"><ele>178.33333333333334</ele><time>2026-04-26T12:20:29.94Z</time></trkpt><trkpt lat="43.7246123" lon="11.1763183"><ele>175.5</ele><time>2026-04-26T12:20:30.94Z</time></trkpt><trkpt lat="43.7247207" lon="11.1762082"><ele>172.66666666666666</ele><time>2026-04-26T12:20:32.94Z</time></trkpt><trkpt lat="43.724785" lon="11.1761587"><ele>169.83333333333331</ele><time>2026-04-26T12:20:33.939Z</time></trkpt><trkpt lat="43.7248618" lon="11.1761377"><ele>167.0</ele><time>2026-04-26T12:20:34.94Z</time></trkpt><trkpt lat="43.7249282" lon="11.176074"><ele>167.0</ele><time>2026-04-26T12:20:35.94Z</time></trkpt><trkpt lat="43.7249837" lon="11.1760185"><ele>167.0</ele><time>2026-04-26T12:20:36.94Z</time></trkpt><trkpt lat="43.7250621" lon="11.1759636"><ele>167.0</ele><time>2026-04-26T12:20:37.94Z</time></trkpt><trkpt lat="43.725142" lon="11.1759107"><ele>167.0</ele><time>2026-04-26T12:20:38.938Z</time></trkpt><trkpt lat="43.7252273" lon="11.1758608"><ele>167.0</ele><time>2026-04-26T12:20:39.939Z</time></trkpt><trkpt lat="43.725301" lon="11.1757958"><ele>167.0</ele><time>2026-04-26T12:20:40.939Z</time></trkpt><trkpt lat="43.7253751" lon="11.1757355"><ele>165.2</ele><time>2026-04-26T12:20:41.938Z</time></trkpt><trkpt lat="43.7254352" lon="11.1756516"><ele>163.39999999999998</ele><time>2026-04-26T12:20:42.939Z</time></trkpt><trkpt lat="43.7255542" lon="11.1755508"><ele>161.60000000000002</ele><time>2026-04-26T12:20:44.94Z</time></trkpt><trkpt lat="43.7256201" lon="11.1755025"><ele>159.8</ele><time>2026-04-26T12:20:45.94Z</time></trkpt><trkpt lat="43.7256918" lon="11.1754555"><ele>158.0</ele><time>2026-04-26T12:20:46.939Z</time></trkpt><trkpt lat="43.7257601" lon="11.1754069"><ele>158.0</ele><time>2026-04-26T12:20:47.939Z</time></trkpt><trkpt lat="43.7258227" lon="11.1753552"><ele>158.0</ele><time>2026-04-26T12:20:48.938Z</time></trkpt><trkpt lat="43.7258842" lon="11.175304"><ele>158.0</ele><time>2026-04-26T12:20:49.939Z</time></trkpt><trkpt lat="43.7259448" lon="11.1752646"><ele>158.0</ele><time>2026-04-26T12:20:50.939Z</time></trkpt><trkpt lat="43.726007" lon="11.1752203"><ele>158.0</ele><time>2026-04-26T12:20:51.938Z</time></trkpt><trkpt lat="43.7261092" lon="11.1751529"><ele>158.0</ele><time>2026-04-26T12:20:53.94Z</time></trkpt><trkpt lat="43.726223" lon="11.1751048"><ele>155.83333333333331</ele><time>2026-04-26T12:20:55.937Z</time></trkpt><trkpt lat="43.7262863" lon="11.1751274"><ele>153.66666666666666</ele><time>2026-04-26T12:20:56.94Z</time></trkpt><trkpt lat="43.726338" lon="11.1751977"><ele>151.5</ele><time>2026-04-26T12:20:57.938Z</time></trkpt><trkpt lat="43.7263857" lon="11.1752611"><ele>149.33333333333334</ele><time>2026-04-26T12:20:58.94Z</time></trkpt><trkpt lat="43.7264538" lon="11.1753153"><ele>147.16666666666669</ele><time>2026-04-26T12:20:59.94Z</time></trkpt><trkpt lat="43.7265516" lon="11.1754224"><ele>145.0</ele><time>2026-04-26T12:21:01.939Z</time></trkpt><trkpt lat="43.7266275" lon="11.1755307"><ele>145.0</ele><time>2026-04-26T12:21:03.939Z</time></trkpt><trkpt lat="43.7267137" lon="11.1756341"><ele>145.0</ele><time>2026-04-26T12:21:05.939Z</time></trkpt><trkpt lat="43.7267854" lon="11.1757496"><ele>145.0</ele><time>2026-04-26T12:21:07.937Z</time></trkpt><trkpt lat="43.7268332" lon="11.175892"><ele>145.0</ele><time>2026-04-26T12:21:09.939Z</time></trkpt><trkpt lat="43.7268558" lon="11.1760081"><ele>145.0</ele><time>2026-04-26T12:21:11.94Z</time></trkpt><trkpt lat="43.7268691" lon="11.176134"><ele>145.5</ele><time>2026-04-26T12:21:13.939Z</time></trkpt><trkpt lat="43.7268891" lon="11.1762452"><ele>146.0</ele><time>2026-04-26T12:21:15.938Z</time></trkpt><trkpt lat="43.7269362" lon="11.1763092"><ele>146.5</ele><time>2026-04-26T12:21:17.938Z</time></trkpt><trkpt lat="43.7270186" lon="11.176353"><ele>147.0</ele><time>2026-04-26T12:21:19.939Z</time></trkpt><trkpt lat="43.7270929" lon="11.1763883"><ele>147.5</ele><time>2026-04-26T12:21:21.939Z</time></trkpt><trkpt lat="43.7271688" lon="11.1764464"><ele>148.0</ele><time>2026-04-26T12:21:23.939Z</time></trkpt><trkpt lat="43.7272455" lon="11.1764934"><ele>147.16666666666669</ele><time>2026-04-26T12:21:25.94Z</time></trkpt><trkpt lat="43.7273171" lon="11.1765386"><ele>146.33333333333334</ele><time>2026-04-26T12:21:27.94Z</time></trkpt><trkpt lat="43.7273982" lon="11.1766123"><ele>145.5</ele><time>2026-04-26T12:21:29.939Z</time></trkpt><trkpt lat="43.7274667" lon="11.1766786"><ele>144.66666666666666</ele><time>2026-04-26T12:21:31.94Z</time></trkpt><trkpt lat="43.727539" lon="11.1767374"><ele>143.83333333333331</ele><time>2026-04-26T12:21:33.939Z</time></trkpt><trkpt lat="43.7276121" lon="11.1767975"><ele>143.0</ele><time>2026-04-26T12:21:35.939Z</time></trkpt><trkpt lat="43.7276756" lon="11.1768634"><ele>142.14285714285714</ele><time>2026-04-26T12:21:37.939Z</time></trkpt><trkpt lat="43.727732" lon="11.1769279"><ele>141.28571428571428</ele><time>2026-04-26T12:21:39.94Z</time></trkpt><trkpt lat="43.727789" lon="11.1770241"><ele>140.42857142857144</ele><time>2026-04-26T12:21:42.939Z</time></trkpt><trkpt lat="43.7278337" lon="11.1770952"><ele>139.57142857142856</ele><time>2026-04-26T12:21:44.939Z</time></trkpt><trkpt lat="43.7278837" lon="11.1771736"><ele>138.71428571428572</ele><time>2026-04-26T12:21:46.94Z</time></trkpt><trkpt lat="43.7279294" lon="11.1772464"><ele>137.85714285714286</ele><time>2026-04-26T12:21:48.938Z</time></trkpt><trkpt lat="43.7279766" lon="11.1773136"><ele>137.0</ele><time>2026-04-26T12:21:50.94Z</time></trkpt><trkpt lat="43.7280304" lon="11.1773723"><ele>139.66666666666666</ele><time>2026-04-26T12:21:52.94Z</time></trkpt><trkpt lat="43.7280918" lon="11.1774014"><ele>142.33333333333331</ele><time>2026-04-26T12:21:54.939Z</time></trkpt><trkpt lat="43.7281562" lon="11.1774226"><ele>145.0</ele><time>2026-04-26T12:21:56.94Z</time></trkpt><trkpt lat="43.728247" lon="11.1774504"><ele>147.66666666666666</ele><time>2026-04-26T12:21:59.937Z</time></trkpt><trkpt lat="43.7283355" lon="11.1774557"><ele>150.33333333333334</ele><time>2026-04-26T12:22:02.939Z</time></trkpt><trkpt lat="43.7284226" lon="11.1774349"><ele>153.0</ele><time>2026-04-26T12:22:05.939Z</time></trkpt><trkpt lat="43.7285074" lon="11.1774098"><ele>152.83333333333334</ele><time>2026-04-26T12:22:08.938Z</time></trkpt><trkpt lat="43.7285957" lon="11.1773794"><ele>152.66666666666666</ele><time>2026-04-26T12:22:11.939Z</time></trkpt><trkpt lat="43.7286844" lon="11.1773408"><ele>152.5</ele><time>2026-04-26T12:22:14.94Z</time></trkpt><trkpt lat="43.7287463" lon="11.1773177"><ele>152.33333333333331</ele><time>2026-04-26T12:22:16.94Z</time></trkpt><trkpt lat="43.7288138" lon="11.177303"><ele>152.16666666666666</ele><time>2026-04-26T12:22:18.939Z</time></trkpt><trkpt lat="43.7288855" lon="11.1772999"><ele>152.0</ele><time>2026-04-26T12:22:20.938Z</time></trkpt><trkpt lat="43.7289597" lon="11.1773091"><ele>152.0</ele><time>2026-04-26T12:22:22.939Z</time></trkpt><trkpt lat="43.7290306" lon="11.1773403"><ele>152.0</ele><time>2026-04-26T12:22:24.939Z</time></trkpt><trkpt lat="43.7290926" lon="11.1773806"><ele>152.0</ele><time>2026-04-26T12:22:26.939Z</time></trkpt><trkpt lat="43.7291557" lon="11.1774241"><ele>152.0</ele><time>2026-04-26T12:22:28.94Z</time></trkpt><trkpt lat="43.7292176" lon="11.1774639"><ele>152.0</ele><time>2026-04-26T12:22:30.939Z</time></trkpt><trkpt lat="43.7292848" lon="11.1775019"><ele>152.0</ele><time>2026-04-26T12:22:32.938Z</time></trkpt><trkpt lat="43.7293515" lon="11.1775394"><ele>152.0</ele><time>2026-04-26T12:22:34.939Z</time></trkpt><trkpt lat="43.7294151" lon="11.1775811"><ele>151.14285714285714</ele><time>2026-04-26T12:22:36.939Z</time></trkpt><trkpt lat="43.7294797" lon="11.1776232"><ele>150.2857142857143</ele><time>2026-04-26T12:22:38.941Z</time></trkpt><trkpt lat="43.7295406" lon="11.1776626"><ele>149.42857142857144</ele><time>2026-04-26T12:22:40.937Z</time></trkpt><trkpt lat="43.7295985" lon="11.1776985"><ele>148.57142857142856</ele><time>2026-04-26T12:22:42.938Z</time></trkpt><trkpt lat="43.7296555" lon="11.1777371"><ele>147.71428571428572</ele><time>2026-04-26T12:22:44.939Z</time></trkpt><trkpt lat="43.729716" lon="11.1777745"><ele>146.85714285714286</ele><time>2026-04-26T12:22:46.939Z</time></trkpt><trkpt lat="43.7297753" lon="11.1778093"><ele>146.0</ele><time>2026-04-26T12:22:48.94Z</time></trkpt><trkpt lat="43.7298555" lon="11.1778613"><ele>146.0</ele><time>2026-04-26T12:22:51.939Z</time></trkpt><trkpt lat="43.7299386" lon="11.1779149"><ele>146.0</ele><time>2026-04-26T12:22:54.939Z</time></trkpt><trkpt lat="43.7300155" lon="11.1779711"><ele>146.0</ele><time>2026-04-26T12:22:57.939Z</time></trkpt><trkpt lat="43.7300739" lon="11.1780116"><ele>146.0</ele><time>2026-04-26T12:22:59.939Z</time></trkpt><trkpt lat="43.7301533" lon="11.1780691"><ele>146.0</ele><time>2026-04-26T12:23:02.94Z</time></trkpt><trkpt lat="43.7302149" lon="11.1781137"><ele>146.0</ele><time>2026-04-26T12:23:04.939Z</time></trkpt><trkpt lat="43.7302811" lon="11.1781657"><ele>146.0</ele><time>2026-04-26T12:23:06.939Z</time></trkpt><trkpt lat="43.7303521" lon="11.178215"><ele>146.0</ele><time>2026-04-26T12:23:08.94Z</time></trkpt><trkpt lat="43.7304307" lon="11.1782624"><ele>146.0</ele><time>2026-04-26T12:23:10.939Z</time></trkpt><trkpt lat="43.7305138" lon="11.1782951"><ele>146.0</ele><time>2026-04-26T12:23:12.939Z</time></trkpt><trkpt lat="43.730596" lon="11.1783104"><ele>146.0</ele><time>2026-04-26T12:23:14.939Z</time></trkpt><trkpt lat="43.7306789" lon="11.178321"><ele>146.0</ele><time>2026-04-26T12:23:16.938Z</time></trkpt><trkpt lat="43.7307677" lon="11.1783278"><ele>146.0</ele><time>2026-04-26T12:23:18.939Z</time></trkpt><trkpt lat="43.7308324" lon="11.1783346"><ele>146.0</ele><time>2026-04-26T12:23:19.939Z</time></trkpt><trkpt lat="43.7309359" lon="11.1783198"><ele>146.0</ele><time>2026-04-26T12:23:21.939Z</time></trkpt><trkpt lat="43.7310563" lon="11.1783231"><ele>146.0</ele><time>2026-04-26T12:23:23.938Z</time></trkpt><trkpt lat="43.7311211" lon="11.1783229"><ele>146.0</ele><time>2026-04-26T12:23:24.94Z</time></trkpt><trkpt lat="43.7311869" lon="11.1783183"><ele>146.0</ele><time>2026-04-26T12:23:25.938Z</time></trkpt><trkpt lat="43.7312496" lon="11.1783086"><ele>145.42857142857142</ele><time>2026-04-26T12:23:26.938Z</time></trkpt><trkpt lat="43.7313166" lon="11.1783005"><ele>144.85714285714286</ele><time>2026-04-26T12:23:27.939Z</time></trkpt><trkpt lat="43.7313879" lon="11.1782804"><ele>144.28571428571428</ele><time>2026-04-26T12:23:28.941Z</time></trkpt><trkpt lat="43.7314597" lon="11.1782796"><ele>143.71428571428572</ele><time>2026-04-26T12:23:29.94Z</time></trkpt><trkpt lat="43.731525" lon="11.1782844"><ele>143.14285714285714</ele><time>2026-04-26T12:23:30.938Z</time></trkpt><trkpt lat="43.7315949" lon="11.1782934"><ele>142.57142857142856</ele><time>2026-04-26T12:23:31.939Z</time></trkpt><trkpt lat="43.7316672" lon="11.1783255"><ele>142.0</ele><time>2026-04-26T12:23:32.94Z</time></trkpt><trkpt lat="43.7317509" lon="11.1783576"><ele>142.0</ele><time>2026-04-26T12:23:33.939Z</time></trkpt><trkpt lat="43.7318299" lon="11.1783853"><ele>142.0</ele><time>2026-04-26T12:23:34.939Z</time></trkpt><trkpt lat="43.7318979" lon="11.1784095"><ele>142.0</ele><time>2026-04-26T12:23:35.938Z</time></trkpt><trkpt lat="43.7319734" lon="11.1784341"><ele>142.0</ele><time>2026-04-26T12:23:36.939Z</time></trkpt><trkpt lat="43.7320546" lon="11.1784664"><ele>142.0</ele><time>2026-04-26T12:23:37.939Z</time></trkpt><trkpt lat="43.7321256" lon="11.1784859"><ele>142.0</ele><time>2026-04-26T12:23:38.94Z</time></trkpt><trkpt lat="43.7322082" lon="11.1784846"><ele>140.66666666666669</ele><time>2026-04-26T12:23:39.939Z</time></trkpt><trkpt lat="43.7322868" lon="11.1784853"><ele>139.33333333333334</ele><time>2026-04-26T12:23:40.939Z</time></trkpt><trkpt lat="43.7323683" lon="11.178472"><ele>138.0</ele><time>2026-04-26T12:23:41.938Z</time></trkpt><trkpt lat="43.732447" lon="11.1784629"><ele>136.66666666666666</ele><time>2026-04-26T12:23:42.94Z</time></trkpt><trkpt lat="43.7325266" lon="11.1784515"><ele>135.33333333333331</ele><time>2026-04-26T12:23:43.939Z</time></trkpt><trkpt lat="43.7326079" lon="11.1784384"><ele>134.0</ele><time>2026-04-26T12:23:44.938Z</time></trkpt><trkpt lat="43.7326962" lon="11.1784335"><ele>130.4</ele><time>2026-04-26T12:23:45.94Z</time></trkpt><trkpt lat="43.7327792" lon="11.1784389"><ele>126.80000000000001</ele><time>2026-04-26T12:23:46.939Z</time></trkpt><trkpt lat="43.7328555" lon="11.1784734"><ele>123.19999999999999</ele><time>2026-04-26T12:23:47.938Z</time></trkpt><trkpt lat="43.732935" lon="11.178532"><ele>119.6</ele><time>2026-04-26T12:23:48.94Z</time></trkpt><trkpt lat="43.7330178" lon="11.1786209"><ele>116.0</ele><time>2026-04-26T12:23:49.939Z</time></trkpt><trkpt lat="43.7330819" lon="11.1787167"><ele>115.99999999999999</ele><time>2026-04-26T12:23:50.938Z</time></trkpt><trkpt lat="43.7331308" lon="11.1788154"><ele>116.0</ele><time>2026-04-26T12:23:51.938Z</time></trkpt><trkpt lat="43.7331859" lon="11.178908"><ele>116.0</ele><time>2026-04-26T12:23:52.94Z</time></trkpt><trkpt lat="43.7332198" lon="11.1790171"><ele>116.0</ele><time>2026-04-26T12:23:53.939Z</time></trkpt><trkpt lat="43.7332518" lon="11.1791119"><ele>115.99999999999999</ele><time>2026-04-26T12:23:54.94Z</time></trkpt><trkpt lat="43.7332939" lon="11.1792178"><ele>116.0</ele><time>2026-04-26T12:23:55.939Z</time></trkpt><trkpt lat="43.7333106" lon="11.1793167"><ele>115.2857142857143</ele><time>2026-04-26T12:23:56.939Z</time></trkpt><trkpt lat="43.7333411" lon="11.1794179"><ele>114.57142857142858</ele><time>2026-04-26T12:23:57.939Z</time></trkpt><trkpt lat="43.7333841" lon="11.1795091"><ele>113.85714285714286</ele><time>2026-04-26T12:23:58.94Z</time></trkpt><trkpt lat="43.7334281" lon="11.1795762"><ele>113.14285714285715</ele><time>2026-04-26T12:23:59.938Z</time></trkpt><trkpt lat="43.7334771" lon="11.1796347"><ele>112.42857142857144</ele><time>2026-04-26T12:24:00.938Z</time></trkpt><trkpt lat="43.7335499" lon="11.1796553"><ele>111.71428571428571</ele><time>2026-04-26T12:24:01.94Z</time></trkpt><trkpt lat="43.7336144" lon="11.1796624"><ele>111.0</ele><time>2026-04-26T12:24:02.94Z</time></trkpt><trkpt lat="43.7336856" lon="11.1796685"><ele>111.0</ele><time>2026-04-26T12:24:03.939Z</time></trkpt><trkpt lat="43.7337613" lon="11.179664"><ele>111.0</ele><time>2026-04-26T12:24:04.939Z</time></trkpt><trkpt lat="43.7338367" lon="11.1796599"><ele>111.0</ele><time>2026-04-26T12:24:05.939Z</time></trkpt><trkpt lat="43.7339147" lon="11.1796472"><ele>111.0</ele><time>2026-04-26T12:24:06.941Z</time></trkpt><trkpt lat="43.7339867" lon="11.1796402"><ele>111.0</ele><time>2026-04-26T12:24:07.941Z</time></trkpt><trkpt lat="43.7341062" lon="11.1796258"><ele>111.0</ele><time>2026-04-26T12:24:08.939Z</time></trkpt><trkpt lat="43.7341805" lon="11.1796371"><ele>111.0</ele><time>2026-04-26T12:24:09.939Z</time></trkpt><trkpt lat="43.7342526" lon="11.1796432"><ele>111.0</ele><time>2026-04-26T12:24:10.939Z</time></trkpt><trkpt lat="43.7343096" lon="11.1796041"><ele>111.0</ele><time>2026-04-26T12:24:11.94Z</time></trkpt><trkpt lat="43.734399" lon="11.1796303"><ele>111.0</ele><time>2026-04-26T12:24:13.939Z</time></trkpt><trkpt lat="43.7344423" lon="11.1797589"><ele>111.0</ele><time>2026-04-26T12:24:15.939Z</time></trkpt><trkpt lat="43.7344059" lon="11.1799332"><ele>111.66666666666667</ele><time>2026-04-26T12:24:17.94Z</time></trkpt><trkpt lat="43.734391" lon="11.1800264"><ele>112.33333333333334</ele><time>2026-04-26T12:24:18.938Z</time></trkpt><trkpt lat="43.7343724" lon="11.1801173"><ele>113.0</ele><time>2026-04-26T12:24:19.939Z</time></trkpt><trkpt lat="43.7343651" lon="11.1802755"><ele>113.66666666666667</ele><time>2026-04-26T12:24:21.938Z</time></trkpt><trkpt lat="43.7343714" lon="11.1803912"><ele>114.33333333333334</ele><time>2026-04-26T12:24:22.939Z</time></trkpt><trkpt lat="43.7344086" lon="11.1804861"><ele>115.0</ele><time>2026-04-26T12:24:23.939Z</time></trkpt><trkpt lat="43.7344683" lon="11.1806193"><ele>111.4</ele><time>2026-04-26T12:24:24.939Z</time></trkpt><trkpt lat="43.7345271" lon="11.1807391"><ele>107.8</ele><time>2026-04-26T12:24:25.939Z</time></trkpt><trkpt lat="43.7345998" lon="11.1808328"><ele>104.19999999999999</ele><time>2026-04-26T12:24:26.938Z</time></trkpt><trkpt lat="43.7346674" lon="11.1809098"><ele>100.6</ele><time>2026-04-26T12:24:27.939Z</time></trkpt><trkpt lat="43.7347291" lon="11.1810097"><ele>97.0</ele><time>2026-04-26T12:24:28.939Z</time></trkpt><trkpt lat="43.7347828" lon="11.1811139"><ele>97.0</ele><time>2026-04-26T12:24:29.938Z</time></trkpt><trkpt lat="43.7348422" lon="11.1812226"><ele>97.0</ele><time>2026-04-26T12:24:30.937Z</time></trkpt><trkpt lat="43.7348973" lon="11.1813268"><ele>97.0</ele><time>2026-04-26T12:24:31.939Z</time></trkpt><trkpt lat="43.7349524" lon="11.1814533"><ele>97.0</ele><time>2026-04-26T12:24:32.938Z</time></trkpt><trkpt lat="43.7350048" lon="11.1815634"><ele>97.0</ele><time>2026-04-26T12:24:33.94Z</time></trkpt><trkpt lat="43.7350657" lon="11.1816563"><ele>97.83333333333334</ele><time>2026-04-26T12:24:34.938Z</time></trkpt><trkpt lat="43.7351303" lon="11.1817495"><ele>98.66666666666667</ele><time>2026-04-26T12:24:35.938Z</time></trkpt><trkpt lat="43.7351967" lon="11.1818254"><ele>99.5</ele><time>2026-04-26T12:24:36.939Z</time></trkpt><trkpt lat="43.7352623" lon="11.181898"><ele>100.33333333333334</ele><time>2026-04-26T12:24:37.939Z</time></trkpt><trkpt lat="43.7353344" lon="11.1819628"><ele>101.16666666666667</ele><time>2026-04-26T12:24:38.939Z</time></trkpt><trkpt lat="43.7354024" lon="11.1820298"><ele>102.0</ele><time>2026-04-26T12:24:39.938Z</time></trkpt><trkpt lat="43.735469" lon="11.1820881"><ele>100.33333333333333</ele><time>2026-04-26T12:24:40.939Z</time></trkpt><trkpt lat="43.7355301" lon="11.1821267"><ele>98.66666666666667</ele><time>2026-04-26T12:24:41.938Z</time></trkpt><trkpt lat="43.7355978" lon="11.1821669"><ele>97.0</ele><time>2026-04-26T12:24:42.939Z</time></trkpt><trkpt lat="43.7356658" lon="11.1821934"><ele>95.33333333333334</ele><time>2026-04-26T12:24:43.938Z</time></trkpt><trkpt lat="43.7357882" lon="11.1822045"><ele>93.66666666666667</ele><time>2026-04-26T12:24:45.939Z</time></trkpt><trkpt lat="43.7358515" lon="11.1821988"><ele>92.0</ele><time>2026-04-26T12:24:46.938Z</time></trkpt><trkpt lat="43.7359596" lon="11.1822071"><ele>92.0</ele><time>2026-04-26T12:24:48.938Z</time></trkpt><trkpt lat="43.7360304" lon="11.1822411"><ele>92.0</ele><time>2026-04-26T12:24:50.939Z</time></trkpt><trkpt lat="43.7361102" lon="11.1822424"><ele>92.0</ele><time>2026-04-26T12:24:52.939Z</time></trkpt><trkpt lat="43.7362049" lon="11.1822187"><ele>92.0</ele><time>2026-04-26T12:24:54.939Z</time></trkpt><trkpt lat="43.7362895" lon="11.1821978"><ele>92.0</ele><time>2026-04-26T12:24:56.939Z</time></trkpt><trkpt lat="43.7363758" lon="11.1821586"><ele>92.0</ele><time>2026-04-26T12:24:58.94Z</time></trkpt><trkpt lat="43.7364584" lon="11.1821122"><ele>92.5</ele><time>2026-04-26T12:25:00.94Z</time></trkpt><trkpt lat="43.7365309" lon="11.1820506"><ele>93.0</ele><time>2026-04-26T12:25:02.937Z</time></trkpt><trkpt lat="43.7365975" lon="11.1819901"><ele>93.5</ele><time>2026-04-26T12:25:04.94Z</time></trkpt><trkpt lat="43.7366805" lon="11.1819458"><ele>94.0</ele><time>2026-04-26T12:25:06.939Z</time></trkpt><trkpt lat="43.736751" lon="11.1818909"><ele>94.5</ele><time>2026-04-26T12:25:08.938Z</time></trkpt><trkpt lat="43.7368223" lon="11.1818311"><ele>95.0</ele><time>2026-04-26T12:25:10.937Z</time></trkpt><trkpt lat="43.736893" lon="11.1817612"><ele>95.0</ele><time>2026-04-26T12:25:12.939Z</time></trkpt><trkpt lat="43.7369688" lon="11.1816716"><ele>95.0</ele><time>2026-04-26T12:25:14.938Z</time></trkpt><trkpt lat="43.7370673" lon="11.1816236"><ele>95.0</ele><time>2026-04-26T12:25:16.939Z</time></trkpt><trkpt lat="43.7371441" lon="11.1815973"><ele>95.0</ele><time>2026-04-26T12:25:18.677Z</time></trkpt><trkpt lat="43.737246" lon="11.1815386"><ele>95.0</ele><time>2026-04-26T12:25:20.938Z</time></trkpt><trkpt lat="43.7373318" lon="11.1814983"><ele>93.4</ele><time>2026-04-26T12:25:22.939Z</time></trkpt><trkpt lat="43.737419" lon="11.1814535"><ele>91.8</ele><time>2026-04-26T12:25:24.938Z</time></trkpt><trkpt lat="43.7375114" lon="11.1814114"><ele>90.19999999999999</ele><time>2026-04-26T12:25:26.938Z</time></trkpt><trkpt lat="43.7376017" lon="11.1813594"><ele>88.6</ele><time>2026-04-26T12:25:28.939Z</time></trkpt><trkpt lat="43.7376989" lon="11.1813125"><ele>87.0</ele><time>2026-04-26T12:25:30.939Z</time></trkpt><trkpt lat="43.7378006" lon="11.181265"><ele>87.0</ele><time>2026-04-26T12:25:32.939Z</time></trkpt><trkpt lat="43.7379216" lon="11.1812261"><ele>87.0</ele><time>2026-04-26T12:25:34.938Z</time></trkpt><trkpt lat="43.7380425" lon="11.1811872"><ele>87.0</ele><time>2026-04-26T12:25:36.937Z</time></trkpt><trkpt lat="43.7381675" lon="11.1811611"><ele>87.0</ele><time>2026-04-26T12:25:38.938Z</time></trkpt><trkpt lat="43.7382295" lon="11.1811369"><ele>87.0</ele><time>2026-04-26T12:25:39.939Z</time></trkpt><trkpt lat="43.7383009" lon="11.1811304"><ele>87.0</ele><time>2026-04-26T12:25:40.938Z</time></trkpt><trkpt lat="43.7383788" lon="11.1811151"><ele>87.0</ele><time>2026-04-26T12:25:41.937Z</time></trkpt><trkpt lat="43.7384578" lon="11.1810991"><ele>87.0</ele><time>2026-04-26T12:25:42.939Z</time></trkpt><trkpt lat="43.7385394" lon="11.1810861"><ele>87.0</ele><time>2026-04-26T12:25:43.938Z</time></trkpt><trkpt lat="43.7386218" lon="11.1810607"><ele>87.0</ele><time>2026-04-26T12:25:44.937Z</time></trkpt><trkpt lat="43.7387057" lon="11.1810393"><ele>87.0</ele><time>2026-04-26T12:25:45.939Z</time></trkpt><trkpt lat="43.738799" lon="11.1810296"><ele>86.8</ele><time>2026-04-26T12:25:46.939Z</time></trkpt><trkpt lat="43.7388918" lon="11.1810112"><ele>86.6</ele><time>2026-04-26T12:25:47.938Z</time></trkpt><trkpt lat="43.7389789" lon="11.1810022"><ele>86.39999999999999</ele><time>2026-04-26T12:25:48.939Z</time></trkpt><trkpt lat="43.7391061" lon="11.1810063"><ele>86.19999999999999</ele><time>2026-04-26T12:25:49.939Z</time></trkpt><trkpt lat="43.7391972" lon="11.1810156"><ele>86.0</ele><time>2026-04-26T12:25:50.939Z</time></trkpt><trkpt lat="43.7392926" lon="11.1810199"><ele>84.0</ele><time>2026-04-26T12:25:51.938Z</time></trkpt><trkpt lat="43.7393839" lon="11.1810421"><ele>82.0</ele><time>2026-04-26T12:25:52.938Z</time></trkpt><trkpt lat="43.7394904" lon="11.1810514"><ele>80.0</ele><time>2026-04-26T12:25:53.938Z</time></trkpt><trkpt lat="43.7395795" lon="11.1810635"><ele>78.0</ele><time>2026-04-26T12:25:54.939Z</time></trkpt><trkpt lat="43.7396785" lon="11.1810792"><ele>76.0</ele><time>2026-04-26T12:25:55.938Z</time></trkpt><trkpt lat="43.7397733" lon="11.1810877"><ele>76.0</ele><time>2026-04-26T12:25:56.938Z</time></trkpt><trkpt lat="43.7398658" lon="11.1811004"><ele>76.0</ele><time>2026-04-26T12:25:57.939Z</time></trkpt><trkpt lat="43.7399579" lon="11.1811207"><ele>76.0</ele><time>2026-04-26T12:25:58.939Z</time></trkpt><trkpt lat="43.7400536" lon="11.1811451"><ele>76.0</ele><time>2026-04-26T12:25:59.939Z</time></trkpt><trkpt lat="43.7401497" lon="11.181155"><ele>76.0</ele><time>2026-04-26T12:26:00.938Z</time></trkpt><trkpt lat="43.7402413" lon="11.1811693"><ele>75.0</ele><time>2026-04-26T12:26:01.938Z</time></trkpt><trkpt lat="43.7403366" lon="11.1811831"><ele>74.0</ele><time>2026-04-26T12:26:02.939Z</time></trkpt><trkpt lat="43.7404263" lon="11.1812056"><ele>73.0</ele><time>2026-04-26T12:26:03.939Z</time></trkpt><trkpt lat="43.7405221" lon="11.1812207"><ele>72.0</ele><time>2026-04-26T12:26:04.937Z</time></trkpt><trkpt lat="43.7406076" lon="11.1812298"><ele>71.0</ele><time>2026-04-26T12:26:05.938Z</time></trkpt><trkpt lat="43.7406826" lon="11.1812389"><ele>70.0</ele><time>2026-04-26T12:26:06.938Z</time></trkpt><trkpt lat="43.7407701" lon="11.1812429"><ele>70.0</ele><time>2026-04-26T12:26:07.939Z</time></trkpt><trkpt lat="43.7408531" lon="11.1812401"><ele>70.0</ele><time>2026-04-26T12:26:08.939Z</time></trkpt><trkpt lat="43.7409386" lon="11.1812395"><ele>70.0</ele><time>2026-04-26T12:26:09.938Z</time></trkpt><trkpt lat="43.7410019" lon="11.1812459"><ele>70.0</ele><time>2026-04-26T12:26:10.938Z</time></trkpt><trkpt lat="43.7410737" lon="11.1812413"><ele>70.0</ele><time>2026-04-26T12:26:11.938Z</time></trkpt><trkpt lat="43.7411401" lon="11.1812368"><ele>70.0</ele><time>2026-04-26T12:26:12.939Z</time></trkpt><trkpt lat="43.7412064" lon="11.1812036"><ele>70.0</ele><time>2026-04-26T12:26:13.94Z</time></trkpt><trkpt lat="43.7412772" lon="11.1811767"><ele>68.33333333333333</ele><time>2026-04-26T12:26:14.938Z</time></trkpt><trkpt lat="43.7413563" lon="11.1811364"><ele>66.66666666666666</ele><time>2026-04-26T12:26:15.938Z</time></trkpt><trkpt lat="43.7414312" lon="11.1811144"><ele>65.0</ele><time>2026-04-26T12:26:16.938Z</time></trkpt><trkpt lat="43.7414956" lon="11.1811032"><ele>63.33333333333333</ele><time>2026-04-26T12:26:17.938Z</time></trkpt><trkpt lat="43.7416083" lon="11.1811153"><ele>61.666666666666664</ele><time>2026-04-26T12:26:19.939Z</time></trkpt><trkpt lat="43.7416764" lon="11.1811258"><ele>60.0</ele><time>2026-04-26T12:26:21.937Z</time></trkpt><trkpt lat="43.7417532" lon="11.1810942"><ele>60.0</ele><time>2026-04-26T12:26:48.939Z</time></trkpt><trkpt lat="43.7418315" lon="11.1810828"><ele>60.0</ele><time>2026-04-26T12:26:50.938Z</time></trkpt><trkpt lat="43.7419297" lon="11.1811008"><ele>60.0</ele><time>2026-04-26T12:26:52.939Z</time></trkpt><trkpt lat="43.742663" lon="11.1813022"><ele>59.166666666666664</ele><time>2026-04-26T12:27:05.938Z</time></trkpt><trkpt lat="43.7427359" lon="11.1813224"><ele>58.33333333333333</ele><time>2026-04-26T12:27:06.939Z</time></trkpt><trkpt lat="43.742801" lon="11.1813504"><ele>57.5</ele><time>2026-04-26T12:27:07.939Z</time></trkpt><trkpt lat="43.7428814" lon="11.1813713"><ele>56.666666666666664</ele><time>2026-04-26T12:27:09.939Z</time></trkpt><trkpt lat="43.7429648" lon="11.1814179"><ele>55.83333333333333</ele><time>2026-04-26T12:27:12.938Z</time></trkpt><trkpt lat="43.7430506" lon="11.1814106"><ele>55.0</ele><time>2026-04-26T12:27:14.937Z</time></trkpt><trkpt lat="43.7431318" lon="11.1813797"><ele>55.0</ele><time>2026-04-26T12:27:16.937Z</time></trkpt><trkpt lat="43.7432457" lon="11.1813629"><ele>55.0</ele><time>2026-04-26T12:27:18.938Z</time></trkpt><trkpt lat="43.7433249" lon="11.1813097"><ele>55.0</ele><time>2026-04-26T12:27:20.938Z</time></trkpt><trkpt lat="43.7434025" lon="11.1813012"><ele>55.0</ele><time>2026-04-26T12:27:22.938Z</time></trkpt><trkpt lat="43.7434857" lon="11.1813789"><ele>55.0</ele><time>2026-04-26T12:27:24.939Z</time></trkpt><trkpt lat="43.743574" lon="11.1814872"><ele>54.8</ele><time>2026-04-26T12:27:26.939Z</time></trkpt><trkpt lat="43.7436674" lon="11.1815517"><ele>54.6</ele><time>2026-04-26T12:27:28.938Z</time></trkpt><trkpt lat="43.7437522" lon="11.1816076"><ele>54.400000000000006</ele><time>2026-04-26T12:27:30.939Z</time></trkpt><trkpt lat="43.743842" lon="11.1816812"><ele>54.2</ele><time>2026-04-26T12:27:32.938Z</time></trkpt><trkpt lat="43.7439158" lon="11.1817444"><ele>54.0</ele><time>2026-04-26T12:27:34.939Z</time></trkpt><trkpt lat="43.7440015" lon="11.1818017"><ele>54.0</ele><time>2026-04-26T12:27:36.938Z</time></trkpt><trkpt lat="43.7440872" lon="11.1818412"><ele>54.00000000000001</ele><time>2026-04-26T12:27:38.938Z</time></trkpt><trkpt lat="43.7441806" lon="11.1818384"><ele>54.00000000000001</ele><time>2026-04-26T12:27:40.938Z</time></trkpt><trkpt lat="43.7442746" lon="11.1818221"><ele>54.0</ele><time>2026-04-26T12:27:42.939Z</time></trkpt><trkpt lat="43.7443629" lon="11.1817959"><ele>54.0</ele><time>2026-04-26T12:27:44.939Z</time></trkpt><trkpt lat="43.7444556" lon="11.1817618"><ele>54.666666666666664</ele><time>2026-04-26T12:27:46.938Z</time></trkpt><trkpt lat="43.7445351" lon="11.1817209"><ele>55.33333333333333</ele><time>2026-04-26T12:27:48.938Z</time></trkpt><trkpt lat="43.7446192" lon="11.1816854"><ele>56.0</ele><time>2026-04-26T12:27:50.939Z</time></trkpt><trkpt lat="43.7446923" lon="11.1816438"><ele>56.666666666666664</ele><time>2026-04-26T12:27:52.939Z</time></trkpt><trkpt lat="43.7447736" lon="11.1815968"><ele>57.33333333333333</ele><time>2026-04-26T12:27:54.938Z</time></trkpt><trkpt lat="43.7448513" lon="11.181558"><ele>58.0</ele><time>2026-04-26T12:27:56.939Z</time></trkpt><trkpt lat="43.744925" lon="11.1815262"><ele>57.2</ele><time>2026-04-26T12:27:58.938Z</time></trkpt><trkpt lat="43.7450011" lon="11.1814871"><ele>56.4</ele><time>2026-04-26T12:28:00.937Z</time></trkpt><trkpt lat="43.745087" lon="11.1814392"><ele>55.60000000000001</ele><time>2026-04-26T12:28:02.939Z</time></trkpt><trkpt lat="43.7451798" lon="11.1813862"><ele>54.800000000000004</ele><time>2026-04-26T12:28:04.937Z</time></trkpt><trkpt lat="43.7452666" lon="11.1813324"><ele>54.0</ele><time>2026-04-26T12:28:06.939Z</time></trkpt><trkpt lat="43.7453443" lon="11.1812781"><ele>53.833333333333336</ele><time>2026-04-26T12:28:08.937Z</time></trkpt><trkpt lat="43.7454257" lon="11.1812226"><ele>53.66666666666667</ele><time>2026-04-26T12:28:10.938Z</time></trkpt><trkpt lat="43.745505" lon="11.1811627"><ele>53.5</ele><time>2026-04-26T12:28:12.938Z</time></trkpt><trkpt lat="43.7455789" lon="11.1811015"><ele>53.333333333333336</ele><time>2026-04-26T12:28:14.939Z</time></trkpt><trkpt lat="43.7456503" lon="11.1810566"><ele>53.16666666666667</ele><time>2026-04-26T12:28:16.938Z</time></trkpt><trkpt lat="43.7457282" lon="11.1810149"><ele>53.0</ele><time>2026-04-26T12:28:18.937Z</time></trkpt><trkpt lat="43.7458042" lon="11.1809522"><ele>53.00000000000001</ele><time>2026-04-26T12:28:20.938Z</time></trkpt><trkpt lat="43.745873" lon="11.180877"><ele>53.0</ele><time>2026-04-26T12:28:22.937Z</time></trkpt><trkpt lat="43.7459395" lon="11.1807894"><ele>53.0</ele><time>2026-04-26T12:28:24.938Z</time></trkpt><trkpt lat="43.7460053" lon="11.1807171"><ele>53.0</ele><time>2026-04-26T12:28:26.936Z</time></trkpt><trkpt lat="43.7460671" lon="11.18064"><ele>53.00000000000001</ele><time>2026-04-26T12:28:28.939Z</time></trkpt><trkpt lat="43.7461406" lon="11.1805585"><ele>53.0</ele><time>2026-04-26T12:28:30.939Z</time></trkpt><trkpt lat="43.7462225" lon="11.1804812"><ele>52.599999999999994</ele><time>2026-04-26T12:28:32.937Z</time></trkpt><trkpt lat="43.7463019" lon="11.1803971"><ele>52.199999999999996</ele><time>2026-04-26T12:28:34.939Z</time></trkpt><trkpt lat="43.7463834" lon="11.1803722"><ele>51.8</ele><time>2026-04-26T12:28:36.938Z</time></trkpt><trkpt lat="43.746462" lon="11.1804506"><ele>51.4</ele><time>2026-04-26T12:28:38.939Z</time></trkpt><trkpt lat="43.7465306" lon="11.1805548"><ele>51.0</ele><time>2026-04-26T12:28:40.938Z</time></trkpt><trkpt lat="43.7466022" lon="11.1806671"><ele>51.0</ele><time>2026-04-26T12:28:42.938Z</time></trkpt><trkpt lat="43.7466776" lon="11.1807826"><ele>51.0</ele><time>2026-04-26T12:28:44.939Z</time></trkpt><trkpt lat="43.7467534" lon="11.1808899"><ele>51.0</ele><time>2026-04-26T12:28:46.937Z</time></trkpt><trkpt lat="43.7468201" lon="11.1809739"><ele>51.0</ele><time>2026-04-26T12:28:48.938Z</time></trkpt><trkpt lat="43.7468851" lon="11.1810673"><ele>51.0</ele><time>2026-04-26T12:28:50.938Z</time></trkpt><trkpt lat="43.7469543" lon="11.1811665"><ele>51.0</ele><time>2026-04-26T12:28:52.938Z</time></trkpt><trkpt lat="43.7470273" lon="11.1812527"><ele>51.0</ele><time>2026-04-26T12:28:54.937Z</time></trkpt><trkpt lat="43.7471063" lon="11.18133"><ele>51.0</ele><time>2026-04-26T12:28:56.937Z</time></trkpt><trkpt lat="43.7471722" lon="11.1814068"><ele>51.0</ele><time>2026-04-26T12:28:58.938Z</time></trkpt><trkpt lat="43.7472298" lon="11.1815004"><ele>51.0</ele><time>2026-04-26T12:29:00.938Z</time></trkpt><trkpt lat="43.7472777" lon="11.1815812"><ele>51.0</ele><time>2026-04-26T12:29:02.938Z</time></trkpt><trkpt lat="43.7473216" lon="11.1816617"><ele>51.0</ele><time>2026-04-26T12:29:04.938Z</time></trkpt><trkpt lat="43.7473824" lon="11.181733"><ele>51.0</ele><time>2026-04-26T12:29:06.937Z</time></trkpt><trkpt lat="43.7474499" lon="11.1818151"><ele>51.0</ele><time>2026-04-26T12:29:08.937Z</time></trkpt><trkpt lat="43.7475212" lon="11.1819046"><ele>51.0</ele><time>2026-04-26T12:29:10.939Z</time></trkpt><trkpt lat="43.7475848" lon="11.1819735"><ele>51.0</ele><time>2026-04-26T12:29:12.937Z</time></trkpt><trkpt lat="43.7476604" lon="11.1820329"><ele>51.0</ele><time>2026-04-26T12:29:14.936Z</time></trkpt><trkpt lat="43.7477403" lon="11.1820906"><ele>51.0</ele><time>2026-04-26T12:29:16.938Z</time></trkpt><trkpt lat="43.7478194" lon="11.1821624"><ele>51.0</ele><time>2026-04-26T12:29:18.938Z</time></trkpt><trkpt lat="43.747904" lon="11.1822317"><ele>51.0</ele><time>2026-04-26T12:29:20.937Z</time></trkpt><trkpt lat="43.7479745" lon="11.182299"><ele>51.0</ele><time>2026-04-26T12:29:22.939Z</time></trkpt><trkpt lat="43.7480627" lon="11.1823654"><ele>51.0</ele><time>2026-04-26T12:29:24.937Z</time></trkpt><trkpt lat="43.7481422" lon="11.1824433"><ele>50.8</ele><time>2026-04-26T12:29:26.939Z</time></trkpt><trkpt lat="43.7482274" lon="11.1825321"><ele>50.599999999999994</ele><time>2026-04-26T12:29:28.939Z</time></trkpt><trkpt lat="43.748308" lon="11.1825918"><ele>50.4</ele><time>2026-04-26T12:29:30.938Z</time></trkpt><trkpt lat="43.7483879" lon="11.1826599"><ele>50.2</ele><time>2026-04-26T12:29:32.938Z</time></trkpt><trkpt lat="43.7484631" lon="11.1827193"><ele>50.0</ele><time>2026-04-26T12:29:34.937Z</time></trkpt><trkpt lat="43.7485415" lon="11.1827808"><ele>50.0</ele><time>2026-04-26T12:29:36.939Z</time></trkpt><trkpt lat="43.7486228" lon="11.1828356"><ele>50.0</ele><time>2026-04-26T12:29:38.938Z</time></trkpt><trkpt lat="43.7487077" lon="11.1829015"><ele>50.0</ele><time>2026-04-26T12:29:40.938Z</time></trkpt><trkpt lat="43.7487768" lon="11.1829689"><ele>50.0</ele><time>2026-04-26T12:29:42.938Z</time></trkpt><trkpt lat="43.7488361" lon="11.183038"><ele>50.0</ele><time>2026-04-26T12:29:44.937Z</time></trkpt><trkpt lat="43.7489229" lon="11.1831417"><ele>49.833333333333336</ele><time>2026-04-26T12:29:46.938Z</time></trkpt><trkpt lat="43.748978" lon="11.1831853"><ele>49.66666666666667</ele><time>2026-04-26T12:29:47.938Z</time></trkpt><trkpt lat="43.7490575" lon="11.1832855"><ele>49.5</ele><time>2026-04-26T12:29:49.939Z</time></trkpt><trkpt lat="43.7491214" lon="11.1833662"><ele>49.33333333333333</ele><time>2026-04-26T12:29:51.938Z</time></trkpt><trkpt lat="43.7491828" lon="11.1834422"><ele>49.166666666666664</ele><time>2026-04-26T12:29:53.938Z</time></trkpt><trkpt lat="43.7492597" lon="11.183532"><ele>49.0</ele><time>2026-04-26T12:29:55.938Z</time></trkpt><trkpt lat="43.7493202" lon="11.1836119"><ele>49.0</ele><time>2026-04-26T12:29:57.936Z</time></trkpt><trkpt lat="43.7493861" lon="11.1836979"><ele>49.0</ele><time>2026-04-26T12:29:59.937Z</time></trkpt><trkpt lat="43.7494478" lon="11.183779"><ele>49.0</ele><time>2026-04-26T12:30:01.939Z</time></trkpt><trkpt lat="43.7495112" lon="11.1838586"><ele>49.0</ele><time>2026-04-26T12:30:03.938Z</time></trkpt><trkpt lat="43.7495819" lon="11.183942"><ele>49.0</ele><time>2026-04-26T12:30:05.938Z</time></trkpt><trkpt lat="43.7496435" lon="11.1840436"><ele>49.0</ele><time>2026-04-26T12:30:07.938Z</time></trkpt><trkpt lat="43.7497075" lon="11.1841585"><ele>49.0</ele><time>2026-04-26T12:30:09.938Z</time></trkpt><trkpt lat="43.7497727" lon="11.1842463"><ele>49.0</ele><time>2026-04-26T12:30:11.939Z</time></trkpt><trkpt lat="43.7498307" lon="11.184342"><ele>49.0</ele><time>2026-04-26T12:30:13.937Z</time></trkpt><trkpt lat="43.7499065" lon="11.1844522"><ele>49.0</ele><time>2026-04-26T12:30:15.939Z</time></trkpt><trkpt lat="43.7499727" lon="11.1845425"><ele>49.0</ele><time>2026-04-26T12:30:17.938Z</time></trkpt><trkpt lat="43.7500318" lon="11.1846369"><ele>49.0</ele><time>2026-04-26T12:30:19.938Z</time></trkpt><trkpt lat="43.7501056" lon="11.184721"><ele>49.0</ele><time>2026-04-26T12:30:21.938Z</time></trkpt><trkpt lat="43.7501732" lon="11.1848165"><ele>49.0</ele><time>2026-04-26T12:30:23.939Z</time></trkpt><trkpt lat="43.7502383" lon="11.1849023"><ele>49.0</ele><time>2026-04-26T12:30:25.94Z</time></trkpt><trkpt lat="43.7502985" lon="11.1850006"><ele>48.666666666666664</ele><time>2026-04-26T12:30:27.936Z</time></trkpt><trkpt lat="43.750341" lon="11.1850862"><ele>48.33333333333333</ele><time>2026-04-26T12:30:29.937Z</time></trkpt><trkpt lat="43.7503985" lon="11.1851909"><ele>48.0</ele><time>2026-04-26T12:30:31.937Z</time></trkpt><trkpt lat="43.7504422" lon="11.1853134"><ele>47.666666666666664</ele><time>2026-04-26T12:30:33.939Z</time></trkpt><trkpt lat="43.7504956" lon="11.185373"><ele>47.33333333333333</ele><time>2026-04-26T12:30:34.937Z</time></trkpt><trkpt lat="43.7505501" lon="11.1854874"><ele>47.0</ele><time>2026-04-26T12:30:36.939Z</time></trkpt><trkpt lat="43.7505938" lon="11.1855841"><ele>47.0</ele><time>2026-04-26T12:30:38.938Z</time></trkpt><trkpt lat="43.7506633" lon="11.1856748"><ele>47.0</ele><time>2026-04-26T12:30:40.938Z</time></trkpt><trkpt lat="43.7506961" lon="11.1857496"><ele>47.0</ele><time>2026-04-26T12:30:42.937Z</time></trkpt><trkpt lat="43.7507474" lon="11.1858311"><ele>47.0</ele><time>2026-04-26T12:30:44.938Z</time></trkpt><trkpt lat="43.7508044" lon="11.1859158"><ele>47.0</ele><time>2026-04-26T12:30:46.938Z</time></trkpt><trkpt lat="43.7508714" lon="11.1859554"><ele>47.0</ele><time>2026-04-26T12:30:47.937Z</time></trkpt><trkpt lat="43.750946" lon="11.1860665"><ele>47.0</ele><time>2026-04-26T12:30:49.938Z</time></trkpt><trkpt lat="43.7510192" lon="11.1861581"><ele>47.0</ele><time>2026-04-26T12:30:51.939Z</time></trkpt><trkpt lat="43.7511015" lon="11.1862523"><ele>47.0</ele><time>2026-04-26T12:30:53.938Z</time></trkpt><trkpt lat="43.75118" lon="11.1863298"><ele>47.0</ele><time>2026-04-26T12:30:55.937Z</time></trkpt><trkpt lat="43.7512346" lon="11.1864198"><ele>47.0</ele><time>2026-04-26T12:30:57.938Z</time></trkpt><trkpt lat="43.7513127" lon="11.1865214"><ele>46.83333333333333</ele><time>2026-04-26T12:30:59.938Z</time></trkpt><trkpt lat="43.7513795" lon="11.1866134"><ele>46.666666666666664</ele><time>2026-04-26T12:31:01.938Z</time></trkpt><trkpt lat="43.7514353" lon="11.1867176"><ele>46.5</ele><time>2026-04-26T12:31:03.938Z</time></trkpt><trkpt lat="43.7515008" lon="11.1868014"><ele>46.333333333333336</ele><time>2026-04-26T12:31:05.938Z</time></trkpt><trkpt lat="43.7515427" lon="11.1868759"><ele>46.16666666666667</ele><time>2026-04-26T12:31:07.937Z</time></trkpt><trkpt lat="43.7516157" lon="11.1869566"><ele>46.0</ele><time>2026-04-26T12:31:09.936Z</time></trkpt><trkpt lat="43.7516756" lon="11.1870612"><ele>46.0</ele><time>2026-04-26T12:31:11.938Z</time></trkpt><trkpt lat="43.7517233" lon="11.1871507"><ele>46.0</ele><time>2026-04-26T12:31:13.938Z</time></trkpt><trkpt lat="43.7517924" lon="11.1872385"><ele>46.0</ele><time>2026-04-26T12:31:15.937Z</time></trkpt><trkpt lat="43.7518435" lon="11.1873265"><ele>46.0</ele><time>2026-04-26T12:31:17.938Z</time></trkpt><trkpt lat="43.7519197" lon="11.1874127"><ele>46.0</ele><time>2026-04-26T12:31:19.936Z</time></trkpt><trkpt lat="43.7519758" lon="11.1874868"><ele>46.0</ele><time>2026-04-26T12:31:21.938Z</time></trkpt><trkpt lat="43.7520447" lon="11.1875492"><ele>46.16666666666667</ele><time>2026-04-26T12:31:23.938Z</time></trkpt><trkpt lat="43.7521009" lon="11.1876246"><ele>46.333333333333336</ele><time>2026-04-26T12:31:25.937Z</time></trkpt><trkpt lat="43.7521688" lon="11.1876966"><ele>46.5</ele><time>2026-04-26T12:31:27.938Z</time></trkpt><trkpt lat="43.7522416" lon="11.1877963"><ele>46.666666666666664</ele><time>2026-04-26T12:31:29.939Z</time></trkpt><trkpt lat="43.7523047" lon="11.1878601"><ele>46.83333333333333</ele><time>2026-04-26T12:31:31.937Z</time></trkpt><trkpt lat="43.7523731" lon="11.1879452"><ele>47.0</ele><time>2026-04-26T12:31:33.938Z</time></trkpt><trkpt lat="43.7524241" lon="11.1880458"><ele>47.0</ele><time>2026-04-26T12:31:35.937Z</time></trkpt><trkpt lat="43.7524736" lon="11.1881392"><ele>47.0</ele><time>2026-04-26T12:31:37.938Z</time></trkpt><trkpt lat="43.7525073" lon="11.1882439"><ele>47.0</ele><time>2026-04-26T12:31:39.938Z</time></trkpt><trkpt lat="43.7525499" lon="11.1883258"><ele>47.0</ele><time>2026-04-26T12:31:41.938Z</time></trkpt><trkpt lat="43.7526377" lon="11.1884217"><ele>47.0</ele><time>2026-04-26T12:31:43.938Z</time></trkpt><trkpt lat="43.7526839" lon="11.1884874"><ele>47.0</ele><time>2026-04-26T12:31:44.938Z</time></trkpt><trkpt lat="43.7527464" lon="11.1885848"><ele>47.0</ele><time>2026-04-26T12:31:46.936Z</time></trkpt><trkpt lat="43.7528048" lon="11.1886977"><ele>47.0</ele><time>2026-04-26T12:31:48.937Z</time></trkpt><trkpt lat="43.7528268" lon="11.1887836"><ele>47.0</ele><time>2026-04-26T12:31:50.938Z</time></trkpt><trkpt lat="43.7528812" lon="11.1888994"><ele>47.0</ele><time>2026-04-26T12:31:52.938Z</time></trkpt><trkpt lat="43.7529408" lon="11.1890027"><ele>47.0</ele><time>2026-04-26T12:31:54.938Z</time></trkpt><trkpt lat="43.7529921" lon="11.1891062"><ele>47.33333333333333</ele><time>2026-04-26T12:31:56.938Z</time></trkpt><trkpt lat="43.7530364" lon="11.1892114"><ele>47.666666666666664</ele><time>2026-04-26T12:31:58.937Z</time></trkpt><trkpt lat="43.7530867" lon="11.1893146"><ele>48.0</ele><time>2026-04-26T12:32:00.937Z</time></trkpt><trkpt lat="43.7531236" lon="11.1894062"><ele>48.33333333333333</ele><time>2026-04-26T12:32:02.939Z</time></trkpt><trkpt lat="43.7531744" lon="11.1895115"><ele>48.666666666666664</ele><time>2026-04-26T12:32:04.938Z</time></trkpt><trkpt lat="43.753227" lon="11.1896163"><ele>49.0</ele><time>2026-04-26T12:32:06.937Z</time></trkpt><trkpt lat="43.7532728" lon="11.1897096"><ele>48.99999999999999</ele><time>2026-04-26T12:32:08.938Z</time></trkpt><trkpt lat="43.7533188" lon="11.1898089"><ele>49.0</ele><time>2026-04-26T12:32:10.937Z</time></trkpt><trkpt lat="43.7533625" lon="11.1898876"><ele>49.0</ele><time>2026-04-26T12:32:12.938Z</time></trkpt><trkpt lat="43.7533996" lon="11.189985"><ele>49.0</ele><time>2026-04-26T12:32:14.937Z</time></trkpt><trkpt lat="43.7534452" lon="11.1900801"><ele>48.99999999999999</ele><time>2026-04-26T12:32:16.938Z</time></trkpt><trkpt lat="43.7535151" lon="11.1901962"><ele>49.0</ele><time>2026-04-26T12:32:18.937Z</time></trkpt><trkpt lat="43.7535497" lon="11.1903009"><ele>48.666666666666664</ele><time>2026-04-26T12:32:20.938Z</time></trkpt><trkpt lat="43.7535942" lon="11.1904099"><ele>48.33333333333333</ele><time>2026-04-26T12:32:22.937Z</time></trkpt><trkpt lat="43.7536418" lon="11.1905167"><ele>48.0</ele><time>2026-04-26T12:32:24.938Z</time></trkpt><trkpt lat="43.7536838" lon="11.1905867"><ele>47.666666666666664</ele><time>2026-04-26T12:32:26.936Z</time></trkpt><trkpt lat="43.7537663" lon="11.1906092"><ele>47.33333333333333</ele><time>2026-04-26T12:32:27.937Z</time></trkpt><trkpt lat="43.7538553" lon="11.1905799"><ele>47.0</ele><time>2026-04-26T12:32:30.938Z</time></trkpt><trkpt lat="43.7539122" lon="11.1905361"><ele>47.0</ele><time>2026-04-26T12:32:32.938Z</time></trkpt><trkpt lat="43.7539788" lon="11.1904664"><ele>47.0</ele><time>2026-04-26T12:32:34.938Z</time></trkpt><trkpt lat="43.7540329" lon="11.1903938"><ele>47.0</ele><time>2026-04-26T12:32:36.937Z</time></trkpt><trkpt lat="43.7540931" lon="11.1903212"><ele>47.0</ele><time>2026-04-26T12:32:38.938Z</time></trkpt><trkpt lat="43.7541502" lon="11.1902534"><ele>47.0</ele><time>2026-04-26T12:32:40.937Z</time></trkpt><trkpt lat="43.7541977" lon="11.1901863"><ele>47.0</ele><time>2026-04-26T12:32:42.938Z</time></trkpt><trkpt lat="43.7542634" lon="11.1901082"><ele>47.0</ele><time>2026-04-26T12:32:45.938Z</time></trkpt><trkpt lat="43.7543178" lon="11.1900313"><ele>47.0</ele><time>2026-04-26T12:32:48.937Z</time></trkpt><trkpt lat="43.7543237" lon="11.1899186"><ele>47.0</ele><time>2026-04-26T12:32:52.937Z</time></trkpt><trkpt lat="43.7543687" lon="11.1898515"><ele>47.0</ele><time>2026-04-26T12:32:55.938Z</time></trkpt><trkpt lat="43.754432" lon="11.189777"><ele>47.0</ele><time>2026-04-26T12:32:58.937Z</time></trkpt><trkpt lat="43.7544764" lon="11.1897058"><ele>47.0</ele><time>2026-04-26T12:33:01.938Z</time></trkpt><trkpt lat="43.7545258" lon="11.189637"><ele>47.0</ele><time>2026-04-26T12:33:04.938Z</time></trkpt><trkpt lat="43.7545761" lon="11.189558"><ele>46.83333333333333</ele><time>2026-04-26T12:33:07.937Z</time></trkpt><trkpt lat="43.7546315" lon="11.189487"><ele>46.666666666666664</ele><time>2026-04-26T12:33:10.938Z</time></trkpt><trkpt lat="43.754646" lon="11.189371"><ele>46.5</ele><time>2026-04-26T12:33:13.936Z</time></trkpt><trkpt lat="43.7546123" lon="11.1892894"><ele>46.333333333333336</ele><time>2026-04-26T12:33:16.939Z</time></trkpt><trkpt lat="43.7545708" lon="11.1891922"><ele>46.16666666666667</ele><time>2026-04-26T12:33:20.936Z</time></trkpt><trkpt lat="43.7545316" lon="11.1891168"><ele>46.0</ele><time>2026-04-26T12:33:22.938Z</time></trkpt><trkpt lat="43.7544841" lon="11.1890352"><ele>46.0</ele><time>2026-04-26T12:33:24.938Z</time></trkpt><trkpt lat="43.7544275" lon="11.1889434"><ele>46.0</ele><time>2026-04-26T12:33:27.938Z</time></trkpt><trkpt lat="43.7543875" lon="11.1888391"><ele>46.0</ele><time>2026-04-26T12:33:30.938Z</time></trkpt><trkpt lat="43.754413" lon="11.1887488"><ele>46.0</ele><time>2026-04-26T12:33:34.939Z</time></trkpt><trkpt lat="43.7544602" lon="11.1886528"><ele>46.0</ele><time>2026-04-26T12:33:38.938Z</time></trkpt><trkpt lat="43.7545105" lon="11.1885812"><ele>46.0</ele><time>2026-04-26T12:33:40.938Z</time></trkpt><trkpt lat="43.754575" lon="11.1885029"><ele>46.0</ele><time>2026-04-26T12:33:42.937Z</time></trkpt><trkpt lat="43.7546265" lon="11.1884295"><ele>46.0</ele><time>2026-04-26T12:33:44.937Z</time></trkpt><trkpt lat="43.7546721" lon="11.1883523"><ele>46.0</ele><time>2026-04-26T12:33:46.937Z</time></trkpt><trkpt lat="43.7547179" lon="11.1882727"><ele>46.0</ele><time>2026-04-26T12:33:48.938Z</time></trkpt><trkpt lat="43.7547694" lon="11.1881799"><ele>46.0</ele><time>2026-04-26T12:33:50.937Z</time></trkpt><trkpt lat="43.7548132" lon="11.1880769"><ele>46.0</ele><time>2026-04-26T12:33:52.937Z</time></trkpt><trkpt lat="43.7548487" lon="11.1879919"><ele>46.0</ele><time>2026-04-26T12:33:54.935Z</time></trkpt><trkpt lat="43.7548809" lon="11.187915"><ele>46.0</ele><time>2026-04-26T12:33:56.937Z</time></trkpt><trkpt lat="43.7549332" lon="11.1878135"><ele>46.0</ele><time>2026-04-26T12:33:59.937Z</time></trkpt><trkpt lat="43.7549827" lon="11.1877233"><ele>46.0</ele><time>2026-04-26T12:34:02.937Z</time></trkpt><trkpt lat="43.7550372" lon="11.1876414"><ele>46.0</ele><time>2026-04-26T12:34:05.938Z</time></trkpt><trkpt lat="43.7550822" lon="11.1875727"><ele>46.0</ele><time>2026-04-26T12:34:07.938Z</time></trkpt><trkpt lat="43.7551249" lon="11.1875017"><ele>46.0</ele><time>2026-04-26T12:34:09.938Z</time></trkpt><trkpt lat="43.7551629" lon="11.1874265"><ele>46.0</ele><time>2026-04-26T12:34:11.937Z</time></trkpt><trkpt lat="43.755199" lon="11.1873508"><ele>46.0</ele><time>2026-04-26T12:34:13.936Z</time></trkpt><trkpt lat="43.7552432" lon="11.187248"><ele>46.0</ele><time>2026-04-26T12:34:16.937Z</time></trkpt><trkpt lat="43.7552675" lon="11.187159"><ele>46.0</ele><time>2026-04-26T12:34:19.938Z</time></trkpt><trkpt lat="43.7553003" lon="11.1870841"><ele>46.0</ele><time>2026-04-26T12:34:22.938Z</time></trkpt><trkpt lat="43.7553438" lon="11.1870111"><ele>46.0</ele><time>2026-04-26T12:34:24.937Z</time></trkpt><trkpt lat="43.7553824" lon="11.186922"><ele>46.142857142857146</ele><time>2026-04-26T12:34:26.937Z</time></trkpt><trkpt lat="43.7554164" lon="11.1868414"><ele>46.285714285714285</ele><time>2026-04-26T12:34:28.937Z</time></trkpt><trkpt lat="43.7554641" lon="11.1867398"><ele>46.42857142857143</ele><time>2026-04-26T12:34:31.937Z</time></trkpt><trkpt lat="43.7554999" lon="11.1866677"><ele>46.57142857142857</ele><time>2026-04-26T12:34:33.936Z</time></trkpt><trkpt lat="43.7555332" lon="11.186593"><ele>46.71428571428571</ele><time>2026-04-26T12:34:35.938Z</time></trkpt><trkpt lat="43.7555784" lon="11.1865042"><ele>46.857142857142854</ele><time>2026-04-26T12:34:38.937Z</time></trkpt><trkpt lat="43.7556269" lon="11.1864138"><ele>47.0</ele><time>2026-04-26T12:34:42.936Z</time></trkpt><trkpt lat="43.755636" lon="11.1863131"><ele>47.0</ele><time>2026-04-26T12:34:46.937Z</time></trkpt><trkpt lat="43.7556512" lon="11.1862204"><ele>47.0</ele><time>2026-04-26T12:34:51.937Z</time></trkpt><trkpt lat="43.7557045" lon="11.1861739"><ele>47.0</ele><time>2026-04-26T12:34:55.937Z</time></trkpt><trkpt lat="43.7557433" lon="11.1861006"><ele>47.0</ele><time>2026-04-26T12:34:59.938Z</time></trkpt><trkpt lat="43.7557894" lon="11.1860035"><ele>47.0</ele><time>2026-04-26T12:35:02.935Z</time></trkpt><trkpt lat="43.7558196" lon="11.1859182"><ele>47.0</ele><time>2026-04-26T12:35:05.937Z</time></trkpt><trkpt lat="43.7558578" lon="11.1858208"><ele>47.0</ele><time>2026-04-26T12:35:09.937Z</time></trkpt><trkpt lat="43.7558894" lon="11.1857436"><ele>47.0</ele><time>2026-04-26T12:35:12.938Z</time></trkpt><trkpt lat="43.7559198" lon="11.1856563"><ele>47.0</ele><time>2026-04-26T12:35:16.937Z</time></trkpt><trkpt lat="43.7559712" lon="11.1856013"><ele>47.0</ele><time>2026-04-26T12:35:21.937Z</time></trkpt><trkpt lat="43.7560239" lon="11.1855182"><ele>47.0</ele><time>2026-04-26T12:35:25.937Z</time></trkpt><trkpt lat="43.7560596" lon="11.1854283"><ele>47.0</ele><time>2026-04-26T12:35:29.937Z</time></trkpt><trkpt lat="43.7560895" lon="11.1853444"><ele>47.0</ele><time>2026-04-26T12:35:32.938Z</time></trkpt><trkpt lat="43.7561352" lon="11.1852654"><ele>47.0</ele><time>2026-04-26T12:35:35.938Z</time></trkpt><trkpt lat="43.7561828" lon="11.185176"><ele>46.857142857142854</ele><time>2026-04-26T12:35:38.937Z</time></trkpt><trkpt lat="43.7562216" lon="11.1850944"><ele>46.71428571428571</ele><time>2026-04-26T12:35:40.937Z</time></trkpt><trkpt lat="43.7562599" lon="11.1850194"><ele>46.57142857142857</ele><time>2026-04-26T12:35:42.938Z</time></trkpt><trkpt lat="43.7563147" lon="11.1849385"><ele>46.42857142857143</ele><time>2026-04-26T12:35:45.937Z</time></trkpt><trkpt lat="43.7563571" lon="11.1848731"><ele>46.285714285714285</ele><time>2026-04-26T12:35:48.935Z</time></trkpt><trkpt lat="43.7564109" lon="11.1848019"><ele>46.142857142857146</ele><time>2026-04-26T12:35:52.937Z</time></trkpt><trkpt lat="43.7564518" lon="11.1847067"><ele>46.0</ele><time>2026-04-26T12:35:57.936Z</time></trkpt><trkpt lat="43.7564774" lon="11.1846259"><ele>46.285714285714285</ele><time>2026-04-26T12:35:59.938Z</time></trkpt><trkpt lat="43.7565095" lon="11.184544"><ele>46.57142857142857</ele><time>2026-04-26T12:36:01.937Z</time></trkpt><trkpt lat="43.7565566" lon="11.1844373"><ele>46.857142857142854</ele><time>2026-04-26T12:36:04.936Z</time></trkpt><trkpt lat="43.7565718" lon="11.1843523"><ele>47.14285714285714</ele><time>2026-04-26T12:36:09.936Z</time></trkpt><trkpt lat="43.7566018" lon="11.1842606"><ele>47.42857142857143</ele><time>2026-04-26T12:36:13.938Z</time></trkpt><trkpt lat="43.7566482" lon="11.1841793"><ele>47.71428571428571</ele><time>2026-04-26T12:36:16.937Z</time></trkpt><trkpt lat="43.7566778" lon="11.1841002"><ele>48.0</ele><time>2026-04-26T12:36:19.937Z</time></trkpt><trkpt lat="43.7566835" lon="11.1839966"><ele>48.0</ele><time>2026-04-26T12:36:44.935Z</time></trkpt><trkpt lat="43.7567316" lon="11.1839348"><ele>48.0</ele><time>2026-04-26T12:36:48.936Z</time></trkpt><trkpt lat="43.756795" lon="11.1839646"><ele>48.0</ele><time>2026-04-26T12:36:52.937Z</time></trkpt><trkpt lat="43.7569382" lon="11.1839936"><ele>48.0</ele><time>2026-04-26T12:44:30.936Z</time></trkpt><trkpt lat="43.7569769" lon="11.1840652"><ele>48.0</ele><time>2026-04-26T12:47:55.934Z</time></trkpt><trkpt lat="43.7569139" lon="11.1840655"><ele>48.0</ele><time>2026-04-26T12:58:29.933Z</time></trkpt><trkpt lat="43.7568801" lon="11.183987"><ele>47.99999999999999</ele><time>2026-04-26T13:05:36.932Z</time></trkpt><trkpt lat="43.756817" lon="11.1839411"><ele>48.0</ele><time>2026-04-26T13:05:41.932Z</time></trkpt><trkpt lat="43.7567655" lon="11.1838715"><ele>48.0</ele><time>2026-04-26T13:05:47.931Z</time></trkpt><trkpt lat="43.7567261" lon="11.183801"><ele>48.0</ele><time>2026-04-26T13:05:51.931Z</time></trkpt><trkpt lat="43.7567377" lon="11.1837109"><ele>48.0</ele><time>2026-04-26T13:05:57.932Z</time></trkpt><trkpt lat="43.7567946" lon="11.1836508"><ele>47.99999999999999</ele><time>2026-04-26T13:06:03.932Z</time></trkpt><trkpt lat="43.756822" lon="11.1835517"><ele>48.0</ele><time>2026-04-26T13:06:06.931Z</time></trkpt><trkpt lat="43.7568622" lon="11.183438"><ele>47.99999999999999</ele><time>2026-04-26T13:06:09.932Z</time></trkpt><trkpt lat="43.7569215" lon="11.1833639"><ele>48.0</ele><time>2026-04-26T13:06:12.932Z</time></trkpt><trkpt lat="43.756967" lon="11.1832969"><ele>48.0</ele><time>2026-04-26T13:06:15.932Z</time></trkpt><trkpt lat="43.7570159" lon="11.1832384"><ele>48.0</ele><time>2026-04-26T13:06:18.932Z</time></trkpt><trkpt lat="43.7570771" lon="11.1831479"><ele>48.0</ele><time>2026-04-26T13:06:21.932Z</time></trkpt><trkpt lat="43.7571094" lon="11.1830563"><ele>47.99999999999999</ele><time>2026-04-26T13:06:24.932Z</time></trkpt><trkpt lat="43.7571454" lon="11.1829751"><ele>48.0</ele><time>2026-04-26T13:06:27.931Z</time></trkpt><trkpt lat="43.7571749" lon="11.1828939"><ele>47.666666666666664</ele><time>2026-04-26T13:06:29.932Z</time></trkpt><trkpt lat="43.7572293" lon="11.1827977"><ele>47.333333333333336</ele><time>2026-04-26T13:06:32.931Z</time></trkpt><trkpt lat="43.7572825" lon="11.182707"><ele>47.0</ele><time>2026-04-26T13:06:35.932Z</time></trkpt><trkpt lat="43.7573443" lon="11.1826672"><ele>46.66666666666667</ele><time>2026-04-26T13:06:39.931Z</time></trkpt><trkpt lat="43.7573783" lon="11.1825831"><ele>46.333333333333336</ele><time>2026-04-26T13:06:44.932Z</time></trkpt><trkpt lat="43.7574077" lon="11.1824961"><ele>46.0</ele><time>2026-04-26T13:06:48.931Z</time></trkpt><trkpt lat="43.7574425" lon="11.1823986"><ele>46.0</ele><time>2026-04-26T13:06:52.932Z</time></trkpt><trkpt lat="43.7574822" lon="11.1823228"><ele>46.0</ele><time>2026-04-26T13:06:55.932Z</time></trkpt><trkpt lat="43.7575551" lon="11.1823324"><ele>46.0</ele><time>2026-04-26T13:06:57.931Z</time></trkpt><trkpt lat="43.7576232" lon="11.1823854"><ele>46.0</ele><time>2026-04-26T13:06:59.931Z</time></trkpt><trkpt lat="43.7576994" lon="11.1824519"><ele>46.0</ele><time>2026-04-26T13:07:01.932Z</time></trkpt><trkpt lat="43.7577802" lon="11.18252"><ele>46.0</ele><time>2026-04-26T13:07:03.93Z</time></trkpt><trkpt lat="43.7578457" lon="11.1825763"><ele>45.66666666666667</ele><time>2026-04-26T13:07:05.932Z</time></trkpt><trkpt lat="43.7579051" lon="11.1826343"><ele>45.333333333333336</ele><time>2026-04-26T13:07:07.931Z</time></trkpt><trkpt lat="43.757972" lon="11.1826999"><ele>45.0</ele><time>2026-04-26T13:07:09.932Z</time></trkpt><trkpt lat="43.7580439" lon="11.1827676"><ele>44.666666666666664</ele><time>2026-04-26T13:07:11.932Z</time></trkpt><trkpt lat="43.7581028" lon="11.1828276"><ele>44.33333333333333</ele><time>2026-04-26T13:07:13.931Z</time></trkpt><trkpt lat="43.7581601" lon="11.1828822"><ele>44.0</ele><time>2026-04-26T13:07:15.932Z</time></trkpt><trkpt lat="43.7582171" lon="11.1829456"><ele>44.0</ele><time>2026-04-26T13:07:17.932Z</time></trkpt><trkpt lat="43.7582681" lon="11.1830012"><ele>44.0</ele><time>2026-04-26T13:07:19.931Z</time></trkpt><trkpt lat="43.758324" lon="11.1830634"><ele>44.0</ele><time>2026-04-26T13:07:21.932Z</time></trkpt><trkpt lat="43.7583766" lon="11.1831243"><ele>44.0</ele><time>2026-04-26T13:07:23.932Z</time></trkpt><trkpt lat="43.7584303" lon="11.1831844"><ele>44.0</ele><time>2026-04-26T13:07:25.932Z</time></trkpt><trkpt lat="43.758482" lon="11.1832431"><ele>44.0</ele><time>2026-04-26T13:07:27.931Z</time></trkpt><trkpt lat="43.7585236" lon="11.1833339"><ele>44.0</ele><time>2026-04-26T13:07:30.932Z</time></trkpt><trkpt lat="43.7585117" lon="11.1834228"><ele>43.83333333333333</ele><time>2026-04-26T13:07:33.932Z</time></trkpt><trkpt lat="43.7585274" lon="11.1835346"><ele>43.666666666666664</ele><time>2026-04-26T13:07:35.931Z</time></trkpt><trkpt lat="43.7585944" lon="11.183526"><ele>43.5</ele><time>2026-04-26T13:07:37.932Z</time></trkpt><trkpt lat="43.7586567" lon="11.1834661"><ele>43.333333333333336</ele><time>2026-04-26T13:07:39.932Z</time></trkpt><trkpt lat="43.758703" lon="11.1833741"><ele>43.16666666666667</ele><time>2026-04-26T13:07:42.932Z</time></trkpt><trkpt lat="43.7587549" lon="11.1832932"><ele>43.0</ele><time>2026-04-26T13:07:45.931Z</time></trkpt><trkpt lat="43.7588175" lon="11.183265"><ele>43.0</ele><time>2026-04-26T13:07:47.932Z</time></trkpt><trkpt lat="43.7589278" lon="11.1832777"><ele>43.0</ele><time>2026-04-26T13:07:50.932Z</time></trkpt><trkpt lat="43.7589918" lon="11.1833208"><ele>43.0</ele><time>2026-04-26T13:07:52.932Z</time></trkpt><trkpt lat="43.7590483" lon="11.1833767"><ele>43.0</ele><time>2026-04-26T13:07:54.932Z</time></trkpt><trkpt lat="43.7591127" lon="11.1834388"><ele>43.0</ele><time>2026-04-26T13:07:56.931Z</time></trkpt><trkpt lat="43.7591771" lon="11.1835173"><ele>43.0</ele><time>2026-04-26T13:07:58.932Z</time></trkpt><trkpt lat="43.7592165" lon="11.1835879"><ele>43.00000000000001</ele><time>2026-04-26T13:08:00.932Z</time></trkpt><trkpt lat="43.7592652" lon="11.1836478"><ele>43.0</ele><time>2026-04-26T13:08:02.932Z</time></trkpt><trkpt lat="43.7593247" lon="11.18371"><ele>43.0</ele><time>2026-04-26T13:08:04.932Z</time></trkpt><trkpt lat="43.7593742" lon="11.1837741"><ele>43.0</ele><time>2026-04-26T13:08:06.93Z</time></trkpt><trkpt lat="43.7594237" lon="11.1838281"><ele>43.0</ele><time>2026-04-26T13:08:08.931Z</time></trkpt><trkpt lat="43.7594714" lon="11.183885"><ele>43.00000000000001</ele><time>2026-04-26T13:08:10.932Z</time></trkpt><trkpt lat="43.7595236" lon="11.1839544"><ele>43.0</ele><time>2026-04-26T13:08:12.932Z</time></trkpt><trkpt lat="43.759588" lon="11.1840188"><ele>42.833333333333336</ele><time>2026-04-26T13:08:14.93Z</time></trkpt><trkpt lat="43.7596571" lon="11.1840825"><ele>42.66666666666667</ele><time>2026-04-26T13:08:16.93Z</time></trkpt><trkpt lat="43.7597197" lon="11.184149"><ele>42.5</ele><time>2026-04-26T13:08:18.93Z</time></trkpt><trkpt lat="43.759775" lon="11.1842061"><ele>42.333333333333336</ele><time>2026-04-26T13:08:20.932Z</time></trkpt><trkpt lat="43.75983" lon="11.1842712"><ele>42.166666666666664</ele><time>2026-04-26T13:08:22.931Z</time></trkpt><trkpt lat="43.7598943" lon="11.1843486"><ele>42.0</ele><time>2026-04-26T13:08:24.932Z</time></trkpt><trkpt lat="43.7599564" lon="11.1844271"><ele>42.0</ele><time>2026-04-26T13:08:26.93Z</time></trkpt><trkpt lat="43.7600161" lon="11.1845045"><ele>42.0</ele><time>2026-04-26T13:08:28.932Z</time></trkpt><trkpt lat="43.7600692" lon="11.1845745"><ele>42.0</ele><time>2026-04-26T13:08:30.932Z</time></trkpt><trkpt lat="43.7601267" lon="11.184653"><ele>42.0</ele><time>2026-04-26T13:08:32.93Z</time></trkpt><trkpt lat="43.7601845" lon="11.184728"><ele>42.0</ele><time>2026-04-26T13:08:34.93Z</time></trkpt><trkpt lat="43.7602458" lon="11.1848018"><ele>42.0</ele><time>2026-04-26T13:08:36.931Z</time></trkpt><trkpt lat="43.7602998" lon="11.184874"><ele>41.857142857142854</ele><time>2026-04-26T13:08:38.932Z</time></trkpt><trkpt lat="43.7603539" lon="11.1849449"><ele>41.714285714285715</ele><time>2026-04-26T13:08:40.931Z</time></trkpt><trkpt lat="43.760407" lon="11.185006"><ele>41.57142857142857</ele><time>2026-04-26T13:08:42.932Z</time></trkpt><trkpt lat="43.7604612" lon="11.1850776"><ele>41.42857142857143</ele><time>2026-04-26T13:08:44.932Z</time></trkpt><trkpt lat="43.7605204" lon="11.1851512"><ele>41.285714285714285</ele><time>2026-04-26T13:08:46.93Z</time></trkpt><trkpt lat="43.760581" lon="11.185217"><ele>41.14285714285714</ele><time>2026-04-26T13:08:48.931Z</time></trkpt><trkpt lat="43.760636" lon="11.1852822"><ele>41.0</ele><time>2026-04-26T13:08:50.931Z</time></trkpt><trkpt lat="43.7606875" lon="11.1853359"><ele>40.99999999999999</ele><time>2026-04-26T13:08:52.931Z</time></trkpt><trkpt lat="43.7607368" lon="11.1853903"><ele>41.0</ele><time>2026-04-26T13:08:54.931Z</time></trkpt><trkpt lat="43.7607767" lon="11.1854667"><ele>41.0</ele><time>2026-04-26T13:08:56.93Z</time></trkpt><trkpt lat="43.7607961" lon="11.1855547"><ele>41.0</ele><time>2026-04-26T13:08:58.93Z</time></trkpt><trkpt lat="43.7608409" lon="11.1856494"><ele>41.0</ele><time>2026-04-26T13:09:01.931Z</time></trkpt><trkpt lat="43.7609025" lon="11.1856882"><ele>40.99999999999999</ele><time>2026-04-26T13:09:18.93Z</time></trkpt><trkpt lat="43.760963" lon="11.1857677"><ele>41.0</ele><time>2026-04-26T13:09:21.93Z</time></trkpt><trkpt lat="43.7610153" lon="11.1858219"><ele>40.83333333333333</ele><time>2026-04-26T13:09:23.931Z</time></trkpt><trkpt lat="43.7610881" lon="11.1858551"><ele>40.666666666666664</ele><time>2026-04-26T13:09:25.932Z</time></trkpt><trkpt lat="43.7611648" lon="11.1858875"><ele>40.5</ele><time>2026-04-26T13:09:27.931Z</time></trkpt><trkpt lat="43.7612308" lon="11.1859362"><ele>40.333333333333336</ele><time>2026-04-26T13:09:29.93Z</time></trkpt><trkpt lat="43.7612951" lon="11.1860117"><ele>40.16666666666667</ele><time>2026-04-26T13:09:31.931Z</time></trkpt><trkpt lat="43.7613521" lon="11.1860982"><ele>40.0</ele><time>2026-04-26T13:09:33.932Z</time></trkpt><trkpt lat="43.7614069" lon="11.1861966"><ele>40.0</ele><time>2026-04-26T13:09:35.931Z</time></trkpt><trkpt lat="43.7614572" lon="11.1862972"><ele>40.0</ele><time>2026-04-26T13:09:37.932Z</time></trkpt><trkpt lat="43.7615016" lon="11.1864006"><ele>40.0</ele><time>2026-04-26T13:09:39.932Z</time></trkpt><trkpt lat="43.7615441" lon="11.1865007"><ele>40.0</ele><time>2026-04-26T13:09:41.931Z</time></trkpt><trkpt lat="43.7615885" lon="11.1866124"><ele>40.0</ele><time>2026-04-26T13:09:43.93Z</time></trkpt><trkpt lat="43.7616211" lon="11.1867115"><ele>40.0</ele><time>2026-04-26T13:09:45.932Z</time></trkpt><trkpt lat="43.7616537" lon="11.1868322"><ele>39.8</ele><time>2026-04-26T13:09:47.931Z</time></trkpt><trkpt lat="43.7616828" lon="11.1869409"><ele>39.6</ele><time>2026-04-26T13:09:49.93Z</time></trkpt><trkpt lat="43.761727" lon="11.1870513"><ele>39.4</ele><time>2026-04-26T13:09:51.931Z</time></trkpt><trkpt lat="43.7617635" lon="11.1871802"><ele>39.2</ele><time>2026-04-26T13:09:53.931Z</time></trkpt><trkpt lat="43.761808" lon="11.1872998"><ele>39.0</ele><time>2026-04-26T13:09:55.932Z</time></trkpt><trkpt lat="43.7618505" lon="11.187411"><ele>39.2</ele><time>2026-04-26T13:09:57.93Z</time></trkpt><trkpt lat="43.7618887" lon="11.1875201"><ele>39.4</ele><time>2026-04-26T13:09:59.932Z</time></trkpt><trkpt lat="43.7619235" lon="11.1876374"><ele>39.6</ele><time>2026-04-26T13:10:01.932Z</time></trkpt><trkpt lat="43.7619617" lon="11.1877564"><ele>39.8</ele><time>2026-04-26T13:10:03.93Z</time></trkpt><trkpt lat="43.7619991" lon="11.1878704"><ele>40.0</ele><time>2026-04-26T13:10:05.931Z</time></trkpt><trkpt lat="43.7620319" lon="11.1879848"><ele>40.0</ele><time>2026-04-26T13:10:07.931Z</time></trkpt><trkpt lat="43.7620681" lon="11.1881031"><ele>40.0</ele><time>2026-04-26T13:10:09.931Z</time></trkpt><trkpt lat="43.7620921" lon="11.1882193"><ele>40.0</ele><time>2026-04-26T13:10:11.931Z</time></trkpt><trkpt lat="43.7621265" lon="11.18835"><ele>40.0</ele><time>2026-04-26T13:10:13.931Z</time></trkpt><trkpt lat="43.7621467" lon="11.1884724"><ele>40.0</ele><time>2026-04-26T13:10:15.932Z</time></trkpt><trkpt lat="43.7621678" lon="11.1885966"><ele>40.0</ele><time>2026-04-26T13:10:17.932Z</time></trkpt><trkpt lat="43.7621732" lon="11.1887209"><ele>40.0</ele><time>2026-04-26T13:10:19.931Z</time></trkpt><trkpt lat="43.7622028" lon="11.1888289"><ele>40.0</ele><time>2026-04-26T13:10:21.929Z</time></trkpt><trkpt lat="43.7622195" lon="11.1889598"><ele>40.0</ele><time>2026-04-26T13:10:23.931Z</time></trkpt><trkpt lat="43.7622401" lon="11.1890868"><ele>40.0</ele><time>2026-04-26T13:10:25.929Z</time></trkpt><trkpt lat="43.7622672" lon="11.1892165"><ele>40.2</ele><time>2026-04-26T13:10:27.931Z</time></trkpt><trkpt lat="43.7622847" lon="11.1893432"><ele>40.4</ele><time>2026-04-26T13:10:29.931Z</time></trkpt><trkpt lat="43.7622994" lon="11.1894669"><ele>40.599999999999994</ele><time>2026-04-26T13:10:31.931Z</time></trkpt><trkpt lat="43.7623096" lon="11.1895878"><ele>40.8</ele><time>2026-04-26T13:10:33.929Z</time></trkpt><trkpt lat="43.7623124" lon="11.1897244"><ele>41.0</ele><time>2026-04-26T13:10:35.931Z</time></trkpt><trkpt lat="43.7623134" lon="11.1898498"><ele>41.0</ele><time>2026-04-26T13:10:37.93Z</time></trkpt><trkpt lat="43.7622974" lon="11.1899499"><ele>41.0</ele><time>2026-04-26T13:10:39.931Z</time></trkpt><trkpt lat="43.7622823" lon="11.1900602"><ele>41.0</ele><time>2026-04-26T13:10:41.93Z</time></trkpt><trkpt lat="43.762293" lon="11.1902202"><ele>41.0</ele><time>2026-04-26T13:10:43.931Z</time></trkpt><trkpt lat="43.7623132" lon="11.1903847"><ele>41.0</ele><time>2026-04-26T13:10:45.93Z</time></trkpt><trkpt lat="43.7623792" lon="11.1904772"><ele>41.0</ele><time>2026-04-26T13:10:47.931Z</time></trkpt><trkpt lat="43.7624566" lon="11.1905852"><ele>41.0</ele><time>2026-04-26T13:10:49.931Z</time></trkpt><trkpt lat="43.7625068" lon="11.1907032"><ele>41.0</ele><time>2026-04-26T13:10:51.932Z</time></trkpt><trkpt lat="43.7625547" lon="11.1908334"><ele>41.0</ele><time>2026-04-26T13:10:53.931Z</time></trkpt><trkpt lat="43.7625769" lon="11.1909596"><ele>41.0</ele><time>2026-04-26T13:10:55.932Z</time></trkpt><trkpt lat="43.7625904" lon="11.1910897"><ele>41.0</ele><time>2026-04-26T13:10:57.931Z</time></trkpt><trkpt lat="43.7626052" lon="11.1911995"><ele>41.0</ele><time>2026-04-26T13:10:59.931Z</time></trkpt><trkpt lat="43.7626334" lon="11.1912896"><ele>41.0</ele><time>2026-04-26T13:11:01.932Z</time></trkpt><trkpt lat="43.7626469" lon="11.1914001"><ele>41.0</ele><time>2026-04-26T13:11:03.93Z</time></trkpt><trkpt lat="43.7626674" lon="11.1915108"><ele>41.0</ele><time>2026-04-26T13:11:05.931Z</time></trkpt><trkpt lat="43.7626856" lon="11.1916233"><ele>41.0</ele><time>2026-04-26T13:11:07.93Z</time></trkpt><trkpt lat="43.7627065" lon="11.1917342"><ele>40.8</ele><time>2026-04-26T13:11:09.93Z</time></trkpt><trkpt lat="43.7627261" lon="11.1918605"><ele>40.599999999999994</ele><time>2026-04-26T13:11:11.931Z</time></trkpt><trkpt lat="43.7627457" lon="11.1919867"><ele>40.4</ele><time>2026-04-26T13:11:13.93Z</time></trkpt><trkpt lat="43.7627686" lon="11.1921113"><ele>40.2</ele><time>2026-04-26T13:11:15.931Z</time></trkpt><trkpt lat="43.7627906" lon="11.192241"><ele>40.0</ele><time>2026-04-26T13:11:17.931Z</time></trkpt><trkpt lat="43.7628033" lon="11.1923554"><ele>40.0</ele><time>2026-04-26T13:11:19.931Z</time></trkpt><trkpt lat="43.7628209" lon="11.1924913"><ele>40.0</ele><time>2026-04-26T13:11:21.931Z</time></trkpt><trkpt lat="43.7628343" lon="11.192611"><ele>40.0</ele><time>2026-04-26T13:11:23.931Z</time></trkpt><trkpt lat="43.7628462" lon="11.1927336"><ele>40.0</ele><time>2026-04-26T13:11:25.931Z</time></trkpt><trkpt lat="43.7628649" lon="11.1928656"><ele>40.0</ele><time>2026-04-26T13:11:27.932Z</time></trkpt><trkpt lat="43.7628811" lon="11.1929729"><ele>40.0</ele><time>2026-04-26T13:11:29.932Z</time></trkpt><trkpt lat="43.7629016" lon="11.1930864"><ele>40.0</ele><time>2026-04-26T13:11:31.931Z</time></trkpt><trkpt lat="43.7629223" lon="11.1932208"><ele>40.0</ele><time>2026-04-26T13:11:33.93Z</time></trkpt><trkpt lat="43.7629389" lon="11.1933533"><ele>40.0</ele><time>2026-04-26T13:11:35.93Z</time></trkpt><trkpt lat="43.7629577" lon="11.1934891"><ele>40.0</ele><time>2026-04-26T13:11:37.931Z</time></trkpt><trkpt lat="43.7629764" lon="11.193633"><ele>40.4</ele><time>2026-04-26T13:11:39.931Z</time></trkpt><trkpt lat="43.7630017" lon="11.1937795"><ele>40.8</ele><time>2026-04-26T13:11:41.93Z</time></trkpt><trkpt lat="43.7630201" lon="11.1939281"><ele>41.2</ele><time>2026-04-26T13:11:43.931Z</time></trkpt><trkpt lat="43.7630417" lon="11.194087"><ele>41.6</ele><time>2026-04-26T13:11:45.929Z</time></trkpt><trkpt lat="43.7630617" lon="11.1942337"><ele>42.0</ele><time>2026-04-26T13:11:47.93Z</time></trkpt><trkpt lat="43.763091" lon="11.1943796"><ele>42.0</ele><time>2026-04-26T13:11:49.93Z</time></trkpt><trkpt lat="43.7631203" lon="11.1945397"><ele>42.0</ele><time>2026-04-26T13:11:51.93Z</time></trkpt><trkpt lat="43.7631619" lon="11.1946955"><ele>42.0</ele><time>2026-04-26T13:11:53.931Z</time></trkpt><trkpt lat="43.7632108" lon="11.194841"><ele>42.0</ele><time>2026-04-26T13:11:55.931Z</time></trkpt><trkpt lat="43.7632527" lon="11.1950092"><ele>41.8</ele><time>2026-04-26T13:11:57.93Z</time></trkpt><trkpt lat="43.7632985" lon="11.1951623"><ele>41.6</ele><time>2026-04-26T13:11:59.931Z</time></trkpt><trkpt lat="43.763341" lon="11.1953063"><ele>41.4</ele><time>2026-04-26T13:12:01.93Z</time></trkpt><trkpt lat="43.763381" lon="11.1954694"><ele>41.199999999999996</ele><time>2026-04-26T13:12:03.93Z</time></trkpt><trkpt lat="43.7634025" lon="11.195552"><ele>41.0</ele><time>2026-04-26T13:12:04.93Z</time></trkpt><trkpt lat="43.7634245" lon="11.1956965"><ele>41.0</ele><time>2026-04-26T13:12:06.93Z</time></trkpt><trkpt lat="43.7634372" lon="11.1957893"><ele>41.0</ele><time>2026-04-26T13:12:08.93Z</time></trkpt><trkpt lat="43.7634386" lon="11.1959037"><ele>41.0</ele><time>2026-04-26T13:12:11.931Z</time></trkpt><trkpt lat="43.763434" lon="11.1960336"><ele>41.0</ele><time>2026-04-26T13:12:13.93Z</time></trkpt><trkpt lat="43.7634036" lon="11.1961921"><ele>41.0</ele><time>2026-04-26T13:12:15.931Z</time></trkpt><trkpt lat="43.7633772" lon="11.1962772"><ele>41.0</ele><time>2026-04-26T13:12:16.931Z</time></trkpt><trkpt lat="43.7633569" lon="11.1964401"><ele>40.8</ele><time>2026-04-26T13:12:18.93Z</time></trkpt><trkpt lat="43.7633754" lon="11.196584"><ele>40.599999999999994</ele><time>2026-04-26T13:12:20.93Z</time></trkpt><trkpt lat="43.7634078" lon="11.1967237"><ele>40.4</ele><time>2026-04-26T13:12:22.93Z</time></trkpt><trkpt lat="43.7634545" lon="11.1968491"><ele>40.2</ele><time>2026-04-26T13:12:24.93Z</time></trkpt><trkpt lat="43.7634968" lon="11.1969636"><ele>40.0</ele><time>2026-04-26T13:12:26.93Z</time></trkpt><trkpt lat="43.7635591" lon="11.1970737"><ele>39.8</ele><time>2026-04-26T13:12:28.93Z</time></trkpt><trkpt lat="43.763587" lon="11.1971588"><ele>39.6</ele><time>2026-04-26T13:12:29.931Z</time></trkpt><trkpt lat="43.7636496" lon="11.1972497"><ele>39.4</ele><time>2026-04-26T13:12:31.93Z</time></trkpt><trkpt lat="43.7637115" lon="11.1973533"><ele>39.2</ele><time>2026-04-26T13:12:33.931Z</time></trkpt><trkpt lat="43.7637857" lon="11.1974697"><ele>39.0</ele><time>2026-04-26T13:12:35.93Z</time></trkpt><trkpt lat="43.7638448" lon="11.1975664"><ele>39.0</ele><time>2026-04-26T13:12:37.931Z</time></trkpt><trkpt lat="43.7639015" lon="11.1976896"><ele>39.0</ele><time>2026-04-26T13:12:39.928Z</time></trkpt><trkpt lat="43.7639587" lon="11.1978033"><ele>39.0</ele><time>2026-04-26T13:12:41.93Z</time></trkpt><trkpt lat="43.7640022" lon="11.1979279"><ele>39.0</ele><time>2026-04-26T13:12:43.931Z</time></trkpt><trkpt lat="43.7640322" lon="11.1980437"><ele>39.0</ele><time>2026-04-26T13:12:45.931Z</time></trkpt><trkpt lat="43.7640499" lon="11.1981357"><ele>38.8</ele><time>2026-04-26T13:12:47.93Z</time></trkpt><trkpt lat="43.7640795" lon="11.1982794"><ele>38.599999999999994</ele><time>2026-04-26T13:12:49.931Z</time></trkpt><trkpt lat="43.7641038" lon="11.1984007"><ele>38.4</ele><time>2026-04-26T13:12:51.93Z</time></trkpt><trkpt lat="43.7641238" lon="11.1985307"><ele>38.199999999999996</ele><time>2026-04-26T13:12:53.931Z</time></trkpt><trkpt lat="43.7641378" lon="11.1986541"><ele>38.0</ele><time>2026-04-26T13:12:55.931Z</time></trkpt><trkpt lat="43.7641472" lon="11.1987663"><ele>38.0</ele><time>2026-04-26T13:12:57.93Z</time></trkpt><trkpt lat="43.7641495" lon="11.198883"><ele>38.0</ele><time>2026-04-26T13:12:59.93Z</time></trkpt><trkpt lat="43.7641484" lon="11.1990076"><ele>38.0</ele><time>2026-04-26T13:13:01.93Z</time></trkpt><trkpt lat="43.7641438" lon="11.1991268"><ele>38.0</ele><time>2026-04-26T13:13:03.931Z</time></trkpt><trkpt lat="43.7641241" lon="11.1992599"><ele>38.0</ele><time>2026-04-26T13:13:05.93Z</time></trkpt><trkpt lat="43.7641059" lon="11.1993963"><ele>38.0</ele><time>2026-04-26T13:13:07.931Z</time></trkpt><trkpt lat="43.7640878" lon="11.1995365"><ele>38.0</ele><time>2026-04-26T13:13:09.93Z</time></trkpt><trkpt lat="43.7641025" lon="11.199672"><ele>38.0</ele><time>2026-04-26T13:13:11.931Z</time></trkpt><trkpt lat="43.7641235" lon="11.1997921"><ele>38.0</ele><time>2026-04-26T13:13:13.929Z</time></trkpt><trkpt lat="43.7641817" lon="11.1998953"><ele>38.0</ele><time>2026-04-26T13:13:15.931Z</time></trkpt><trkpt lat="43.7642322" lon="11.1999672"><ele>38.33333333333333</ele><time>2026-04-26T13:13:17.929Z</time></trkpt><trkpt lat="43.7643" lon="11.2000234"><ele>38.666666666666664</ele><time>2026-04-26T13:13:19.929Z</time></trkpt><trkpt lat="43.7643481" lon="11.2000887"><ele>39.0</ele><time>2026-04-26T13:13:21.93Z</time></trkpt><trkpt lat="43.7643803" lon="11.2001866"><ele>39.333333333333336</ele><time>2026-04-26T13:13:24.93Z</time></trkpt><trkpt lat="43.7644656" lon="11.2001991"><ele>39.66666666666667</ele><time>2026-04-26T13:13:34.93Z</time></trkpt><trkpt lat="43.7645393" lon="11.2001794"><ele>40.0</ele><time>2026-04-26T13:13:37.93Z</time></trkpt><trkpt lat="43.7646215" lon="11.2001822"><ele>40.14285714285714</ele><time>2026-04-26T13:13:53.93Z</time></trkpt><trkpt lat="43.7646677" lon="11.2002804"><ele>40.285714285714285</ele><time>2026-04-26T13:13:56.93Z</time></trkpt><trkpt lat="43.764689" lon="11.2003681"><ele>40.42857142857143</ele><time>2026-04-26T13:13:58.93Z</time></trkpt><trkpt lat="43.7647163" lon="11.2004594"><ele>40.57142857142857</ele><time>2026-04-26T13:14:00.929Z</time></trkpt><trkpt lat="43.7647501" lon="11.2005447"><ele>40.714285714285715</ele><time>2026-04-26T13:14:02.93Z</time></trkpt><trkpt lat="43.7648034" lon="11.200616"><ele>40.857142857142854</ele><time>2026-04-26T13:14:04.931Z</time></trkpt><trkpt lat="43.7648564" lon="11.2006909"><ele>41.0</ele><time>2026-04-26T13:14:06.931Z</time></trkpt><trkpt lat="43.7649113" lon="11.2007563"><ele>41.166666666666664</ele><time>2026-04-26T13:14:08.93Z</time></trkpt><trkpt lat="43.7649783" lon="11.2008166"><ele>41.33333333333333</ele><time>2026-04-26T13:14:10.93Z</time></trkpt><trkpt lat="43.7650525" lon="11.2008816"><ele>41.5</ele><time>2026-04-26T13:14:12.931Z</time></trkpt><trkpt lat="43.7651322" lon="11.2009471"><ele>41.666666666666664</ele><time>2026-04-26T13:14:14.931Z</time></trkpt><trkpt lat="43.7652085" lon="11.2010116"><ele>41.833333333333336</ele><time>2026-04-26T13:14:16.93Z</time></trkpt><trkpt lat="43.7652809" lon="11.201071"><ele>42.0</ele><time>2026-04-26T13:14:18.93Z</time></trkpt><trkpt lat="43.7653572" lon="11.2011339"><ele>42.0</ele><time>2026-04-26T13:14:20.929Z</time></trkpt><trkpt lat="43.7654338" lon="11.2011988"><ele>42.0</ele><time>2026-04-26T13:14:22.93Z</time></trkpt><trkpt lat="43.7655072" lon="11.2012577"><ele>42.0</ele><time>2026-04-26T13:14:24.93Z</time></trkpt><trkpt lat="43.7655732" lon="11.2013161"><ele>42.0</ele><time>2026-04-26T13:14:26.93Z</time></trkpt><trkpt lat="43.7656341" lon="11.2013756"><ele>42.0</ele><time>2026-04-26T13:14:28.931Z</time></trkpt><trkpt lat="43.7657031" lon="11.201442"><ele>42.0</ele><time>2026-04-26T13:14:30.931Z</time></trkpt><trkpt lat="43.7657726" lon="11.2015121"><ele>41.833333333333336</ele><time>2026-04-26T13:14:32.928Z</time></trkpt><trkpt lat="43.765841" lon="11.2015817"><ele>41.666666666666664</ele><time>2026-04-26T13:14:34.93Z</time></trkpt><trkpt lat="43.7659137" lon="11.2016479"><ele>41.5</ele><time>2026-04-26T13:14:36.929Z</time></trkpt><trkpt lat="43.7659857" lon="11.2017037"><ele>41.33333333333333</ele><time>2026-04-26T13:14:38.931Z</time></trkpt><trkpt lat="43.7660439" lon="11.2017532"><ele>41.166666666666664</ele><time>2026-04-26T13:14:40.931Z</time></trkpt><trkpt lat="43.7661051" lon="11.2018121"><ele>41.0</ele><time>2026-04-26T13:14:42.93Z</time></trkpt><trkpt lat="43.7661751" lon="11.2018812"><ele>41.0</ele><time>2026-04-26T13:14:44.93Z</time></trkpt><trkpt lat="43.7662517" lon="11.2019505"><ele>41.0</ele><time>2026-04-26T13:14:46.931Z</time></trkpt><trkpt lat="43.766326" lon="11.2020128"><ele>41.0</ele><time>2026-04-26T13:14:48.929Z</time></trkpt><trkpt lat="43.7664063" lon="11.2020863"><ele>41.0</ele><time>2026-04-26T13:14:50.93Z</time></trkpt><trkpt lat="43.7664812" lon="11.2021511"><ele>41.0</ele><time>2026-04-26T13:14:52.931Z</time></trkpt><trkpt lat="43.7665556" lon="11.2022126"><ele>41.0</ele><time>2026-04-26T13:14:54.929Z</time></trkpt><trkpt lat="43.7666324" lon="11.202271"><ele>41.0</ele><time>2026-04-26T13:14:56.93Z</time></trkpt><trkpt lat="43.7667082" lon="11.2023336"><ele>41.0</ele><time>2026-04-26T13:14:58.93Z</time></trkpt><trkpt lat="43.7667814" lon="11.2024092"><ele>41.0</ele><time>2026-04-26T13:15:00.929Z</time></trkpt><trkpt lat="43.7668532" lon="11.2024771"><ele>41.0</ele><time>2026-04-26T13:15:02.929Z</time></trkpt><trkpt lat="43.7669178" lon="11.202544"><ele>41.0</ele><time>2026-04-26T13:15:04.931Z</time></trkpt><trkpt lat="43.7669867" lon="11.2026079"><ele>41.4</ele><time>2026-04-26T13:15:06.93Z</time></trkpt><trkpt lat="43.7670582" lon="11.2026722"><ele>41.8</ele><time>2026-04-26T13:15:08.929Z</time></trkpt><trkpt lat="43.7671373" lon="11.2027369"><ele>42.199999999999996</ele><time>2026-04-26T13:15:10.929Z</time></trkpt><trkpt lat="43.7672161" lon="11.2027952"><ele>42.599999999999994</ele><time>2026-04-26T13:15:12.93Z</time></trkpt><trkpt lat="43.7673008" lon="11.2028693"><ele>43.0</ele><time>2026-04-26T13:15:14.931Z</time></trkpt><trkpt lat="43.7673855" lon="11.202954"><ele>43.0</ele><time>2026-04-26T13:15:16.93Z</time></trkpt><trkpt lat="43.7674568" lon="11.2030275"><ele>43.0</ele><time>2026-04-26T13:15:18.93Z</time></trkpt><trkpt lat="43.7675311" lon="11.2030925"><ele>43.0</ele><time>2026-04-26T13:15:20.93Z</time></trkpt><trkpt lat="43.767588" lon="11.203143"><ele>43.0</ele><time>2026-04-26T13:15:22.93Z</time></trkpt><trkpt lat="43.7676581" lon="11.2032135"><ele>43.0</ele><time>2026-04-26T13:15:24.929Z</time></trkpt><trkpt lat="43.767733" lon="11.2032735"><ele>43.0</ele><time>2026-04-26T13:15:26.931Z</time></trkpt><trkpt lat="43.7677994" lon="11.2033131"><ele>43.00000000000001</ele><time>2026-04-26T13:15:28.93Z</time></trkpt><trkpt lat="43.7678544" lon="11.2033688"><ele>43.0</ele><time>2026-04-26T13:15:30.93Z</time></trkpt><trkpt lat="43.7679086" lon="11.2034173"><ele>43.0</ele><time>2026-04-26T13:15:32.931Z</time></trkpt><trkpt lat="43.767962" lon="11.2034934"><ele>43.0</ele><time>2026-04-26T13:15:34.93Z</time></trkpt><trkpt lat="43.768014" lon="11.2035618"><ele>43.0</ele><time>2026-04-26T13:15:36.93Z</time></trkpt><trkpt lat="43.7680767" lon="11.2036214"><ele>43.00000000000001</ele><time>2026-04-26T13:15:38.931Z</time></trkpt><trkpt lat="43.768147" lon="11.2036866"><ele>43.0</ele><time>2026-04-26T13:15:40.931Z</time></trkpt><trkpt lat="43.7682241" lon="11.2037471"><ele>43.0</ele><time>2026-04-26T13:15:42.931Z</time></trkpt><trkpt lat="43.7683154" lon="11.2038232"><ele>43.0</ele><time>2026-04-26T13:15:44.93Z</time></trkpt><trkpt lat="43.7683885" lon="11.2038915"><ele>43.0</ele><time>2026-04-26T13:15:46.93Z</time></trkpt><trkpt lat="43.7684641" lon="11.2039532"><ele>43.0</ele><time>2026-04-26T13:15:48.93Z</time></trkpt><trkpt lat="43.7685385" lon="11.2039907"><ele>43.0</ele><time>2026-04-26T13:15:50.931Z</time></trkpt><trkpt lat="43.7686194" lon="11.2040222"><ele>43.0</ele><time>2026-04-26T13:15:52.93Z</time></trkpt><trkpt lat="43.7686862" lon="11.2040052"><ele>42.833333333333336</ele><time>2026-04-26T13:15:54.93Z</time></trkpt><trkpt lat="43.7687358" lon="11.2040896"><ele>42.66666666666667</ele><time>2026-04-26T13:15:57.93Z</time></trkpt><trkpt lat="43.7687583" lon="11.2041851"><ele>42.5</ele><time>2026-04-26T13:16:03.931Z</time></trkpt><trkpt lat="43.7687725" lon="11.204277"><ele>42.333333333333336</ele><time>2026-04-26T13:16:05.931Z</time></trkpt><trkpt lat="43.7687804" lon="11.2043949"><ele>42.166666666666664</ele><time>2026-04-26T13:16:07.929Z</time></trkpt><trkpt lat="43.7687593" lon="11.2045002"><ele>42.0</ele><time>2026-04-26T13:16:09.929Z</time></trkpt><trkpt lat="43.7687219" lon="11.2045845"><ele>42.0</ele><time>2026-04-26T13:16:11.93Z</time></trkpt><trkpt lat="43.7686816" lon="11.2046702"><ele>42.0</ele><time>2026-04-26T13:16:13.93Z</time></trkpt><trkpt lat="43.7686431" lon="11.2047545"><ele>42.0</ele><time>2026-04-26T13:16:15.93Z</time></trkpt><trkpt lat="43.7686087" lon="11.2048301"><ele>42.0</ele><time>2026-04-26T13:16:17.931Z</time></trkpt><trkpt lat="43.7685807" lon="11.2049103"><ele>42.0</ele><time>2026-04-26T13:16:19.929Z</time></trkpt><trkpt lat="43.7685634" lon="11.2049973"><ele>42.0</ele><time>2026-04-26T13:16:21.931Z</time></trkpt><trkpt lat="43.7685436" lon="11.2050902"><ele>42.0</ele><time>2026-04-26T13:16:23.93Z</time></trkpt><trkpt lat="43.7685266" lon="11.205182"><ele>42.0</ele><time>2026-04-26T13:16:25.93Z</time></trkpt><trkpt lat="43.7685067" lon="11.2052714"><ele>42.0</ele><time>2026-04-26T13:16:27.931Z</time></trkpt><trkpt lat="43.7684736" lon="11.205383"><ele>42.0</ele><time>2026-04-26T13:16:30.929Z</time></trkpt><trkpt lat="43.7684332" lon="11.2054766"><ele>42.0</ele><time>2026-04-26T13:16:34.93Z</time></trkpt><trkpt lat="43.7683785" lon="11.2055424"><ele>42.0</ele><time>2026-04-26T13:16:40.93Z</time></trkpt><trkpt lat="43.7684236" lon="11.2056071"><ele>42.0</ele><time>2026-04-26T13:16:44.929Z</time></trkpt><trkpt lat="43.7684847" lon="11.2056295"><ele>42.0</ele><time>2026-04-26T13:16:47.93Z</time></trkpt><trkpt lat="43.7685715" lon="11.2056638"><ele>42.0</ele><time>2026-04-26T13:16:50.929Z</time></trkpt><trkpt lat="43.7686332" lon="11.205696"><ele>42.0</ele><time>2026-04-26T13:16:52.93Z</time></trkpt><trkpt lat="43.7686927" lon="11.2057265"><ele>42.0</ele><time>2026-04-26T13:16:54.929Z</time></trkpt><trkpt lat="43.7687577" lon="11.205755"><ele>42.0</ele><time>2026-04-26T13:16:56.93Z</time></trkpt><trkpt lat="43.7688193" lon="11.2057806"><ele>42.0</ele><time>2026-04-26T13:16:58.93Z</time></trkpt><trkpt lat="43.7688827" lon="11.2057995"><ele>42.0</ele><time>2026-04-26T13:17:00.93Z</time></trkpt><trkpt lat="43.7689752" lon="11.2058333"><ele>42.0</ele><time>2026-04-26T13:17:03.93Z</time></trkpt><trkpt lat="43.7690625" lon="11.2058684"><ele>42.0</ele><time>2026-04-26T13:17:06.93Z</time></trkpt><trkpt lat="43.7691483" lon="11.205914"><ele>42.0</ele><time>2026-04-26T13:17:09.929Z</time></trkpt><trkpt lat="43.7692216" lon="11.2059542"><ele>42.0</ele><time>2026-04-26T13:17:12.93Z</time></trkpt><trkpt lat="43.7692953" lon="11.205981"><ele>42.0</ele><time>2026-04-26T13:17:16.93Z</time></trkpt><trkpt lat="43.7693737" lon="11.206"><ele>42.0</ele><time>2026-04-26T13:17:23.929Z</time></trkpt><trkpt lat="43.7694409" lon="11.2060042"><ele>42.0</ele><time>2026-04-26T13:17:26.929Z</time></trkpt><trkpt lat="43.7695148" lon="11.2060206"><ele>42.0</ele><time>2026-04-26T13:17:28.93Z</time></trkpt><trkpt lat="43.7695808" lon="11.2060239"><ele>42.0</ele><time>2026-04-26T13:17:30.928Z</time></trkpt><trkpt lat="43.7696659" lon="11.2060363"><ele>42.0</ele><time>2026-04-26T13:17:33.929Z</time></trkpt><trkpt lat="43.769731" lon="11.2060504"><ele>42.0</ele><time>2026-04-26T13:17:35.929Z</time></trkpt><trkpt lat="43.7698165" lon="11.2060806"><ele>42.0</ele><time>2026-04-26T13:17:38.929Z</time></trkpt><trkpt lat="43.7698773" lon="11.2061053"><ele>42.0</ele><time>2026-04-26T13:17:41.929Z</time></trkpt><trkpt lat="43.769952" lon="11.2061344"><ele>42.0</ele><time>2026-04-26T13:17:58.931Z</time></trkpt><trkpt lat="43.770014" lon="11.2061639"><ele>42.0</ele><time>2026-04-26T13:18:00.929Z</time></trkpt><trkpt lat="43.7700834" lon="11.2061964"><ele>42.0</ele><time>2026-04-26T13:18:02.93Z</time></trkpt><trkpt lat="43.7701553" lon="11.2062334"><ele>42.0</ele><time>2026-04-26T13:18:04.93Z</time></trkpt><trkpt lat="43.7702324" lon="11.2062705"><ele>42.0</ele><time>2026-04-26T13:18:06.93Z</time></trkpt><trkpt lat="43.7703194" lon="11.2063"><ele>42.0</ele><time>2026-04-26T13:18:08.93Z</time></trkpt><trkpt lat="43.7704045" lon="11.2063326"><ele>42.0</ele><time>2026-04-26T13:18:10.93Z</time></trkpt><trkpt lat="43.7704809" lon="11.2063654"><ele>42.0</ele><time>2026-04-26T13:18:12.929Z</time></trkpt><trkpt lat="43.7705592" lon="11.2063941"><ele>42.0</ele><time>2026-04-26T13:18:14.93Z</time></trkpt><trkpt lat="43.7706531" lon="11.2064218"><ele>42.0</ele><time>2026-04-26T13:18:16.93Z</time></trkpt><trkpt lat="43.7707308" lon="11.2064535"><ele>42.0</ele><time>2026-04-26T13:18:18.931Z</time></trkpt><trkpt lat="43.7708012" lon="11.2064893"><ele>42.0</ele><time>2026-04-26T13:18:20.93Z</time></trkpt><trkpt lat="43.770873" lon="11.2065233"><ele>42.0</ele><time>2026-04-26T13:18:22.929Z</time></trkpt><trkpt lat="43.7709348" lon="11.2065554"><ele>42.0</ele><time>2026-04-26T13:18:24.93Z</time></trkpt><trkpt lat="43.7710093" lon="11.2065957"><ele>42.0</ele><time>2026-04-26T13:18:26.928Z</time></trkpt><trkpt lat="43.771099" lon="11.2066466"><ele>42.0</ele><time>2026-04-26T13:18:28.929Z</time></trkpt><trkpt lat="43.7711794" lon="11.2066597"><ele>42.0</ele><time>2026-04-26T13:18:30.929Z</time></trkpt><trkpt lat="43.7712587" lon="11.2067031"><ele>42.0</ele><time>2026-04-26T13:18:32.93Z</time></trkpt><trkpt lat="43.7713443" lon="11.2067441"><ele>42.0</ele><time>2026-04-26T13:18:34.93Z</time></trkpt><trkpt lat="43.7714224" lon="11.2067665"><ele>42.0</ele><time>2026-04-26T13:18:36.93Z</time></trkpt><trkpt lat="43.7715157" lon="11.2068131"><ele>42.0</ele><time>2026-04-26T13:18:38.929Z</time></trkpt><trkpt lat="43.7715995" lon="11.2068464"><ele>42.0</ele><time>2026-04-26T13:18:40.929Z</time></trkpt><trkpt lat="43.7716816" lon="11.2069023"><ele>42.0</ele><time>2026-04-26T13:18:42.928Z</time></trkpt><trkpt lat="43.7717704" lon="11.2069443"><ele>42.0</ele><time>2026-04-26T13:18:44.931Z</time></trkpt><trkpt lat="43.7718602" lon="11.2069975"><ele>42.0</ele><time>2026-04-26T13:18:46.93Z</time></trkpt><trkpt lat="43.7719381" lon="11.2070425"><ele>42.0</ele><time>2026-04-26T13:18:48.93Z</time></trkpt><trkpt lat="43.7720086" lon="11.2071139"><ele>42.0</ele><time>2026-04-26T13:18:50.93Z</time></trkpt><trkpt lat="43.772098" lon="11.2071943"><ele>42.0</ele><time>2026-04-26T13:18:52.93Z</time></trkpt><trkpt lat="43.7721826" lon="11.2072643"><ele>42.0</ele><time>2026-04-26T13:18:54.929Z</time></trkpt><trkpt lat="43.7722638" lon="11.2073351"><ele>42.400000000000006</ele><time>2026-04-26T13:18:56.929Z</time></trkpt><trkpt lat="43.7723507" lon="11.2074178"><ele>42.800000000000004</ele><time>2026-04-26T13:18:58.93Z</time></trkpt><trkpt lat="43.7724421" lon="11.2075069"><ele>43.2</ele><time>2026-04-26T13:19:00.929Z</time></trkpt><trkpt lat="43.7725132" lon="11.2075853"><ele>43.6</ele><time>2026-04-26T13:19:02.93Z</time></trkpt><trkpt lat="43.7726001" lon="11.2076966"><ele>44.0</ele><time>2026-04-26T13:19:04.929Z</time></trkpt><trkpt lat="43.7726883" lon="11.2077864"><ele>44.6</ele><time>2026-04-26T13:19:06.929Z</time></trkpt><trkpt lat="43.7727666" lon="11.2078541"><ele>45.2</ele><time>2026-04-26T13:19:08.93Z</time></trkpt><trkpt lat="43.7728417" lon="11.2079223"><ele>45.800000000000004</ele><time>2026-04-26T13:19:10.93Z</time></trkpt><trkpt lat="43.7729155" lon="11.2079768"><ele>46.400000000000006</ele><time>2026-04-26T13:19:12.93Z</time></trkpt><trkpt lat="43.7729982" lon="11.2080364"><ele>47.0</ele><time>2026-04-26T13:19:14.93Z</time></trkpt><trkpt lat="43.7730892" lon="11.2080604"><ele>47.0</ele><time>2026-04-26T13:19:16.928Z</time></trkpt><trkpt lat="43.773189" lon="11.2081195"><ele>47.0</ele><time>2026-04-26T13:19:18.929Z</time></trkpt><trkpt lat="43.7732462" lon="11.2081749"><ele>47.0</ele><time>2026-04-26T13:19:19.93Z</time></trkpt><trkpt lat="43.773305" lon="11.2082584"><ele>47.0</ele><time>2026-04-26T13:19:21.929Z</time></trkpt><trkpt lat="43.7733544" lon="11.2083422"><ele>47.0</ele><time>2026-04-26T13:19:23.929Z</time></trkpt><trkpt lat="43.773419" lon="11.2084161"><ele>47.0</ele><time>2026-04-26T13:19:25.931Z</time></trkpt><trkpt lat="43.7734867" lon="11.2084868"><ele>46.666666666666664</ele><time>2026-04-26T13:19:27.93Z</time></trkpt><trkpt lat="43.7735463" lon="11.2085552"><ele>46.33333333333333</ele><time>2026-04-26T13:19:29.928Z</time></trkpt><trkpt lat="43.7736109" lon="11.2086116"><ele>46.0</ele><time>2026-04-26T13:19:31.93Z</time></trkpt><trkpt lat="43.7736655" lon="11.2086795"><ele>45.666666666666664</ele><time>2026-04-26T13:19:33.929Z</time></trkpt><trkpt lat="43.7737405" lon="11.2087277"><ele>45.333333333333336</ele><time>2026-04-26T13:19:35.928Z</time></trkpt><trkpt lat="43.7738215" lon="11.2088097"><ele>45.0</ele><time>2026-04-26T13:19:37.93Z</time></trkpt><trkpt lat="43.7738905" lon="11.2088875"><ele>45.0</ele><time>2026-04-26T13:19:39.929Z</time></trkpt><trkpt lat="43.7739594" lon="11.2089513"><ele>45.0</ele><time>2026-04-26T13:19:41.931Z</time></trkpt><trkpt lat="43.7740082" lon="11.2090238"><ele>45.0</ele><time>2026-04-26T13:19:43.93Z</time></trkpt><trkpt lat="43.7740654" lon="11.2090909"><ele>45.0</ele><time>2026-04-26T13:19:45.93Z</time></trkpt><trkpt lat="43.7741244" lon="11.209158"><ele>45.0</ele><time>2026-04-26T13:19:47.929Z</time></trkpt><trkpt lat="43.7741961" lon="11.2092394"><ele>45.0</ele><time>2026-04-26T13:19:49.929Z</time></trkpt><trkpt lat="43.7742636" lon="11.2093182"><ele>44.166666666666664</ele><time>2026-04-26T13:19:51.929Z</time></trkpt><trkpt lat="43.7743127" lon="11.2093961"><ele>43.333333333333336</ele><time>2026-04-26T13:19:53.93Z</time></trkpt><trkpt lat="43.7743814" lon="11.2094798"><ele>42.5</ele><time>2026-04-26T13:19:55.93Z</time></trkpt><trkpt lat="43.7744601" lon="11.209552"><ele>41.66666666666667</ele><time>2026-04-26T13:19:57.929Z</time></trkpt><trkpt lat="43.7745108" lon="11.2096041"><ele>40.833333333333336</ele><time>2026-04-26T13:19:58.928Z</time></trkpt><trkpt lat="43.7745878" lon="11.209687"><ele>40.0</ele><time>2026-04-26T13:20:00.93Z</time></trkpt><trkpt lat="43.7746793" lon="11.2097409"><ele>40.0</ele><time>2026-04-26T13:20:02.93Z</time></trkpt><trkpt lat="43.7747505" lon="11.2097896"><ele>40.0</ele><time>2026-04-26T13:20:04.929Z</time></trkpt><trkpt lat="43.7748271" lon="11.2098408"><ele>40.0</ele><time>2026-04-26T13:20:06.928Z</time></trkpt><trkpt lat="43.7748999" lon="11.2098927"><ele>40.0</ele><time>2026-04-26T13:20:09.928Z</time></trkpt><trkpt lat="43.7749567" lon="11.2099427"><ele>40.0</ele><time>2026-04-26T13:20:11.93Z</time></trkpt><trkpt lat="43.7750352" lon="11.2100069"><ele>40.0</ele><time>2026-04-26T13:20:14.929Z</time></trkpt><trkpt lat="43.7751074" lon="11.2100699"><ele>40.0</ele><time>2026-04-26T13:20:17.93Z</time></trkpt><trkpt lat="43.7751704" lon="11.2101175"><ele>40.0</ele><time>2026-04-26T13:20:20.928Z</time></trkpt><trkpt lat="43.7752408" lon="11.210169"><ele>40.0</ele><time>2026-04-26T13:20:24.93Z</time></trkpt><trkpt lat="43.7753028" lon="11.2102318"><ele>40.0</ele><time>2026-04-26T13:21:03.929Z</time></trkpt><trkpt lat="43.7753647" lon="11.2102828"><ele>40.0</ele><time>2026-04-26T13:21:05.928Z</time></trkpt><trkpt lat="43.7754316" lon="11.2103542"><ele>40.0</ele><time>2026-04-26T13:21:07.929Z</time></trkpt><trkpt lat="43.7755035" lon="11.2104235"><ele>40.16666666666667</ele><time>2026-04-26T13:21:09.929Z</time></trkpt><trkpt lat="43.7755708" lon="11.2104893"><ele>40.333333333333336</ele><time>2026-04-26T13:21:11.928Z</time></trkpt><trkpt lat="43.7756376" lon="11.2105467"><ele>40.5</ele><time>2026-04-26T13:21:13.929Z</time></trkpt><trkpt lat="43.7757035" lon="11.2105964"><ele>40.666666666666664</ele><time>2026-04-26T13:21:15.929Z</time></trkpt><trkpt lat="43.775779" lon="11.2106498"><ele>40.83333333333333</ele><time>2026-04-26T13:21:17.93Z</time></trkpt><trkpt lat="43.7758541" lon="11.2107106"><ele>41.0</ele><time>2026-04-26T13:21:19.929Z</time></trkpt><trkpt lat="43.7759209" lon="11.2107621"><ele>41.166666666666664</ele><time>2026-04-26T13:21:21.929Z</time></trkpt><trkpt lat="43.7759803" lon="11.2108198"><ele>41.33333333333333</ele><time>2026-04-26T13:21:23.929Z</time></trkpt><trkpt lat="43.7760399" lon="11.2108665"><ele>41.5</ele><time>2026-04-26T13:21:25.929Z</time></trkpt><trkpt lat="43.776108" lon="11.2109079"><ele>41.666666666666664</ele><time>2026-04-26T13:21:27.928Z</time></trkpt><trkpt lat="43.7761838" lon="11.2109603"><ele>41.833333333333336</ele><time>2026-04-26T13:21:29.929Z</time></trkpt><trkpt lat="43.7762596" lon="11.2110168"><ele>42.0</ele><time>2026-04-26T13:21:31.93Z</time></trkpt><trkpt lat="43.7763278" lon="11.2110651"><ele>42.333333333333336</ele><time>2026-04-26T13:21:33.93Z</time></trkpt><trkpt lat="43.7763952" lon="11.2111161"><ele>42.666666666666664</ele><time>2026-04-26T13:21:35.929Z</time></trkpt><trkpt lat="43.7764638" lon="11.2111727"><ele>43.0</ele><time>2026-04-26T13:21:37.928Z</time></trkpt><trkpt lat="43.7765296" lon="11.2112295"><ele>43.33333333333333</ele><time>2026-04-26T13:21:39.929Z</time></trkpt><trkpt lat="43.7766002" lon="11.2112837"><ele>43.666666666666664</ele><time>2026-04-26T13:21:41.928Z</time></trkpt><trkpt lat="43.7766665" lon="11.2113406"><ele>44.0</ele><time>2026-04-26T13:21:43.927Z</time></trkpt><trkpt lat="43.7767302" lon="11.2113958"><ele>44.0</ele><time>2026-04-26T13:21:45.929Z</time></trkpt><trkpt lat="43.7768044" lon="11.2114592"><ele>44.0</ele><time>2026-04-26T13:21:47.929Z</time></trkpt><trkpt lat="43.776879" lon="11.2115188"><ele>44.0</ele><time>2026-04-26T13:21:49.927Z</time></trkpt><trkpt lat="43.7769535" lon="11.2115834"><ele>44.0</ele><time>2026-04-26T13:21:51.929Z</time></trkpt><trkpt lat="43.77703" lon="11.2116456"><ele>44.0</ele><time>2026-04-26T13:21:53.929Z</time></trkpt><trkpt lat="43.7771017" lon="11.2117064"><ele>44.0</ele><time>2026-04-26T13:21:55.929Z</time></trkpt><trkpt lat="43.7771698" lon="11.2117556"><ele>44.166666666666664</ele><time>2026-04-26T13:21:57.929Z</time></trkpt><trkpt lat="43.777233" lon="11.2117983"><ele>44.33333333333333</ele><time>2026-04-26T13:21:59.929Z</time></trkpt><trkpt lat="43.7772931" lon="11.2118448"><ele>44.5</ele><time>2026-04-26T13:22:01.929Z</time></trkpt><trkpt lat="43.7773507" lon="11.2119031"><ele>44.666666666666664</ele><time>2026-04-26T13:22:03.928Z</time></trkpt><trkpt lat="43.7774237" lon="11.2119749"><ele>44.833333333333336</ele><time>2026-04-26T13:22:05.929Z</time></trkpt><trkpt lat="43.7775118" lon="11.2120515"><ele>45.0</ele><time>2026-04-26T13:22:07.929Z</time></trkpt><trkpt lat="43.7775712" lon="11.2121034"><ele>45.0</ele><time>2026-04-26T13:22:08.929Z</time></trkpt><trkpt lat="43.7776528" lon="11.2121687"><ele>45.0</ele><time>2026-04-26T13:22:10.928Z</time></trkpt><trkpt lat="43.7777322" lon="11.212235"><ele>45.0</ele><time>2026-04-26T13:22:12.929Z</time></trkpt><trkpt lat="43.7778092" lon="11.2122923"><ele>45.0</ele><time>2026-04-26T13:22:14.928Z</time></trkpt><trkpt lat="43.7778845" lon="11.2123459"><ele>45.0</ele><time>2026-04-26T13:22:16.929Z</time></trkpt><trkpt lat="43.777956" lon="11.2124019"><ele>45.0</ele><time>2026-04-26T13:22:18.93Z</time></trkpt><trkpt lat="43.7780229" lon="11.2124477"><ele>44.666666666666664</ele><time>2026-04-26T13:22:20.927Z</time></trkpt><trkpt lat="43.7780793" lon="11.2124962"><ele>44.333333333333336</ele><time>2026-04-26T13:22:22.929Z</time></trkpt><trkpt lat="43.778158" lon="11.2124182"><ele>44.0</ele><time>2026-04-26T13:22:25.929Z</time></trkpt><trkpt lat="43.7781975" lon="11.2123179"><ele>43.66666666666667</ele><time>2026-04-26T13:22:27.929Z</time></trkpt><trkpt lat="43.7782385" lon="11.2121909"><ele>43.333333333333336</ele><time>2026-04-26T13:22:29.928Z</time></trkpt><trkpt lat="43.7782623" lon="11.2120784"><ele>43.0</ele><time>2026-04-26T13:22:31.929Z</time></trkpt><trkpt lat="43.7782912" lon="11.2119373"><ele>43.0</ele><time>2026-04-26T13:22:33.928Z</time></trkpt><trkpt lat="43.7783008" lon="11.2118107"><ele>43.0</ele><time>2026-04-26T13:22:35.927Z</time></trkpt><trkpt lat="43.7783189" lon="11.211688"><ele>43.0</ele><time>2026-04-26T13:22:37.928Z</time></trkpt><trkpt lat="43.7783371" lon="11.2115612"><ele>43.0</ele><time>2026-04-26T13:22:39.927Z</time></trkpt><trkpt lat="43.7783648" lon="11.2114509"><ele>43.0</ele><time>2026-04-26T13:22:41.928Z</time></trkpt><trkpt lat="43.7783744" lon="11.2113522"><ele>43.0</ele><time>2026-04-26T13:22:43.929Z</time></trkpt><trkpt lat="43.7783898" lon="11.2112499"><ele>43.0</ele><time>2026-04-26T13:22:45.93Z</time></trkpt><trkpt lat="43.7784076" lon="11.2111502"><ele>43.0</ele><time>2026-04-26T13:22:47.929Z</time></trkpt><trkpt lat="43.7784253" lon="11.2110466"><ele>43.0</ele><time>2026-04-26T13:22:49.928Z</time></trkpt><trkpt lat="43.7784446" lon="11.2109335"><ele>43.0</ele><time>2026-04-26T13:22:51.928Z</time></trkpt><trkpt lat="43.7784578" lon="11.2108371"><ele>43.0</ele><time>2026-04-26T13:22:53.929Z</time></trkpt><trkpt lat="43.7784758" lon="11.210744"><ele>43.0</ele><time>2026-04-26T13:22:55.928Z</time></trkpt><trkpt lat="43.778494" lon="11.2106432"><ele>42.833333333333336</ele><time>2026-04-26T13:22:57.929Z</time></trkpt><trkpt lat="43.7785183" lon="11.2105253"><ele>42.66666666666667</ele><time>2026-04-26T13:22:59.928Z</time></trkpt><trkpt lat="43.7785413" lon="11.2104166"><ele>42.5</ele><time>2026-04-26T13:23:01.929Z</time></trkpt><trkpt lat="43.7785678" lon="11.2103148"><ele>42.333333333333336</ele><time>2026-04-26T13:23:03.929Z</time></trkpt><trkpt lat="43.7785998" lon="11.2102348"><ele>42.166666666666664</ele><time>2026-04-26T13:23:05.928Z</time></trkpt><trkpt lat="43.7786285" lon="11.2101549"><ele>42.0</ele><time>2026-04-26T13:23:07.928Z</time></trkpt><trkpt lat="43.7786486" lon="11.2100588"><ele>42.0</ele><time>2026-04-26T13:23:09.929Z</time></trkpt><trkpt lat="43.7786591" lon="11.209948"><ele>42.0</ele><time>2026-04-26T13:23:11.929Z</time></trkpt><trkpt lat="43.7786776" lon="11.2098358"><ele>42.0</ele><time>2026-04-26T13:23:13.928Z</time></trkpt><trkpt lat="43.7786945" lon="11.2097354"><ele>42.0</ele><time>2026-04-26T13:23:15.928Z</time></trkpt><trkpt lat="43.7787107" lon="11.2096393"><ele>42.0</ele><time>2026-04-26T13:23:17.929Z</time></trkpt><trkpt lat="43.7787235" lon="11.2095498"><ele>42.0</ele><time>2026-04-26T13:23:19.929Z</time></trkpt><trkpt lat="43.7787548" lon="11.2094306"><ele>42.166666666666664</ele><time>2026-04-26T13:23:22.929Z</time></trkpt><trkpt lat="43.7787684" lon="11.2093422"><ele>42.333333333333336</ele><time>2026-04-26T13:23:24.929Z</time></trkpt><trkpt lat="43.7787858" lon="11.209244"><ele>42.5</ele><time>2026-04-26T13:23:26.929Z</time></trkpt><trkpt lat="43.7788131" lon="11.2091347"><ele>42.66666666666667</ele><time>2026-04-26T13:23:28.929Z</time></trkpt><trkpt lat="43.7788443" lon="11.209024"><ele>42.833333333333336</ele><time>2026-04-26T13:23:30.928Z</time></trkpt><trkpt lat="43.7788716" lon="11.2089164"><ele>43.0</ele><time>2026-04-26T13:23:32.929Z</time></trkpt><trkpt lat="43.7788921" lon="11.2088112"><ele>42.66666666666667</ele><time>2026-04-26T13:23:34.927Z</time></trkpt><trkpt lat="43.7789135" lon="11.2087016"><ele>42.333333333333336</ele><time>2026-04-26T13:23:36.929Z</time></trkpt><trkpt lat="43.7789358" lon="11.2085922"><ele>42.0</ele><time>2026-04-26T13:23:38.93Z</time></trkpt><trkpt lat="43.7789604" lon="11.2084817"><ele>41.666666666666664</ele><time>2026-04-26T13:23:40.929Z</time></trkpt><trkpt lat="43.7789816" lon="11.208367"><ele>41.33333333333333</ele><time>2026-04-26T13:23:42.927Z</time></trkpt><trkpt lat="43.7789981" lon="11.2082521"><ele>41.0</ele><time>2026-04-26T13:23:44.929Z</time></trkpt><trkpt lat="43.779016" lon="11.208134"><ele>41.0</ele><time>2026-04-26T13:23:46.928Z</time></trkpt><trkpt lat="43.7790298" lon="11.2080177"><ele>41.0</ele><time>2026-04-26T13:23:48.929Z</time></trkpt><trkpt lat="43.7790521" lon="11.2079067"><ele>41.0</ele><time>2026-04-26T13:23:50.929Z</time></trkpt><trkpt lat="43.779072" lon="11.2077951"><ele>41.0</ele><time>2026-04-26T13:23:52.928Z</time></trkpt><trkpt lat="43.7790902" lon="11.207686"><ele>41.0</ele><time>2026-04-26T13:23:54.929Z</time></trkpt><trkpt lat="43.7791101" lon="11.2075712"><ele>41.0</ele><time>2026-04-26T13:23:56.929Z</time></trkpt><trkpt lat="43.7791278" lon="11.2074578"><ele>41.0</ele><time>2026-04-26T13:23:58.927Z</time></trkpt><trkpt lat="43.7791471" lon="11.2073549"><ele>41.0</ele><time>2026-04-26T13:24:00.929Z</time></trkpt><trkpt lat="43.7791628" lon="11.20725"><ele>41.0</ele><time>2026-04-26T13:24:02.928Z</time></trkpt><trkpt lat="43.7791732" lon="11.2071418"><ele>41.0</ele><time>2026-04-26T13:24:04.929Z</time></trkpt><trkpt lat="43.7791877" lon="11.2070341"><ele>41.0</ele><time>2026-04-26T13:24:06.928Z</time></trkpt><trkpt lat="43.7792023" lon="11.2069294"><ele>41.0</ele><time>2026-04-26T13:24:08.929Z</time></trkpt><trkpt lat="43.7792139" lon="11.206825"><ele>40.99999999999999</ele><time>2026-04-26T13:24:10.929Z</time></trkpt><trkpt lat="43.7792297" lon="11.2067266"><ele>41.0</ele><time>2026-04-26T13:24:12.927Z</time></trkpt><trkpt lat="43.7792496" lon="11.2066335"><ele>41.0</ele><time>2026-04-26T13:24:14.929Z</time></trkpt><trkpt lat="43.779267" lon="11.2065387"><ele>41.0</ele><time>2026-04-26T13:24:16.93Z</time></trkpt><trkpt lat="43.7792801" lon="11.2064359"><ele>41.0</ele><time>2026-04-26T13:24:18.928Z</time></trkpt><trkpt lat="43.7792934" lon="11.2063278"><ele>40.99999999999999</ele><time>2026-04-26T13:24:20.929Z</time></trkpt><trkpt lat="43.7793067" lon="11.2062191"><ele>41.0</ele><time>2026-04-26T13:24:22.928Z</time></trkpt><trkpt lat="43.7793288" lon="11.20613"><ele>40.857142857142854</ele><time>2026-04-26T13:24:24.928Z</time></trkpt><trkpt lat="43.7793275" lon="11.2060282"><ele>40.714285714285715</ele><time>2026-04-26T13:24:27.928Z</time></trkpt><trkpt lat="43.7792637" lon="11.2060065"><ele>40.57142857142857</ele><time>2026-04-26T13:24:30.928Z</time></trkpt><trkpt lat="43.7791948" lon="11.2059854"><ele>40.42857142857143</ele><time>2026-04-26T13:24:34.929Z</time></trkpt><trkpt lat="43.7791645" lon="11.2058989"><ele>40.285714285714285</ele><time>2026-04-26T13:24:40.929Z</time></trkpt><trkpt lat="43.7791006" lon="11.2058868"><ele>40.14285714285714</ele><time>2026-04-26T13:28:23.898Z</time></trkpt><trkpt lat="43.7790355" lon="11.2058175"><ele>40.0</ele><time>2026-04-26T13:28:32.927Z</time></trkpt><trkpt lat="43.7789737" lon="11.2058345"><ele>40.0</ele><time>2026-04-26T13:35:34.925Z</time></trkpt></trkseg></trk></gpx>